<?xml version='1.0' encoding='UTF-8'?><gpx version="1.1" creator="JPX - https://github.com/jenetics/jpx" xmlns="http://www.topografix.com/GPX/1/1"><trk><trkseg><trkpt lat="43.58125798930016" lon="3.750137789653923"><ele>60.99999999999999</ele><time>2026-04-26T06:35:37.999Z</time></trkpt><trkpt lat="43.581320113441976" lon="3.75019025489803"><ele>61.0</ele><time>2026-04-26T06:35:40.999Z</time></trkpt><trkpt lat="43.58137091855873" lon="3.7502455917193265"><ele>60.99999999999999</ele><time>2026-04-26T06:35:44.999Z</time></trkpt><trkpt lat="43.58141225260575" lon="3.750327694469858"><ele>60.99999999999999</ele><time>2026-04-26T06:35:47.999Z</time></trkpt><trkpt lat="43.58142314322839" lon="3.7504160443832797"><ele>61.0</ele><time>2026-04-26T06:35:49.999Z</time></trkpt><trkpt lat="43.58145339693094" lon="3.7504923000852104"><ele>60.99999999999999</ele><time>2026-04-26T06:35:51.999Z</time></trkpt><trkpt lat="43.58150572561083" lon="3.750608258184809"><ele>60.99999999999999</ele><time>2026-04-26T06:35:54.999Z</time></trkpt><trkpt lat="43.58154607711294" lon="3.750706517915196"><ele>60.83333333333333</ele><time>2026-04-26T06:35:56.999Z</time></trkpt><trkpt lat="43.581595453169385" lon="3.7507872562134508"><ele>60.666666666666664</ele><time>2026-04-26T06:35:58.999Z</time></trkpt><trkpt lat="43.581635642433845" lon="3.7508886573583538"><ele>60.5</ele><time>2026-04-26T06:36:00.999Z</time></trkpt><trkpt lat="43.58168066247611" lon="3.7509888688802167"><ele>60.33333333333333</ele><time>2026-04-26T06:36:02.999Z</time></trkpt><trkpt lat="43.58173820533882" lon="3.7510987123722055"><ele>60.166666666666664</ele><time>2026-04-26T06:36:04.999Z</time></trkpt><trkpt lat="43.581791798946256" lon="3.751212843132437"><ele>60.0</ele><time>2026-04-26T06:36:06.999Z</time></trkpt><trkpt lat="43.58184203247109" lon="3.7513266926297733"><ele>59.833333333333336</ele><time>2026-04-26T06:36:08.999Z</time></trkpt><trkpt lat="43.58188087392109" lon="3.751434844781782"><ele>59.66666666666667</ele><time>2026-04-26T06:36:10.999Z</time></trkpt><trkpt lat="43.58192757802662" lon="3.7515372924305246"><ele>59.5</ele><time>2026-04-26T06:36:12.999Z</time></trkpt><trkpt lat="43.58197967256366" lon="3.7516492070158116"><ele>59.333333333333336</ele><time>2026-04-26T06:36:14.999Z</time></trkpt><trkpt lat="43.582030494138024" lon="3.7517498715632662"><ele>59.16666666666667</ele><time>2026-04-26T06:36:16.999Z</time></trkpt><trkpt lat="43.58207256118269" lon="3.751857789518929"><ele>59.0</ele><time>2026-04-26T06:36:18.999Z</time></trkpt><trkpt lat="43.58212669082093" lon="3.7519516616789694"><ele>58.50000000000001</ele><time>2026-04-26T06:36:20.999Z</time></trkpt><trkpt lat="43.582173737907674" lon="3.752055880942204"><ele>58.0</ele><time>2026-04-26T06:36:22.999Z</time></trkpt><trkpt lat="43.58221360710596" lon="3.7521580371907266"><ele>57.5</ele><time>2026-04-26T06:36:24.999Z</time></trkpt><trkpt lat="43.58226036691891" lon="3.7522666138587266"><ele>57.0</ele><time>2026-04-26T06:36:26.999Z</time></trkpt><trkpt lat="43.58230112513927" lon="3.752350128701576"><ele>56.50000000000001</ele><time>2026-04-26T06:36:28.999Z</time></trkpt><trkpt lat="43.58233726467973" lon="3.7524789978635322"><ele>56.0</ele><time>2026-04-26T06:36:30.999Z</time></trkpt><trkpt lat="43.58238161405039" lon="3.7525684889528397"><ele>56.0</ele><time>2026-04-26T06:36:32.999Z</time></trkpt><trkpt lat="43.58244234085228" lon="3.7526899243814413"><ele>55.99999999999999</ele><time>2026-04-26T06:36:34.999Z</time></trkpt><trkpt lat="43.58248532437726" lon="3.752805867581662"><ele>55.99999999999999</ele><time>2026-04-26T06:36:36.999Z</time></trkpt><trkpt lat="43.582544275283475" lon="3.7529254343728056"><ele>56.0</ele><time>2026-04-26T06:36:38.999Z</time></trkpt><trkpt lat="43.58259457419879" lon="3.7530337409159586"><ele>56.0</ele><time>2026-04-26T06:36:40.999Z</time></trkpt><trkpt lat="43.58264816923161" lon="3.753155210492345"><ele>55.8</ele><time>2026-04-26T06:36:42.999Z</time></trkpt><trkpt lat="43.58269920959199" lon="3.7532731872486234"><ele>55.599999999999994</ele><time>2026-04-26T06:36:44.999Z</time></trkpt><trkpt lat="43.58274739057684" lon="3.753377055278549"><ele>55.4</ele><time>2026-04-26T06:36:46.999Z</time></trkpt><trkpt lat="43.58280030566793" lon="3.753491874859587"><ele>55.2</ele><time>2026-04-26T06:36:48.999Z</time></trkpt><trkpt lat="43.58284691503434" lon="3.7536113117017735"><ele>55.0</ele><time>2026-04-26T06:36:50.999Z</time></trkpt><trkpt lat="43.582884599678515" lon="3.7537198893566663"><ele>55.0</ele><time>2026-04-26T06:36:52.999Z</time></trkpt><trkpt lat="43.582940102193966" lon="3.753832449003996"><ele>55.0</ele><time>2026-04-26T06:36:54.999Z</time></trkpt><trkpt lat="43.582990574041716" lon="3.753947794581207"><ele>55.0</ele><time>2026-04-26T06:36:56.999Z</time></trkpt><trkpt lat="43.583047214940024" lon="3.7540515805252475"><ele>55.0</ele><time>2026-04-26T06:36:58.999Z</time></trkpt><trkpt lat="43.583094007000966" lon="3.754169924292994"><ele>55.0</ele><time>2026-04-26T06:37:00.999Z</time></trkpt><trkpt lat="43.583142127157" lon="3.7542758301328165"><ele>54.6</ele><time>2026-04-26T06:37:02.999Z</time></trkpt><trkpt lat="43.58319170459233" lon="3.7543836510432884"><ele>54.2</ele><time>2026-04-26T06:37:04.999Z</time></trkpt><trkpt lat="43.58323849744473" lon="3.754506616612133"><ele>53.8</ele><time>2026-04-26T06:37:06.999Z</time></trkpt><trkpt lat="43.58329181428756" lon="3.754609407693012"><ele>53.4</ele><time>2026-04-26T06:37:08.999Z</time></trkpt><trkpt lat="43.58332898630306" lon="3.754712625245726"><ele>53.0</ele><time>2026-04-26T06:37:10.999Z</time></trkpt><trkpt lat="43.58337320922916" lon="3.754809861992307"><ele>53.00000000000001</ele><time>2026-04-26T06:37:12.999Z</time></trkpt><trkpt lat="43.58341891329944" lon="3.7549228093571854"><ele>53.0</ele><time>2026-04-26T06:37:14.999Z</time></trkpt><trkpt lat="43.58345494113506" lon="3.7550107525130083"><ele>53.0</ele><time>2026-04-26T06:37:16.999Z</time></trkpt><trkpt lat="43.583491463465" lon="3.755120005970514"><ele>53.0</ele><time>2026-04-26T06:37:18.999Z</time></trkpt><trkpt lat="43.583495891707294" lon="3.755233186897419"><ele>53.00000000000001</ele><time>2026-04-26T06:37:20.999Z</time></trkpt><trkpt lat="43.5834829434816" lon="3.75533721867359"><ele>53.0</ele><time>2026-04-26T06:37:22.999Z</time></trkpt><trkpt lat="43.583497981770094" lon="3.7554633791610708"><ele>52.833333333333336</ele><time>2026-04-26T06:37:24.999Z</time></trkpt><trkpt lat="43.583572456164596" lon="3.7555387224252677"><ele>52.66666666666667</ele><time>2026-04-26T06:37:26.999Z</time></trkpt><trkpt lat="43.583640431285346" lon="3.755567989681969"><ele>52.5</ele><time>2026-04-26T06:37:28.999Z</time></trkpt><trkpt lat="43.58369373493968" lon="3.7556442076438716"><ele>52.33333333333333</ele><time>2026-04-26T06:37:30.999Z</time></trkpt><trkpt lat="43.58375377500788" lon="3.755727791837169"><ele>52.166666666666664</ele><time>2026-04-26T06:37:32.999Z</time></trkpt><trkpt lat="43.58379908900862" lon="3.755814875694813"><ele>52.0</ele><time>2026-04-26T06:37:34.999Z</time></trkpt><trkpt lat="43.58384933059785" lon="3.755923643606598"><ele>52.33333333333333</ele><time>2026-04-26T06:37:36.999Z</time></trkpt><trkpt lat="43.58389819355952" lon="3.7560189498654664"><ele>52.666666666666664</ele><time>2026-04-26T06:37:38.999Z</time></trkpt><trkpt lat="43.583941623802374" lon="3.756118903689569"><ele>53.0</ele><time>2026-04-26T06:37:40.999Z</time></trkpt><trkpt lat="43.58398427096576" lon="3.7562309486921017"><ele>53.33333333333333</ele><time>2026-04-26T06:37:42.999Z</time></trkpt><trkpt lat="43.584026784687" lon="3.7563493976108084"><ele>53.666666666666664</ele><time>2026-04-26T06:37:44.999Z</time></trkpt><trkpt lat="43.58407295966227" lon="3.7564437194237756"><ele>54.0</ele><time>2026-04-26T06:37:46.999Z</time></trkpt><trkpt lat="43.58411101900089" lon="3.756540355684409"><ele>54.0</ele><time>2026-04-26T06:37:48.999Z</time></trkpt><trkpt lat="43.58416518465869" lon="3.7566413523751483"><ele>54.0</ele><time>2026-04-26T06:37:50.999Z</time></trkpt><trkpt lat="43.584197296927314" lon="3.7567177853585463"><ele>54.0</ele><time>2026-04-26T06:37:52.999Z</time></trkpt><trkpt lat="43.58423534012652" lon="3.7568155620334402"><ele>54.0</ele><time>2026-04-26T06:37:54.999Z</time></trkpt><trkpt lat="43.58427959431973" lon="3.756914324534715"><ele>54.0</ele><time>2026-04-26T06:37:56.999Z</time></trkpt><trkpt lat="43.58432518450276" lon="3.757017792648488"><ele>54.0</ele><time>2026-04-26T06:37:58.999Z</time></trkpt><trkpt lat="43.58436924704133" lon="3.7571166714141926"><ele>53.833333333333336</ele><time>2026-04-26T06:38:00.999Z</time></trkpt><trkpt lat="43.584420650639714" lon="3.7572269500616677"><ele>53.66666666666667</ele><time>2026-04-26T06:38:02.999Z</time></trkpt><trkpt lat="43.584471716061586" lon="3.7573426980380273"><ele>53.5</ele><time>2026-04-26T06:38:04.999Z</time></trkpt><trkpt lat="43.58452388797111" lon="3.757438221476458"><ele>53.333333333333336</ele><time>2026-04-26T06:38:06.999Z</time></trkpt><trkpt lat="43.58457905900629" lon="3.757529470158231"><ele>53.16666666666667</ele><time>2026-04-26T06:38:08.999Z</time></trkpt><trkpt lat="43.5846328099298" lon="3.7576138805115407"><ele>53.0</ele><time>2026-04-26T06:38:10.999Z</time></trkpt><trkpt lat="43.58466630672078" lon="3.757705573347057"><ele>53.333333333333336</ele><time>2026-04-26T06:38:12.999Z</time></trkpt><trkpt lat="43.58470295022092" lon="3.7578062179494056"><ele>53.66666666666667</ele><time>2026-04-26T06:38:14.999Z</time></trkpt><trkpt lat="43.58475218912277" lon="3.757904530728597"><ele>54.0</ele><time>2026-04-26T06:38:16.999Z</time></trkpt><trkpt lat="43.584801185188624" lon="3.758016216011943"><ele>54.33333333333333</ele><time>2026-04-26T06:38:18.999Z</time></trkpt><trkpt lat="43.584845997380185" lon="3.7581084511231877"><ele>54.666666666666664</ele><time>2026-04-26T06:38:20.999Z</time></trkpt><trkpt lat="43.584908422661414" lon="3.7582091940427165"><ele>55.0</ele><time>2026-04-26T06:38:22.999Z</time></trkpt><trkpt lat="43.58494669895016" lon="3.758328232565817"><ele>55.0</ele><time>2026-04-26T06:38:24.999Z</time></trkpt><trkpt lat="43.58500755448978" lon="3.7584206130050033"><ele>55.0</ele><time>2026-04-26T06:38:26.999Z</time></trkpt><trkpt lat="43.58507123656972" lon="3.758517543547282"><ele>55.0</ele><time>2026-04-26T06:38:28.999Z</time></trkpt><trkpt lat="43.58512228283756" lon="3.7586260807942975"><ele>55.0</ele><time>2026-04-26T06:38:30.999Z</time></trkpt><trkpt lat="43.58517630644975" lon="3.7587254208988585"><ele>55.0</ele><time>2026-04-26T06:38:32.999Z</time></trkpt><trkpt lat="43.58523674057167" lon="3.7588333716050326"><ele>54.83333333333333</ele><time>2026-04-26T06:38:34.999Z</time></trkpt><trkpt lat="43.58528554811785" lon="3.758928210240931"><ele>54.666666666666664</ele><time>2026-04-26T06:38:36.999Z</time></trkpt><trkpt lat="43.58533862371497" lon="3.7590117959250664"><ele>54.5</ele><time>2026-04-26T06:38:38.999Z</time></trkpt><trkpt lat="43.58537849960393" lon="3.7591370333094023"><ele>54.33333333333333</ele><time>2026-04-26T06:38:40.999Z</time></trkpt><trkpt lat="43.585426662680945" lon="3.759238358080053"><ele>54.166666666666664</ele><time>2026-04-26T06:38:42.999Z</time></trkpt><trkpt lat="43.585468660918565" lon="3.7593468185531798"><ele>54.0</ele><time>2026-04-26T06:38:44.999Z</time></trkpt><trkpt lat="43.58551996367312" lon="3.759451640015513"><ele>54.0</ele><time>2026-04-26T06:38:46.999Z</time></trkpt><trkpt lat="43.585561511448844" lon="3.759538003615996"><ele>54.0</ele><time>2026-04-26T06:38:48.999Z</time></trkpt><trkpt lat="43.58560938225106" lon="3.759671459174361"><ele>54.0</ele><time>2026-04-26T06:38:50.999Z</time></trkpt><trkpt lat="43.58566197146689" lon="3.7597688794927153"><ele>54.0</ele><time>2026-04-26T06:38:52.999Z</time></trkpt><trkpt lat="43.58570309926095" lon="3.759871929919393"><ele>54.0</ele><time>2026-04-26T06:38:54.999Z</time></trkpt><trkpt lat="43.58576274457534" lon="3.7599690129093877"><ele>54.0</ele><time>2026-04-26T06:38:56.999Z</time></trkpt><trkpt lat="43.585802005034076" lon="3.7600513636084294"><ele>54.0</ele><time>2026-04-26T06:38:58.999Z</time></trkpt><trkpt lat="43.58583763851833" lon="3.7601710475771557"><ele>54.00000000000001</ele><time>2026-04-26T06:39:00.999Z</time></trkpt><trkpt lat="43.58581242559085" lon="3.7602859183395814"><ele>54.00000000000001</ele><time>2026-04-26T06:39:02.999Z</time></trkpt><trkpt lat="43.58577485166269" lon="3.7604096901572754"><ele>54.0</ele><time>2026-04-26T06:39:04.999Z</time></trkpt><trkpt lat="43.585724013050715" lon="3.7605355649426335"><ele>54.0</ele><time>2026-04-26T06:39:06.999Z</time></trkpt><trkpt lat="43.58575446835899" lon="3.7606665738161085"><ele>53.6</ele><time>2026-04-26T06:39:08.999Z</time></trkpt><trkpt lat="43.5858296150294" lon="3.760718224837248"><ele>53.2</ele><time>2026-04-26T06:39:10.999Z</time></trkpt><trkpt lat="43.58589735644425" lon="3.7608059410181163"><ele>52.800000000000004</ele><time>2026-04-26T06:39:12.999Z</time></trkpt><trkpt lat="43.58596590521987" lon="3.7609029866028636"><ele>52.400000000000006</ele><time>2026-04-26T06:39:14.999Z</time></trkpt><trkpt lat="43.58603137545873" lon="3.761017986146449"><ele>52.0</ele><time>2026-04-26T06:39:16.999Z</time></trkpt><trkpt lat="43.58609073632703" lon="3.7611290385194738"><ele>51.8</ele><time>2026-04-26T06:39:18.999Z</time></trkpt><trkpt lat="43.5861527811724" lon="3.7612395932145075"><ele>51.6</ele><time>2026-04-26T06:39:20.999Z</time></trkpt><trkpt lat="43.58620451217842" lon="3.76135230211831"><ele>51.4</ele><time>2026-04-26T06:39:22.999Z</time></trkpt><trkpt lat="43.58625561146006" lon="3.761466335978856"><ele>51.199999999999996</ele><time>2026-04-26T06:39:24.999Z</time></trkpt><trkpt lat="43.58631755695871" lon="3.7615612343376505"><ele>51.0</ele><time>2026-04-26T06:39:26.999Z</time></trkpt><trkpt lat="43.58637345014733" lon="3.7616622969515268"><ele>50.8</ele><time>2026-04-26T06:39:28.999Z</time></trkpt><trkpt lat="43.58642079974395" lon="3.761779684857688"><ele>50.599999999999994</ele><time>2026-04-26T06:39:30.999Z</time></trkpt><trkpt lat="43.5864726469773" lon="3.761885875941332"><ele>50.4</ele><time>2026-04-26T06:39:32.999Z</time></trkpt><trkpt lat="43.58652101209815" lon="3.761983682829615"><ele>50.2</ele><time>2026-04-26T06:39:34.999Z</time></trkpt><trkpt lat="43.58657375812141" lon="3.7620925062673316"><ele>50.0</ele><time>2026-04-26T06:39:36.999Z</time></trkpt><trkpt lat="43.586626773540765" lon="3.762196490000408"><ele>50.0</ele><time>2026-04-26T06:39:38.999Z</time></trkpt><trkpt lat="43.58667369910679" lon="3.762302168188491"><ele>50.0</ele><time>2026-04-26T06:39:40.999Z</time></trkpt><trkpt lat="43.58673701397203" lon="3.762419858200902"><ele>50.0</ele><time>2026-04-26T06:39:42.999Z</time></trkpt><trkpt lat="43.586793492888035" lon="3.762535323705021"><ele>50.0</ele><time>2026-04-26T06:39:44.999Z</time></trkpt><trkpt lat="43.58683456817062" lon="3.7626502652042224"><ele>50.0</ele><time>2026-04-26T06:39:46.999Z</time></trkpt><trkpt lat="43.58688904179136" lon="3.7627528110911923"><ele>49.6</ele><time>2026-04-26T06:39:48.999Z</time></trkpt><trkpt lat="43.586943143550506" lon="3.7628525923454115"><ele>49.2</ele><time>2026-04-26T06:39:50.999Z</time></trkpt><trkpt lat="43.58698803095248" lon="3.7629869773392377"><ele>48.8</ele><time>2026-04-26T06:39:52.999Z</time></trkpt><trkpt lat="43.58702803257354" lon="3.763104778039528"><ele>48.4</ele><time>2026-04-26T06:39:54.999Z</time></trkpt><trkpt lat="43.587057744408426" lon="3.7632245664290638"><ele>48.0</ele><time>2026-04-26T06:39:56.999Z</time></trkpt><trkpt lat="43.58710614934255" lon="3.7633352371779836"><ele>48.666666666666664</ele><time>2026-04-26T06:39:58.999Z</time></trkpt><trkpt lat="43.58714697957618" lon="3.763439077646679"><ele>49.33333333333333</ele><time>2026-04-26T06:40:00.999Z</time></trkpt><trkpt lat="43.58719771606311" lon="3.7635436107193336"><ele>50.0</ele><time>2026-04-26T06:40:02.999Z</time></trkpt><trkpt lat="43.58724963955965" lon="3.763651458444977"><ele>50.666666666666664</ele><time>2026-04-26T06:40:04.999Z</time></trkpt><trkpt lat="43.58730348436394" lon="3.7637606173158087"><ele>51.33333333333333</ele><time>2026-04-26T06:40:06.999Z</time></trkpt><trkpt lat="43.58734099040778" lon="3.7638607858034168"><ele>52.0</ele><time>2026-04-26T06:40:08.999Z</time></trkpt><trkpt lat="43.58740907939002" lon="3.763978564100112"><ele>52.0</ele><time>2026-04-26T06:40:10.999Z</time></trkpt><trkpt lat="43.5874450025686" lon="3.7640803504357216"><ele>52.0</ele><time>2026-04-26T06:40:12.999Z</time></trkpt><trkpt lat="43.587491111277686" lon="3.764206023462715"><ele>52.0</ele><time>2026-04-26T06:40:14.999Z</time></trkpt><trkpt lat="43.587541919438905" lon="3.7643190898506016"><ele>52.0</ele><time>2026-04-26T06:40:16.999Z</time></trkpt><trkpt lat="43.58760426797238" lon="3.7644347482045823"><ele>52.0</ele><time>2026-04-26T06:40:18.999Z</time></trkpt><trkpt lat="43.58764626060836" lon="3.7645461677647716"><ele>51.8</ele><time>2026-04-26T06:40:20.999Z</time></trkpt><trkpt lat="43.58769525374507" lon="3.7646615210065635"><ele>51.6</ele><time>2026-04-26T06:40:22.999Z</time></trkpt><trkpt lat="43.587753486926" lon="3.7647547033933635"><ele>51.4</ele><time>2026-04-26T06:40:24.999Z</time></trkpt><trkpt lat="43.587797153756064" lon="3.7648616016722625"><ele>51.199999999999996</ele><time>2026-04-26T06:40:26.999Z</time></trkpt><trkpt lat="43.587834831757384" lon="3.7649654334474585"><ele>51.0</ele><time>2026-04-26T06:40:28.999Z</time></trkpt><trkpt lat="43.587876384962236" lon="3.765077273924089"><ele>51.0</ele><time>2026-04-26T06:40:30.999Z</time></trkpt><trkpt lat="43.58793001664846" lon="3.765195230357269"><ele>51.0</ele><time>2026-04-26T06:40:32.999Z</time></trkpt><trkpt lat="43.58798247142616" lon="3.765301316546898"><ele>51.0</ele><time>2026-04-26T06:40:34.999Z</time></trkpt><trkpt lat="43.58804051307417" lon="3.765427290729811"><ele>51.0</ele><time>2026-04-26T06:40:36.999Z</time></trkpt><trkpt lat="43.58808614595333" lon="3.765552483520114"><ele>51.0</ele><time>2026-04-26T06:40:38.999Z</time></trkpt><trkpt lat="43.588131365592844" lon="3.7656626048016264"><ele>50.599999999999994</ele><time>2026-04-26T06:40:40.999Z</time></trkpt><trkpt lat="43.588179672490035" lon="3.7657685974891137"><ele>50.2</ele><time>2026-04-26T06:40:42.999Z</time></trkpt><trkpt lat="43.58821759021821" lon="3.7659024123185794"><ele>49.8</ele><time>2026-04-26T06:40:44.999Z</time></trkpt><trkpt lat="43.58825758626678" lon="3.766010372555785"><ele>49.400000000000006</ele><time>2026-04-26T06:40:46.999Z</time></trkpt><trkpt lat="43.58829374038162" lon="3.7661299717593337"><ele>49.0</ele><time>2026-04-26T06:40:48.999Z</time></trkpt><trkpt lat="43.58833083449868" lon="3.766242207276877"><ele>48.99999999999999</ele><time>2026-04-26T06:40:50.999Z</time></trkpt><trkpt lat="43.5883682832831" lon="3.7663635358084053"><ele>49.0</ele><time>2026-04-26T06:40:52.999Z</time></trkpt><trkpt lat="43.58838854802168" lon="3.7664838239240366"><ele>49.0</ele><time>2026-04-26T06:40:54.999Z</time></trkpt><trkpt lat="43.588407466437175" lon="3.766598433129104"><ele>49.0</ele><time>2026-04-26T06:40:56.999Z</time></trkpt><trkpt lat="43.58843217341981" lon="3.766723153692823"><ele>48.99999999999999</ele><time>2026-04-26T06:40:58.999Z</time></trkpt><trkpt lat="43.588438476646594" lon="3.7668396395008084"><ele>49.0</ele><time>2026-04-26T06:41:00.999Z</time></trkpt><trkpt lat="43.588454097016296" lon="3.766976894710454"><ele>48.83333333333333</ele><time>2026-04-26T06:41:02.999Z</time></trkpt><trkpt lat="43.588454486261234" lon="3.767102807269434"><ele>48.666666666666664</ele><time>2026-04-26T06:41:04.999Z</time></trkpt><trkpt lat="43.58847059237158" lon="3.7672325537502633"><ele>48.5</ele><time>2026-04-26T06:41:06.999Z</time></trkpt><trkpt lat="43.58848482920095" lon="3.767355641572385"><ele>48.33333333333333</ele><time>2026-04-26T06:41:08.999Z</time></trkpt><trkpt lat="43.58849225109547" lon="3.7674933665290666"><ele>48.166666666666664</ele><time>2026-04-26T06:41:10.999Z</time></trkpt><trkpt lat="43.58847770907371" lon="3.767589409818914"><ele>48.0</ele><time>2026-04-26T06:41:12.999Z</time></trkpt><trkpt lat="43.588459780826796" lon="3.7677330933445194"><ele>47.666666666666664</ele><time>2026-04-26T06:41:14.999Z</time></trkpt><trkpt lat="43.58848121477442" lon="3.7678322206245913"><ele>47.333333333333336</ele><time>2026-04-26T06:41:16.999Z</time></trkpt><trkpt lat="43.588474393113536" lon="3.767958572162438"><ele>47.0</ele><time>2026-04-26T06:41:18.999Z</time></trkpt><trkpt lat="43.58847352537531" lon="3.768080571236996"><ele>46.66666666666667</ele><time>2026-04-26T06:41:20.999Z</time></trkpt><trkpt lat="43.588456802763844" lon="3.7681950445601915"><ele>46.333333333333336</ele><time>2026-04-26T06:41:22.999Z</time></trkpt><trkpt lat="43.58844255701912" lon="3.7683091628127885"><ele>46.0</ele><time>2026-04-26T06:41:24.999Z</time></trkpt><trkpt lat="43.58842281645129" lon="3.7684297602915464"><ele>46.0</ele><time>2026-04-26T06:41:26.999Z</time></trkpt><trkpt lat="43.58840193096135" lon="3.768541653403931"><ele>46.0</ele><time>2026-04-26T06:41:28.999Z</time></trkpt><trkpt lat="43.58838988482493" lon="3.7686531838263675"><ele>46.0</ele><time>2026-04-26T06:41:30.999Z</time></trkpt><trkpt lat="43.58835445929523" lon="3.768766220174769"><ele>46.0</ele><time>2026-04-26T06:41:32.999Z</time></trkpt><trkpt lat="43.5883350715591" lon="3.768869651450987"><ele>46.0</ele><time>2026-04-26T06:41:34.999Z</time></trkpt><trkpt lat="43.5883123849932" lon="3.7689859710506672"><ele>46.0</ele><time>2026-04-26T06:41:36.999Z</time></trkpt><trkpt lat="43.588290277282944" lon="3.769102293490572"><ele>46.0</ele><time>2026-04-26T06:41:38.999Z</time></trkpt><trkpt lat="43.58826645571688" lon="3.769204534853088"><ele>46.0</ele><time>2026-04-26T06:41:40.999Z</time></trkpt><trkpt lat="43.58826076578105" lon="3.7693168662714998"><ele>46.0</ele><time>2026-04-26T06:41:42.999Z</time></trkpt><trkpt lat="43.58823077017332" lon="3.7694152417923865"><ele>46.0</ele><time>2026-04-26T06:41:44.999Z</time></trkpt><trkpt lat="43.58821335409982" lon="3.769513973590278"><ele>46.0</ele><time>2026-04-26T06:41:46.999Z</time></trkpt><trkpt lat="43.58819267967428" lon="3.7696123181596333"><ele>46.0</ele><time>2026-04-26T06:41:48.999Z</time></trkpt><trkpt lat="43.58816089568823" lon="3.7696904940899905"><ele>46.0</ele><time>2026-04-26T06:41:50.999Z</time></trkpt><trkpt lat="43.588140988852615" lon="3.769782321175296"><ele>46.333333333333336</ele><time>2026-04-26T06:41:52.999Z</time></trkpt><trkpt lat="43.588124704190875" lon="3.7699067149257393"><ele>46.66666666666667</ele><time>2026-04-26T06:41:55.999Z</time></trkpt><trkpt lat="43.5881100047108" lon="3.7700091087155947"><ele>47.0</ele><time>2026-04-26T06:41:58.999Z</time></trkpt><trkpt lat="43.588092926158716" lon="3.770102637867155"><ele>47.333333333333336</ele><time>2026-04-26T06:42:01.999Z</time></trkpt><trkpt lat="43.588072809080415" lon="3.77020255713996"><ele>47.666666666666664</ele><time>2026-04-26T06:42:04.999Z</time></trkpt><trkpt lat="43.5880473701641" lon="3.7703072978869687"><ele>48.0</ele><time>2026-04-26T06:42:07.999Z</time></trkpt><trkpt lat="43.58802121337565" lon="3.770414956141882"><ele>48.166666666666664</ele><time>2026-04-26T06:42:10.999Z</time></trkpt><trkpt lat="43.58799430325928" lon="3.770515319332763"><ele>48.33333333333333</ele><time>2026-04-26T06:42:13.999Z</time></trkpt><trkpt lat="43.58795929619932" lon="3.7706262164746662"><ele>48.5</ele><time>2026-04-26T06:42:16.999Z</time></trkpt><trkpt lat="43.5879413762097" lon="3.770737524141109"><ele>48.666666666666664</ele><time>2026-04-26T06:42:19.999Z</time></trkpt><trkpt lat="43.587938498406054" lon="3.770828460567598"><ele>48.83333333333333</ele><time>2026-04-26T06:42:21.999Z</time></trkpt><trkpt lat="43.5879130296799" lon="3.770924433251067"><ele>49.0</ele><time>2026-04-26T06:42:23.999Z</time></trkpt><trkpt lat="43.58789657986874" lon="3.7710334045290557"><ele>48.83333333333333</ele><time>2026-04-26T06:42:26.999Z</time></trkpt><trkpt lat="43.587865267281025" lon="3.7711413431341145"><ele>48.666666666666664</ele><time>2026-04-26T06:42:29.999Z</time></trkpt><trkpt lat="43.58785265419084" lon="3.77125341749732"><ele>48.5</ele><time>2026-04-26T06:42:32.999Z</time></trkpt><trkpt lat="43.58782201227573" lon="3.7713492158845225"><ele>48.33333333333333</ele><time>2026-04-26T06:42:34.999Z</time></trkpt><trkpt lat="43.587783352328465" lon="3.771461356020983"><ele>48.166666666666664</ele><time>2026-04-26T06:42:36.999Z</time></trkpt><trkpt lat="43.58776653265433" lon="3.7715602993607176"><ele>48.0</ele><time>2026-04-26T06:42:38.999Z</time></trkpt><trkpt lat="43.587739832321624" lon="3.771678398629473"><ele>48.0</ele><time>2026-04-26T06:42:40.999Z</time></trkpt><trkpt lat="43.58772459653835" lon="3.7717829610420064"><ele>48.0</ele><time>2026-04-26T06:42:42.998Z</time></trkpt><trkpt lat="43.587708916249056" lon="3.77189869827973"><ele>48.0</ele><time>2026-04-26T06:42:44.998Z</time></trkpt><trkpt lat="43.587676895485" lon="3.7720171749338354"><ele>48.0</ele><time>2026-04-26T06:42:46.998Z</time></trkpt><trkpt lat="43.58764257721609" lon="3.7721350284372606"><ele>48.0</ele><time>2026-04-26T06:42:48.998Z</time></trkpt><trkpt lat="43.587615677198094" lon="3.7722466758175397"><ele>48.0</ele><time>2026-04-26T06:42:50.998Z</time></trkpt><trkpt lat="43.587587972387276" lon="3.772366742408995"><ele>47.833333333333336</ele><time>2026-04-26T06:42:52.998Z</time></trkpt><trkpt lat="43.587559272876426" lon="3.772480409785568"><ele>47.666666666666664</ele><time>2026-04-26T06:42:54.998Z</time></trkpt><trkpt lat="43.5875329020547" lon="3.772602941739863"><ele>47.5</ele><time>2026-04-26T06:42:56.998Z</time></trkpt><trkpt lat="43.58750661633279" lon="3.772714150716122"><ele>47.33333333333333</ele><time>2026-04-26T06:42:58.998Z</time></trkpt><trkpt lat="43.58747587723481" lon="3.772839525977954"><ele>47.166666666666664</ele><time>2026-04-26T06:43:00.998Z</time></trkpt><trkpt lat="43.58744163842754" lon="3.7729499631472967"><ele>47.0</ele><time>2026-04-26T06:43:02.998Z</time></trkpt><trkpt lat="43.587410647609694" lon="3.773062863744669"><ele>46.6</ele><time>2026-04-26T06:43:04.998Z</time></trkpt><trkpt lat="43.5873747000058" lon="3.7731888132732414"><ele>46.2</ele><time>2026-04-26T06:43:06.998Z</time></trkpt><trkpt lat="43.587349409079884" lon="3.773298963953271"><ele>45.8</ele><time>2026-04-26T06:43:08.998Z</time></trkpt><trkpt lat="43.58731482113257" lon="3.77341305633502"><ele>45.4</ele><time>2026-04-26T06:43:10.998Z</time></trkpt><trkpt lat="43.58728641932781" lon="3.7735290687488448"><ele>45.0</ele><time>2026-04-26T06:43:12.998Z</time></trkpt><trkpt lat="43.587262599497265" lon="3.7736509108324587"><ele>45.0</ele><time>2026-04-26T06:43:14.998Z</time></trkpt><trkpt lat="43.58722712784589" lon="3.7737764751286695"><ele>45.0</ele><time>2026-04-26T06:43:16.998Z</time></trkpt><trkpt lat="43.58720990675221" lon="3.773896482584279"><ele>45.0</ele><time>2026-04-26T06:43:18.998Z</time></trkpt><trkpt lat="43.58717236352085" lon="3.774030979179321"><ele>45.0</ele><time>2026-04-26T06:43:20.998Z</time></trkpt><trkpt lat="43.587140096669934" lon="3.774156651915081"><ele>45.0</ele><time>2026-04-26T06:43:22.998Z</time></trkpt><trkpt lat="43.587096701436515" lon="3.774303250971448"><ele>45.0</ele><time>2026-04-26T06:43:24.998Z</time></trkpt><trkpt lat="43.58707339445168" lon="3.7744055328621093"><ele>45.0</ele><time>2026-04-26T06:43:26.998Z</time></trkpt><trkpt lat="43.58702871875925" lon="3.7745348075385348"><ele>45.0</ele><time>2026-04-26T06:43:28.998Z</time></trkpt><trkpt lat="43.58700130606279" lon="3.7746720072040163"><ele>45.0</ele><time>2026-04-26T06:43:30.998Z</time></trkpt><trkpt lat="43.586963870213346" lon="3.7747940116168586"><ele>45.0</ele><time>2026-04-26T06:43:32.998Z</time></trkpt><trkpt lat="43.58693204524812" lon="3.7749028275985888"><ele>44.833333333333336</ele><time>2026-04-26T06:43:34.998Z</time></trkpt><trkpt lat="43.586899270518735" lon="3.775013017200083"><ele>44.666666666666664</ele><time>2026-04-26T06:43:36.998Z</time></trkpt><trkpt lat="43.58685080156168" lon="3.7751186850599665"><ele>44.5</ele><time>2026-04-26T06:43:38.998Z</time></trkpt><trkpt lat="43.58680162919903" lon="3.775216960132806"><ele>44.33333333333333</ele><time>2026-04-26T06:43:40.998Z</time></trkpt><trkpt lat="43.58676219110996" lon="3.7753187218286834"><ele>44.166666666666664</ele><time>2026-04-26T06:43:42.998Z</time></trkpt><trkpt lat="43.58671402084323" lon="3.775414420308734"><ele>44.0</ele><time>2026-04-26T06:43:44.998Z</time></trkpt><trkpt lat="43.58666663879289" lon="3.775517813967486"><ele>44.0</ele><time>2026-04-26T06:43:46.998Z</time></trkpt><trkpt lat="43.58662605183738" lon="3.7756270212280243"><ele>44.0</ele><time>2026-04-26T06:43:48.998Z</time></trkpt><trkpt lat="43.5865670604056" lon="3.775743441223048"><ele>44.0</ele><time>2026-04-26T06:43:50.998Z</time></trkpt><trkpt lat="43.586515144361165" lon="3.7758655024746575"><ele>44.0</ele><time>2026-04-26T06:43:52.998Z</time></trkpt><trkpt lat="43.586452868119316" lon="3.775977243768737"><ele>44.0</ele><time>2026-04-26T06:43:54.998Z</time></trkpt><trkpt lat="43.586396411156066" lon="3.776085128622005"><ele>43.800000000000004</ele><time>2026-04-26T06:43:56.998Z</time></trkpt><trkpt lat="43.58634200436696" lon="3.7761941666187226"><ele>43.6</ele><time>2026-04-26T06:43:58.998Z</time></trkpt><trkpt lat="43.58628410342806" lon="3.776309854255917"><ele>43.4</ele><time>2026-04-26T06:44:00.998Z</time></trkpt><trkpt lat="43.586228552489935" lon="3.776424242273585"><ele>43.2</ele><time>2026-04-26T06:44:02.998Z</time></trkpt><trkpt lat="43.5861680073964" lon="3.7765299530175307"><ele>43.0</ele><time>2026-04-26T06:44:04.998Z</time></trkpt><trkpt lat="43.58611154433598" lon="3.7766512936110126"><ele>42.599999999999994</ele><time>2026-04-26T06:44:06.998Z</time></trkpt><trkpt lat="43.58605340649401" lon="3.7767627481103383"><ele>42.199999999999996</ele><time>2026-04-26T06:44:08.998Z</time></trkpt><trkpt lat="43.58599070218954" lon="3.77687732137336"><ele>41.8</ele><time>2026-04-26T06:44:10.998Z</time></trkpt><trkpt lat="43.58593109524473" lon="3.776987810821724"><ele>41.4</ele><time>2026-04-26T06:44:12.998Z</time></trkpt><trkpt lat="43.585873877291704" lon="3.7771038919163207"><ele>41.0</ele><time>2026-04-26T06:44:14.998Z</time></trkpt><trkpt lat="43.585809188799665" lon="3.7772227568746803"><ele>40.8</ele><time>2026-04-26T06:44:16.998Z</time></trkpt><trkpt lat="43.58575025430362" lon="3.7773297501945073"><ele>40.599999999999994</ele><time>2026-04-26T06:44:18.998Z</time></trkpt><trkpt lat="43.585686602743245" lon="3.777434109329798"><ele>40.4</ele><time>2026-04-26T06:44:20.998Z</time></trkpt><trkpt lat="43.58562842195567" lon="3.7775504244960407"><ele>40.2</ele><time>2026-04-26T06:44:22.998Z</time></trkpt><trkpt lat="43.58558623993391" lon="3.7776503020672183"><ele>40.0</ele><time>2026-04-26T06:44:24.998Z</time></trkpt><trkpt lat="43.58552787892192" lon="3.777770614279158"><ele>40.0</ele><time>2026-04-26T06:44:26.998Z</time></trkpt><trkpt lat="43.58547546384109" lon="3.7778935846297474"><ele>40.0</ele><time>2026-04-26T06:44:28.998Z</time></trkpt><trkpt lat="43.585422226357664" lon="3.778004838909776"><ele>40.0</ele><time>2026-04-26T06:44:30.998Z</time></trkpt><trkpt lat="43.585376725083414" lon="3.7781241085033574"><ele>40.0</ele><time>2026-04-26T06:44:32.998Z</time></trkpt><trkpt lat="43.5853281451109" lon="3.778234767904092"><ele>40.0</ele><time>2026-04-26T06:44:34.998Z</time></trkpt><trkpt lat="43.585280263867865" lon="3.7783518681646364"><ele>39.66666666666667</ele><time>2026-04-26T06:44:36.998Z</time></trkpt><trkpt lat="43.58524163822537" lon="3.7784632985437905"><ele>39.333333333333336</ele><time>2026-04-26T06:44:38.998Z</time></trkpt><trkpt lat="43.58519773632237" lon="3.778574184899149"><ele>39.0</ele><time>2026-04-26T06:44:40.998Z</time></trkpt><trkpt lat="43.585155832940565" lon="3.7786855264794252"><ele>38.666666666666664</ele><time>2026-04-26T06:44:42.998Z</time></trkpt><trkpt lat="43.58512803608372" lon="3.7787908365403093"><ele>38.33333333333333</ele><time>2026-04-26T06:44:44.998Z</time></trkpt><trkpt lat="43.585102630659385" lon="3.7788896755571835"><ele>38.0</ele><time>2026-04-26T06:44:46.998Z</time></trkpt><trkpt lat="43.58507813737477" lon="3.77898111251099"><ele>38.0</ele><time>2026-04-26T06:44:48.998Z</time></trkpt><trkpt lat="43.585047343677594" lon="3.77909721086969"><ele>38.0</ele><time>2026-04-26T06:44:51.998Z</time></trkpt><trkpt lat="43.58504021694478" lon="3.779211027992234"><ele>38.0</ele><time>2026-04-26T06:44:53.998Z</time></trkpt><trkpt lat="43.585007324631746" lon="3.779315502636305"><ele>38.0</ele><time>2026-04-26T06:44:55.998Z</time></trkpt><trkpt lat="43.58498690034012" lon="3.7794433858332575"><ele>38.0</ele><time>2026-04-26T06:44:57.998Z</time></trkpt><trkpt lat="43.58497458075078" lon="3.7795676487477206"><ele>38.0</ele><time>2026-04-26T06:44:59.998Z</time></trkpt><trkpt lat="43.58495807906433" lon="3.7796996243648087"><ele>38.0</ele><time>2026-04-26T06:45:01.998Z</time></trkpt><trkpt lat="43.58494048395258" lon="3.7798040115234173"><ele>38.0</ele><time>2026-04-26T06:45:03.998Z</time></trkpt><trkpt lat="43.58492499570165" lon="3.779924420067715"><ele>38.0</ele><time>2026-04-26T06:45:05.998Z</time></trkpt><trkpt lat="43.584911797111296" lon="3.7800377717593148"><ele>38.0</ele><time>2026-04-26T06:45:07.998Z</time></trkpt><trkpt lat="43.58490280305543" lon="3.7801449297495733"><ele>38.0</ele><time>2026-04-26T06:45:09.998Z</time></trkpt><trkpt lat="43.5848980122678" lon="3.7802660374767925"><ele>38.0</ele><time>2026-04-26T06:45:11.998Z</time></trkpt><trkpt lat="43.58489603275555" lon="3.7803709107226826"><ele>38.0</ele><time>2026-04-26T06:45:13.998Z</time></trkpt><trkpt lat="43.5848962199356" lon="3.7804865964781382"><ele>38.0</ele><time>2026-04-26T06:45:15.998Z</time></trkpt><trkpt lat="43.58490119076973" lon="3.780605888324392"><ele>38.0</ele><time>2026-04-26T06:45:17.998Z</time></trkpt><trkpt lat="43.58489796879517" lon="3.7807121244599555"><ele>38.0</ele><time>2026-04-26T06:45:19.998Z</time></trkpt><trkpt lat="43.58489819952466" lon="3.7808234024391627"><ele>38.0</ele><time>2026-04-26T06:45:21.998Z</time></trkpt><trkpt lat="43.584895507280386" lon="3.7809399326749413"><ele>38.0</ele><time>2026-04-26T06:45:23.998Z</time></trkpt><trkpt lat="43.58489398111068" lon="3.7810496990261617"><ele>38.5</ele><time>2026-04-26T06:45:25.998Z</time></trkpt><trkpt lat="43.584892866279084" lon="3.781162731414556"><ele>39.0</ele><time>2026-04-26T06:45:27.998Z</time></trkpt><trkpt lat="43.58489058261866" lon="3.7812696205927807"><ele>39.5</ele><time>2026-04-26T06:45:29.998Z</time></trkpt><trkpt lat="43.58490056775041" lon="3.781382138570075"><ele>40.0</ele><time>2026-04-26T06:45:31.998Z</time></trkpt><trkpt lat="43.58490086962868" lon="3.7814868920097124"><ele>40.5</ele><time>2026-04-26T06:45:33.998Z</time></trkpt><trkpt lat="43.58489724696827" lon="3.7815967618729553"><ele>41.0</ele><time>2026-04-26T06:45:35.998Z</time></trkpt><trkpt lat="43.58489266379133" lon="3.78169156056541"><ele>40.99999999999999</ele><time>2026-04-26T06:45:37.998Z</time></trkpt><trkpt lat="43.58489297679437" lon="3.7817821924103505"><ele>41.0</ele><time>2026-04-26T06:45:39.998Z</time></trkpt><trkpt lat="43.58489494101658" lon="3.78187493592136"><ele>41.0</ele><time>2026-04-26T06:45:41.998Z</time></trkpt><trkpt lat="43.58489183160946" lon="3.7819626533078177"><ele>41.0</ele><time>2026-04-26T06:45:43.998Z</time></trkpt><trkpt lat="43.5848993555098" lon="3.7820619588101496"><ele>41.0</ele><time>2026-04-26T06:45:45.998Z</time></trkpt><trkpt lat="43.584895919418685" lon="3.782156765404389"><ele>40.99999999999999</ele><time>2026-04-26T06:45:47.998Z</time></trkpt><trkpt lat="43.58491925678781" lon="3.782238724495823"><ele>41.0</ele><time>2026-04-26T06:45:49.998Z</time></trkpt><trkpt lat="43.584969208869914" lon="3.782311829131707"><ele>41.285714285714285</ele><time>2026-04-26T06:45:52.998Z</time></trkpt><trkpt lat="43.58500611806598" lon="3.78240085567665"><ele>41.57142857142857</ele><time>2026-04-26T06:45:55.998Z</time></trkpt><trkpt lat="43.585072012102074" lon="3.7824489624883175"><ele>41.85714285714286</ele><time>2026-04-26T06:45:58.998Z</time></trkpt><trkpt lat="43.585115166688006" lon="3.7825221139407352"><ele>42.14285714285714</ele><time>2026-04-26T06:46:01.998Z</time></trkpt><trkpt lat="43.5851520385214" lon="3.7826251764187986"><ele>42.42857142857143</ele><time>2026-04-26T06:46:05.998Z</time></trkpt><trkpt lat="43.58521230863252" lon="3.782673813571011"><ele>42.714285714285715</ele><time>2026-04-26T06:46:08.998Z</time></trkpt><trkpt lat="43.58528188329262" lon="3.782707294738631"><ele>43.0</ele><time>2026-04-26T06:46:10.998Z</time></trkpt><trkpt lat="43.58535362047621" lon="3.7826917214573585"><ele>44.142857142857146</ele><time>2026-04-26T06:46:13.998Z</time></trkpt><trkpt lat="43.58542922310162" lon="3.7827006259131197"><ele>45.285714285714285</ele><time>2026-04-26T06:46:16.998Z</time></trkpt><trkpt lat="43.58551251377955" lon="3.782695655557848"><ele>46.42857142857143</ele><time>2026-04-26T06:46:20.998Z</time></trkpt><trkpt lat="43.585579738213085" lon="3.7826768759225624"><ele>47.57142857142857</ele><time>2026-04-26T06:46:23.998Z</time></trkpt><trkpt lat="43.5856438515995" lon="3.7826460453181787"><ele>48.714285714285715</ele><time>2026-04-26T06:46:26.998Z</time></trkpt><trkpt lat="43.58570995691085" lon="3.782583818804847"><ele>49.85714285714286</ele><time>2026-04-26T06:46:30.998Z</time></trkpt><trkpt lat="43.58577691162884" lon="3.7825591332240176"><ele>51.0</ele><time>2026-04-26T06:46:33.998Z</time></trkpt><trkpt lat="43.58584312379728" lon="3.78250958975284"><ele>51.0</ele><time>2026-04-26T06:46:36.998Z</time></trkpt><trkpt lat="43.58590617871122" lon="3.7825128306538587"><ele>51.0</ele><time>2026-04-26T06:46:38.998Z</time></trkpt><trkpt lat="43.585978347993326" lon="3.782546288145029"><ele>51.0</ele><time>2026-04-26T06:46:41.998Z</time></trkpt><trkpt lat="43.58601970883283" lon="3.782622551631479"><ele>51.0</ele><time>2026-04-26T06:46:44.998Z</time></trkpt><trkpt lat="43.5860989641894" lon="3.782632182539957"><ele>51.0</ele><time>2026-04-26T06:46:47.998Z</time></trkpt><trkpt lat="43.58616823397876" lon="3.7826719542586673"><ele>51.0</ele><time>2026-04-26T06:46:50.998Z</time></trkpt><trkpt lat="43.58622967289943" lon="3.782762021604685"><ele>51.285714285714285</ele><time>2026-04-26T06:46:53.998Z</time></trkpt><trkpt lat="43.586298560466616" lon="3.7828326038903994"><ele>51.57142857142857</ele><time>2026-04-26T06:46:56.998Z</time></trkpt><trkpt lat="43.58636508819021" lon="3.782848256061792"><ele>51.85714285714286</ele><time>2026-04-26T06:46:58.998Z</time></trkpt><trkpt lat="43.586432193400476" lon="3.782822197732926"><ele>52.14285714285714</ele><time>2026-04-26T06:47:01.998Z</time></trkpt><trkpt lat="43.58649650991111" lon="3.78283058523604"><ele>52.42857142857142</ele><time>2026-04-26T06:47:05.998Z</time></trkpt><trkpt lat="43.586566906753056" lon="3.782887004500437"><ele>52.714285714285715</ele><time>2026-04-26T06:47:08.998Z</time></trkpt><trkpt lat="43.58661178354466" lon="3.782964797419098"><ele>53.0</ele><time>2026-04-26T06:47:11.998Z</time></trkpt><trkpt lat="43.58665654614698" lon="3.783038367831352"><ele>53.0</ele><time>2026-04-26T06:47:14.998Z</time></trkpt><trkpt lat="43.58668625521719" lon="3.783126282022388"><ele>53.0</ele><time>2026-04-26T06:47:16.998Z</time></trkpt><trkpt lat="43.58674449128295" lon="3.783186178349442"><ele>53.0</ele><time>2026-04-26T06:47:18.998Z</time></trkpt><trkpt lat="43.58680837344509" lon="3.783194255749236"><ele>53.0</ele><time>2026-04-26T06:47:21.998Z</time></trkpt><trkpt lat="43.586867722363216" lon="3.7831566217474983"><ele>53.0</ele><time>2026-04-26T06:47:24.998Z</time></trkpt><trkpt lat="43.586920167740345" lon="3.783106705448586"><ele>53.0</ele><time>2026-04-26T06:47:27.998Z</time></trkpt><trkpt lat="43.58698033777679" lon="3.7830437678596636"><ele>53.0</ele><time>2026-04-26T06:47:31.998Z</time></trkpt><trkpt lat="43.587042893103" lon="3.7829831053069576"><ele>53.142857142857146</ele><time>2026-04-26T06:47:34.998Z</time></trkpt><trkpt lat="43.58710629526441" lon="3.7829404258107653"><ele>53.285714285714285</ele><time>2026-04-26T06:47:37.998Z</time></trkpt><trkpt lat="43.58717956770431" lon="3.7829216523511384"><ele>53.42857142857143</ele><time>2026-04-26T06:47:40.998Z</time></trkpt><trkpt lat="43.58726093682598" lon="3.7829037577400992"><ele>53.57142857142857</ele><time>2026-04-26T06:47:43.998Z</time></trkpt><trkpt lat="43.58732487965605" lon="3.7828806736552165"><ele>53.71428571428571</ele><time>2026-04-26T06:47:46.998Z</time></trkpt><trkpt lat="43.58739640005463" lon="3.7828589200960216"><ele>53.857142857142854</ele><time>2026-04-26T06:47:50.998Z</time></trkpt><trkpt lat="43.58733977562935" lon="3.7828995689929443"><ele>54.0</ele><time>2026-04-26T06:48:05.998Z</time></trkpt><trkpt lat="43.587276281223424" lon="3.7829233620208713"><ele>54.0</ele><time>2026-04-26T06:48:08.998Z</time></trkpt><trkpt lat="43.587309536919" lon="3.782833361674771"><ele>54.0</ele><time>2026-04-26T06:48:16.998Z</time></trkpt><trkpt lat="43.58735277543446" lon="3.7827449744061434"><ele>54.0</ele><time>2026-04-26T06:48:20.998Z</time></trkpt><trkpt lat="43.58740025390629" lon="3.782647102488866"><ele>54.0</ele><time>2026-04-26T06:48:24.998Z</time></trkpt><trkpt lat="43.58743522313095" lon="3.7825595698366627"><ele>54.0</ele><time>2026-04-26T06:48:28.998Z</time></trkpt><trkpt lat="43.58746554044992" lon="3.7824788384523456"><ele>54.0</ele><time>2026-04-26T06:48:31.998Z</time></trkpt><trkpt lat="43.58750767733775" lon="3.782397840819888"><ele>54.0</ele><time>2026-04-26T06:48:34.998Z</time></trkpt><trkpt lat="43.58755779390377" lon="3.782327375286454"><ele>55.0</ele><time>2026-04-26T06:48:37.998Z</time></trkpt><trkpt lat="43.58764567605232" lon="3.7822689872351565"><ele>56.0</ele><time>2026-04-26T06:48:41.998Z</time></trkpt><trkpt lat="43.58771485445834" lon="3.7822169944409443"><ele>57.0</ele><time>2026-04-26T06:48:44.998Z</time></trkpt><trkpt lat="43.587776336474626" lon="3.782133813405253"><ele>58.0</ele><time>2026-04-26T06:48:47.998Z</time></trkpt><trkpt lat="43.587863284929675" lon="3.782088749627107"><ele>59.0</ele><time>2026-04-26T06:49:15.998Z</time></trkpt><trkpt lat="43.58794343057535" lon="3.7820611184304536"><ele>60.0</ele><time>2026-04-26T06:49:20.998Z</time></trkpt><trkpt lat="43.58802238793076" lon="3.7820099157232536"><ele>60.714285714285715</ele><time>2026-04-26T06:49:23.998Z</time></trkpt><trkpt lat="43.58808874119163" lon="3.7819934958007164"><ele>61.42857142857143</ele><time>2026-04-26T06:49:25.998Z</time></trkpt><trkpt lat="43.58814748040066" lon="3.7819516749399105"><ele>62.142857142857146</ele><time>2026-04-26T06:49:27.998Z</time></trkpt><trkpt lat="43.58821457019679" lon="3.7819239564304756"><ele>62.85714285714286</ele><time>2026-04-26T06:49:29.998Z</time></trkpt><trkpt lat="43.58829038644789" lon="3.781909692818361"><ele>63.57142857142857</ele><time>2026-04-26T06:49:31.998Z</time></trkpt><trkpt lat="43.58838824275399" lon="3.7819103791200046"><ele>64.28571428571429</ele><time>2026-04-26T06:49:34.998Z</time></trkpt><trkpt lat="43.58845367081351" lon="3.7819253173006477"><ele>65.0</ele><time>2026-04-26T06:49:36.998Z</time></trkpt><trkpt lat="43.5885182480041" lon="3.781909007598762"><ele>65.0</ele><time>2026-04-26T06:49:38.998Z</time></trkpt><trkpt lat="43.58860116374791" lon="3.7819093785881006"><ele>65.0</ele><time>2026-04-26T06:49:41.998Z</time></trkpt><trkpt lat="43.58866751885899" lon="3.781933877300845"><ele>65.0</ele><time>2026-04-26T06:49:43.998Z</time></trkpt><trkpt lat="43.5887338266267" lon="3.7819311273574305"><ele>65.0</ele><time>2026-04-26T06:49:45.998Z</time></trkpt><trkpt lat="43.588808512302535" lon="3.7818668036896637"><ele>65.0</ele><time>2026-04-26T06:49:47.998Z</time></trkpt><trkpt lat="43.588860712172554" lon="3.7817445827299263"><ele>65.0</ele><time>2026-04-26T06:49:50.998Z</time></trkpt><trkpt lat="43.58893520708423" lon="3.781668301798068"><ele>64.8</ele><time>2026-04-26T06:49:52.998Z</time></trkpt><trkpt lat="43.58902317924666" lon="3.7816021111046045"><ele>64.6</ele><time>2026-04-26T06:49:54.998Z</time></trkpt><trkpt lat="43.58909322105319" lon="3.7814839378231513"><ele>64.4</ele><time>2026-04-26T06:49:56.998Z</time></trkpt><trkpt lat="43.58920297722313" lon="3.7814339322954984"><ele>64.2</ele><time>2026-04-26T06:49:59.004Z</time></trkpt><trkpt lat="43.58926936080839" lon="3.7814433379136454"><ele>64.0</ele><time>2026-04-26T06:50:00.004Z</time></trkpt><trkpt lat="43.58937935523808" lon="3.7814189369260824"><ele>63.99999999999999</ele><time>2026-04-26T06:50:02.004Z</time></trkpt><trkpt lat="43.58948752775297" lon="3.7813848561667602"><ele>64.0</ele><time>2026-04-26T06:50:04.004Z</time></trkpt><trkpt lat="43.589583979846026" lon="3.7813661812192185"><ele>64.0</ele><time>2026-04-26T06:50:06.004Z</time></trkpt><trkpt lat="43.58966479144907" lon="3.7813612038860875"><ele>64.0</ele><time>2026-04-26T06:50:08.004Z</time></trkpt><trkpt lat="43.58973944959595" lon="3.781357068868807"><ele>63.99999999999999</ele><time>2026-04-26T06:50:10.004Z</time></trkpt><trkpt lat="43.589806600449656" lon="3.7813600478167997"><ele>64.0</ele><time>2026-04-26T06:50:12.004Z</time></trkpt><trkpt lat="43.58987486438631" lon="3.781361959762375"><ele>64.14285714285714</ele><time>2026-04-26T06:50:14.004Z</time></trkpt><trkpt lat="43.589944688667515" lon="3.7813416232892703"><ele>64.28571428571428</ele><time>2026-04-26T06:50:16.004Z</time></trkpt><trkpt lat="43.590020572962686" lon="3.781324882200093"><ele>64.42857142857143</ele><time>2026-04-26T06:50:18.004Z</time></trkpt><trkpt lat="43.590086364382735" lon="3.781360953876804"><ele>64.57142857142857</ele><time>2026-04-26T06:50:20.004Z</time></trkpt><trkpt lat="43.59010240844722" lon="3.7814525324647446"><ele>64.71428571428572</ele><time>2026-04-26T06:50:22.004Z</time></trkpt><trkpt lat="43.59013529589442" lon="3.781530901391065"><ele>64.85714285714286</ele><time>2026-04-26T06:50:24.004Z</time></trkpt><trkpt lat="43.5901750825946" lon="3.7816123844094527"><ele>65.0</ele><time>2026-04-26T06:50:26.004Z</time></trkpt><trkpt lat="43.590222061618356" lon="3.781699871873554"><ele>65.00000000000001</ele><time>2026-04-26T06:50:28.004Z</time></trkpt><trkpt lat="43.5902513605247" lon="3.7817807449468304"><ele>65.0</ele><time>2026-04-26T06:50:30.004Z</time></trkpt><trkpt lat="43.590289780470876" lon="3.781863950509423"><ele>65.0</ele><time>2026-04-26T06:50:32.004Z</time></trkpt><trkpt lat="43.590317969862376" lon="3.781942248239259"><ele>65.0</ele><time>2026-04-26T06:50:34.004Z</time></trkpt><trkpt lat="43.59036917265546" lon="3.782034706657282"><ele>65.0</ele><time>2026-04-26T06:50:37.004Z</time></trkpt><trkpt lat="43.5903896460764" lon="3.7821194520124384"><ele>65.00000000000001</ele><time>2026-04-26T06:50:47.004Z</time></trkpt><trkpt lat="43.590416762352234" lon="3.7822020903124405"><ele>65.0</ele><time>2026-04-26T06:50:50.004Z</time></trkpt><trkpt lat="43.59048608083339" lon="3.782231343720792"><ele>64.57142857142858</ele><time>2026-04-26T06:50:52.004Z</time></trkpt><trkpt lat="43.590522938508975" lon="3.7823205910632303"><ele>64.14285714285714</ele><time>2026-04-26T06:50:55.004Z</time></trkpt><trkpt lat="43.59055616375539" lon="3.78239577403373"><ele>63.71428571428572</ele><time>2026-04-26T06:50:57.004Z</time></trkpt><trkpt lat="43.59060875854217" lon="3.782463330138754"><ele>63.28571428571429</ele><time>2026-04-26T06:51:00.004Z</time></trkpt><trkpt lat="43.59066090223027" lon="3.782512157141396"><ele>62.85714285714286</ele><time>2026-04-26T06:51:02.004Z</time></trkpt><trkpt lat="43.5906991506388" lon="3.7826003642688204"><ele>62.42857142857143</ele><time>2026-04-26T06:51:04.004Z</time></trkpt><trkpt lat="43.59075108676427" lon="3.7826711616200495"><ele>62.0</ele><time>2026-04-26T06:51:06.004Z</time></trkpt><trkpt lat="43.59079726078252" lon="3.782741946890428"><ele>62.00000000000001</ele><time>2026-04-26T06:51:08.004Z</time></trkpt><trkpt lat="43.59079761186556" lon="3.7828428733437787"><ele>62.0</ele><time>2026-04-26T06:51:10.005Z</time></trkpt><trkpt lat="43.59085353495296" lon="3.7829248308910337"><ele>62.0</ele><time>2026-04-26T06:51:12.004Z</time></trkpt><trkpt lat="43.590901897844425" lon="3.7830184656145005"><ele>62.0</ele><time>2026-04-26T06:51:14.004Z</time></trkpt><trkpt lat="43.59094164264972" lon="3.783125345131562"><ele>62.00000000000001</ele><time>2026-04-26T06:51:16.004Z</time></trkpt><trkpt lat="43.59098845357927" lon="3.783230317982476"><ele>62.0</ele><time>2026-04-26T06:51:18.004Z</time></trkpt><trkpt lat="43.59099961677443" lon="3.783324087628886"><ele>62.00000000000001</ele><time>2026-04-26T06:51:20.004Z</time></trkpt><trkpt lat="43.59102243674856" lon="3.7834525828601353"><ele>62.0</ele><time>2026-04-26T06:51:22.004Z</time></trkpt><trkpt lat="43.5910681779259" lon="3.783570129372117"><ele>62.0</ele><time>2026-04-26T06:51:24.004Z</time></trkpt><trkpt lat="43.59109703100225" lon="3.783673759330122"><ele>62.0</ele><time>2026-04-26T06:51:25.004Z</time></trkpt><trkpt lat="43.5911027900092" lon="3.7837774624487666"><ele>62.00000000000001</ele><time>2026-04-26T06:51:26.004Z</time></trkpt><trkpt lat="43.591121583595914" lon="3.7838932838305332"><ele>62.0</ele><time>2026-04-26T06:51:28.004Z</time></trkpt><trkpt lat="43.59114345466981" lon="3.784026283827368"><ele>62.2</ele><time>2026-04-26T06:51:30.004Z</time></trkpt><trkpt lat="43.591141263376784" lon="3.784152008977708"><ele>62.400000000000006</ele><time>2026-04-26T06:51:32.004Z</time></trkpt><trkpt lat="43.59110776458081" lon="3.7842895897175115"><ele>62.599999999999994</ele><time>2026-04-26T06:51:34.004Z</time></trkpt><trkpt lat="43.59108369528328" lon="3.7844393404281833"><ele>62.8</ele><time>2026-04-26T06:51:36.004Z</time></trkpt><trkpt lat="43.59109331682924" lon="3.784572223884734"><ele>63.0</ele><time>2026-04-26T06:51:38.004Z</time></trkpt><trkpt lat="43.591076761338314" lon="3.7847163564292226"><ele>61.599999999999994</ele><time>2026-04-26T06:51:40.004Z</time></trkpt><trkpt lat="43.59107538934603" lon="3.7848387687401"><ele>60.199999999999996</ele><time>2026-04-26T06:51:42.004Z</time></trkpt><trkpt lat="43.591080380610514" lon="3.784974797660519"><ele>58.8</ele><time>2026-04-26T06:51:44.004Z</time></trkpt><trkpt lat="43.59108138563583" lon="3.785100795419"><ele>57.4</ele><time>2026-04-26T06:51:46.004Z</time></trkpt><trkpt lat="43.59107826974686" lon="3.785228109386881"><ele>56.0</ele><time>2026-04-26T06:51:48.004Z</time></trkpt><trkpt lat="43.591087489339095" lon="3.785345385220775"><ele>55.8</ele><time>2026-04-26T06:51:50.004Z</time></trkpt><trkpt lat="43.59108066307404" lon="3.7854782855712275"><ele>55.599999999999994</ele><time>2026-04-26T06:51:52.004Z</time></trkpt><trkpt lat="43.5910698089287" lon="3.7856138188196637"><ele>55.4</ele><time>2026-04-26T06:51:54.004Z</time></trkpt><trkpt lat="43.591063070408325" lon="3.7857343293569543"><ele>55.2</ele><time>2026-04-26T06:51:56.004Z</time></trkpt><trkpt lat="43.59106863977146" lon="3.7858660534870743"><ele>55.0</ele><time>2026-04-26T06:51:58.004Z</time></trkpt><trkpt lat="43.59105535540604" lon="3.7859931310241266"><ele>54.4</ele><time>2026-04-26T06:52:00.004Z</time></trkpt><trkpt lat="43.591026423434904" lon="3.7861320798683837"><ele>53.8</ele><time>2026-04-26T06:52:02.004Z</time></trkpt><trkpt lat="43.591000716504446" lon="3.7862670541546315"><ele>53.2</ele><time>2026-04-26T06:52:04.004Z</time></trkpt><trkpt lat="43.59093448543966" lon="3.786360558008981"><ele>52.6</ele><time>2026-04-26T06:52:06.004Z</time></trkpt><trkpt lat="43.59087443342677" lon="3.7864453646051555"><ele>52.0</ele><time>2026-04-26T06:52:08.004Z</time></trkpt><trkpt lat="43.590839962826145" lon="3.7865381805566583"><ele>52.0</ele><time>2026-04-26T06:52:10.004Z</time></trkpt><trkpt lat="43.590798341509064" lon="3.786645095689935"><ele>52.0</ele><time>2026-04-26T06:52:12.004Z</time></trkpt><trkpt lat="43.59077435406105" lon="3.7867416828420013"><ele>52.0</ele><time>2026-04-26T06:52:14.004Z</time></trkpt><trkpt lat="43.59075549684069" lon="3.7868267714312482"><ele>52.0</ele><time>2026-04-26T06:52:15.004Z</time></trkpt><trkpt lat="43.59070174541845" lon="3.786969746923928"><ele>52.0</ele><time>2026-04-26T06:52:17.004Z</time></trkpt><trkpt lat="43.590658713007784" lon="3.78710624914508"><ele>51.49999999999999</ele><time>2026-04-26T06:52:19.004Z</time></trkpt><trkpt lat="43.590648441128124" lon="3.787258718122658"><ele>51.0</ele><time>2026-04-26T06:52:21.004Z</time></trkpt><trkpt lat="43.59070204675289" lon="3.787390246161999"><ele>50.5</ele><time>2026-04-26T06:52:23.004Z</time></trkpt><trkpt lat="43.590746592710175" lon="3.787466079915814"><ele>50.0</ele><time>2026-04-26T06:52:24.004Z</time></trkpt><trkpt lat="43.590786880292804" lon="3.7875489917576304"><ele>49.49999999999999</ele><time>2026-04-26T06:52:25.004Z</time></trkpt><trkpt lat="43.590816024202326" lon="3.787628832542835"><ele>49.0</ele><time>2026-04-26T06:52:26.004Z</time></trkpt><trkpt lat="43.59082970219007" lon="3.7877299295697537"><ele>48.49999999999999</ele><time>2026-04-26T06:52:27.004Z</time></trkpt><trkpt lat="43.59086401128553" lon="3.7879037056308977"><ele>48.0</ele><time>2026-04-26T06:52:29.004Z</time></trkpt><trkpt lat="43.59088065475351" lon="3.787998540517927"><ele>47.5</ele><time>2026-04-26T06:52:30.004Z</time></trkpt><trkpt lat="43.590904598272026" lon="3.788088661388613"><ele>47.0</ele><time>2026-04-26T06:52:31.004Z</time></trkpt><trkpt lat="43.59094360969383" lon="3.7881811883224517"><ele>46.5</ele><time>2026-04-26T06:52:32.004Z</time></trkpt><trkpt lat="43.59096586636302" lon="3.7882679164726594"><ele>46.0</ele><time>2026-04-26T06:52:33.004Z</time></trkpt><trkpt lat="43.59099755025318" lon="3.7883569899179146"><ele>46.0</ele><time>2026-04-26T06:52:34.004Z</time></trkpt><trkpt lat="43.59103235268806" lon="3.788470867490657"><ele>46.0</ele><time>2026-04-26T06:52:35.004Z</time></trkpt><trkpt lat="43.59106045769823" lon="3.788567383986057"><ele>46.0</ele><time>2026-04-26T06:52:36.004Z</time></trkpt><trkpt lat="43.591086601815455" lon="3.7886582709111885"><ele>46.0</ele><time>2026-04-26T06:52:38.004Z</time></trkpt><trkpt lat="43.591184637990835" lon="3.788662281704429"><ele>46.0</ele><time>2026-04-26T06:52:41.004Z</time></trkpt><trkpt lat="43.59124895186771" lon="3.7887519185961276"><ele>46.0</ele><time>2026-04-26T06:52:43.004Z</time></trkpt><trkpt lat="43.59124175130472" lon="3.788894698572857"><ele>45.66666666666667</ele><time>2026-04-26T06:52:45.004Z</time></trkpt><trkpt lat="43.591236416523415" lon="3.789008220000488"><ele>45.333333333333336</ele><time>2026-04-26T06:52:47.004Z</time></trkpt><trkpt lat="43.59123933163119" lon="3.789098562563525"><ele>45.0</ele><time>2026-04-26T06:52:51.004Z</time></trkpt><trkpt lat="43.591296544334796" lon="3.78917290902136"><ele>44.666666666666664</ele><time>2026-04-26T06:52:59.004Z</time></trkpt><trkpt lat="43.59133737932004" lon="3.7892463340851608"><ele>44.33333333333333</ele><time>2026-04-26T06:53:02.004Z</time></trkpt><trkpt lat="43.59137680417414" lon="3.7893233150976675"><ele>44.0</ele><time>2026-04-26T06:53:05.004Z</time></trkpt><trkpt lat="43.5914243224782" lon="3.7894328081733275"><ele>43.666666666666664</ele><time>2026-04-26T06:53:08.004Z</time></trkpt><trkpt lat="43.5914708700905" lon="3.7894972776834583"><ele>43.33333333333333</ele><time>2026-04-26T06:53:10.005Z</time></trkpt><trkpt lat="43.59151439574638" lon="3.7895697119406755"><ele>43.0</ele><time>2026-04-26T06:53:12.005Z</time></trkpt><trkpt lat="43.59156818024217" lon="3.7896485794035764"><ele>42.666666666666664</ele><time>2026-04-26T06:53:14.005Z</time></trkpt><trkpt lat="43.591629498975735" lon="3.78974102265027"><ele>42.333333333333336</ele><time>2026-04-26T06:53:16.004Z</time></trkpt><trkpt lat="43.59168649027638" lon="3.789812553801658"><ele>42.0</ele><time>2026-04-26T06:53:18.005Z</time></trkpt><trkpt lat="43.591727756704366" lon="3.7898970545389052"><ele>42.0</ele><time>2026-04-26T06:53:20.005Z</time></trkpt><trkpt lat="43.59176942182044" lon="3.7899762723000454"><ele>42.0</ele><time>2026-04-26T06:53:22.005Z</time></trkpt><trkpt lat="43.59180578093215" lon="3.7900494835908525"><ele>42.0</ele><time>2026-04-26T06:53:24.005Z</time></trkpt><trkpt lat="43.59184962545411" lon="3.7901144677840257"><ele>42.0</ele><time>2026-04-26T06:53:26.005Z</time></trkpt><trkpt lat="43.591876120693755" lon="3.790198043443734"><ele>42.0</ele><time>2026-04-26T06:53:28.005Z</time></trkpt><trkpt lat="43.59185101706635" lon="3.7902866959712025"><ele>42.0</ele><time>2026-04-26T06:53:30.005Z</time></trkpt><trkpt lat="43.59182452818342" lon="3.7903709877113365"><ele>42.0</ele><time>2026-04-26T06:53:32.005Z</time></trkpt><trkpt lat="43.59179448971796" lon="3.7904931588376027"><ele>42.0</ele><time>2026-04-26T06:53:35.005Z</time></trkpt><trkpt lat="43.59177757698268" lon="3.790582666698949"><ele>42.0</ele><time>2026-04-26T06:53:37.005Z</time></trkpt><trkpt lat="43.59175321133668" lon="3.7906839908701477"><ele>42.0</ele><time>2026-04-26T06:53:39.005Z</time></trkpt><trkpt lat="43.59172718025655" lon="3.7907832355686772"><ele>42.0</ele><time>2026-04-26T06:53:41.005Z</time></trkpt><trkpt lat="43.59170833349906" lon="3.7908948367219293"><ele>42.0</ele><time>2026-04-26T06:53:43.005Z</time></trkpt><trkpt lat="43.59169779134126" lon="3.7909926938645846"><ele>42.0</ele><time>2026-04-26T06:53:45.005Z</time></trkpt><trkpt lat="43.591668128608056" lon="3.7910898387042082"><ele>42.0</ele><time>2026-04-26T06:53:47.005Z</time></trkpt><trkpt lat="43.591652266666365" lon="3.791202969437834"><ele>42.0</ele><time>2026-04-26T06:53:49.005Z</time></trkpt><trkpt lat="43.59163852874383" lon="3.7913107269240394"><ele>42.0</ele><time>2026-04-26T06:53:51.005Z</time></trkpt><trkpt lat="43.59162071527107" lon="3.791434369209807"><ele>42.0</ele><time>2026-04-26T06:53:53.005Z</time></trkpt><trkpt lat="43.59161267991187" lon="3.7915583331192257"><ele>42.0</ele><time>2026-04-26T06:53:55.005Z</time></trkpt><trkpt lat="43.591608030457365" lon="3.791715010939241"><ele>41.166666666666664</ele><time>2026-04-26T06:53:57.005Z</time></trkpt><trkpt lat="43.59161245663049" lon="3.791846566416154"><ele>40.333333333333336</ele><time>2026-04-26T06:53:59.005Z</time></trkpt><trkpt lat="43.59161575498576" lon="3.792012204277455"><ele>39.5</ele><time>2026-04-26T06:54:01.005Z</time></trkpt><trkpt lat="43.59160846782236" lon="3.7921082835902253"><ele>38.66666666666667</ele><time>2026-04-26T06:54:02.005Z</time></trkpt><trkpt lat="43.59160134202509" lon="3.792197087643314"><ele>37.833333333333336</ele><time>2026-04-26T06:54:03.005Z</time></trkpt><trkpt lat="43.591562439124736" lon="3.7922995421208507"><ele>37.0</ele><time>2026-04-26T06:54:04.005Z</time></trkpt><trkpt lat="43.5915318456134" lon="3.79238257694836"><ele>37.0</ele><time>2026-04-26T06:54:05.005Z</time></trkpt><trkpt lat="43.59149516929222" lon="3.792459228580741"><ele>37.0</ele><time>2026-04-26T06:54:06.005Z</time></trkpt><trkpt lat="43.5914426146105" lon="3.7926124407328463"><ele>37.0</ele><time>2026-04-26T06:54:08.005Z</time></trkpt><trkpt lat="43.591419784910606" lon="3.792702259595077"><ele>37.0</ele><time>2026-04-26T06:54:09.005Z</time></trkpt><trkpt lat="43.591402328587705" lon="3.792788502820386"><ele>37.0</ele><time>2026-04-26T06:54:10.005Z</time></trkpt><trkpt lat="43.59134672875251" lon="3.7929310982665787"><ele>37.0</ele><time>2026-04-26T06:54:12.005Z</time></trkpt><trkpt lat="43.59126777937223" lon="3.79307605500088"><ele>36.833333333333336</ele><time>2026-04-26T06:54:14.005Z</time></trkpt><trkpt lat="43.59121524920314" lon="3.7931765870531966"><ele>36.66666666666667</ele><time>2026-04-26T06:54:16.005Z</time></trkpt><trkpt lat="43.59114267233586" lon="3.793250676760086"><ele>36.5</ele><time>2026-04-26T06:54:18.005Z</time></trkpt><trkpt lat="43.59111798853632" lon="3.7933536648696866"><ele>36.333333333333336</ele><time>2026-04-26T06:54:20.005Z</time></trkpt><trkpt lat="43.59112823623831" lon="3.7934441642113397"><ele>36.166666666666664</ele><time>2026-04-26T06:54:22.005Z</time></trkpt><trkpt lat="43.59113331630587" lon="3.793556672717566"><ele>36.0</ele><time>2026-04-26T06:54:24.005Z</time></trkpt><trkpt lat="43.59113145272566" lon="3.7936682187653896"><ele>35.833333333333336</ele><time>2026-04-26T06:54:26.005Z</time></trkpt><trkpt lat="43.59110582859765" lon="3.793786126423734"><ele>35.666666666666664</ele><time>2026-04-26T06:54:28.005Z</time></trkpt><trkpt lat="43.5910872601681" lon="3.793890931067918"><ele>35.5</ele><time>2026-04-26T06:54:30.005Z</time></trkpt><trkpt lat="43.59106568928533" lon="3.7939894161370473"><ele>35.33333333333333</ele><time>2026-04-26T06:54:32.005Z</time></trkpt><trkpt lat="43.591042028102216" lon="3.7940940288118927"><ele>35.166666666666664</ele><time>2026-04-26T06:54:34.005Z</time></trkpt><trkpt lat="43.5910272087436" lon="3.7941795060777608"><ele>35.0</ele><time>2026-04-26T06:54:36.005Z</time></trkpt><trkpt lat="43.59100362025072" lon="3.7942741441344463"><ele>35.0</ele><time>2026-04-26T06:54:38.005Z</time></trkpt><trkpt lat="43.59097979148498" lon="3.794359576639313"><ele>35.0</ele><time>2026-04-26T06:54:40.005Z</time></trkpt><trkpt lat="43.59095004997184" lon="3.7944419407557874"><ele>35.0</ele><time>2026-04-26T06:54:42.005Z</time></trkpt><trkpt lat="43.590921824466946" lon="3.7945429907998993"><ele>35.0</ele><time>2026-04-26T06:54:44.005Z</time></trkpt><trkpt lat="43.59088865394262" lon="3.794622252214317"><ele>35.0</ele><time>2026-04-26T06:54:46.005Z</time></trkpt><trkpt lat="43.59086545964376" lon="3.7947089182753317"><ele>35.0</ele><time>2026-04-26T06:54:48.005Z</time></trkpt><trkpt lat="43.59084348102821" lon="3.7947992670574315"><ele>35.0</ele><time>2026-04-26T06:54:50.005Z</time></trkpt><trkpt lat="43.59079795717292" lon="3.794913268394492"><ele>35.0</ele><time>2026-04-26T06:54:53.005Z</time></trkpt><trkpt lat="43.590774577943165" lon="3.79499508850015"><ele>35.0</ele><time>2026-04-26T06:54:55.005Z</time></trkpt><trkpt lat="43.590788622275696" lon="3.795083198741007"><ele>35.0</ele><time>2026-04-26T06:54:59.005Z</time></trkpt><trkpt lat="43.59085521836542" lon="3.79505003467061"><ele>35.0</ele><time>2026-04-26T06:55:02.005Z</time></trkpt><trkpt lat="43.590919284512786" lon="3.795129229984161"><ele>35.0</ele><time>2026-04-26T06:55:05.005Z</time></trkpt><trkpt lat="43.590990500568985" lon="3.7952026395097778"><ele>35.0</ele><time>2026-04-26T06:55:08.005Z</time></trkpt><trkpt lat="43.59105638136617" lon="3.795285380493594"><ele>35.666666666666664</ele><time>2026-04-26T06:55:11.006Z</time></trkpt><trkpt lat="43.59110420086161" lon="3.7953453611847094"><ele>36.33333333333333</ele><time>2026-04-26T06:55:13.006Z</time></trkpt><trkpt lat="43.59116986251265" lon="3.795428129418746"><ele>37.0</ele><time>2026-04-26T06:55:16.005Z</time></trkpt><trkpt lat="43.59122251566496" lon="3.7954990493918834"><ele>37.666666666666664</ele><time>2026-04-26T06:55:19.005Z</time></trkpt><trkpt lat="43.591286887872485" lon="3.7955634678929417"><ele>38.333333333333336</ele><time>2026-04-26T06:55:22.006Z</time></trkpt><trkpt lat="43.59135185354656" lon="3.795626729990759"><ele>39.0</ele><time>2026-04-26T06:55:25.005Z</time></trkpt><trkpt lat="43.59138747579134" lon="3.7957134296381274"><ele>39.166666666666664</ele><time>2026-04-26T06:55:28.005Z</time></trkpt><trkpt lat="43.59144577215114" lon="3.795633023338797"><ele>39.333333333333336</ele><time>2026-04-26T06:55:33.005Z</time></trkpt><trkpt lat="43.591489711640506" lon="3.7955502477636744"><ele>39.5</ele><time>2026-04-26T06:55:36.005Z</time></trkpt><trkpt lat="43.59153800571109" lon="3.7954580085598812"><ele>39.66666666666667</ele><time>2026-04-26T06:55:39.005Z</time></trkpt><trkpt lat="43.5915939700295" lon="3.79535736425898"><ele>39.833333333333336</ele><time>2026-04-26T06:55:42.005Z</time></trkpt><trkpt lat="43.59161433503157" lon="3.795273318160364"><ele>40.0</ele><time>2026-04-26T06:55:45.005Z</time></trkpt><trkpt lat="43.59166362312758" lon="3.795164614481454"><ele>40.0</ele><time>2026-04-26T06:55:48.005Z</time></trkpt><trkpt lat="43.591703334272346" lon="3.7950712815352685"><ele>40.0</ele><time>2026-04-26T06:55:51.005Z</time></trkpt><trkpt lat="43.59174142248305" lon="3.795000641609667"><ele>40.0</ele><time>2026-04-26T06:55:53.005Z</time></trkpt><trkpt lat="43.59178781078044" lon="3.7949291224529724"><ele>40.0</ele><time>2026-04-26T06:55:55.005Z</time></trkpt><trkpt lat="43.59183506543884" lon="3.7948527732658968"><ele>40.0</ele><time>2026-04-26T06:55:57.005Z</time></trkpt><trkpt lat="43.59187620498443" lon="3.7947782888688426"><ele>40.0</ele><time>2026-04-26T06:55:59.005Z</time></trkpt><trkpt lat="43.59191216682194" lon="3.7946459653917906"><ele>40.0</ele><time>2026-04-26T06:56:02.005Z</time></trkpt><trkpt lat="43.59194227093736" lon="3.7945571336281394"><ele>40.0</ele><time>2026-04-26T06:56:04.005Z</time></trkpt><trkpt lat="43.591972018083624" lon="3.7944674199410957"><ele>40.0</ele><time>2026-04-26T06:56:06.005Z</time></trkpt><trkpt lat="43.59199903643029" lon="3.794385375567324"><ele>40.0</ele><time>2026-04-26T06:56:08.005Z</time></trkpt><trkpt lat="43.592033739437625" lon="3.794295997937296"><ele>40.0</ele><time>2026-04-26T06:56:10.005Z</time></trkpt><trkpt lat="43.592078655776305" lon="3.794188259106544"><ele>40.0</ele><time>2026-04-26T06:56:13.005Z</time></trkpt><trkpt lat="43.59210758965172" lon="3.7940776954850803"><ele>40.57142857142857</ele><time>2026-04-26T06:56:15.005Z</time></trkpt><trkpt lat="43.59214172332947" lon="3.7939906176433067"><ele>41.142857142857146</ele><time>2026-04-26T06:56:17.005Z</time></trkpt><trkpt lat="43.59217996099307" lon="3.793863680395565"><ele>41.714285714285715</ele><time>2026-04-26T06:56:20.005Z</time></trkpt><trkpt lat="43.592218272755616" lon="3.793789223450935"><ele>42.285714285714285</ele><time>2026-04-26T06:56:22.005Z</time></trkpt><trkpt lat="43.59226170540491" lon="3.793720547132691"><ele>42.857142857142854</ele><time>2026-04-26T06:56:24.005Z</time></trkpt><trkpt lat="43.59232232454283" lon="3.7936935412917845"><ele>43.42857142857143</ele><time>2026-04-26T06:56:26.005Z</time></trkpt><trkpt lat="43.59239327191023" lon="3.7936595306967895"><ele>44.0</ele><time>2026-04-26T06:56:29.005Z</time></trkpt><trkpt lat="43.59247610002296" lon="3.7936398185756453"><ele>44.0</ele><time>2026-04-26T06:56:32.005Z</time></trkpt><trkpt lat="43.59255548071629" lon="3.79363739487977"><ele>44.0</ele><time>2026-04-26T06:56:35.005Z</time></trkpt><trkpt lat="43.59260850728191" lon="3.793584836694126"><ele>44.0</ele><time>2026-04-26T06:56:38.005Z</time></trkpt><trkpt lat="43.59264416740767" lon="3.7935040029043807"><ele>44.0</ele><time>2026-04-26T06:56:40.005Z</time></trkpt><trkpt lat="43.592686308703975" lon="3.7934271050153963"><ele>44.0</ele><time>2026-04-26T06:56:42.005Z</time></trkpt><trkpt lat="43.592732865814945" lon="3.793359775482346"><ele>44.0</ele><time>2026-04-26T06:56:44.005Z</time></trkpt><trkpt lat="43.592805763400946" lon="3.7932789745653706"><ele>44.0</ele><time>2026-04-26T06:56:47.005Z</time></trkpt><trkpt lat="43.59286181251846" lon="3.7931773460617992"><ele>44.166666666666664</ele><time>2026-04-26T06:56:50.005Z</time></trkpt><trkpt lat="43.5929196981805" lon="3.7930886470443803"><ele>44.33333333333333</ele><time>2026-04-26T06:56:53.005Z</time></trkpt><trkpt lat="43.592974539793374" lon="3.7930346712332037"><ele>44.5</ele><time>2026-04-26T06:56:55.005Z</time></trkpt><trkpt lat="43.5930476878498" lon="3.7929708734802006"><ele>44.666666666666664</ele><time>2026-04-26T06:56:58.005Z</time></trkpt><trkpt lat="43.59308703661471" lon="3.792874887682518"><ele>44.833333333333336</ele><time>2026-04-26T06:57:01.005Z</time></trkpt><trkpt lat="43.59313448069474" lon="3.7927960731805506"><ele>45.0</ele><time>2026-04-26T06:57:04.005Z</time></trkpt><trkpt lat="43.59317094982249" lon="3.7926948138901686"><ele>45.0</ele><time>2026-04-26T06:57:07.005Z</time></trkpt><trkpt lat="43.593237505655146" lon="3.7926738823431285"><ele>45.0</ele><time>2026-04-26T06:57:09.005Z</time></trkpt><trkpt lat="43.593321757745684" lon="3.792638599495519"><ele>45.0</ele><time>2026-04-26T06:57:12.005Z</time></trkpt><trkpt lat="43.59339905115187" lon="3.7925743716649136"><ele>45.0</ele><time>2026-04-26T06:57:15.005Z</time></trkpt><trkpt lat="43.593454091602" lon="3.7925208678461853"><ele>45.0</ele><time>2026-04-26T06:57:17.005Z</time></trkpt><trkpt lat="43.593520667735596" lon="3.7924838208830067"><ele>45.0</ele><time>2026-04-26T06:57:19.006Z</time></trkpt><trkpt lat="43.593575916294654" lon="3.7924306407470265"><ele>44.833333333333336</ele><time>2026-04-26T06:57:21.006Z</time></trkpt><trkpt lat="43.59363586992317" lon="3.792365006139999"><ele>44.666666666666664</ele><time>2026-04-26T06:57:23.006Z</time></trkpt><trkpt lat="43.593712167473946" lon="3.79228790606772"><ele>44.5</ele><time>2026-04-26T06:57:26.006Z</time></trkpt><trkpt lat="43.593762680159784" lon="3.792230763283756"><ele>44.33333333333333</ele><time>2026-04-26T06:57:28.006Z</time></trkpt><trkpt lat="43.59381680891969" lon="3.792168626226631"><ele>44.166666666666664</ele><time>2026-04-26T06:57:30.006Z</time></trkpt><trkpt lat="43.59386922767632" lon="3.792119547937777"><ele>44.0</ele><time>2026-04-26T06:57:32.006Z</time></trkpt><trkpt lat="43.59394392350833" lon="3.7920450180051777"><ele>44.666666666666664</ele><time>2026-04-26T06:57:35.006Z</time></trkpt><trkpt lat="43.59400232612357" lon="3.791972345477309"><ele>45.33333333333333</ele><time>2026-04-26T06:57:38.006Z</time></trkpt><trkpt lat="43.59405406591465" lon="3.791886256143811"><ele>46.0</ele><time>2026-04-26T06:57:41.006Z</time></trkpt><trkpt lat="43.59410604233511" lon="3.7917922593816415"><ele>46.666666666666664</ele><time>2026-04-26T06:57:44.006Z</time></trkpt><trkpt lat="43.594146181652185" lon="3.791690460457307"><ele>47.333333333333336</ele><time>2026-04-26T06:57:47.006Z</time></trkpt><trkpt lat="43.59418893453659" lon="3.7916099467818416"><ele>48.0</ele><time>2026-04-26T06:57:50.006Z</time></trkpt><trkpt lat="43.594233332900984" lon="3.791523460485108"><ele>47.99999999999999</ele><time>2026-04-26T06:57:52.006Z</time></trkpt><trkpt lat="43.59428235721118" lon="3.7914488080045077"><ele>48.0</ele><time>2026-04-26T06:57:54.006Z</time></trkpt><trkpt lat="43.594330090437474" lon="3.791365564851807"><ele>48.0</ele><time>2026-04-26T06:57:56.006Z</time></trkpt><trkpt lat="43.594370564816984" lon="3.791278492016123"><ele>48.0</ele><time>2026-04-26T06:57:58.006Z</time></trkpt><trkpt lat="43.59441206737896" lon="3.7911981572875675"><ele>48.0</ele><time>2026-04-26T06:58:00.006Z</time></trkpt><trkpt lat="43.594457168154996" lon="3.791111060792032"><ele>47.99999999999999</ele><time>2026-04-26T06:58:02.006Z</time></trkpt><trkpt lat="43.594499176620566" lon="3.791032591130174"><ele>48.0</ele><time>2026-04-26T06:58:04.006Z</time></trkpt><trkpt lat="43.5945478054061" lon="3.7909318586449428"><ele>48.333333333333336</ele><time>2026-04-26T06:58:06.006Z</time></trkpt><trkpt lat="43.59457490581363" lon="3.7908471330254754"><ele>48.66666666666667</ele><time>2026-04-26T06:58:08.006Z</time></trkpt><trkpt lat="43.59461716253306" lon="3.790758907703982"><ele>49.0</ele><time>2026-04-26T06:58:10.006Z</time></trkpt><trkpt lat="43.59465426328385" lon="3.790670095163281"><ele>49.333333333333336</ele><time>2026-04-26T06:58:12.006Z</time></trkpt><trkpt lat="43.59471363005867" lon="3.7905955130408726"><ele>49.66666666666667</ele><time>2026-04-26T06:58:14.006Z</time></trkpt><trkpt lat="43.59476913269383" lon="3.790523793149111"><ele>50.0</ele><time>2026-04-26T06:58:16.006Z</time></trkpt><trkpt lat="43.59482463303168" lon="3.7904532751450355"><ele>50.00000000000001</ele><time>2026-04-26T06:58:18.006Z</time></trkpt><trkpt lat="43.59492056108966" lon="3.7904008701259446"><ele>50.0</ele><time>2026-04-26T06:58:20.006Z</time></trkpt><trkpt lat="43.59497195322593" lon="3.7903204174233185"><ele>50.0</ele><time>2026-04-26T06:58:22.006Z</time></trkpt><trkpt lat="43.595046846780974" lon="3.7902783789865024"><ele>50.0</ele><time>2026-04-26T06:58:24.006Z</time></trkpt><trkpt lat="43.595108698440804" lon="3.7902058406293624"><ele>50.00000000000001</ele><time>2026-04-26T06:58:27.006Z</time></trkpt><trkpt lat="43.59516472991194" lon="3.7901496901535205"><ele>50.0</ele><time>2026-04-26T06:58:30.006Z</time></trkpt><trkpt lat="43.59521335913061" lon="3.7900840209839037"><ele>50.00000000000001</ele><time>2026-04-26T06:58:32.006Z</time></trkpt><trkpt lat="43.59527785456634" lon="3.7900114250187356"><ele>50.0</ele><time>2026-04-26T06:58:35.006Z</time></trkpt><trkpt lat="43.59532903316257" lon="3.789948496629426"><ele>50.0</ele><time>2026-04-26T06:58:38.006Z</time></trkpt><trkpt lat="43.595379795694676" lon="3.789880564575757"><ele>50.0</ele><time>2026-04-26T06:58:41.006Z</time></trkpt><trkpt lat="43.59543149939799" lon="3.789828800459271"><ele>50.0</ele><time>2026-04-26T06:58:44.006Z</time></trkpt><trkpt lat="43.59549556161679" lon="3.7897506711328455"><ele>50.00000000000001</ele><time>2026-04-26T06:58:47.006Z</time></trkpt><trkpt lat="43.595550281489615" lon="3.7896855819591075"><ele>50.0</ele><time>2026-04-26T06:58:50.006Z</time></trkpt><trkpt lat="43.59561588106393" lon="3.7896665042161515"><ele>50.00000000000001</ele><time>2026-04-26T06:58:52.006Z</time></trkpt><trkpt lat="43.59566680836022" lon="3.789586959328314"><ele>50.0</ele><time>2026-04-26T06:58:55.006Z</time></trkpt><trkpt lat="43.59573373941641" lon="3.789529802967183"><ele>50.0</ele><time>2026-04-26T06:58:58.006Z</time></trkpt><trkpt lat="43.59579746287583" lon="3.7894641460561695"><ele>50.0</ele><time>2026-04-26T06:59:01.006Z</time></trkpt><trkpt lat="43.59587319463899" lon="3.7894021566868856"><ele>50.00000000000001</ele><time>2026-04-26T06:59:04.006Z</time></trkpt><trkpt lat="43.59592372015455" lon="3.7893454893562146"><ele>50.0</ele><time>2026-04-26T06:59:06.006Z</time></trkpt><trkpt lat="43.59598128712652" lon="3.789295687187587"><ele>49.66666666666667</ele><time>2026-04-26T06:59:08.006Z</time></trkpt><trkpt lat="43.59604187986554" lon="3.7892426393694754"><ele>49.333333333333336</ele><time>2026-04-26T06:59:10.006Z</time></trkpt><trkpt lat="43.596096498497886" lon="3.789182295373521"><ele>49.0</ele><time>2026-04-26T06:59:12.006Z</time></trkpt><trkpt lat="43.59619113617892" lon="3.7891342467423006"><ele>48.66666666666667</ele><time>2026-04-26T06:59:15.006Z</time></trkpt><trkpt lat="43.59627369554911" lon="3.789086228528095"><ele>48.333333333333336</ele><time>2026-04-26T06:59:18.006Z</time></trkpt><trkpt lat="43.59634186084082" lon="3.7890273187002945"><ele>48.0</ele><time>2026-04-26T06:59:21.006Z</time></trkpt><trkpt lat="43.59641701668036" lon="3.788970560128846"><ele>48.833333333333336</ele><time>2026-04-26T06:59:23.006Z</time></trkpt><trkpt lat="43.59650269600451" lon="3.7889013039986428"><ele>49.66666666666667</ele><time>2026-04-26T06:59:26.006Z</time></trkpt><trkpt lat="43.59657358448938" lon="3.7888347485446268"><ele>50.5</ele><time>2026-04-26T06:59:29.007Z</time></trkpt><trkpt lat="43.596626774631346" lon="3.7887774884560135"><ele>51.333333333333336</ele><time>2026-04-26T06:59:31.006Z</time></trkpt><trkpt lat="43.596684645534374" lon="3.788730783560987"><ele>52.16666666666667</ele><time>2026-04-26T06:59:33.007Z</time></trkpt><trkpt lat="43.596754531018135" lon="3.7886495415271084"><ele>53.0</ele><time>2026-04-26T06:59:36.006Z</time></trkpt><trkpt lat="43.596791761616615" lon="3.788572429667567"><ele>53.50000000000001</ele><time>2026-04-26T06:59:38.006Z</time></trkpt><trkpt lat="43.59687047574495" lon="3.788505280772256"><ele>54.0</ele><time>2026-04-26T06:59:41.006Z</time></trkpt><trkpt lat="43.59693193079875" lon="3.7884121130828388"><ele>54.5</ele><time>2026-04-26T06:59:44.006Z</time></trkpt><trkpt lat="43.59699684575505" lon="3.7883342027669986"><ele>55.0</ele><time>2026-04-26T06:59:46.006Z</time></trkpt><trkpt lat="43.59704976002444" lon="3.78827457905041"><ele>55.50000000000001</ele><time>2026-04-26T06:59:48.006Z</time></trkpt><trkpt lat="43.597117157777326" lon="3.788246649330001"><ele>56.0</ele><time>2026-04-26T06:59:51.006Z</time></trkpt><trkpt lat="43.59716236376176" lon="3.7881704143669825"><ele>56.00000000000001</ele><time>2026-04-26T06:59:53.006Z</time></trkpt><trkpt lat="43.59721024360374" lon="3.7881090829789557"><ele>56.0</ele><time>2026-04-26T06:59:55.006Z</time></trkpt><trkpt lat="43.59727402068271" lon="3.788024470108426"><ele>56.0</ele><time>2026-04-26T06:59:58.006Z</time></trkpt><trkpt lat="43.59734792997609" lon="3.7879546298405145"><ele>56.0</ele><time>2026-04-26T07:00:01.006Z</time></trkpt><trkpt lat="43.59739350348169" lon="3.787886947733933"><ele>56.00000000000001</ele><time>2026-04-26T07:00:03.006Z</time></trkpt><trkpt lat="43.5974619821092" lon="3.7877898809605037"><ele>56.0</ele><time>2026-04-26T07:00:06.006Z</time></trkpt><trkpt lat="43.59753563946362" lon="3.7877083177214956"><ele>56.16666666666667</ele><time>2026-04-26T07:00:09.006Z</time></trkpt><trkpt lat="43.59757666556042" lon="3.7876403303855577"><ele>56.333333333333336</ele><time>2026-04-26T07:00:11.006Z</time></trkpt><trkpt lat="43.59764424847332" lon="3.787568056904874"><ele>56.5</ele><time>2026-04-26T07:00:14.006Z</time></trkpt><trkpt lat="43.59768746851931" lon="3.787469455275083"><ele>56.66666666666667</ele><time>2026-04-26T07:00:16.006Z</time></trkpt><trkpt lat="43.59774903464386" lon="3.787411238286605"><ele>56.833333333333336</ele><time>2026-04-26T07:00:19.006Z</time></trkpt><trkpt lat="43.59782198405401" lon="3.787341959105071"><ele>57.0</ele><time>2026-04-26T07:00:22.006Z</time></trkpt><trkpt lat="43.597880900132544" lon="3.7872499051945185"><ele>57.0</ele><time>2026-04-26T07:00:25.006Z</time></trkpt><trkpt lat="43.59792795844814" lon="3.7871841108574227"><ele>57.0</ele><time>2026-04-26T07:00:27.006Z</time></trkpt><trkpt lat="43.59799800302629" lon="3.7871004913938866"><ele>57.0</ele><time>2026-04-26T07:00:30.006Z</time></trkpt><trkpt lat="43.59806041015976" lon="3.7870447481235794"><ele>57.0</ele><time>2026-04-26T07:00:32.006Z</time></trkpt><trkpt lat="43.59811331898295" lon="3.7869835657037205"><ele>57.0</ele><time>2026-04-26T07:00:34.006Z</time></trkpt><trkpt lat="43.598171160367876" lon="3.786910703262334"><ele>57.0</ele><time>2026-04-26T07:00:36.006Z</time></trkpt><trkpt lat="43.59823764477876" lon="3.7868316131978634"><ele>56.5</ele><time>2026-04-26T07:00:38.006Z</time></trkpt><trkpt lat="43.598295799230826" lon="3.786724078862373"><ele>56.0</ele><time>2026-04-26T07:00:40.006Z</time></trkpt><trkpt lat="43.59834890333404" lon="3.7866356062635362"><ele>55.5</ele><time>2026-04-26T07:00:42.006Z</time></trkpt><trkpt lat="43.598406546430304" lon="3.786544087807008"><ele>55.0</ele><time>2026-04-26T07:00:45.006Z</time></trkpt><trkpt lat="43.598461580011254" lon="3.786449674607011"><ele>54.5</ele><time>2026-04-26T07:00:48.006Z</time></trkpt><trkpt lat="43.598501090551984" lon="3.786371204393036"><ele>54.0</ele><time>2026-04-26T07:00:50.006Z</time></trkpt><trkpt lat="43.59855576220701" lon="3.786286837634021"><ele>54.0</ele><time>2026-04-26T07:00:52.006Z</time></trkpt><trkpt lat="43.59860122278235" lon="3.7861860762101616"><ele>54.0</ele><time>2026-04-26T07:00:55.006Z</time></trkpt><trkpt lat="43.59865920247299" lon="3.7861152881256133"><ele>54.0</ele><time>2026-04-26T07:00:57.006Z</time></trkpt><trkpt lat="43.59869152773847" lon="3.786021723650961"><ele>54.0</ele><time>2026-04-26T07:00:59.006Z</time></trkpt><trkpt lat="43.598724478005934" lon="3.785927826324513"><ele>54.0</ele><time>2026-04-26T07:01:01.006Z</time></trkpt><trkpt lat="43.59877043623981" lon="3.7858352979638226"><ele>54.0</ele><time>2026-04-26T07:01:04.006Z</time></trkpt><trkpt lat="43.59880099289572" lon="3.785740146959185"><ele>54.5</ele><time>2026-04-26T07:01:06.006Z</time></trkpt><trkpt lat="43.598832732773275" lon="3.7856361875103124"><ele>55.0</ele><time>2026-04-26T07:01:09.006Z</time></trkpt><trkpt lat="43.59888679333723" lon="3.785534939852445"><ele>55.5</ele><time>2026-04-26T07:01:11.006Z</time></trkpt><trkpt lat="43.59893271786876" lon="3.785435459119907"><ele>56.0</ele><time>2026-04-26T07:01:14.006Z</time></trkpt><trkpt lat="43.59898232323547" lon="3.785353920906231"><ele>56.5</ele><time>2026-04-26T07:01:16.006Z</time></trkpt><trkpt lat="43.59903905587459" lon="3.7852554697851737"><ele>57.0</ele><time>2026-04-26T07:01:18.006Z</time></trkpt><trkpt lat="43.59910118165617" lon="3.7852105857321376"><ele>56.166666666666664</ele><time>2026-04-26T07:01:20.006Z</time></trkpt><trkpt lat="43.59916136694169" lon="3.7851371453241036"><ele>55.33333333333333</ele><time>2026-04-26T07:01:23.006Z</time></trkpt><trkpt lat="43.599206115254795" lon="3.7850572853849926"><ele>54.5</ele><time>2026-04-26T07:01:25.006Z</time></trkpt><trkpt lat="43.59926172399354" lon="3.784959198820577"><ele>53.666666666666664</ele><time>2026-04-26T07:01:27.006Z</time></trkpt><trkpt lat="43.5993317041624" lon="3.784870333418169"><ele>52.83333333333333</ele><time>2026-04-26T07:01:30.007Z</time></trkpt><trkpt lat="43.59941967470948" lon="3.784864909521851"><ele>52.0</ele><time>2026-04-26T07:01:33.007Z</time></trkpt><trkpt lat="43.59950206482673" lon="3.78485985036957"><ele>52.0</ele><time>2026-04-26T07:01:36.006Z</time></trkpt><trkpt lat="43.59956685749418" lon="3.7848430664213666"><ele>52.0</ele><time>2026-04-26T07:01:38.007Z</time></trkpt><trkpt lat="43.59966749076959" lon="3.7848044718863707"><ele>52.0</ele><time>2026-04-26T07:01:40.007Z</time></trkpt><trkpt lat="43.59974293691109" lon="3.784713281755604"><ele>52.0</ele><time>2026-04-26T07:01:42.007Z</time></trkpt><trkpt lat="43.599829164323644" lon="3.7846660467411692"><ele>52.0</ele><time>2026-04-26T07:01:44.007Z</time></trkpt><trkpt lat="43.59990858420474" lon="3.7846162458041888"><ele>51.99999999999999</ele><time>2026-04-26T07:01:46.007Z</time></trkpt><trkpt lat="43.59998797782562" lon="3.7846056989692314"><ele>52.0</ele><time>2026-04-26T07:01:49.007Z</time></trkpt><trkpt lat="43.60001924162" lon="3.7846971225737986"><ele>52.0</ele><time>2026-04-26T07:01:52.007Z</time></trkpt><trkpt lat="43.600076048113834" lon="3.784778430018197"><ele>52.0</ele><time>2026-04-26T07:01:56.007Z</time></trkpt><trkpt lat="43.60012825507173" lon="3.7848386943772767"><ele>51.99999999999999</ele><time>2026-04-26T07:02:00.007Z</time></trkpt><trkpt lat="43.600176164347495" lon="3.784919634116576"><ele>52.0</ele><time>2026-04-26T07:02:04.007Z</time></trkpt><trkpt lat="43.60022685214739" lon="3.7850080215759396"><ele>52.0</ele><time>2026-04-26T07:02:08.007Z</time></trkpt><trkpt lat="43.60028291019856" lon="3.7850892466736483"><ele>52.0</ele><time>2026-04-26T07:02:12.007Z</time></trkpt><trkpt lat="43.600326732659276" lon="3.785166777083405"><ele>52.0</ele><time>2026-04-26T07:02:16.007Z</time></trkpt><trkpt lat="43.600369138427794" lon="3.7852407610692267"><ele>52.0</ele><time>2026-04-26T07:02:20.007Z</time></trkpt><trkpt lat="43.6004211612993" lon="3.785315730613285"><ele>52.0</ele><time>2026-04-26T07:02:24.007Z</time></trkpt><trkpt lat="43.60046309426542" lon="3.785391788231025"><ele>52.0</ele><time>2026-04-26T07:02:28.007Z</time></trkpt><trkpt lat="43.60051009399603" lon="3.7854649018872655"><ele>52.0</ele><time>2026-04-26T07:02:32.007Z</time></trkpt><trkpt lat="43.60055871701617" lon="3.7855316854985834"><ele>53.42857142857143</ele><time>2026-04-26T07:02:36.007Z</time></trkpt><trkpt lat="43.600609213542064" lon="3.785584367685055"><ele>54.85714285714286</ele><time>2026-04-26T07:02:39.007Z</time></trkpt><trkpt lat="43.60064398541021" lon="3.7856576580294354"><ele>56.28571428571429</ele><time>2026-04-26T07:02:42.007Z</time></trkpt><trkpt lat="43.60069827663593" lon="3.785744577337589"><ele>57.714285714285715</ele><time>2026-04-26T07:02:46.007Z</time></trkpt><trkpt lat="43.600754139578626" lon="3.7858327400908354"><ele>59.14285714285715</ele><time>2026-04-26T07:02:50.007Z</time></trkpt><trkpt lat="43.60079175540304" lon="3.785936595631773"><ele>60.57142857142858</ele><time>2026-04-26T07:02:54.007Z</time></trkpt><trkpt lat="43.60083189577469" lon="3.7860130535286305"><ele>62.0</ele><time>2026-04-26T07:02:57.007Z</time></trkpt><trkpt lat="43.600879148243614" lon="3.786091252283691"><ele>62.0</ele><time>2026-04-26T07:03:00.007Z</time></trkpt><trkpt lat="43.60091994995975" lon="3.78616580096461"><ele>62.00000000000001</ele><time>2026-04-26T07:03:03.007Z</time></trkpt><trkpt lat="43.60096203997796" lon="3.786247040445926"><ele>62.0</ele><time>2026-04-26T07:03:06.007Z</time></trkpt><trkpt lat="43.601010822191895" lon="3.786309565467713"><ele>62.0</ele><time>2026-04-26T07:03:09.007Z</time></trkpt><trkpt lat="43.60105490969624" lon="3.786380530902806"><ele>62.00000000000001</ele><time>2026-04-26T07:03:12.007Z</time></trkpt><trkpt lat="43.60109841361594" lon="3.786449662850131"><ele>62.0</ele><time>2026-04-26T07:03:15.007Z</time></trkpt><trkpt lat="43.60113578727308" lon="3.7865196701130612"><ele>62.0</ele><time>2026-04-26T07:03:18.007Z</time></trkpt><trkpt lat="43.601180636089474" lon="3.7865916740882306"><ele>62.66666666666667</ele><time>2026-04-26T07:03:21.007Z</time></trkpt><trkpt lat="43.6012297596013" lon="3.786662638388365"><ele>63.333333333333336</ele><time>2026-04-26T07:03:24.007Z</time></trkpt><trkpt lat="43.60128139082597" lon="3.78674031662274"><ele>64.0</ele><time>2026-04-26T07:03:27.007Z</time></trkpt><trkpt lat="43.601330217811864" lon="3.786829555751347"><ele>64.66666666666667</ele><time>2026-04-26T07:03:30.007Z</time></trkpt><trkpt lat="43.60138773440816" lon="3.786901610849422"><ele>65.33333333333333</ele><time>2026-04-26T07:03:33.007Z</time></trkpt><trkpt lat="43.60142823298622" lon="3.7869889340033436"><ele>66.0</ele><time>2026-04-26T07:03:36.007Z</time></trkpt><trkpt lat="43.60147220238903" lon="3.7870770686702273"><ele>66.16666666666667</ele><time>2026-04-26T07:03:39.007Z</time></trkpt><trkpt lat="43.60152076749227" lon="3.7871621036036123"><ele>66.33333333333333</ele><time>2026-04-26T07:03:42.008Z</time></trkpt><trkpt lat="43.60157429936179" lon="3.787234446948479"><ele>66.5</ele><time>2026-04-26T07:03:45.008Z</time></trkpt><trkpt lat="43.60161291330358" lon="3.787372367215586"><ele>66.66666666666666</ele><time>2026-04-26T07:03:48.008Z</time></trkpt><trkpt lat="43.60167414271283" lon="3.7874255666441377"><ele>66.83333333333333</ele><time>2026-04-26T07:03:51.008Z</time></trkpt><trkpt lat="43.60172636470562" lon="3.78750871722097"><ele>67.0</ele><time>2026-04-26T07:03:54.008Z</time></trkpt><trkpt lat="43.601760868257465" lon="3.7875867709882036"><ele>66.66666666666666</ele><time>2026-04-26T07:03:56.008Z</time></trkpt><trkpt lat="43.60182090180415" lon="3.7876931482584575"><ele>66.33333333333333</ele><time>2026-04-26T07:03:59.008Z</time></trkpt><trkpt lat="43.601873991689224" lon="3.787793568884868"><ele>66.0</ele><time>2026-04-26T07:04:02.008Z</time></trkpt><trkpt lat="43.60190735003473" lon="3.787874854208728"><ele>65.66666666666667</ele><time>2026-04-26T07:04:04.008Z</time></trkpt><trkpt lat="43.60195899419273" lon="3.7879671077354797"><ele>65.33333333333334</ele><time>2026-04-26T07:04:07.008Z</time></trkpt><trkpt lat="43.60198890654564" lon="3.788046610721137"><ele>65.0</ele><time>2026-04-26T07:04:09.008Z</time></trkpt><trkpt lat="43.60202470279312" lon="3.7881293929265025"><ele>65.0</ele><time>2026-04-26T07:04:11.008Z</time></trkpt><trkpt lat="43.602058723536636" lon="3.7882206266882665"><ele>65.0</ele><time>2026-04-26T07:04:13.008Z</time></trkpt><trkpt lat="43.602099516684824" lon="3.78831436199575"><ele>65.0</ele><time>2026-04-26T07:04:15.008Z</time></trkpt><trkpt lat="43.602143929043436" lon="3.788415318534272"><ele>65.0</ele><time>2026-04-26T07:04:17.008Z</time></trkpt><trkpt lat="43.602199636277305" lon="3.78853495569782"><ele>65.0</ele><time>2026-04-26T07:04:19.008Z</time></trkpt><trkpt lat="43.60225240038643" lon="3.7886360146666322"><ele>65.0</ele><time>2026-04-26T07:04:21.008Z</time></trkpt><trkpt lat="43.60229962055302" lon="3.788726830294898"><ele>64.33333333333334</ele><time>2026-04-26T07:04:24.008Z</time></trkpt><trkpt lat="43.6023312271612" lon="3.788843951807255"><ele>63.66666666666667</ele><time>2026-04-26T07:04:26.008Z</time></trkpt><trkpt lat="43.60238668550674" lon="3.788987315186585"><ele>63.0</ele><time>2026-04-26T07:04:28.008Z</time></trkpt><trkpt lat="43.602418087847354" lon="3.789063486436855"><ele>62.33333333333333</ele><time>2026-04-26T07:04:29.008Z</time></trkpt><trkpt lat="43.60244831830479" lon="3.7891464419600815"><ele>61.666666666666664</ele><time>2026-04-26T07:04:30.008Z</time></trkpt><trkpt lat="43.60247488698545" lon="3.789236480645796"><ele>61.0</ele><time>2026-04-26T07:04:31.008Z</time></trkpt><trkpt lat="43.602509444285495" lon="3.7893204468639334"><ele>60.599999999999994</ele><time>2026-04-26T07:04:32.008Z</time></trkpt><trkpt lat="43.60253910181569" lon="3.789414766498586"><ele>60.199999999999996</ele><time>2026-04-26T07:04:33.008Z</time></trkpt><trkpt lat="43.602572055875676" lon="3.7894928724579424"><ele>59.800000000000004</ele><time>2026-04-26T07:04:34.008Z</time></trkpt><trkpt lat="43.602621779351345" lon="3.789654428144215"><ele>59.400000000000006</ele><time>2026-04-26T07:04:36.008Z</time></trkpt><trkpt lat="43.6026518125066" lon="3.7898008590732384"><ele>59.0</ele><time>2026-04-26T07:04:38.008Z</time></trkpt><trkpt lat="43.602652515985326" lon="3.78993391656838"><ele>59.0</ele><time>2026-04-26T07:04:40.008Z</time></trkpt><trkpt lat="43.60265117252438" lon="3.7900620708898836"><ele>59.0</ele><time>2026-04-26T07:04:42.008Z</time></trkpt><trkpt lat="43.6026637886412" lon="3.790162782855032"><ele>59.0</ele><time>2026-04-26T07:04:44.008Z</time></trkpt><trkpt lat="43.602665781218214" lon="3.7902634702854274"><ele>59.0</ele><time>2026-04-26T07:04:46.008Z</time></trkpt><trkpt lat="43.60267242792221" lon="3.7903534820079754"><ele>59.0</ele><time>2026-04-26T07:04:48.008Z</time></trkpt><trkpt lat="43.602684505449695" lon="3.7904447631522427"><ele>59.0</ele><time>2026-04-26T07:04:50.008Z</time></trkpt><trkpt lat="43.60270653453579" lon="3.790529183421985"><ele>59.0</ele><time>2026-04-26T07:04:52.008Z</time></trkpt><trkpt lat="43.6027447681463" lon="3.7906409205343103"><ele>59.333333333333336</ele><time>2026-04-26T07:04:55.008Z</time></trkpt><trkpt lat="43.60280187377882" lon="3.7907179179908215"><ele>59.66666666666667</ele><time>2026-04-26T07:04:58.008Z</time></trkpt><trkpt lat="43.6028642388273" lon="3.790767206275201"><ele>60.0</ele><time>2026-04-26T07:05:01.008Z</time></trkpt><trkpt lat="43.60293097608909" lon="3.7907871164799825"><ele>60.33333333333333</ele><time>2026-04-26T07:05:04.008Z</time></trkpt><trkpt lat="43.603015641221255" lon="3.7908226299519416"><ele>60.666666666666664</ele><time>2026-04-26T07:05:07.008Z</time></trkpt><trkpt lat="43.60309728971997" lon="3.7908640951577084"><ele>61.0</ele><time>2026-04-26T07:05:10.008Z</time></trkpt><trkpt lat="43.60317685848741" lon="3.7908821332044993"><ele>61.666666666666664</ele><time>2026-04-26T07:05:13.008Z</time></trkpt><trkpt lat="43.603254576301275" lon="3.790924341269185"><ele>62.33333333333333</ele><time>2026-04-26T07:05:16.008Z</time></trkpt><trkpt lat="43.60333255808375" lon="3.790963726339066"><ele>63.0</ele><time>2026-04-26T07:05:19.008Z</time></trkpt><trkpt lat="43.603406992574236" lon="3.7910108042218083"><ele>63.66666666666667</ele><time>2026-04-26T07:05:22.008Z</time></trkpt><trkpt lat="43.6034819561544" lon="3.791045932904856"><ele>64.33333333333334</ele><time>2026-04-26T07:05:25.008Z</time></trkpt><trkpt lat="43.60354094989689" lon="3.7910937509746248"><ele>65.0</ele><time>2026-04-26T07:05:28.008Z</time></trkpt><trkpt lat="43.60360468868221" lon="3.791135607015935"><ele>65.14285714285715</ele><time>2026-04-26T07:05:31.008Z</time></trkpt><trkpt lat="43.6036632511728" lon="3.7911955887196824"><ele>65.28571428571429</ele><time>2026-04-26T07:05:34.008Z</time></trkpt><trkpt lat="43.60372003210779" lon="3.791253402215738"><ele>65.42857142857143</ele><time>2026-04-26T07:05:37.008Z</time></trkpt><trkpt lat="43.60378194710492" lon="3.7913232968158126"><ele>65.57142857142858</ele><time>2026-04-26T07:05:40.008Z</time></trkpt><trkpt lat="43.60383825866066" lon="3.791390428925986"><ele>65.71428571428572</ele><time>2026-04-26T07:05:43.008Z</time></trkpt><trkpt lat="43.60389250483089" lon="3.791461054846627"><ele>65.85714285714286</ele><time>2026-04-26T07:05:46.008Z</time></trkpt><trkpt lat="43.603943586661366" lon="3.791539246296891"><ele>66.0</ele><time>2026-04-26T07:05:49.008Z</time></trkpt><trkpt lat="43.60399211438136" lon="3.7916122327231663"><ele>66.28571428571428</ele><time>2026-04-26T07:05:52.008Z</time></trkpt><trkpt lat="43.604033663865394" lon="3.791682903005056"><ele>66.57142857142857</ele><time>2026-04-26T07:05:55.007Z</time></trkpt><trkpt lat="43.604078603269" lon="3.791765149176949"><ele>66.85714285714286</ele><time>2026-04-26T07:05:58.007Z</time></trkpt><trkpt lat="43.604119961802404" lon="3.7918557819893883"><ele>67.14285714285714</ele><time>2026-04-26T07:06:01.007Z</time></trkpt><trkpt lat="43.60416683719672" lon="3.791932940757937"><ele>67.42857142857143</ele><time>2026-04-26T07:06:04.007Z</time></trkpt><trkpt lat="43.60420726360935" lon="3.792000983855597"><ele>67.71428571428571</ele><time>2026-04-26T07:06:07.007Z</time></trkpt><trkpt lat="43.6042625387666" lon="3.791953061526778"><ele>68.0</ele><time>2026-04-26T07:06:11.007Z</time></trkpt><trkpt lat="43.60431637052837" lon="3.7919077526175395"><ele>68.0</ele><time>2026-04-26T07:06:14.007Z</time></trkpt><trkpt lat="43.60438457747865" lon="3.7918519750352444"><ele>68.0</ele><time>2026-04-26T07:06:17.007Z</time></trkpt><trkpt lat="43.60444905233166" lon="3.79177842841233"><ele>68.0</ele><time>2026-04-26T07:06:20.007Z</time></trkpt><trkpt lat="43.60452145116099" lon="3.7917019096591824"><ele>68.0</ele><time>2026-04-26T07:06:23.007Z</time></trkpt><trkpt lat="43.60458554761699" lon="3.7916318105896156"><ele>68.0</ele><time>2026-04-26T07:06:26.007Z</time></trkpt><trkpt lat="43.604635530113434" lon="3.7915716067473055"><ele>68.0</ele><time>2026-04-26T07:06:28.007Z</time></trkpt><trkpt lat="43.60470397453535" lon="3.791505301313614"><ele>68.33333333333334</ele><time>2026-04-26T07:06:31.007Z</time></trkpt><trkpt lat="43.604776006068455" lon="3.7914371615599216"><ele>68.66666666666667</ele><time>2026-04-26T07:06:34.007Z</time></trkpt><trkpt lat="43.6048537648037" lon="3.7913845112088174"><ele>69.0</ele><time>2026-04-26T07:06:37.007Z</time></trkpt><trkpt lat="43.60493818635669" lon="3.7913378300484633"><ele>69.33333333333333</ele><time>2026-04-26T07:06:40.007Z</time></trkpt><trkpt lat="43.605023445339846" lon="3.791296867704033"><ele>69.66666666666666</ele><time>2026-04-26T07:06:43.007Z</time></trkpt><trkpt lat="43.60508161354295" lon="3.791262068875517"><ele>70.0</ele><time>2026-04-26T07:06:45.007Z</time></trkpt><trkpt lat="43.6051742238679" lon="3.791230398070958"><ele>70.0</ele><time>2026-04-26T07:06:48.007Z</time></trkpt><trkpt lat="43.60525571428284" lon="3.7912046837148283"><ele>70.0</ele><time>2026-04-26T07:06:51.007Z</time></trkpt><trkpt lat="43.605339549751754" lon="3.7911696371126786"><ele>70.0</ele><time>2026-04-26T07:06:54.007Z</time></trkpt><trkpt lat="43.605418925945656" lon="3.791120146224236"><ele>70.0</ele><time>2026-04-26T07:06:57.007Z</time></trkpt><trkpt lat="43.605488730596505" lon="3.7910673757296527"><ele>70.0</ele><time>2026-04-26T07:07:00.007Z</time></trkpt><trkpt lat="43.605559211811894" lon="3.7910185858983674"><ele>70.0</ele><time>2026-04-26T07:07:03.007Z</time></trkpt><trkpt lat="43.60562999889141" lon="3.7909593511134263"><ele>70.16666666666666</ele><time>2026-04-26T07:07:06.007Z</time></trkpt><trkpt lat="43.60568803627114" lon="3.790924135256814"><ele>70.33333333333333</ele><time>2026-04-26T07:07:08.007Z</time></trkpt><trkpt lat="43.60577908009385" lon="3.7908787561480546"><ele>70.5</ele><time>2026-04-26T07:07:11.007Z</time></trkpt><trkpt lat="43.605862032292315" lon="3.790847826335855"><ele>70.66666666666667</ele><time>2026-04-26T07:07:14.007Z</time></trkpt><trkpt lat="43.605948141177436" lon="3.7908178563881036"><ele>70.83333333333334</ele><time>2026-04-26T07:07:17.007Z</time></trkpt><trkpt lat="43.606036382829735" lon="3.7907765368569257"><ele>71.0</ele><time>2026-04-26T07:07:20.007Z</time></trkpt><trkpt lat="43.60611381725586" lon="3.790746724625203"><ele>71.83333333333334</ele><time>2026-04-26T07:07:23.007Z</time></trkpt><trkpt lat="43.60617988253791" lon="3.790721000356854"><ele>72.66666666666667</ele><time>2026-04-26T07:07:25.007Z</time></trkpt><trkpt lat="43.60624652701613" lon="3.790703340794519"><ele>73.5</ele><time>2026-04-26T07:07:27.007Z</time></trkpt><trkpt lat="43.60633230614149" lon="3.790665486581188"><ele>74.33333333333333</ele><time>2026-04-26T07:07:30.007Z</time></trkpt><trkpt lat="43.606411003477746" lon="3.790647149641092"><ele>75.16666666666666</ele><time>2026-04-26T07:07:33.007Z</time></trkpt><trkpt lat="43.606488009775" lon="3.7905946368646357"><ele>76.0</ele><time>2026-04-26T07:07:36.007Z</time></trkpt><trkpt lat="43.60658340849111" lon="3.7905608134705244"><ele>76.0</ele><time>2026-04-26T07:07:39.007Z</time></trkpt><trkpt lat="43.60664572659046" lon="3.7905028366180313"><ele>76.0</ele><time>2026-04-26T07:07:42.007Z</time></trkpt><trkpt lat="43.606731728190866" lon="3.7904594838876293"><ele>76.0</ele><time>2026-04-26T07:07:45.007Z</time></trkpt><trkpt lat="43.60680653628369" lon="3.7904113564038098"><ele>76.0</ele><time>2026-04-26T07:07:48.008Z</time></trkpt><trkpt lat="43.60688848964504" lon="3.7903739652720025"><ele>76.0</ele><time>2026-04-26T07:07:51.009Z</time></trkpt><trkpt lat="43.6069648496806" lon="3.790331276272149"><ele>76.0</ele><time>2026-04-26T07:07:54.008Z</time></trkpt><trkpt lat="43.60704728203841" lon="3.7902863680852716"><ele>76.16666666666666</ele><time>2026-04-26T07:07:57.009Z</time></trkpt><trkpt lat="43.60712679061338" lon="3.7902416013752647"><ele>76.33333333333333</ele><time>2026-04-26T07:08:00.008Z</time></trkpt><trkpt lat="43.607202724192796" lon="3.790189619452349"><ele>76.5</ele><time>2026-04-26T07:08:03.008Z</time></trkpt><trkpt lat="43.60729033639103" lon="3.7901520010495444"><ele>76.66666666666667</ele><time>2026-04-26T07:08:06.008Z</time></trkpt><trkpt lat="43.607365168013985" lon="3.790101262228448"><ele>76.83333333333334</ele><time>2026-04-26T07:08:09.008Z</time></trkpt><trkpt lat="43.60745521969903" lon="3.790065359880201"><ele>77.0</ele><time>2026-04-26T07:08:12.008Z</time></trkpt><trkpt lat="43.60753715415506" lon="3.7900338123397197"><ele>77.0</ele><time>2026-04-26T07:08:15.008Z</time></trkpt><trkpt lat="43.60762300090996" lon="3.7899972063454324"><ele>77.0</ele><time>2026-04-26T07:08:18.008Z</time></trkpt><trkpt lat="43.60769964288107" lon="3.789983848642921"><ele>77.0</ele><time>2026-04-26T07:08:21.008Z</time></trkpt><trkpt lat="43.607758958052905" lon="3.7900251916612095"><ele>77.0</ele><time>2026-04-26T07:08:24.008Z</time></trkpt><trkpt lat="43.60774477025041" lon="3.790124879711096"><ele>77.0</ele><time>2026-04-26T07:08:27.008Z</time></trkpt><trkpt lat="43.6077807428728" lon="3.7901983432060384"><ele>77.0</ele><time>2026-04-26T07:08:30.008Z</time></trkpt><trkpt lat="43.60786218497899" lon="3.7901766607111025"><ele>77.33333333333334</ele><time>2026-04-26T07:08:33.008Z</time></trkpt><trkpt lat="43.60792713262805" lon="3.7901215553341467"><ele>77.66666666666667</ele><time>2026-04-26T07:08:36.008Z</time></trkpt><trkpt lat="43.60800036482597" lon="3.790068457258896"><ele>78.0</ele><time>2026-04-26T07:08:39.008Z</time></trkpt><trkpt lat="43.60807591350511" lon="3.7900093048064423"><ele>78.33333333333333</ele><time>2026-04-26T07:08:42.008Z</time></trkpt><trkpt lat="43.608149949902035" lon="3.7899454987460603"><ele>78.66666666666666</ele><time>2026-04-26T07:08:45.008Z</time></trkpt><trkpt lat="43.608222193119055" lon="3.789879281561321"><ele>79.0</ele><time>2026-04-26T07:08:48.008Z</time></trkpt><trkpt lat="43.608299416890766" lon="3.7898183409386905"><ele>79.0</ele><time>2026-04-26T07:08:51.008Z</time></trkpt><trkpt lat="43.608358171456416" lon="3.789774249757038"><ele>79.0</ele><time>2026-04-26T07:08:53.008Z</time></trkpt><trkpt lat="43.608435346136055" lon="3.789719219307797"><ele>79.0</ele><time>2026-04-26T07:08:56.008Z</time></trkpt><trkpt lat="43.60851429159941" lon="3.7896576455631577"><ele>79.0</ele><time>2026-04-26T07:08:59.008Z</time></trkpt><trkpt lat="43.60859267349807" lon="3.7896108582353945"><ele>79.0</ele><time>2026-04-26T07:09:02.008Z</time></trkpt><trkpt lat="43.6086534803981" lon="3.7895574016039153"><ele>79.0</ele><time>2026-04-26T07:09:05.008Z</time></trkpt><trkpt lat="43.60871337262228" lon="3.789490268659212"><ele>79.33333333333333</ele><time>2026-04-26T07:09:08.008Z</time></trkpt><trkpt lat="43.60879629344597" lon="3.789457662296635"><ele>79.66666666666666</ele><time>2026-04-26T07:09:11.008Z</time></trkpt><trkpt lat="43.60887661776113" lon="3.789444619204312"><ele>80.0</ele><time>2026-04-26T07:09:14.008Z</time></trkpt><trkpt lat="43.6089460272035" lon="3.7894115861609743"><ele>80.33333333333333</ele><time>2026-04-26T07:09:17.008Z</time></trkpt><trkpt lat="43.60900883455327" lon="3.78933424881313"><ele>80.66666666666667</ele><time>2026-04-26T07:09:20.008Z</time></trkpt><trkpt lat="43.609073585336766" lon="3.789270273080121"><ele>81.0</ele><time>2026-04-26T07:09:23.008Z</time></trkpt><trkpt lat="43.60914350663418" lon="3.7892233188360716"><ele>81.0</ele><time>2026-04-26T07:09:26.008Z</time></trkpt><trkpt lat="43.609210755557534" lon="3.7891869608140363"><ele>81.0</ele><time>2026-04-26T07:09:29.008Z</time></trkpt><trkpt lat="43.60929359507031" lon="3.789153417024407"><ele>81.0</ele><time>2026-04-26T07:09:32.008Z</time></trkpt><trkpt lat="43.60935249947203" lon="3.7891202064970075"><ele>81.0</ele><time>2026-04-26T07:09:34.008Z</time></trkpt><trkpt lat="43.60941244110357" lon="3.78908088029547"><ele>81.0</ele><time>2026-04-26T07:09:36.008Z</time></trkpt><trkpt lat="43.60947066155929" lon="3.789034593471411"><ele>81.0</ele><time>2026-04-26T07:09:38.008Z</time></trkpt><trkpt lat="43.60952674896989" lon="3.7889947175884875"><ele>81.0</ele><time>2026-04-26T07:09:40.008Z</time></trkpt><trkpt lat="43.60958919385841" lon="3.788958969684446"><ele>81.14285714285714</ele><time>2026-04-26T07:09:42.008Z</time></trkpt><trkpt lat="43.60965010339771" lon="3.7889100879689512"><ele>81.28571428571428</ele><time>2026-04-26T07:09:44.008Z</time></trkpt><trkpt lat="43.609713002532125" lon="3.7888587526135256"><ele>81.42857142857142</ele><time>2026-04-26T07:09:46.008Z</time></trkpt><trkpt lat="43.609775640907365" lon="3.7888111303694374"><ele>81.57142857142857</ele><time>2026-04-26T07:09:48.008Z</time></trkpt><trkpt lat="43.609832896606605" lon="3.788758945705528"><ele>81.71428571428571</ele><time>2026-04-26T07:09:50.008Z</time></trkpt><trkpt lat="43.609902217529175" lon="3.788712375414223"><ele>81.85714285714285</ele><time>2026-04-26T07:09:52.009Z</time></trkpt><trkpt lat="43.60996354725273" lon="3.7886665866347204"><ele>82.0</ele><time>2026-04-26T07:09:54.009Z</time></trkpt><trkpt lat="43.61002238283976" lon="3.7886172455243976"><ele>82.0</ele><time>2026-04-26T07:09:56.009Z</time></trkpt><trkpt lat="43.610087490517884" lon="3.788568328736792"><ele>82.0</ele><time>2026-04-26T07:09:58.009Z</time></trkpt><trkpt lat="43.61017104667122" lon="3.7885060515200673"><ele>82.0</ele><time>2026-04-26T07:10:01.009Z</time></trkpt><trkpt lat="43.610227126208905" lon="3.788462602583971"><ele>82.0</ele><time>2026-04-26T07:10:03.009Z</time></trkpt><trkpt lat="43.61030591076204" lon="3.788396351312121"><ele>82.0</ele><time>2026-04-26T07:10:06.009Z</time></trkpt><trkpt lat="43.61038407852681" lon="3.788327552641715"><ele>82.0</ele><time>2026-04-26T07:10:09.009Z</time></trkpt><trkpt lat="43.61044287887397" lon="3.788295842738637"><ele>82.14285714285714</ele><time>2026-04-26T07:10:11.009Z</time></trkpt><trkpt lat="43.61051117833883" lon="3.788263453465928"><ele>82.28571428571428</ele><time>2026-04-26T07:10:13.009Z</time></trkpt><trkpt lat="43.61057189296725" lon="3.7883143487823845"><ele>82.42857142857142</ele><time>2026-04-26T07:10:15.009Z</time></trkpt><trkpt lat="43.61061836076467" lon="3.788407688875899"><ele>82.57142857142857</ele><time>2026-04-26T07:10:18.009Z</time></trkpt><trkpt lat="43.61066421903711" lon="3.7884708059112664"><ele>82.71428571428572</ele><time>2026-04-26T07:10:20.009Z</time></trkpt><trkpt lat="43.61069762374391" lon="3.7885736376034753"><ele>82.85714285714285</ele><time>2026-04-26T07:10:23.009Z</time></trkpt><trkpt lat="43.61073108134423" lon="3.7886518088065557"><ele>83.0</ele><time>2026-04-26T07:10:25.009Z</time></trkpt><trkpt lat="43.61074076699247" lon="3.788774828720413"><ele>83.0</ele><time>2026-04-26T07:10:28.009Z</time></trkpt><trkpt lat="43.61071587177083" lon="3.7888933814409618"><ele>83.0</ele><time>2026-04-26T07:10:31.009Z</time></trkpt><trkpt lat="43.61071138675659" lon="3.788991332214459"><ele>83.0</ele><time>2026-04-26T07:10:33.009Z</time></trkpt><trkpt lat="43.61070246876148" lon="3.7891057414472926"><ele>83.0</ele><time>2026-04-26T07:10:36.009Z</time></trkpt><trkpt lat="43.61068828528287" lon="3.789227657863655"><ele>83.0</ele><time>2026-04-26T07:10:39.009Z</time></trkpt><trkpt lat="43.610683360250825" lon="3.789350246863235"><ele>83.0</ele><time>2026-04-26T07:10:42.009Z</time></trkpt><trkpt lat="43.6107374246064" lon="3.7894563839162454"><ele>83.0</ele><time>2026-04-26T07:10:45.009Z</time></trkpt><trkpt lat="43.61080602445424" lon="3.7894542108933553"><ele>83.0</ele><time>2026-04-26T07:10:47.009Z</time></trkpt><trkpt lat="43.61088679355885" lon="3.7894230366659345"><ele>83.0</ele><time>2026-04-26T07:10:50.009Z</time></trkpt><trkpt lat="43.610954234107794" lon="3.7893838776379867"><ele>83.0</ele><time>2026-04-26T07:10:53.009Z</time></trkpt><trkpt lat="43.61103843040968" lon="3.789359718762154"><ele>83.0</ele><time>2026-04-26T07:10:56.009Z</time></trkpt><trkpt lat="43.611119879497274" lon="3.789338677406047"><ele>83.0</ele><time>2026-04-26T07:10:59.009Z</time></trkpt><trkpt lat="43.611218078992245" lon="3.7893318170796224"><ele>83.0</ele><time>2026-04-26T07:11:02.009Z</time></trkpt><trkpt lat="43.61128551862437" lon="3.789332250403703"><ele>83.0</ele><time>2026-04-26T07:11:04.009Z</time></trkpt><trkpt lat="43.61135418917709" lon="3.789336805022495"><ele>83.0</ele><time>2026-04-26T07:11:06.009Z</time></trkpt><trkpt lat="43.611416966327404" lon="3.7893522485437834"><ele>83.0</ele><time>2026-04-26T07:11:08.009Z</time></trkpt><trkpt lat="43.611507398749296" lon="3.7893793829349858"><ele>83.0</ele><time>2026-04-26T07:11:11.009Z</time></trkpt><trkpt lat="43.61158937267653" lon="3.789422254428927"><ele>83.0</ele><time>2026-04-26T07:11:14.009Z</time></trkpt><trkpt lat="43.61166669205013" lon="3.7894704400878663"><ele>83.0</ele><time>2026-04-26T07:11:17.009Z</time></trkpt><trkpt lat="43.61172468874315" lon="3.789506767275166"><ele>83.0</ele><time>2026-04-26T07:11:19.009Z</time></trkpt><trkpt lat="43.61180570043598" lon="3.7895542446977943"><ele>83.0</ele><time>2026-04-26T07:11:22.009Z</time></trkpt><trkpt lat="43.61188556437211" lon="3.789602100370455"><ele>83.0</ele><time>2026-04-26T07:11:25.009Z</time></trkpt><trkpt lat="43.61196727605244" lon="3.7896377457605284"><ele>83.0</ele><time>2026-04-26T07:11:28.009Z</time></trkpt><trkpt lat="43.61205621634161" lon="3.789674685915404"><ele>83.0</ele><time>2026-04-26T07:11:31.008Z</time></trkpt><trkpt lat="43.61214369628312" lon="3.7897000039049424"><ele>83.0</ele><time>2026-04-26T07:11:34.007Z</time></trkpt><trkpt lat="43.612235546363685" lon="3.7896999751230815"><ele>83.0</ele><time>2026-04-26T07:11:37.006Z</time></trkpt><trkpt lat="43.61232327735064" lon="3.78966024136072"><ele>83.0</ele><time>2026-04-26T07:11:40.006Z</time></trkpt><trkpt lat="43.612402061835695" lon="3.7896160144896878"><ele>83.0</ele><time>2026-04-26T07:11:43.005Z</time></trkpt><trkpt lat="43.612486289589256" lon="3.7895579270613178"><ele>83.0</ele><time>2026-04-26T07:11:46.005Z</time></trkpt><trkpt lat="43.61256647526601" lon="3.789500368388482"><ele>83.0</ele><time>2026-04-26T07:11:49.004Z</time></trkpt><trkpt lat="43.612642563154715" lon="3.7894347050782096"><ele>83.0</ele><time>2026-04-26T07:11:52.004Z</time></trkpt><trkpt lat="43.612723824141256" lon="3.789365299994833"><ele>83.0</ele><time>2026-04-26T07:11:55.004Z</time></trkpt><trkpt lat="43.61277912602082" lon="3.7893190023512346"><ele>83.0</ele><time>2026-04-26T07:11:57.003Z</time></trkpt><trkpt lat="43.612835169449745" lon="3.78927128552072"><ele>83.0</ele><time>2026-04-26T07:11:59.004Z</time></trkpt><trkpt lat="43.61289562116557" lon="3.7892404939527617"><ele>83.0</ele><time>2026-04-26T07:12:01.004Z</time></trkpt><trkpt lat="43.612953134333274" lon="3.7891872904044117"><ele>83.0</ele><time>2026-04-26T07:12:03.003Z</time></trkpt><trkpt lat="43.61301611598026" lon="3.789146588698502"><ele>83.57142857142857</ele><time>2026-04-26T07:12:05.003Z</time></trkpt><trkpt lat="43.61307742394863" lon="3.7891047294128124"><ele>84.14285714285715</ele><time>2026-04-26T07:12:07.003Z</time></trkpt><trkpt lat="43.613145041286906" lon="3.789069424155022"><ele>84.71428571428572</ele><time>2026-04-26T07:12:09.003Z</time></trkpt><trkpt lat="43.613220323890474" lon="3.7890478020861607"><ele>85.28571428571428</ele><time>2026-04-26T07:12:11.003Z</time></trkpt><trkpt lat="43.613272313223305" lon="3.7889950193454385"><ele>85.85714285714286</ele><time>2026-04-26T07:12:13.003Z</time></trkpt><trkpt lat="43.61333104149946" lon="3.7889545949938466"><ele>86.42857142857143</ele><time>2026-04-26T07:12:15.003Z</time></trkpt><trkpt lat="43.61339232009256" lon="3.788919679075073"><ele>87.0</ele><time>2026-04-26T07:12:17.003Z</time></trkpt><trkpt lat="43.613453411535" lon="3.788875566598865"><ele>87.0</ele><time>2026-04-26T07:12:19.003Z</time></trkpt><trkpt lat="43.6135189654575" lon="3.7888365431196678"><ele>87.0</ele><time>2026-04-26T07:12:21.003Z</time></trkpt><trkpt lat="43.61358171469714" lon="3.788804899755665"><ele>87.0</ele><time>2026-04-26T07:12:23.003Z</time></trkpt><trkpt lat="43.61366541512161" lon="3.788751845388968"><ele>87.0</ele><time>2026-04-26T07:12:26.003Z</time></trkpt><trkpt lat="43.61373380024342" lon="3.7886838358768564"><ele>87.0</ele><time>2026-04-26T07:12:29.003Z</time></trkpt><trkpt lat="43.613790281134754" lon="3.7886166759992603"><ele>87.0</ele><time>2026-04-26T07:12:32.003Z</time></trkpt><trkpt lat="43.613831088853885" lon="3.788537754175792"><ele>86.71428571428571</ele><time>2026-04-26T07:12:35.003Z</time></trkpt><trkpt lat="43.61388013893752" lon="3.7884620481598783"><ele>86.42857142857143</ele><time>2026-04-26T07:12:38.003Z</time></trkpt><trkpt lat="43.61391754323674" lon="3.788387117497908"><ele>86.14285714285714</ele><time>2026-04-26T07:12:41.003Z</time></trkpt><trkpt lat="43.61396839377752" lon="3.7883175356281695"><ele>85.85714285714286</ele><time>2026-04-26T07:12:54.002Z</time></trkpt><trkpt lat="43.61400331766894" lon="3.788241211782655"><ele>85.57142857142857</ele><time>2026-04-26T07:13:00.002Z</time></trkpt><trkpt lat="43.61404852520563" lon="3.788157575151389"><ele>85.28571428571429</ele><time>2026-04-26T07:13:04.002Z</time></trkpt><trkpt lat="43.61410869610148" lon="3.788071084712907"><ele>85.0</ele><time>2026-04-26T07:13:08.002Z</time></trkpt><trkpt lat="43.614143695851396" lon="3.7879872266536445"><ele>85.0</ele><time>2026-04-26T07:13:11.002Z</time></trkpt><trkpt lat="43.614192468806145" lon="3.7878928248338086"><ele>85.0</ele><time>2026-04-26T07:13:15.002Z</time></trkpt><trkpt lat="43.61422728897659" lon="3.787794167364894"><ele>85.0</ele><time>2026-04-26T07:13:19.002Z</time></trkpt><trkpt lat="43.61426724622839" lon="3.7877121293312106"><ele>85.0</ele><time>2026-04-26T07:13:22.002Z</time></trkpt><trkpt lat="43.614318435358065" lon="3.7876418065909356"><ele>85.0</ele><time>2026-04-26T07:13:25.002Z</time></trkpt><trkpt lat="43.614356923981795" lon="3.7875729565834817"><ele>85.0</ele><time>2026-04-26T07:13:28.002Z</time></trkpt><trkpt lat="43.61439554108514" lon="3.7875019736868225"><ele>85.0</ele><time>2026-04-26T07:13:31.002Z</time></trkpt><trkpt lat="43.61445446021341" lon="3.7873989542653024"><ele>83.66666666666666</ele><time>2026-04-26T07:13:34.002Z</time></trkpt><trkpt lat="43.614503593114755" lon="3.787318384096972"><ele>82.33333333333333</ele><time>2026-04-26T07:13:36.002Z</time></trkpt><trkpt lat="43.61455644722027" lon="3.787216848413249"><ele>81.0</ele><time>2026-04-26T07:13:39.002Z</time></trkpt><trkpt lat="43.61460083918531" lon="3.787116564985769"><ele>79.66666666666667</ele><time>2026-04-26T07:13:41.002Z</time></trkpt><trkpt lat="43.61465463027225" lon="3.7870081500811716"><ele>78.33333333333334</ele><time>2026-04-26T07:13:44.002Z</time></trkpt><trkpt lat="43.614689036429816" lon="3.7869202483928155"><ele>77.0</ele><time>2026-04-26T07:13:46.002Z</time></trkpt><trkpt lat="43.614795015827276" lon="3.7868594612785897"><ele>77.0</ele><time>2026-04-26T07:13:48.002Z</time></trkpt><trkpt lat="43.61489638644785" lon="3.786893284506429"><ele>77.0</ele><time>2026-04-26T07:13:50.002Z</time></trkpt><trkpt lat="43.61498649650375" lon="3.7869323236007424"><ele>77.0</ele><time>2026-04-26T07:13:52.002Z</time></trkpt><trkpt lat="43.61507345454551" lon="3.7869549938375573"><ele>77.0</ele><time>2026-04-26T07:13:54.002Z</time></trkpt><trkpt lat="43.61515059644611" lon="3.7868883485320795"><ele>77.0</ele><time>2026-04-26T07:13:56.002Z</time></trkpt><trkpt lat="43.61523054137208" lon="3.786820181738595"><ele>76.5</ele><time>2026-04-26T07:13:58.002Z</time></trkpt><trkpt lat="43.61529447030956" lon="3.786762864299424"><ele>76.0</ele><time>2026-04-26T07:14:00.002Z</time></trkpt><trkpt lat="43.615382883657475" lon="3.786704306422221"><ele>75.5</ele><time>2026-04-26T07:14:02.002Z</time></trkpt><trkpt lat="43.61545571011177" lon="3.786655786183701"><ele>75.0</ele><time>2026-04-26T07:14:05.003Z</time></trkpt><trkpt lat="43.6155221733462" lon="3.786629203261093"><ele>74.5</ele><time>2026-04-26T07:14:07.003Z</time></trkpt><trkpt lat="43.615614096133925" lon="3.78660332883774"><ele>74.0</ele><time>2026-04-26T07:14:10.003Z</time></trkpt><trkpt lat="43.61568386738608" lon="3.786566861124685"><ele>74.0</ele><time>2026-04-26T07:14:12.003Z</time></trkpt><trkpt lat="43.615795087478695" lon="3.7865449496797483"><ele>74.0</ele><time>2026-04-26T07:14:14.002Z</time></trkpt><trkpt lat="43.61601789298903" lon="3.7865314991263417"><ele>74.0</ele><time>2026-04-26T07:14:19.003Z</time></trkpt><trkpt lat="43.61613524076582" lon="3.786525050355705"><ele>72.66666666666667</ele><time>2026-04-26T07:14:21.003Z</time></trkpt><trkpt lat="43.616207800601536" lon="3.786509806718475"><ele>71.33333333333334</ele><time>2026-04-26T07:14:22.003Z</time></trkpt><trkpt lat="43.616320812625816" lon="3.7864366641618994"><ele>70.0</ele><time>2026-04-26T07:14:24.002Z</time></trkpt><trkpt lat="43.616398058342" lon="3.7863571275125567"><ele>68.66666666666667</ele><time>2026-04-26T07:14:26.002Z</time></trkpt><trkpt lat="43.61646455034975" lon="3.786295450174906"><ele>67.33333333333333</ele><time>2026-04-26T07:14:28.002Z</time></trkpt><trkpt lat="43.61652802938257" lon="3.7862463760913396"><ele>66.0</ele><time>2026-04-26T07:14:30.002Z</time></trkpt><trkpt lat="43.616597576596796" lon="3.7861725038924274"><ele>66.0</ele><time>2026-04-26T07:14:33.002Z</time></trkpt><trkpt lat="43.616652262079654" lon="3.7861134852397296"><ele>66.0</ele><time>2026-04-26T07:14:36.002Z</time></trkpt><trkpt lat="43.616690458093146" lon="3.7860384277550323"><ele>66.0</ele><time>2026-04-26T07:14:39.002Z</time></trkpt><trkpt lat="43.61674191850146" lon="3.7859484975383"><ele>66.0</ele><time>2026-04-26T07:14:43.002Z</time></trkpt><trkpt lat="43.616781610280526" lon="3.785860085769529"><ele>66.0</ele><time>2026-04-26T07:14:46.002Z</time></trkpt><trkpt lat="43.61683463876696" lon="3.785771235993961"><ele>66.0</ele><time>2026-04-26T07:14:49.002Z</time></trkpt><trkpt lat="43.6168869196863" lon="3.785683884486795"><ele>66.83333333333333</ele><time>2026-04-26T07:14:52.002Z</time></trkpt><trkpt lat="43.61693818509815" lon="3.7855864929349856"><ele>67.66666666666667</ele><time>2026-04-26T07:14:56.002Z</time></trkpt><trkpt lat="43.61697814166847" lon="3.7854953640383417"><ele>68.5</ele><time>2026-04-26T07:14:59.002Z</time></trkpt><trkpt lat="43.617013029963005" lon="3.785410394381589"><ele>69.33333333333334</ele><time>2026-04-26T07:15:02.002Z</time></trkpt><trkpt lat="43.61705988947196" lon="3.785327815213975"><ele>70.16666666666667</ele><time>2026-04-26T07:15:05.002Z</time></trkpt><trkpt lat="43.617098839085656" lon="3.785241707129289"><ele>71.0</ele><time>2026-04-26T07:15:08.002Z</time></trkpt><trkpt lat="43.617135253220134" lon="3.7851447949155363"><ele>72.0</ele><time>2026-04-26T07:15:12.002Z</time></trkpt><trkpt lat="43.61716638319788" lon="3.7850656414895494"><ele>73.0</ele><time>2026-04-26T07:15:15.002Z</time></trkpt><trkpt lat="43.617198341248375" lon="3.7849537833704385"><ele>74.0</ele><time>2026-04-26T07:15:19.002Z</time></trkpt><trkpt lat="43.61722999489759" lon="3.7848481743543463"><ele>75.0</ele><time>2026-04-26T07:15:22.002Z</time></trkpt><trkpt lat="43.61725627056116" lon="3.784743919837111"><ele>76.0</ele><time>2026-04-26T07:15:25.002Z</time></trkpt><trkpt lat="43.617269165108546" lon="3.784630623849596"><ele>77.0</ele><time>2026-04-26T07:15:28.002Z</time></trkpt><trkpt lat="43.61726821136023" lon="3.7845227820899954"><ele>77.0</ele><time>2026-04-26T07:15:31.002Z</time></trkpt><trkpt lat="43.61726916805024" lon="3.7844208341544707"><ele>77.0</ele><time>2026-04-26T07:15:34.002Z</time></trkpt><trkpt lat="43.617264387559196" lon="3.7843138465155137"><ele>77.0</ele><time>2026-04-26T07:15:38.002Z</time></trkpt><trkpt lat="43.61724683976464" lon="3.7842228227406403"><ele>77.0</ele><time>2026-04-26T07:15:42.002Z</time></trkpt><trkpt lat="43.61725182385758" lon="3.784134582341773"><ele>77.0</ele><time>2026-04-26T07:17:35.002Z</time></trkpt><trkpt lat="43.617240080721764" lon="3.784033476118875"><ele>77.0</ele><time>2026-04-26T07:17:39.002Z</time></trkpt><trkpt lat="43.617203370039775" lon="3.783917666982531"><ele>77.0</ele><time>2026-04-26T07:17:42.002Z</time></trkpt><trkpt lat="43.61718424586588" lon="3.783821227426558"><ele>76.83333333333334</ele><time>2026-04-26T07:17:44.002Z</time></trkpt><trkpt lat="43.61716382854312" lon="3.7837177055086206"><ele>76.66666666666667</ele><time>2026-04-26T07:17:46.002Z</time></trkpt><trkpt lat="43.61714515407514" lon="3.7836058489922157"><ele>76.5</ele><time>2026-04-26T07:17:48.002Z</time></trkpt><trkpt lat="43.617143802076875" lon="3.783482908942918"><ele>76.33333333333333</ele><time>2026-04-26T07:17:50.002Z</time></trkpt><trkpt lat="43.617150362126104" lon="3.783365700415527"><ele>76.16666666666666</ele><time>2026-04-26T07:17:52.002Z</time></trkpt><trkpt lat="43.61716464228203" lon="3.783263791098051"><ele>76.0</ele><time>2026-04-26T07:17:55.002Z</time></trkpt><trkpt lat="43.617162798918216" lon="3.783173520656715"><ele>76.0</ele><time>2026-04-26T07:17:57.002Z</time></trkpt><trkpt lat="43.61717212643964" lon="3.7830863112335544"><ele>76.0</ele><time>2026-04-26T07:17:59.002Z</time></trkpt><trkpt lat="43.61718099229057" lon="3.78297716033327"><ele>76.0</ele><time>2026-04-26T07:18:02.002Z</time></trkpt><trkpt lat="43.617199379038595" lon="3.782856736655226"><ele>76.0</ele><time>2026-04-26T07:18:05.002Z</time></trkpt><trkpt lat="43.61722911586662" lon="3.782741433940322"><ele>76.0</ele><time>2026-04-26T07:18:08.002Z</time></trkpt><trkpt lat="43.61725559768506" lon="3.7826236249699132"><ele>76.0</ele><time>2026-04-26T07:18:11.002Z</time></trkpt><trkpt lat="43.617281631518104" lon="3.782503418849105"><ele>76.57142857142857</ele><time>2026-04-26T07:18:14.002Z</time></trkpt><trkpt lat="43.61730260954722" lon="3.782408582911885"><ele>77.14285714285715</ele><time>2026-04-26T07:18:16.003Z</time></trkpt><trkpt lat="43.617316253319046" lon="3.7823190526724013"><ele>77.71428571428572</ele><time>2026-04-26T07:18:18.002Z</time></trkpt><trkpt lat="43.61733704433858" lon="3.782226762652315"><ele>78.28571428571428</ele><time>2026-04-26T07:18:20.002Z</time></trkpt><trkpt lat="43.61736637837107" lon="3.7820895937381875"><ele>78.85714285714286</ele><time>2026-04-26T07:18:23.002Z</time></trkpt><trkpt lat="43.617390184106156" lon="3.781995917046181"><ele>79.42857142857143</ele><time>2026-04-26T07:18:25.002Z</time></trkpt><trkpt lat="43.61740828978383" lon="3.781911833417485"><ele>80.0</ele><time>2026-04-26T07:18:27.003Z</time></trkpt><trkpt lat="43.61743781960175" lon="3.7818130148133244"><ele>80.66666666666667</ele><time>2026-04-26T07:18:29.002Z</time></trkpt><trkpt lat="43.61745206595527" lon="3.7816871329063586"><ele>81.33333333333334</ele><time>2026-04-26T07:18:32.001Z</time></trkpt><trkpt lat="43.617482628995916" lon="3.781589017309548"><ele>82.0</ele><time>2026-04-26T07:18:34.001Z</time></trkpt><trkpt lat="43.61751224626901" lon="3.7814941526481447"><ele>82.66666666666667</ele><time>2026-04-26T07:18:36.001Z</time></trkpt><trkpt lat="43.617535103357106" lon="3.7813546935635802"><ele>83.33333333333333</ele><time>2026-04-26T07:18:39.001Z</time></trkpt><trkpt lat="43.617569856641175" lon="3.781272895176818"><ele>84.0</ele><time>2026-04-26T07:18:41.001Z</time></trkpt><trkpt lat="43.61761245545243" lon="3.781190168755714"><ele>84.0</ele><time>2026-04-26T07:18:43.001Z</time></trkpt><trkpt lat="43.61764845847671" lon="3.781104136804888"><ele>84.0</ele><time>2026-04-26T07:18:45.001Z</time></trkpt><trkpt lat="43.61768149865517" lon="3.7810188950068726"><ele>84.0</ele><time>2026-04-26T07:18:47.001Z</time></trkpt><trkpt lat="43.61772805640872" lon="3.7809245609252033"><ele>84.0</ele><time>2026-04-26T07:18:49.001Z</time></trkpt><trkpt lat="43.617776686641754" lon="3.7808498205889967"><ele>84.0</ele><time>2026-04-26T07:18:51.001Z</time></trkpt><trkpt lat="43.617834617919016" lon="3.780781278525766"><ele>84.0</ele><time>2026-04-26T07:18:53.001Z</time></trkpt><trkpt lat="43.61789401011548" lon="3.7807191936209357"><ele>84.0</ele><time>2026-04-26T07:18:55.001Z</time></trkpt><trkpt lat="43.617950745061925" lon="3.780654942254573"><ele>84.0</ele><time>2026-04-26T07:18:57.001Z</time></trkpt><trkpt lat="43.61801927582266" lon="3.7805866158738057"><ele>84.0</ele><time>2026-04-26T07:18:59.001Z</time></trkpt><trkpt lat="43.618084423927336" lon="3.7805084049242943"><ele>84.0</ele><time>2026-04-26T07:19:01.001Z</time></trkpt><trkpt lat="43.61814216827819" lon="3.780422859944971"><ele>84.0</ele><time>2026-04-26T07:19:03.001Z</time></trkpt><trkpt lat="43.61819323883143" lon="3.780351037099847"><ele>84.0</ele><time>2026-04-26T07:19:05.001Z</time></trkpt><trkpt lat="43.61825416403924" lon="3.7802854237713572"><ele>84.0</ele><time>2026-04-26T07:19:08.001Z</time></trkpt><trkpt lat="43.61828936779999" lon="3.7801670890472217"><ele>84.0</ele><time>2026-04-26T07:19:11.001Z</time></trkpt><trkpt lat="43.61832838923501" lon="3.780060892746755"><ele>84.0</ele><time>2026-04-26T07:19:14.001Z</time></trkpt><trkpt lat="43.61836718079111" lon="3.7799556696566916"><ele>84.0</ele><time>2026-04-26T07:19:17.001Z</time></trkpt><trkpt lat="43.618392821774094" lon="3.7798760729973506"><ele>84.0</ele><time>2026-04-26T07:19:19.001Z</time></trkpt><trkpt lat="43.618429324864174" lon="3.7797963204058043"><ele>84.0</ele><time>2026-04-26T07:19:21.001Z</time></trkpt><trkpt lat="43.61844899983189" lon="3.7797042556831237"><ele>84.0</ele><time>2026-04-26T07:19:23.001Z</time></trkpt><trkpt lat="43.618456049011925" lon="3.7795751331059986"><ele>84.0</ele><time>2026-04-26T07:19:26.001Z</time></trkpt><trkpt lat="43.618463778593906" lon="3.7794850945259153"><ele>84.0</ele><time>2026-04-26T07:19:28.001Z</time></trkpt><trkpt lat="43.6184834483016" lon="3.779400210510594"><ele>84.0</ele><time>2026-04-26T07:19:30.001Z</time></trkpt><trkpt lat="43.618503824234324" lon="3.7792763963571843"><ele>84.0</ele><time>2026-04-26T07:19:33.001Z</time></trkpt><trkpt lat="43.61850368954077" lon="3.7791465553534236"><ele>84.0</ele><time>2026-04-26T07:19:36.001Z</time></trkpt><trkpt lat="43.61850353634345" lon="3.7790175792636136"><ele>84.0</ele><time>2026-04-26T07:19:39.001Z</time></trkpt><trkpt lat="43.618497995957725" lon="3.7789291480839124"><ele>84.0</ele><time>2026-04-26T07:19:41.001Z</time></trkpt><trkpt lat="43.61850869784815" lon="3.7788380231748246"><ele>84.0</ele><time>2026-04-26T07:19:44.001Z</time></trkpt><trkpt lat="43.61850929716757" lon="3.7787453235494786"><ele>84.0</ele><time>2026-04-26T07:19:47.001Z</time></trkpt><trkpt lat="43.61857804753937" lon="3.778651079264527"><ele>84.0</ele><time>2026-04-26T07:19:50.001Z</time></trkpt><trkpt lat="43.61866173720025" lon="3.7786150081870007"><ele>84.0</ele><time>2026-04-26T07:19:52.001Z</time></trkpt><trkpt lat="43.61876213951902" lon="3.778525255681704"><ele>84.0</ele><time>2026-04-26T07:19:54.001Z</time></trkpt><trkpt lat="43.61881447195951" lon="3.7784757130998927"><ele>84.0</ele><time>2026-04-26T07:19:55.001Z</time></trkpt><trkpt lat="43.618907764650736" lon="3.7783611141023092"><ele>84.0</ele><time>2026-04-26T07:19:57.001Z</time></trkpt><trkpt lat="43.61895926184144" lon="3.778297182931711"><ele>84.0</ele><time>2026-04-26T07:19:58.001Z</time></trkpt><trkpt lat="43.61901257751095" lon="3.7782289525601596"><ele>84.0</ele><time>2026-04-26T07:19:59.001Z</time></trkpt><trkpt lat="43.61906391140518" lon="3.778165777434414"><ele>84.0</ele><time>2026-04-26T07:20:00.001Z</time></trkpt><trkpt lat="43.61910875154514" lon="3.7780971969650463"><ele>84.0</ele><time>2026-04-26T07:20:01.001Z</time></trkpt><trkpt lat="43.6191547699482" lon="3.778034415094441"><ele>84.0</ele><time>2026-04-26T07:20:02.001Z</time></trkpt><trkpt lat="43.61924692083628" lon="3.77791724769286"><ele>84.0</ele><time>2026-04-26T07:20:04.001Z</time></trkpt><trkpt lat="43.61935392021076" lon="3.7778185746777004"><ele>84.0</ele><time>2026-04-26T07:20:06.001Z</time></trkpt><trkpt lat="43.61941711303676" lon="3.777814229289148"><ele>84.0</ele><time>2026-04-26T07:20:07.001Z</time></trkpt><trkpt lat="43.61947636149386" lon="3.777873294051913"><ele>84.0</ele><time>2026-04-26T07:20:08.001Z</time></trkpt><trkpt lat="43.619504194785016" lon="3.777998586104787"><ele>84.57142857142857</ele><time>2026-04-26T07:20:10.001Z</time></trkpt><trkpt lat="43.61954004158244" lon="3.7780805912057205"><ele>85.14285714285714</ele><time>2026-04-26T07:20:12.001Z</time></trkpt><trkpt lat="43.61958460036638" lon="3.778153358966553"><ele>85.71428571428572</ele><time>2026-04-26T07:20:15.001Z</time></trkpt><trkpt lat="43.61964722168414" lon="3.778177523742517"><ele>86.28571428571428</ele><time>2026-04-26T07:20:18.001Z</time></trkpt><trkpt lat="43.61969938974036" lon="3.778236387241955"><ele>86.85714285714286</ele><time>2026-04-26T07:20:22.002Z</time></trkpt><trkpt lat="43.619692080003894" lon="3.7783298652766675"><ele>87.42857142857143</ele><time>2026-04-26T07:20:25.002Z</time></trkpt><trkpt lat="43.61968589091092" lon="3.7784179031701113"><ele>88.0</ele><time>2026-04-26T07:20:27.002Z</time></trkpt><trkpt lat="43.619654005549435" lon="3.778521082921753"><ele>88.16666666666666</ele><time>2026-04-26T07:20:29.002Z</time></trkpt><trkpt lat="43.619637005172244" lon="3.7786510151822945"><ele>88.33333333333333</ele><time>2026-04-26T07:20:32.002Z</time></trkpt><trkpt lat="43.619618615738794" lon="3.778738065741803"><ele>88.5</ele><time>2026-04-26T07:20:34.002Z</time></trkpt><trkpt lat="43.61958549760294" lon="3.7788349368360605"><ele>88.66666666666667</ele><time>2026-04-26T07:20:36.001Z</time></trkpt><trkpt lat="43.61956680848389" lon="3.7789297938431123"><ele>88.83333333333334</ele><time>2026-04-26T07:20:38.001Z</time></trkpt><trkpt lat="43.61954520646498" lon="3.779061254744844"><ele>89.0</ele><time>2026-04-26T07:20:41.001Z</time></trkpt><trkpt lat="43.61952579531323" lon="3.779184989438568"><ele>89.0</ele><time>2026-04-26T07:20:43.001Z</time></trkpt><trkpt lat="43.61949286906792" lon="3.779288371732973"><ele>89.0</ele><time>2026-04-26T07:20:45.001Z</time></trkpt><trkpt lat="43.619457752520674" lon="3.7794147579658106"><ele>89.0</ele><time>2026-04-26T07:20:47.001Z</time></trkpt><trkpt lat="43.61941697944087" lon="3.779543690542097"><ele>89.0</ele><time>2026-04-26T07:20:49.001Z</time></trkpt><trkpt lat="43.61940893785625" lon="3.779690541904662"><ele>89.0</ele><time>2026-04-26T07:20:51.001Z</time></trkpt><trkpt lat="43.619410328145854" lon="3.779830629770666"><ele>87.83333333333334</ele><time>2026-04-26T07:20:53.001Z</time></trkpt><trkpt lat="43.619389672649454" lon="3.7799439079668877"><ele>86.66666666666667</ele><time>2026-04-26T07:20:55.001Z</time></trkpt><trkpt lat="43.6193716660942" lon="3.780053108361247"><ele>85.5</ele><time>2026-04-26T07:20:57.001Z</time></trkpt><trkpt lat="43.61935236785011" lon="3.7801694881664125"><ele>84.33333333333333</ele><time>2026-04-26T07:20:59.001Z</time></trkpt><trkpt lat="43.619324647249364" lon="3.780282026681013"><ele>83.16666666666666</ele><time>2026-04-26T07:21:01.001Z</time></trkpt><trkpt lat="43.619302049930816" lon="3.7803906560338287"><ele>82.0</ele><time>2026-04-26T07:21:03.001Z</time></trkpt><trkpt lat="43.61927511069274" lon="3.780490464943606"><ele>81.99999999999999</ele><time>2026-04-26T07:21:05.001Z</time></trkpt><trkpt lat="43.61926107073018" lon="3.7805899409745627"><ele>82.0</ele><time>2026-04-26T07:21:07.001Z</time></trkpt><trkpt lat="43.619248736480486" lon="3.780694266698469"><ele>82.0</ele><time>2026-04-26T07:21:09.001Z</time></trkpt><trkpt lat="43.619244072517645" lon="3.7807831613454663"><ele>82.0</ele><time>2026-04-26T07:21:11.001Z</time></trkpt><trkpt lat="43.61923714459464" lon="3.7808831389301836"><ele>82.0</ele><time>2026-04-26T07:21:13.001Z</time></trkpt><trkpt lat="43.61921504407331" lon="3.7809806601012865"><ele>81.99999999999999</ele><time>2026-04-26T07:21:15.001Z</time></trkpt><trkpt lat="43.6191540101582" lon="3.781043354224316"><ele>82.0</ele><time>2026-04-26T07:21:17.001Z</time></trkpt><trkpt lat="43.619073230469034" lon="3.7810753977068052"><ele>82.33333333333333</ele><time>2026-04-26T07:21:20.001Z</time></trkpt><trkpt lat="43.61901911724788" lon="3.7811473637495663"><ele>82.66666666666666</ele><time>2026-04-26T07:21:22.001Z</time></trkpt><trkpt lat="43.61894941449576" lon="3.7812420044758683"><ele>83.0</ele><time>2026-04-26T07:21:24.001Z</time></trkpt><trkpt lat="43.618909788414314" lon="3.781324205301063"><ele>83.33333333333333</ele><time>2026-04-26T07:21:26.001Z</time></trkpt><trkpt lat="43.61889323801151" lon="3.781422777552017"><ele>83.66666666666667</ele><time>2026-04-26T07:21:28.001Z</time></trkpt><trkpt lat="43.6188998224703" lon="3.7815253263328805"><ele>84.0</ele><time>2026-04-26T07:21:30.001Z</time></trkpt><trkpt lat="43.61882941547246" lon="3.7815828349208256"><ele>84.0</ele><time>2026-04-26T07:21:32.001Z</time></trkpt><trkpt lat="43.618772430238394" lon="3.781688231345351"><ele>84.0</ele><time>2026-04-26T07:21:34.001Z</time></trkpt><trkpt lat="43.61870469557474" lon="3.781775938417694"><ele>84.0</ele><time>2026-04-26T07:21:36.001Z</time></trkpt><trkpt lat="43.61867369049565" lon="3.781866558900933"><ele>84.0</ele><time>2026-04-26T07:21:38.001Z</time></trkpt><trkpt lat="43.618666429966915" lon="3.7819736819967433"><ele>84.0</ele><time>2026-04-26T07:21:40.001Z</time></trkpt><trkpt lat="43.61866811294105" lon="3.7820968943356545"><ele>84.0</ele><time>2026-04-26T07:21:43.001Z</time></trkpt><trkpt lat="43.61862194883891" lon="3.782212565292992"><ele>83.0</ele><time>2026-04-26T07:21:46.001Z</time></trkpt><trkpt lat="43.618578789791684" lon="3.782328692677295"><ele>82.0</ele><time>2026-04-26T07:21:49.001Z</time></trkpt><trkpt lat="43.618528751048316" lon="3.782416433160567"><ele>81.0</ele><time>2026-04-26T07:21:51.001Z</time></trkpt><trkpt lat="43.61852482822702" lon="3.7825231540564466"><ele>80.0</ele><time>2026-04-26T07:21:53.001Z</time></trkpt><trkpt lat="43.61855119628601" lon="3.782604972102563"><ele>79.0</ele><time>2026-04-26T07:21:55.001Z</time></trkpt><trkpt lat="43.61853557350945" lon="3.7827205440766942"><ele>78.0</ele><time>2026-04-26T07:21:58.001Z</time></trkpt><trkpt lat="43.61851528933435" lon="3.7828350798070027"><ele>77.8</ele><time>2026-04-26T07:22:00.001Z</time></trkpt><trkpt lat="43.61848940066738" lon="3.7829462604700432"><ele>77.6</ele><time>2026-04-26T07:22:02.001Z</time></trkpt><trkpt lat="43.61844806469472" lon="3.7830715695920194"><ele>77.4</ele><time>2026-04-26T07:22:04.001Z</time></trkpt><trkpt lat="43.61837482693521" lon="3.7831615600921156"><ele>77.2</ele><time>2026-04-26T07:22:06.001Z</time></trkpt><trkpt lat="43.61831544503008" lon="3.783306629824649"><ele>77.0</ele><time>2026-04-26T07:22:08.001Z</time></trkpt><trkpt lat="43.61828780662183" lon="3.7833972262222533"><ele>76.2</ele><time>2026-04-26T07:22:09.001Z</time></trkpt><trkpt lat="43.61827602405476" lon="3.783520006969471"><ele>75.4</ele><time>2026-04-26T07:22:11.001Z</time></trkpt><trkpt lat="43.618328870903106" lon="3.7836329828644613"><ele>74.6</ele><time>2026-04-26T07:22:13.001Z</time></trkpt><trkpt lat="43.61836407974971" lon="3.783780860474047"><ele>73.8</ele><time>2026-04-26T07:22:15.001Z</time></trkpt><trkpt lat="43.618402452110374" lon="3.7839287697668635"><ele>73.0</ele><time>2026-04-26T07:22:17.001Z</time></trkpt><trkpt lat="43.61844101699727" lon="3.7840738568212666"><ele>73.0</ele><time>2026-04-26T07:22:19.001Z</time></trkpt><trkpt lat="43.61848180535509" lon="3.784226048779412"><ele>73.0</ele><time>2026-04-26T07:22:21.001Z</time></trkpt><trkpt lat="43.61857901225119" lon="3.7843202579963413"><ele>73.0</ele><time>2026-04-26T07:22:23.001Z</time></trkpt><trkpt lat="43.6186756099645" lon="3.7843165195893933"><ele>73.0</ele><time>2026-04-26T07:22:25.001Z</time></trkpt><trkpt lat="43.6187430788773" lon="3.7843060694001482"><ele>73.0</ele><time>2026-04-26T07:22:27.001Z</time></trkpt><trkpt lat="43.61880614367092" lon="3.7842499899288184"><ele>73.14285714285714</ele><time>2026-04-26T07:22:29.001Z</time></trkpt><trkpt lat="43.61886298091841" lon="3.7841991613446493"><ele>73.28571428571429</ele><time>2026-04-26T07:22:31.001Z</time></trkpt><trkpt lat="43.618925654317216" lon="3.784136809216089"><ele>73.42857142857143</ele><time>2026-04-26T07:22:34.001Z</time></trkpt><trkpt lat="43.61895386339291" lon="3.7840410748747106"><ele>73.57142857142857</ele><time>2026-04-26T07:22:37.001Z</time></trkpt><trkpt lat="43.61900572994313" lon="3.7839547402490985"><ele>73.71428571428571</ele><time>2026-04-26T07:22:40.001Z</time></trkpt><trkpt lat="43.61904507740708" lon="3.7838751342959567"><ele>73.85714285714286</ele><time>2026-04-26T07:22:43.002Z</time></trkpt><trkpt lat="43.61905386415484" lon="3.7837801528015147"><ele>74.0</ele><time>2026-04-26T07:22:46.002Z</time></trkpt><trkpt lat="43.619084974472" lon="3.783691701589521"><ele>74.0</ele><time>2026-04-26T07:22:49.002Z</time></trkpt><trkpt lat="43.61913084924071" lon="3.783601701290182"><ele>74.0</ele><time>2026-04-26T07:22:52.002Z</time></trkpt><trkpt lat="43.619149631530526" lon="3.7834928778367067"><ele>74.0</ele><time>2026-04-26T07:22:55.002Z</time></trkpt><trkpt lat="43.61919348576539" lon="3.783401590823443"><ele>74.0</ele><time>2026-04-26T07:22:58.002Z</time></trkpt><trkpt lat="43.61924409047093" lon="3.783320236012521"><ele>74.0</ele><time>2026-04-26T07:23:01.002Z</time></trkpt><trkpt lat="43.61929759985779" lon="3.7832705749351514"><ele>74.0</ele><time>2026-04-26T07:23:03.002Z</time></trkpt><trkpt lat="43.619332326774625" lon="3.7831965405155685"><ele>74.0</ele><time>2026-04-26T07:23:05.002Z</time></trkpt><trkpt lat="43.61933039345529" lon="3.7830824738197384"><ele>74.16666666666667</ele><time>2026-04-26T07:23:08.002Z</time></trkpt><trkpt lat="43.619349212254455" lon="3.782975855304598"><ele>74.33333333333334</ele><time>2026-04-26T07:23:11.002Z</time></trkpt><trkpt lat="43.61941153486194" lon="3.782885375467428"><ele>74.5</ele><time>2026-04-26T07:23:14.002Z</time></trkpt><trkpt lat="43.619472236033076" lon="3.7828593814864964"><ele>74.66666666666667</ele><time>2026-04-26T07:23:16.002Z</time></trkpt><trkpt lat="43.61951018223981" lon="3.7827790578035048"><ele>74.83333333333333</ele><time>2026-04-26T07:23:18.002Z</time></trkpt><trkpt lat="43.61952900396393" lon="3.7826762389696715"><ele>75.0</ele><time>2026-04-26T07:23:21.002Z</time></trkpt><trkpt lat="43.61960123039877" lon="3.782615832861089"><ele>76.0</ele><time>2026-04-26T07:23:24.002Z</time></trkpt><trkpt lat="43.619667827924644" lon="3.782589957037701"><ele>77.0</ele><time>2026-04-26T07:23:26.002Z</time></trkpt><trkpt lat="43.619731728716225" lon="3.7825064491343388"><ele>78.0</ele><time>2026-04-26T07:23:29.002Z</time></trkpt><trkpt lat="43.619791374421354" lon="3.7824180298741203"><ele>79.0</ele><time>2026-04-26T07:23:32.002Z</time></trkpt><trkpt lat="43.6198490518054" lon="3.7823391512288134"><ele>80.0</ele><time>2026-04-26T07:23:35.002Z</time></trkpt><trkpt lat="43.619902579736255" lon="3.7822822325269123"><ele>81.0</ele><time>2026-04-26T07:23:37.002Z</time></trkpt><trkpt lat="43.61996043751512" lon="3.782228800425377"><ele>81.0</ele><time>2026-04-26T07:23:39.002Z</time></trkpt><trkpt lat="43.61999745343529" lon="3.782144251462124"><ele>81.0</ele><time>2026-04-26T07:23:42.002Z</time></trkpt><trkpt lat="43.620028848395975" lon="3.7820642432334886"><ele>81.0</ele><time>2026-04-26T07:23:44.002Z</time></trkpt><trkpt lat="43.62007200293252" lon="3.781999670572934"><ele>81.0</ele><time>2026-04-26T07:23:46.002Z</time></trkpt><trkpt lat="43.62013098975735" lon="3.7818976066120182"><ele>81.0</ele><time>2026-04-26T07:23:49.002Z</time></trkpt><trkpt lat="43.620142462426145" lon="3.7817777200022125"><ele>81.0</ele><time>2026-04-26T07:23:52.002Z</time></trkpt><trkpt lat="43.6201402950955" lon="3.7816658094803612"><ele>81.83333333333333</ele><time>2026-04-26T07:23:55.002Z</time></trkpt><trkpt lat="43.62017138464162" lon="3.781561375158532"><ele>82.66666666666667</ele><time>2026-04-26T07:23:58.002Z</time></trkpt><trkpt lat="43.620225432650514" lon="3.781465179879799"><ele>83.5</ele><time>2026-04-26T07:24:01.002Z</time></trkpt><trkpt lat="43.620274237273115" lon="3.781377042141303"><ele>84.33333333333334</ele><time>2026-04-26T07:24:04.002Z</time></trkpt><trkpt lat="43.62033515719736" lon="3.781300617350882"><ele>85.16666666666667</ele><time>2026-04-26T07:24:07.002Z</time></trkpt><trkpt lat="43.62036900159501" lon="3.7812232077132575"><ele>86.0</ele><time>2026-04-26T07:24:09.002Z</time></trkpt><trkpt lat="43.620435153511025" lon="3.781142943458323"><ele>86.00000000000001</ele><time>2026-04-26T07:24:12.002Z</time></trkpt><trkpt lat="43.620521279860625" lon="3.7811081137255758"><ele>86.0</ele><time>2026-04-26T07:24:15.002Z</time></trkpt><trkpt lat="43.62058346356387" lon="3.7810861986586284"><ele>86.0</ele><time>2026-04-26T07:24:18.002Z</time></trkpt><trkpt lat="43.62065001541744" lon="3.7810543511645665"><ele>86.0</ele><time>2026-04-26T07:24:20.002Z</time></trkpt><trkpt lat="43.620708970570426" lon="3.7810000656311833"><ele>86.0</ele><time>2026-04-26T07:24:23.002Z</time></trkpt><trkpt lat="43.620771399193394" lon="3.780941841794287"><ele>86.00000000000001</ele><time>2026-04-26T07:24:26.001Z</time></trkpt><trkpt lat="43.620839581447626" lon="3.780909058898538"><ele>86.0</ele><time>2026-04-26T07:24:29.001Z</time></trkpt><trkpt lat="43.620869989071956" lon="3.7808142888522305"><ele>86.57142857142858</ele><time>2026-04-26T07:24:32.001Z</time></trkpt><trkpt lat="43.62089933548572" lon="3.7807323961079953"><ele>87.14285714285714</ele><time>2026-04-26T07:24:35.001Z</time></trkpt><trkpt lat="43.620928636019755" lon="3.780635463746698"><ele>87.71428571428572</ele><time>2026-04-26T07:24:39.002Z</time></trkpt><trkpt lat="43.62095878783026" lon="3.7805460261058674"><ele>88.28571428571429</ele><time>2026-04-26T07:24:42.001Z</time></trkpt><trkpt lat="43.62097424640389" lon="3.7804581954077645"><ele>88.85714285714286</ele><time>2026-04-26T07:24:45.001Z</time></trkpt><trkpt lat="43.620994778842" lon="3.7803555566832476"><ele>89.42857142857143</ele><time>2026-04-26T07:24:48.001Z</time></trkpt><trkpt lat="43.62101441359947" lon="3.7802631428376"><ele>90.0</ele><time>2026-04-26T07:24:51.001Z</time></trkpt><trkpt lat="43.62103256117216" lon="3.780156430630341"><ele>90.33333333333333</ele><time>2026-04-26T07:24:54.001Z</time></trkpt><trkpt lat="43.62105835583311" lon="3.780049079681957"><ele>90.66666666666667</ele><time>2026-04-26T07:24:57.001Z</time></trkpt><trkpt lat="43.62109059777871" lon="3.779959256086845"><ele>91.0</ele><time>2026-04-26T07:24:59.001Z</time></trkpt><trkpt lat="43.62110208243761" lon="3.7798479968623107"><ele>91.33333333333334</ele><time>2026-04-26T07:25:02.001Z</time></trkpt><trkpt lat="43.621114880622606" lon="3.7797612022078977"><ele>91.66666666666667</ele><time>2026-04-26T07:25:04.001Z</time></trkpt><trkpt lat="43.621143683391544" lon="3.779642807613939"><ele>92.0</ele><time>2026-04-26T07:25:07.001Z</time></trkpt><trkpt lat="43.621158730092766" lon="3.7795528195773826"><ele>92.0</ele><time>2026-04-26T07:25:09.001Z</time></trkpt><trkpt lat="43.62117395430672" lon="3.779464905858901"><ele>92.0</ele><time>2026-04-26T07:25:11.001Z</time></trkpt><trkpt lat="43.62119174631027" lon="3.7793711711664684"><ele>92.0</ele><time>2026-04-26T07:25:13.001Z</time></trkpt><trkpt lat="43.6212052031677" lon="3.77928504671347"><ele>92.0</ele><time>2026-04-26T07:25:15.001Z</time></trkpt><trkpt lat="43.6212295951529" lon="3.779198345475121"><ele>92.0</ele><time>2026-04-26T07:25:17.001Z</time></trkpt><trkpt lat="43.621240760150094" lon="3.7790695711278515"><ele>92.0</ele><time>2026-04-26T07:25:20.001Z</time></trkpt><trkpt lat="43.62125713137039" lon="3.778950493799254"><ele>92.0</ele><time>2026-04-26T07:25:23.001Z</time></trkpt><trkpt lat="43.62128735008103" lon="3.778853578700529"><ele>92.5</ele><time>2026-04-26T07:25:26.001Z</time></trkpt><trkpt lat="43.621302728347914" lon="3.778764924353029"><ele>93.0</ele><time>2026-04-26T07:25:30.001Z</time></trkpt><trkpt lat="43.621311753950984" lon="3.7786610997413304"><ele>93.5</ele><time>2026-04-26T07:27:57.001Z</time></trkpt><trkpt lat="43.62131229717244" lon="3.7785663536070895"><ele>94.0</ele><time>2026-04-26T07:28:00.001Z</time></trkpt><trkpt lat="43.621332292939805" lon="3.778446085157528"><ele>94.5</ele><time>2026-04-26T07:28:03.001Z</time></trkpt><trkpt lat="43.62133554220478" lon="3.7783511112848953"><ele>95.0</ele><time>2026-04-26T07:28:05.001Z</time></trkpt><trkpt lat="43.62136318575756" lon="3.7782295083996527"><ele>95.14285714285714</ele><time>2026-04-26T07:28:08.001Z</time></trkpt><trkpt lat="43.62136766628639" lon="3.7781326306631526"><ele>95.28571428571429</ele><time>2026-04-26T07:28:10.001Z</time></trkpt><trkpt lat="43.62138460740894" lon="3.7780352378823188"><ele>95.42857142857142</ele><time>2026-04-26T07:28:12.001Z</time></trkpt><trkpt lat="43.62141480221995" lon="3.7779579799472396"><ele>95.57142857142857</ele><time>2026-04-26T07:28:14.001Z</time></trkpt><trkpt lat="43.62140935501343" lon="3.7778598996670487"><ele>95.71428571428571</ele><time>2026-04-26T07:28:16.001Z</time></trkpt><trkpt lat="43.62141503245876" lon="3.7777673262399203"><ele>95.85714285714285</ele><time>2026-04-26T07:28:18.001Z</time></trkpt><trkpt lat="43.62144361365997" lon="3.777672125691395"><ele>96.0</ele><time>2026-04-26T07:28:20.001Z</time></trkpt><trkpt lat="43.62145746540213" lon="3.7775834309209038"><ele>96.33333333333333</ele><time>2026-04-26T07:28:22.001Z</time></trkpt><trkpt lat="43.621472787450266" lon="3.7774911162710785"><ele>96.66666666666666</ele><time>2026-04-26T07:28:24.001Z</time></trkpt><trkpt lat="43.62145250323917" lon="3.7773689213498516"><ele>97.0</ele><time>2026-04-26T07:28:27.001Z</time></trkpt><trkpt lat="43.62144030483" lon="3.7772789790198904"><ele>97.33333333333333</ele><time>2026-04-26T07:28:29.001Z</time></trkpt><trkpt lat="43.62144610654697" lon="3.7771795964980264"><ele>97.66666666666666</ele><time>2026-04-26T07:28:31.001Z</time></trkpt><trkpt lat="43.62145079611219" lon="3.7770717376902363"><ele>98.0</ele><time>2026-04-26T07:28:33.001Z</time></trkpt><trkpt lat="43.621451000049255" lon="3.776951181492796"><ele>98.16666666666666</ele><time>2026-04-26T07:28:35.001Z</time></trkpt><trkpt lat="43.621487359575035" lon="3.77683308235905"><ele>98.33333333333333</ele><time>2026-04-26T07:28:37.001Z</time></trkpt><trkpt lat="43.621540345827995" lon="3.776749233410231"><ele>98.5</ele><time>2026-04-26T07:28:39.001Z</time></trkpt><trkpt lat="43.62156922800852" lon="3.776648195896983"><ele>98.66666666666666</ele><time>2026-04-26T07:28:41.001Z</time></trkpt><trkpt lat="43.62163233157552" lon="3.7766070150183415"><ele>98.83333333333333</ele><time>2026-04-26T07:28:43.001Z</time></trkpt><trkpt lat="43.62165053302985" lon="3.776489699034353"><ele>99.0</ele><time>2026-04-26T07:28:46.001Z</time></trkpt><trkpt lat="43.62168947460184" lon="3.776419830842158"><ele>99.0</ele><time>2026-04-26T07:28:48.001Z</time></trkpt><trkpt lat="43.62173442369101" lon="3.776306311736106"><ele>99.0</ele><time>2026-04-26T07:28:51.001Z</time></trkpt><trkpt lat="43.6217986117304" lon="3.7762180679195034"><ele>99.0</ele><time>2026-04-26T07:28:54.001Z</time></trkpt><trkpt lat="43.62185927014083" lon="3.776194626406796"><ele>99.0</ele><time>2026-04-26T07:28:56.001Z</time></trkpt><trkpt lat="43.6219169000811" lon="3.776150205311789"><ele>99.0</ele><time>2026-04-26T07:28:58.001Z</time></trkpt><trkpt lat="43.62199445596863" lon="3.7761190109858167"><ele>99.0</ele><time>2026-04-26T07:29:01.001Z</time></trkpt><trkpt lat="43.62205465147223" lon="3.7760486096235186"><ele>99.83333333333333</ele><time>2026-04-26T07:29:04.001Z</time></trkpt><trkpt lat="43.62213299179502" lon="3.7760065752643586"><ele>100.66666666666666</ele><time>2026-04-26T07:29:07.001Z</time></trkpt><trkpt lat="43.622187281991856" lon="3.7760538181307117"><ele>101.5</ele><time>2026-04-26T07:29:10.001Z</time></trkpt><trkpt lat="43.622256944914376" lon="3.776068362493905"><ele>102.33333333333333</ele><time>2026-04-26T07:29:14.001Z</time></trkpt><trkpt lat="43.62232972457398" lon="3.776033986279978"><ele>103.16666666666666</ele><time>2026-04-26T07:29:18.001Z</time></trkpt><trkpt lat="43.622404326065144" lon="3.776006820110584"><ele>104.0</ele><time>2026-04-26T07:29:22.001Z</time></trkpt><trkpt lat="43.6224795720097" lon="3.775971755843949"><ele>104.0</ele><time>2026-04-26T07:29:26.001Z</time></trkpt><trkpt lat="43.62255301523073" lon="3.7759438237854135"><ele>104.0</ele><time>2026-04-26T07:29:30.001Z</time></trkpt><trkpt lat="43.62262281529647" lon="3.7759778594631164"><ele>104.0</ele><time>2026-04-26T07:29:34.001Z</time></trkpt><trkpt lat="43.62268356288723" lon="3.776015092730383"><ele>104.0</ele><time>2026-04-26T07:29:37.001Z</time></trkpt><trkpt lat="43.622749379045324" lon="3.77602189337067"><ele>104.0</ele><time>2026-04-26T07:29:40.001Z</time></trkpt><trkpt lat="43.62281759330711" lon="3.7760217775608806"><ele>104.0</ele><time>2026-04-26T07:29:43.001Z</time></trkpt><trkpt lat="43.622902240770934" lon="3.7760044057167717"><ele>104.0</ele><time>2026-04-26T07:29:47.001Z</time></trkpt><trkpt lat="43.6229726569704" lon="3.7760133463351284"><ele>104.33333333333333</ele><time>2026-04-26T07:29:50.001Z</time></trkpt><trkpt lat="43.623050816157715" lon="3.776025516609535"><ele>104.66666666666666</ele><time>2026-04-26T07:29:54.001Z</time></trkpt><trkpt lat="43.623114063798795" lon="3.7760352714310916"><ele>105.0</ele><time>2026-04-26T07:29:56.001Z</time></trkpt><trkpt lat="43.62317028055488" lon="3.776079552926478"><ele>105.33333333333334</ele><time>2026-04-26T07:29:58.001Z</time></trkpt><trkpt lat="43.62325758022477" lon="3.7760993738835724"><ele>105.66666666666667</ele><time>2026-04-26T07:30:01.001Z</time></trkpt><trkpt lat="43.623336076607416" lon="3.7761384482935543"><ele>106.0</ele><time>2026-04-26T07:30:04.001Z</time></trkpt><trkpt lat="43.623419256137154" lon="3.7761605045965267"><ele>106.0</ele><time>2026-04-26T07:30:07.001Z</time></trkpt><trkpt lat="43.62349539321164" lon="3.776191132073572"><ele>106.0</ele><time>2026-04-26T07:30:10.001Z</time></trkpt><trkpt lat="43.623585203113116" lon="3.776251502342341"><ele>106.0</ele><time>2026-04-26T07:30:14.001Z</time></trkpt><trkpt lat="43.62364126382378" lon="3.7762998375939865"><ele>106.0</ele><time>2026-04-26T07:30:16.001Z</time></trkpt><trkpt lat="43.62365813067531" lon="3.7763942288067143"><ele>106.0</ele><time>2026-04-26T07:30:19.001Z</time></trkpt><trkpt lat="43.62368465042824" lon="3.7764811568708803"><ele>106.0</ele><time>2026-04-26T07:30:22.001Z</time></trkpt><trkpt lat="43.62371924112572" lon="3.776555048321016"><ele>106.0</ele><time>2026-04-26T07:30:26.001Z</time></trkpt><trkpt lat="43.62375517934052" lon="3.7766369138441194"><ele>106.66666666666667</ele><time>2026-04-26T07:30:32.001Z</time></trkpt><trkpt lat="43.62380774005644" lon="3.776730771673452"><ele>107.33333333333334</ele><time>2026-04-26T07:30:45.001Z</time></trkpt><trkpt lat="43.62385814295099" lon="3.7768205492137565"><ele>108.0</ele><time>2026-04-26T07:30:48.001Z</time></trkpt><trkpt lat="43.62390320981786" lon="3.77689417038558"><ele>108.66666666666666</ele><time>2026-04-26T07:30:50.001Z</time></trkpt><trkpt lat="43.62395974867216" lon="3.776969671352277"><ele>109.33333333333333</ele><time>2026-04-26T07:30:52.001Z</time></trkpt><trkpt lat="43.62402796467216" lon="3.777047505867785"><ele>110.0</ele><time>2026-04-26T07:30:54Z</time></trkpt><trkpt lat="43.62411011531747" lon="3.7771283421301343"><ele>107.6</ele><time>2026-04-26T07:30:56Z</time></trkpt><trkpt lat="43.6242158873419" lon="3.7771989356165347"><ele>105.2</ele><time>2026-04-26T07:30:58Z</time></trkpt><trkpt lat="43.6243205550008" lon="3.777252620758969"><ele>102.80000000000001</ele><time>2026-04-26T07:31:00Z</time></trkpt><trkpt lat="43.62444537352202" lon="3.7772873470486648"><ele>100.4</ele><time>2026-04-26T07:31:02.001Z</time></trkpt><trkpt lat="43.62451601642108" lon="3.777297367310154"><ele>98.0</ele><time>2026-04-26T07:31:03.001Z</time></trkpt><trkpt lat="43.62458351544688" lon="3.7772971666164725"><ele>97.33333333333333</ele><time>2026-04-26T07:31:04.001Z</time></trkpt><trkpt lat="43.62464777944945" lon="3.777308994257731"><ele>96.66666666666666</ele><time>2026-04-26T07:31:05.001Z</time></trkpt><trkpt lat="43.62471765765071" lon="3.7773207133927356"><ele>96.0</ele><time>2026-04-26T07:31:06.001Z</time></trkpt><trkpt lat="43.624846853169956" lon="3.7773359719763686"><ele>95.33333333333333</ele><time>2026-04-26T07:31:08.001Z</time></trkpt><trkpt lat="43.62492495257162" lon="3.777347602305366"><ele>94.66666666666666</ele><time>2026-04-26T07:31:09.001Z</time></trkpt><trkpt lat="43.624998460295984" lon="3.77735279351786"><ele>94.0</ele><time>2026-04-26T07:31:10.001Z</time></trkpt><trkpt lat="43.62507785494701" lon="3.7773767251285495"><ele>94.0</ele><time>2026-04-26T07:31:11.001Z</time></trkpt><trkpt lat="43.6251481995939" lon="3.777386195521775"><ele>94.0</ele><time>2026-04-26T07:31:12.001Z</time></trkpt><trkpt lat="43.62521799146049" lon="3.7773936211998134"><ele>94.0</ele><time>2026-04-26T07:31:13.001Z</time></trkpt><trkpt lat="43.62529749623932" lon="3.7774068540130274"><ele>94.0</ele><time>2026-04-26T07:31:14.001Z</time></trkpt><trkpt lat="43.62537301908127" lon="3.77741996693465"><ele>94.0</ele><time>2026-04-26T07:31:15.001Z</time></trkpt><trkpt lat="43.62544814972965" lon="3.777436136456028"><ele>94.0</ele><time>2026-04-26T07:31:16.001Z</time></trkpt><trkpt lat="43.62552525448142" lon="3.7774673683381885"><ele>94.16666666666666</ele><time>2026-04-26T07:31:17.001Z</time></trkpt><trkpt lat="43.62559801945678" lon="3.777504142766827"><ele>94.33333333333333</ele><time>2026-04-26T07:31:18.001Z</time></trkpt><trkpt lat="43.62566895064652" lon="3.777555916144721"><ele>94.5</ele><time>2026-04-26T07:31:19.001Z</time></trkpt><trkpt lat="43.62574347372912" lon="3.777608684670582"><ele>94.66666666666667</ele><time>2026-04-26T07:31:20.001Z</time></trkpt><trkpt lat="43.62581735529257" lon="3.777665313145729"><ele>94.83333333333334</ele><time>2026-04-26T07:31:21.001Z</time></trkpt><trkpt lat="43.625878698866096" lon="3.7777106531843985"><ele>95.0</ele><time>2026-04-26T07:31:22.001Z</time></trkpt><trkpt lat="43.625968433022166" lon="3.777808512977372"><ele>94.66666666666667</ele><time>2026-04-26T07:31:24.001Z</time></trkpt><trkpt lat="43.62604620901763" lon="3.7779117207435986"><ele>94.33333333333334</ele><time>2026-04-26T07:31:26.001Z</time></trkpt><trkpt lat="43.62614091933647" lon="3.777940110141674"><ele>94.0</ele><time>2026-04-26T07:31:28.001Z</time></trkpt><trkpt lat="43.62621811697773" lon="3.778006950921704"><ele>93.66666666666667</ele><time>2026-04-26T07:31:30.001Z</time></trkpt><trkpt lat="43.62628243798004" lon="3.778045903697324"><ele>93.33333333333333</ele><time>2026-04-26T07:31:32.001Z</time></trkpt><trkpt lat="43.62634738021272" lon="3.7781135835802373"><ele>93.0</ele><time>2026-04-26T07:31:34.001Z</time></trkpt><trkpt lat="43.62641363312303" lon="3.7781812671457478"><ele>93.0</ele><time>2026-04-26T07:31:36.001Z</time></trkpt><trkpt lat="43.62647352406094" lon="3.7782605742470183"><ele>93.0</ele><time>2026-04-26T07:31:38.001Z</time></trkpt><trkpt lat="43.62653772389749" lon="3.7783572559063927"><ele>93.0</ele><time>2026-04-26T07:31:40.001Z</time></trkpt><trkpt lat="43.62658307882373" lon="3.778453392304585"><ele>93.0</ele><time>2026-04-26T07:31:42.001Z</time></trkpt><trkpt lat="43.62661124777856" lon="3.7785717856187717"><ele>93.0</ele><time>2026-04-26T07:31:44.001Z</time></trkpt><trkpt lat="43.62664648019595" lon="3.7786920156163073"><ele>93.0</ele><time>2026-04-26T07:31:46.001Z</time></trkpt><trkpt lat="43.62667224489108" lon="3.7788189629431805"><ele>92.4</ele><time>2026-04-26T07:31:48.001Z</time></trkpt><trkpt lat="43.62670347990521" lon="3.778938897846293"><ele>91.80000000000001</ele><time>2026-04-26T07:31:50.001Z</time></trkpt><trkpt lat="43.62673690892172" lon="3.779049614223267"><ele>91.2</ele><time>2026-04-26T07:31:52.001Z</time></trkpt><trkpt lat="43.62676161492421" lon="3.7791796594812954"><ele>90.6</ele><time>2026-04-26T07:31:54.001Z</time></trkpt><trkpt lat="43.626770078487255" lon="3.7793002183146864"><ele>90.0</ele><time>2026-04-26T07:31:56.001Z</time></trkpt><trkpt lat="43.626785592065325" lon="3.779428980695454"><ele>89.66666666666667</ele><time>2026-04-26T07:31:58.001Z</time></trkpt><trkpt lat="43.626803141356085" lon="3.7795357438406083"><ele>89.33333333333333</ele><time>2026-04-26T07:32:00.001Z</time></trkpt><trkpt lat="43.62682587449378" lon="3.779640125931303"><ele>89.0</ele><time>2026-04-26T07:32:02.001Z</time></trkpt><trkpt lat="43.626847294073684" lon="3.779734776576097"><ele>88.66666666666666</ele><time>2026-04-26T07:32:04.001Z</time></trkpt><trkpt lat="43.62687595017461" lon="3.7798415225593254"><ele>88.33333333333333</ele><time>2026-04-26T07:32:06.001Z</time></trkpt><trkpt lat="43.62688965236629" lon="3.779964595226138"><ele>88.0</ele><time>2026-04-26T07:32:08.001Z</time></trkpt><trkpt lat="43.62692037289757" lon="3.7800709799325203"><ele>88.0</ele><time>2026-04-26T07:32:10.001Z</time></trkpt><trkpt lat="43.626962444248235" lon="3.7801818004585157"><ele>88.0</ele><time>2026-04-26T07:32:12.001Z</time></trkpt><trkpt lat="43.62701286948461" lon="3.780282150394939"><ele>88.0</ele><time>2026-04-26T07:32:14.001Z</time></trkpt><trkpt lat="43.62707760982841" lon="3.780375563664829"><ele>88.0</ele><time>2026-04-26T07:32:16.001Z</time></trkpt><trkpt lat="43.627139624758" lon="3.780471240241546"><ele>88.0</ele><time>2026-04-26T07:32:18.001Z</time></trkpt><trkpt lat="43.62720456743329" lon="3.780531500961823"><ele>88.0</ele><time>2026-04-26T07:32:20.001Z</time></trkpt><trkpt lat="43.627285339172076" lon="3.7805926105609347"><ele>88.33333333333333</ele><time>2026-04-26T07:32:22.001Z</time></trkpt><trkpt lat="43.627363324047515" lon="3.780626483470087"><ele>88.66666666666666</ele><time>2026-04-26T07:32:24.001Z</time></trkpt><trkpt lat="43.627442931952395" lon="3.78064221837781"><ele>89.0</ele><time>2026-04-26T07:32:26.001Z</time></trkpt><trkpt lat="43.62751221760674" lon="3.780621646223954"><ele>89.33333333333333</ele><time>2026-04-26T07:32:28.001Z</time></trkpt><trkpt lat="43.62759183188436" lon="3.7805971833469734"><ele>89.66666666666667</ele><time>2026-04-26T07:32:30.001Z</time></trkpt><trkpt lat="43.6276633927153" lon="3.780543882446393"><ele>90.0</ele><time>2026-04-26T07:32:32.001Z</time></trkpt><trkpt lat="43.62772074435833" lon="3.7804663176403395"><ele>90.0</ele><time>2026-04-26T07:32:34.001Z</time></trkpt><trkpt lat="43.62779133505387" lon="3.7803895927894864"><ele>90.0</ele><time>2026-04-26T07:32:37.001Z</time></trkpt><trkpt lat="43.62784224480129" lon="3.7803228767794894"><ele>90.0</ele><time>2026-04-26T07:32:39.001Z</time></trkpt><trkpt lat="43.627899280038356" lon="3.780261397363128"><ele>90.0</ele><time>2026-04-26T07:32:41.001Z</time></trkpt><trkpt lat="43.62795829301064" lon="3.7801983824249903"><ele>90.0</ele><time>2026-04-26T07:32:43.001Z</time></trkpt><trkpt lat="43.62799192926387" lon="3.7801043064855926"><ele>90.0</ele><time>2026-04-26T07:32:45.001Z</time></trkpt><trkpt lat="43.628030761859556" lon="3.780035456837515"><ele>90.0</ele><time>2026-04-26T07:32:47.001Z</time></trkpt><trkpt lat="43.628043444634805" lon="3.7799395509243823"><ele>90.16666666666667</ele><time>2026-04-26T07:32:49.001Z</time></trkpt><trkpt lat="43.62805881284107" lon="3.779814552762686"><ele>90.33333333333333</ele><time>2026-04-26T07:32:52.001Z</time></trkpt><trkpt lat="43.62807188641437" lon="3.7797134506795844"><ele>90.5</ele><time>2026-04-26T07:32:54.001Z</time></trkpt><trkpt lat="43.62805934908525" lon="3.7795958664409164"><ele>90.66666666666666</ele><time>2026-04-26T07:32:57.001Z</time></trkpt><trkpt lat="43.62803861953029" lon="3.779492530866751"><ele>90.83333333333333</ele><time>2026-04-26T07:32:59Z</time></trkpt><trkpt lat="43.62801817814233" lon="3.7793867746380507"><ele>91.0</ele><time>2026-04-26T07:33:02Z</time></trkpt><trkpt lat="43.62800870210228" lon="3.779271455565515"><ele>91.16666666666666</ele><time>2026-04-26T07:33:05Z</time></trkpt><trkpt lat="43.62799351367157" lon="3.77917754559433"><ele>91.33333333333333</ele><time>2026-04-26T07:33:07Z</time></trkpt><trkpt lat="43.62796173689598" lon="3.779051180018899"><ele>91.5</ele><time>2026-04-26T07:33:10Z</time></trkpt><trkpt lat="43.627943726546086" lon="3.7789397297004443"><ele>91.66666666666667</ele><time>2026-04-26T07:33:13Z</time></trkpt><trkpt lat="43.62792367527824" lon="3.7788401115433654"><ele>91.83333333333334</ele><time>2026-04-26T07:33:16Z</time></trkpt><trkpt lat="43.627898787853255" lon="3.778731951194023"><ele>92.0</ele><time>2026-04-26T07:33:19Z</time></trkpt><trkpt lat="43.627878054560696" lon="3.7786290098043227"><ele>92.0</ele><time>2026-04-26T07:33:22Z</time></trkpt><trkpt lat="43.627839969574005" lon="3.778530437455696"><ele>92.0</ele><time>2026-04-26T07:33:25Z</time></trkpt><trkpt lat="43.62779493378209" lon="3.7784340502660827"><ele>92.0</ele><time>2026-04-26T07:33:28Z</time></trkpt><trkpt lat="43.627737955853924" lon="3.778371649297969"><ele>92.0</ele><time>2026-04-26T07:33:31Z</time></trkpt><trkpt lat="43.6276839104086" lon="3.7783217059149403"><ele>92.0</ele><time>2026-04-26T07:33:33Z</time></trkpt><trkpt lat="43.62760820057744" lon="3.778270480563798"><ele>92.0</ele><time>2026-04-26T07:33:35.999Z</time></trkpt><trkpt lat="43.62754068489987" lon="3.778240694614151"><ele>92.5</ele><time>2026-04-26T07:33:37.999Z</time></trkpt><trkpt lat="43.62747653136131" lon="3.778225666867444"><ele>93.0</ele><time>2026-04-26T07:33:39.999Z</time></trkpt><trkpt lat="43.62739104978267" lon="3.778182177944849"><ele>93.5</ele><time>2026-04-26T07:33:42.999Z</time></trkpt><trkpt lat="43.627310813297036" lon="3.7781737084312357"><ele>94.0</ele><time>2026-04-26T07:33:45.999Z</time></trkpt><trkpt lat="43.6272193998453" lon="3.778142156506867"><ele>94.5</ele><time>2026-04-26T07:33:48.999Z</time></trkpt><trkpt lat="43.627156390623355" lon="3.77807655250379"><ele>95.0</ele><time>2026-04-26T07:33:51.999Z</time></trkpt><trkpt lat="43.62711063109167" lon="3.7779735158267385"><ele>95.0</ele><time>2026-04-26T07:33:54.999Z</time></trkpt><trkpt lat="43.627097074403125" lon="3.77785837555275"><ele>95.0</ele><time>2026-04-26T07:33:57.999Z</time></trkpt><trkpt lat="43.627074423503366" lon="3.7777456793376967"><ele>95.0</ele><time>2026-04-26T07:34:00.999Z</time></trkpt><trkpt lat="43.62704601073497" lon="3.777648495347583"><ele>95.0</ele><time>2026-04-26T07:34:03.999Z</time></trkpt><trkpt lat="43.62701064943633" lon="3.7775573527399593"><ele>95.0</ele><time>2026-04-26T07:34:06.999Z</time></trkpt><trkpt lat="43.62698196784854" lon="3.7774660761573373"><ele>95.0</ele><time>2026-04-26T07:34:09.999Z</time></trkpt><trkpt lat="43.62695097902097" lon="3.7773498807827184"><ele>95.42857142857143</ele><time>2026-04-26T07:34:12.999Z</time></trkpt><trkpt lat="43.62691375657109" lon="3.7772599827662434"><ele>95.85714285714286</ele><time>2026-04-26T07:34:15.999Z</time></trkpt><trkpt lat="43.62685815021503" lon="3.777196019823309"><ele>96.28571428571428</ele><time>2026-04-26T07:34:19.999Z</time></trkpt><trkpt lat="43.62683722395493" lon="3.777083717933749"><ele>96.71428571428572</ele><time>2026-04-26T07:34:22.999Z</time></trkpt><trkpt lat="43.62681436665219" lon="3.776974217815105"><ele>97.14285714285714</ele><time>2026-04-26T07:34:25.999Z</time></trkpt><trkpt lat="43.626787178048716" lon="3.776895257313716"><ele>97.57142857142857</ele><time>2026-04-26T07:34:28.999Z</time></trkpt><trkpt lat="43.62675453692337" lon="3.7768177989001486"><ele>98.0</ele><time>2026-04-26T07:34:32.999Z</time></trkpt><trkpt lat="43.62669524317356" lon="3.7767540024645863"><ele>98.14285714285714</ele><time>2026-04-26T07:34:36.999Z</time></trkpt><trkpt lat="43.62664938650105" lon="3.7766612917577613"><ele>98.28571428571428</ele><time>2026-04-26T07:34:40.999Z</time></trkpt><trkpt lat="43.62660617366012" lon="3.7765794787987135"><ele>98.42857142857143</ele><time>2026-04-26T07:34:44.999Z</time></trkpt><trkpt lat="43.62657743212734" lon="3.776491698825899"><ele>98.57142857142857</ele><time>2026-04-26T07:34:49.999Z</time></trkpt><trkpt lat="43.626528713918105" lon="3.7764170976172307"><ele>98.71428571428571</ele><time>2026-04-26T07:34:54.999Z</time></trkpt><trkpt lat="43.62648005090754" lon="3.776334284802864"><ele>98.85714285714286</ele><time>2026-04-26T07:34:59.999Z</time></trkpt><trkpt lat="43.62644532562172" lon="3.7762613016945203"><ele>99.0</ele><time>2026-04-26T07:35:04Z</time></trkpt><trkpt lat="43.626416204507045" lon="3.7761813416926775"><ele>99.0</ele><time>2026-04-26T07:35:08Z</time></trkpt><trkpt lat="43.626383091703296" lon="3.7761039473054514"><ele>99.0</ele><time>2026-04-26T07:35:11.999Z</time></trkpt><trkpt lat="43.626345117479865" lon="3.7760253567696256"><ele>99.0</ele><time>2026-04-26T07:35:16Z</time></trkpt><trkpt lat="43.62629804907444" lon="3.775948811162998"><ele>99.0</ele><time>2026-04-26T07:35:19.999Z</time></trkpt><trkpt lat="43.62626564712094" lon="3.7758595746918844"><ele>99.0</ele><time>2026-04-26T07:35:23.999Z</time></trkpt><trkpt lat="43.626216195155514" lon="3.775788510604714"><ele>99.0</ele><time>2026-04-26T07:35:27.999Z</time></trkpt><trkpt lat="43.626178152442705" lon="3.7757111621635824"><ele>99.0</ele><time>2026-04-26T07:35:31.999Z</time></trkpt><trkpt lat="43.626131019051584" lon="3.77562141959269"><ele>101.0</ele><time>2026-04-26T07:35:36.999Z</time></trkpt><trkpt lat="43.62610018105452" lon="3.7755430666729914"><ele>103.0</ele><time>2026-04-26T07:35:40.999Z</time></trkpt><trkpt lat="43.62606491415062" lon="3.7754674527536034"><ele>105.0</ele><time>2026-04-26T07:35:44.999Z</time></trkpt><trkpt lat="43.62605996548278" lon="3.775372348685026"><ele>107.0</ele><time>2026-04-26T07:35:48.999Z</time></trkpt><trkpt lat="43.62605872328806" lon="3.775283240561638"><ele>109.0</ele><time>2026-04-26T07:35:51.999Z</time></trkpt><trkpt lat="43.62605914378961" lon="3.775189050426818"><ele>111.0</ele><time>2026-04-26T07:35:54.999Z</time></trkpt><trkpt lat="43.62606637047654" lon="3.775085000863616"><ele>113.0</ele><time>2026-04-26T07:35:58.999Z</time></trkpt><trkpt lat="43.626065452726664" lon="3.7749805830999494"><ele>113.71428571428572</ele><time>2026-04-26T07:36:02.999Z</time></trkpt><trkpt lat="43.62603344211485" lon="3.774897177311464"><ele>114.42857142857142</ele><time>2026-04-26T07:36:06.999Z</time></trkpt><trkpt lat="43.62600364283444" lon="3.7748128813518327"><ele>115.14285714285714</ele><time>2026-04-26T07:36:11.999Z</time></trkpt><trkpt lat="43.62596195111159" lon="3.774728469288104"><ele>115.85714285714286</ele><time>2026-04-26T07:36:16.999Z</time></trkpt><trkpt lat="43.62592271271381" lon="3.7746573959006025"><ele>116.57142857142858</ele><time>2026-04-26T07:36:21.999Z</time></trkpt><trkpt lat="43.62587394858158" lon="3.7745830906406272"><ele>117.28571428571428</ele><time>2026-04-26T07:36:26.999Z</time></trkpt><trkpt lat="43.62583411701675" lon="3.7745004573074405"><ele>118.0</ele><time>2026-04-26T07:36:31.999Z</time></trkpt><trkpt lat="43.62580006378758" lon="3.7744238767794234"><ele>118.42857142857142</ele><time>2026-04-26T07:36:35.999Z</time></trkpt><trkpt lat="43.625756745229026" lon="3.7743405358723416"><ele>118.85714285714286</ele><time>2026-04-26T07:36:40.999Z</time></trkpt><trkpt lat="43.6257220771961" lon="3.774266838277483"><ele>119.28571428571428</ele><time>2026-04-26T07:36:44.999Z</time></trkpt><trkpt lat="43.6256786572788" lon="3.774200126220504"><ele>119.71428571428571</ele><time>2026-04-26T07:36:48.999Z</time></trkpt><trkpt lat="43.625620837966736" lon="3.7741347389906585"><ele>120.14285714285714</ele><time>2026-04-26T07:36:53.999Z</time></trkpt><trkpt lat="43.62557704320313" lon="3.774069337437622"><ele>120.57142857142857</ele><time>2026-04-26T07:36:57.999Z</time></trkpt><trkpt lat="43.62554894766573" lon="3.773977365982743"><ele>121.0</ele><time>2026-04-26T07:37:01.999Z</time></trkpt><trkpt lat="43.62553245773782" lon="3.773887302898725"><ele>121.0</ele><time>2026-04-26T07:37:05.999Z</time></trkpt><trkpt lat="43.62551215198026" lon="3.7737945251536593"><ele>120.99999999999999</ele><time>2026-04-26T07:37:09.999Z</time></trkpt><trkpt lat="43.625510892171796" lon="3.7736966583189244"><ele>121.0</ele><time>2026-04-26T07:37:14Z</time></trkpt><trkpt lat="43.62551060878854" lon="3.7735863024327236"><ele>121.0</ele><time>2026-04-26T07:37:18.999Z</time></trkpt><trkpt lat="43.62554866481054" lon="3.7735067022834334"><ele>120.99999999999999</ele><time>2026-04-26T07:37:22Z</time></trkpt><trkpt lat="43.625570368967225" lon="3.7734126827427437"><ele>121.0</ele><time>2026-04-26T07:37:26Z</time></trkpt><trkpt lat="43.62561031329626" lon="3.773332747347618"><ele>121.0</ele><time>2026-04-26T07:37:31Z</time></trkpt><trkpt lat="43.6255480035143" lon="3.7733096551186702"><ele>121.16666666666667</ele><time>2026-04-26T07:37:38Z</time></trkpt><trkpt lat="43.62547943225275" lon="3.773352149459762"><ele>121.33333333333334</ele><time>2026-04-26T07:37:42Z</time></trkpt><trkpt lat="43.62544453675571" lon="3.773278377264704"><ele>121.5</ele><time>2026-04-26T07:37:45Z</time></trkpt><trkpt lat="43.62539398569992" lon="3.7731914731517917"><ele>121.66666666666666</ele><time>2026-04-26T07:37:49Z</time></trkpt><trkpt lat="43.62537292432938" lon="3.7730923731360737"><ele>121.83333333333333</ele><time>2026-04-26T07:37:53Z</time></trkpt><trkpt lat="43.62533850074318" lon="3.7729930396238442"><ele>122.0</ele><time>2026-04-26T07:37:57Z</time></trkpt><trkpt lat="43.62530424521818" lon="3.7728863915983895"><ele>122.42857142857142</ele><time>2026-04-26T07:38:01Z</time></trkpt><trkpt lat="43.625275801620305" lon="3.7727722583945544"><ele>122.85714285714286</ele><time>2026-04-26T07:38:05Z</time></trkpt><trkpt lat="43.62524423281559" lon="3.7726831524082294"><ele>123.28571428571428</ele><time>2026-04-26T07:38:08Z</time></trkpt><trkpt lat="43.625224815271295" lon="3.7725903149603206"><ele>123.71428571428571</ele><time>2026-04-26T07:38:11Z</time></trkpt><trkpt lat="43.62521206504673" lon="3.772494281610405"><ele>124.14285714285714</ele><time>2026-04-26T07:38:14Z</time></trkpt><trkpt lat="43.62521937918292" lon="3.7723922675866968"><ele>124.57142857142857</ele><time>2026-04-26T07:38:17Z</time></trkpt><trkpt lat="43.62520490642405" lon="3.7723041655954157"><ele>125.0</ele><time>2026-04-26T07:38:20Z</time></trkpt><trkpt lat="43.62516977184578" lon="3.7721990245867962"><ele>125.42857142857142</ele><time>2026-04-26T07:38:23Z</time></trkpt><trkpt lat="43.62514971917984" lon="3.772112216882242"><ele>125.85714285714286</ele><time>2026-04-26T07:38:25Z</time></trkpt><trkpt lat="43.625112993848134" lon="3.7719858734329965"><ele>126.28571428571428</ele><time>2026-04-26T07:38:28Z</time></trkpt><trkpt lat="43.62509176434617" lon="3.771903265082884"><ele>126.71428571428571</ele><time>2026-04-26T07:38:30Z</time></trkpt><trkpt lat="43.62506600480512" lon="3.771816092393181"><ele>127.14285714285714</ele><time>2026-04-26T07:38:32Z</time></trkpt><trkpt lat="43.62503586213808" lon="3.771727758844114"><ele>127.57142857142857</ele><time>2026-04-26T07:38:34Z</time></trkpt><trkpt lat="43.62499447761672" lon="3.7716366999769413"><ele>128.0</ele><time>2026-04-26T07:38:36Z</time></trkpt><trkpt lat="43.62496774112643" lon="3.7715040364141252"><ele>128.16666666666666</ele><time>2026-04-26T07:38:38Z</time></trkpt><trkpt lat="43.62503194489479" lon="3.7713664986454547"><ele>128.33333333333331</ele><time>2026-04-26T07:38:40Z</time></trkpt><trkpt lat="43.625131362675965" lon="3.7712900708016726"><ele>128.5</ele><time>2026-04-26T07:38:42Z</time></trkpt><trkpt lat="43.62520967803158" lon="3.771253300906003"><ele>128.66666666666666</ele><time>2026-04-26T07:38:44Z</time></trkpt><trkpt lat="43.625266661510096" lon="3.771215293456758"><ele>128.83333333333334</ele><time>2026-04-26T07:38:45.999Z</time></trkpt><trkpt lat="43.625254097973716" lon="3.7711251393207474"><ele>129.0</ele><time>2026-04-26T07:38:47.999Z</time></trkpt><trkpt lat="43.6252211924724" lon="3.7710104885658424"><ele>127.6</ele><time>2026-04-26T07:38:49.999Z</time></trkpt><trkpt lat="43.62518228745154" lon="3.770887717245387"><ele>126.2</ele><time>2026-04-26T07:38:51.999Z</time></trkpt><trkpt lat="43.62512769924737" lon="3.7707612643338746"><ele>124.79999999999998</ele><time>2026-04-26T07:38:53.999Z</time></trkpt><trkpt lat="43.62508371356069" lon="3.7706182138679147"><ele>123.39999999999999</ele><time>2026-04-26T07:38:55.999Z</time></trkpt><trkpt lat="43.6250164010115" lon="3.770504006399477"><ele>122.0</ele><time>2026-04-26T07:38:57.999Z</time></trkpt><trkpt lat="43.62496463949986" lon="3.7703930554635003"><ele>121.99999999999999</ele><time>2026-04-26T07:38:59.999Z</time></trkpt><trkpt lat="43.62496694582213" lon="3.770302597902343"><ele>122.0</ele><time>2026-04-26T07:39:00.999Z</time></trkpt><trkpt lat="43.625005668318614" lon="3.7702234590606203"><ele>122.0</ele><time>2026-04-26T07:39:01.999Z</time></trkpt><trkpt lat="43.6250594492427" lon="3.7701466030551463"><ele>122.0</ele><time>2026-04-26T07:39:02.999Z</time></trkpt><trkpt lat="43.62513021952502" lon="3.770118805480092"><ele>121.99999999999999</ele><time>2026-04-26T07:39:03.999Z</time></trkpt><trkpt lat="43.62519182729982" lon="3.770077121427297"><ele>122.0</ele><time>2026-04-26T07:39:04.999Z</time></trkpt><trkpt lat="43.62527713061182" lon="3.7699701095504956"><ele>121.99999999999999</ele><time>2026-04-26T07:39:06.999Z</time></trkpt><trkpt lat="43.625344992247555" lon="3.7699024059308273"><ele>122.0</ele><time>2026-04-26T07:39:08.999Z</time></trkpt><trkpt lat="43.62534575905405" lon="3.769810208637247"><ele>122.0</ele><time>2026-04-26T07:39:10.999Z</time></trkpt><trkpt lat="43.625300000883115" lon="3.769736302289051"><ele>122.0</ele><time>2026-04-26T07:39:15.999Z</time></trkpt><trkpt lat="43.625280484565586" lon="3.769637640528734"><ele>121.99999999999999</ele><time>2026-04-26T07:39:17.998Z</time></trkpt><trkpt lat="43.625295603490926" lon="3.7695231396077253"><ele>122.0</ele><time>2026-04-26T07:39:19.999Z</time></trkpt><trkpt lat="43.62530659487472" lon="3.7694052783190606"><ele>121.83333333333333</ele><time>2026-04-26T07:39:21.999Z</time></trkpt><trkpt lat="43.62534395331287" lon="3.7693143472434016"><ele>121.66666666666666</ele><time>2026-04-26T07:39:23.999Z</time></trkpt><trkpt lat="43.62540045699834" lon="3.7692301985693386"><ele>121.5</ele><time>2026-04-26T07:39:26.999Z</time></trkpt><trkpt lat="43.62546599351711" lon="3.769127809932309"><ele>121.33333333333334</ele><time>2026-04-26T07:39:29.999Z</time></trkpt><trkpt lat="43.625533393600726" lon="3.769036835682776"><ele>121.16666666666667</ele><time>2026-04-26T07:39:32.999Z</time></trkpt><trkpt lat="43.62559499661633" lon="3.768949945482045"><ele>121.0</ele><time>2026-04-26T07:39:35.999Z</time></trkpt><trkpt lat="43.62566689945627" lon="3.768867774666848"><ele>121.00000000000001</ele><time>2026-04-26T07:39:38.999Z</time></trkpt><trkpt lat="43.62573050900591" lon="3.7687843458890193"><ele>121.0</ele><time>2026-04-26T07:39:41.999Z</time></trkpt><trkpt lat="43.62578090287034" lon="3.768696114812973"><ele>121.0</ele><time>2026-04-26T07:39:44.999Z</time></trkpt><trkpt lat="43.625851561248716" lon="3.7686287694883323"><ele>121.0</ele><time>2026-04-26T07:39:47.999Z</time></trkpt><trkpt lat="43.62591974321788" lon="3.7685623738902394"><ele>121.00000000000001</ele><time>2026-04-26T07:39:50.999Z</time></trkpt><trkpt lat="43.62597284587544" lon="3.768462021682288"><ele>121.0</ele><time>2026-04-26T07:39:53.999Z</time></trkpt><trkpt lat="43.62602589474728" lon="3.7683909373957087"><ele>121.00000000000001</ele><time>2026-04-26T07:39:56.999Z</time></trkpt><trkpt lat="43.62609206095728" lon="3.7683070376554992"><ele>121.0</ele><time>2026-04-26T07:39:59.999Z</time></trkpt><trkpt lat="43.62613438436975" lon="3.768233637537532"><ele>121.0</ele><time>2026-04-26T07:40:01.999Z</time></trkpt><trkpt lat="43.626189467916106" lon="3.768154465534343"><ele>121.0</ele><time>2026-04-26T07:40:03.999Z</time></trkpt><trkpt lat="43.626248667968085" lon="3.7680815476635736"><ele>121.00000000000001</ele><time>2026-04-26T07:40:05.999Z</time></trkpt><trkpt lat="43.626319329157155" lon="3.7680211432580424"><ele>121.0</ele><time>2026-04-26T07:40:07.999Z</time></trkpt><trkpt lat="43.62640155082945" lon="3.767949968567522"><ele>121.0</ele><time>2026-04-26T07:40:09.999Z</time></trkpt><trkpt lat="43.62648648258377" lon="3.7678934054370044"><ele>121.0</ele><time>2026-04-26T07:40:11.999Z</time></trkpt><trkpt lat="43.626561460598396" lon="3.767863016603771"><ele>121.0</ele><time>2026-04-26T07:40:13.999Z</time></trkpt><trkpt lat="43.626644746509776" lon="3.7678067429458237"><ele>121.0</ele><time>2026-04-26T07:40:15.999Z</time></trkpt><trkpt lat="43.62673270282095" lon="3.7677512049929094"><ele>121.0</ele><time>2026-04-26T07:40:17.999Z</time></trkpt><trkpt lat="43.62682763123006" lon="3.767698861971535"><ele>120.6</ele><time>2026-04-26T07:40:19.999Z</time></trkpt><trkpt lat="43.626914834786255" lon="3.767646475961881"><ele>120.19999999999999</ele><time>2026-04-26T07:40:21.999Z</time></trkpt><trkpt lat="43.627006760048424" lon="3.7675945639044546"><ele>119.80000000000001</ele><time>2026-04-26T07:40:23.999Z</time></trkpt><trkpt lat="43.62709212668616" lon="3.7675409281196766"><ele>119.4</ele><time>2026-04-26T07:40:25.999Z</time></trkpt><trkpt lat="43.6271781394216" lon="3.7674747586099975"><ele>119.0</ele><time>2026-04-26T07:40:27.999Z</time></trkpt><trkpt lat="43.627256648432024" lon="3.7674117193069887"><ele>118.33333333333333</ele><time>2026-04-26T07:40:29.999Z</time></trkpt><trkpt lat="43.62729929033838" lon="3.767300842702199"><ele>117.66666666666666</ele><time>2026-04-26T07:40:31.999Z</time></trkpt><trkpt lat="43.627297518926284" lon="3.7671725900341064"><ele>117.0</ele><time>2026-04-26T07:40:33.999Z</time></trkpt><trkpt lat="43.62730134833871" lon="3.7670742136897646"><ele>116.33333333333334</ele><time>2026-04-26T07:40:35.999Z</time></trkpt><trkpt lat="43.62728215742264" lon="3.7669850757478116"><ele>115.66666666666667</ele><time>2026-04-26T07:40:37.999Z</time></trkpt><trkpt lat="43.62727841063962" lon="3.7668974273703095"><ele>115.0</ele><time>2026-04-26T07:40:39.999Z</time></trkpt><trkpt lat="43.62725143483951" lon="3.7667933904352155"><ele>114.66666666666667</ele><time>2026-04-26T07:40:42.999Z</time></trkpt><trkpt lat="43.62722149038435" lon="3.7666890359526906"><ele>114.33333333333334</ele><time>2026-04-26T07:40:45.999Z</time></trkpt><trkpt lat="43.62719285471863" lon="3.766565579988898"><ele>114.0</ele><time>2026-04-26T07:40:48.999Z</time></trkpt><trkpt lat="43.627161535415404" lon="3.7664663948146475"><ele>113.66666666666666</ele><time>2026-04-26T07:40:51.999Z</time></trkpt><trkpt lat="43.62712873555948" lon="3.7663578476977526"><ele>113.33333333333333</ele><time>2026-04-26T07:40:54.999Z</time></trkpt><trkpt lat="43.62709239622255" lon="3.7662547115192777"><ele>113.0</ele><time>2026-04-26T07:40:57.999Z</time></trkpt><trkpt lat="43.62705361183767" lon="3.7661692646480507"><ele>113.0</ele><time>2026-04-26T07:41:00.999Z</time></trkpt><trkpt lat="43.62701111206139" lon="3.7660860931824667"><ele>113.0</ele><time>2026-04-26T07:41:03.999Z</time></trkpt><trkpt lat="43.62695574541127" lon="3.766043366019032"><ele>113.0</ele><time>2026-04-26T07:41:07.999Z</time></trkpt><trkpt lat="43.62689803844482" lon="3.765998193624337"><ele>113.0</ele><time>2026-04-26T07:46:20.994Z</time></trkpt><trkpt lat="43.62684209301244" lon="3.7659384493051924"><ele>113.0</ele><time>2026-04-26T07:46:28.992Z</time></trkpt><trkpt lat="43.62679038515232" lon="3.76587228172616"><ele>113.0</ele><time>2026-04-26T07:46:31.992Z</time></trkpt><trkpt lat="43.626718977557886" lon="3.7658027421262523"><ele>113.0</ele><time>2026-04-26T07:46:35.991Z</time></trkpt><trkpt lat="43.626659343451806" lon="3.765728259205552"><ele>113.85714285714286</ele><time>2026-04-26T07:46:39.991Z</time></trkpt><trkpt lat="43.62661366110669" lon="3.765657066164264"><ele>114.71428571428571</ele><time>2026-04-26T07:46:42.991Z</time></trkpt><trkpt lat="43.626562119434155" lon="3.7655900013568613"><ele>115.57142857142857</ele><time>2026-04-26T07:46:45.99Z</time></trkpt><trkpt lat="43.62651325300977" lon="3.7655169154035124"><ele>116.42857142857143</ele><time>2026-04-26T07:46:48.99Z</time></trkpt><trkpt lat="43.62646701462042" lon="3.7654525321001158"><ele>117.28571428571428</ele><time>2026-04-26T07:46:51.99Z</time></trkpt><trkpt lat="43.626409318853824" lon="3.7653737314485958"><ele>118.14285714285714</ele><time>2026-04-26T07:46:54.99Z</time></trkpt><trkpt lat="43.626357095464606" lon="3.7652775331585437"><ele>119.0</ele><time>2026-04-26T07:46:57.99Z</time></trkpt><trkpt lat="43.62630461507574" lon="3.7652196684565733"><ele>118.99999999999999</ele><time>2026-04-26T07:46:59.99Z</time></trkpt><trkpt lat="43.62626617784496" lon="3.765150061282974"><ele>119.0</ele><time>2026-04-26T07:47:01.99Z</time></trkpt><trkpt lat="43.62621026750874" lon="3.7650509687447693"><ele>119.0</ele><time>2026-04-26T07:47:04.99Z</time></trkpt><trkpt lat="43.6261455669884" lon="3.7649916019273464"><ele>119.0</ele><time>2026-04-26T07:47:07.99Z</time></trkpt><trkpt lat="43.62610645082485" lon="3.7649098927696123"><ele>118.99999999999999</ele><time>2026-04-26T07:47:09.99Z</time></trkpt><trkpt lat="43.626039405607735" lon="3.7648289590556043"><ele>119.0</ele><time>2026-04-26T07:47:12.99Z</time></trkpt><trkpt lat="43.62600042133793" lon="3.7647563097437384"><ele>120.16666666666666</ele><time>2026-04-26T07:47:14.99Z</time></trkpt><trkpt lat="43.62595551285765" lon="3.764686891880203"><ele>121.33333333333333</ele><time>2026-04-26T07:47:16.99Z</time></trkpt><trkpt lat="43.62590311971148" lon="3.7646193873069453"><ele>122.5</ele><time>2026-04-26T07:47:18.989Z</time></trkpt><trkpt lat="43.62584521999549" lon="3.7645362422895907"><ele>123.66666666666666</ele><time>2026-04-26T07:47:21.989Z</time></trkpt><trkpt lat="43.62580061790982" lon="3.7644582667704576"><ele>124.83333333333333</ele><time>2026-04-26T07:47:24.989Z</time></trkpt><trkpt lat="43.6257530669931" lon="3.7643514888968235"><ele>126.0</ele><time>2026-04-26T07:47:27.989Z</time></trkpt><trkpt lat="43.625708608073225" lon="3.764231485406949"><ele>126.0</ele><time>2026-04-26T07:47:30.989Z</time></trkpt><trkpt lat="43.625686394439654" lon="3.764146439577686"><ele>126.0</ele><time>2026-04-26T07:47:32.989Z</time></trkpt><trkpt lat="43.62566036323123" lon="3.764056511090911"><ele>126.0</ele><time>2026-04-26T07:47:35.989Z</time></trkpt><trkpt lat="43.625629003351456" lon="3.7639360152142225"><ele>126.0</ele><time>2026-04-26T07:47:38.989Z</time></trkpt><trkpt lat="43.625614486940485" lon="3.7638502812992662"><ele>126.0</ele><time>2026-04-26T07:47:40.989Z</time></trkpt><trkpt lat="43.62558503353105" lon="3.7637448061172085"><ele>126.0</ele><time>2026-04-26T07:47:43.989Z</time></trkpt><trkpt lat="43.625557844940566" lon="3.763642211314558"><ele>125.83333333333333</ele><time>2026-04-26T07:47:46.989Z</time></trkpt><trkpt lat="43.62553625311355" lon="3.763525179691167"><ele>125.66666666666666</ele><time>2026-04-26T07:47:49.988Z</time></trkpt><trkpt lat="43.62550023349417" lon="3.7634245172425183"><ele>125.5</ele><time>2026-04-26T07:47:52.989Z</time></trkpt><trkpt lat="43.62546159251944" lon="3.7633050047364356"><ele>125.33333333333333</ele><time>2026-04-26T07:47:55.989Z</time></trkpt><trkpt lat="43.62542197789733" lon="3.7631900914996583"><ele>125.16666666666666</ele><time>2026-04-26T07:47:58.989Z</time></trkpt><trkpt lat="43.625396880575515" lon="3.763102639372685"><ele>125.0</ele><time>2026-04-26T07:48:00.989Z</time></trkpt><trkpt lat="43.62535457895705" lon="3.762994624714347"><ele>124.99999999999999</ele><time>2026-04-26T07:48:03.989Z</time></trkpt><trkpt lat="43.6253288937088" lon="3.762908404218491"><ele>125.0</ele><time>2026-04-26T07:48:05.989Z</time></trkpt><trkpt lat="43.62529063432202" lon="3.762795726144006"><ele>125.0</ele><time>2026-04-26T07:48:08.989Z</time></trkpt><trkpt lat="43.62525376806727" lon="3.7627109892122106"><ele>125.0</ele><time>2026-04-26T07:48:10.989Z</time></trkpt><trkpt lat="43.62520686836246" lon="3.762609822858112"><ele>124.99999999999999</ele><time>2026-04-26T07:48:13.989Z</time></trkpt><trkpt lat="43.62516637116715" lon="3.7624976247219735"><ele>125.0</ele><time>2026-04-26T07:48:16.989Z</time></trkpt><trkpt lat="43.6251380763519" lon="3.762383209201559"><ele>125.49999999999999</ele><time>2026-04-26T07:48:19.989Z</time></trkpt><trkpt lat="43.62505786239743" lon="3.7623472766203627"><ele>126.0</ele><time>2026-04-26T07:48:23.989Z</time></trkpt><trkpt lat="43.624990837889605" lon="3.762384477909763"><ele>126.5</ele><time>2026-04-26T07:48:26.989Z</time></trkpt><trkpt lat="43.62491340914641" lon="3.7624537757040213"><ele>127.0</ele><time>2026-04-26T07:48:30.989Z</time></trkpt><trkpt lat="43.624855805662435" lon="3.762531931543075"><ele>127.49999999999999</ele><time>2026-04-26T07:48:33.989Z</time></trkpt><trkpt lat="43.62479235422784" lon="3.7625418135447095"><ele>128.0</ele><time>2026-04-26T07:48:35.989Z</time></trkpt><trkpt lat="43.624751821407344" lon="3.762440903114941"><ele>127.99999999999999</ele><time>2026-04-26T07:48:38.989Z</time></trkpt><trkpt lat="43.62469365480993" lon="3.7623471473069556"><ele>128.0</ele><time>2026-04-26T07:48:41.989Z</time></trkpt><trkpt lat="43.62465553419443" lon="3.762233587982022"><ele>128.0</ele><time>2026-04-26T07:48:44.989Z</time></trkpt><trkpt lat="43.624639253614994" lon="3.76211221121914"><ele>128.0</ele><time>2026-04-26T07:48:47.989Z</time></trkpt><trkpt lat="43.62461634503097" lon="3.762005623255939"><ele>127.99999999999999</ele><time>2026-04-26T07:48:50.989Z</time></trkpt><trkpt lat="43.624592135440565" lon="3.761925149601337"><ele>128.0</ele><time>2026-04-26T07:48:53.989Z</time></trkpt><trkpt lat="43.62453957643001" lon="3.761829264150973"><ele>128.42857142857142</ele><time>2026-04-26T07:48:57.989Z</time></trkpt><trkpt lat="43.62448439390527" lon="3.761784867265849"><ele>128.85714285714283</ele><time>2026-04-26T07:49:00.989Z</time></trkpt><trkpt lat="43.62441956374319" lon="3.761720083504357"><ele>129.28571428571428</ele><time>2026-04-26T07:49:04.989Z</time></trkpt><trkpt lat="43.624364709081064" lon="3.761641685362944"><ele>129.71428571428572</ele><time>2026-04-26T07:49:08.989Z</time></trkpt><trkpt lat="43.62430085896949" lon="3.761623308446388"><ele>130.14285714285717</ele><time>2026-04-26T07:49:11.989Z</time></trkpt><trkpt lat="43.62422715972015" lon="3.761604546350075"><ele>130.57142857142858</ele><time>2026-04-26T07:49:15.989Z</time></trkpt><trkpt lat="43.62415580659278" lon="3.761538293203619"><ele>131.0</ele><time>2026-04-26T07:49:19.989Z</time></trkpt><trkpt lat="43.62412260429002" lon="3.761436260759681"><ele>131.14285714285714</ele><time>2026-04-26T07:49:25.989Z</time></trkpt><trkpt lat="43.6240496396328" lon="3.7614100945148996"><ele>131.2857142857143</ele><time>2026-04-26T07:49:30.989Z</time></trkpt><trkpt lat="43.62398396785038" lon="3.761387330422497"><ele>131.42857142857144</ele><time>2026-04-26T07:49:34.989Z</time></trkpt><trkpt lat="43.62393387028207" lon="3.7613082624863705"><ele>131.57142857142858</ele><time>2026-04-26T07:49:38.989Z</time></trkpt><trkpt lat="43.62387825046393" lon="3.761242700328868"><ele>131.71428571428572</ele><time>2026-04-26T07:49:42.989Z</time></trkpt><trkpt lat="43.623828517326814" lon="3.7611677207443863"><ele>131.85714285714286</ele><time>2026-04-26T07:49:46.987Z</time></trkpt><trkpt lat="43.62378964591143" lon="3.761092702812779"><ele>132.0</ele><time>2026-04-26T07:49:49.988Z</time></trkpt><trkpt lat="43.6237398580265" lon="3.761024707310911"><ele>132.57142857142856</ele><time>2026-04-26T07:49:52.988Z</time></trkpt><trkpt lat="43.62368658769715" lon="3.760935650657422"><ele>133.14285714285714</ele><time>2026-04-26T07:49:56.988Z</time></trkpt><trkpt lat="43.623690714165626" lon="3.7608466678398886"><ele>133.71428571428572</ele><time>2026-04-26T07:49:59.988Z</time></trkpt><trkpt lat="43.62373582225334" lon="3.760774549090118"><ele>134.28571428571428</ele><time>2026-04-26T07:50:02.988Z</time></trkpt><trkpt lat="43.62378319172131" lon="3.7607143280583375"><ele>134.85714285714286</ele><time>2026-04-26T07:50:05.988Z</time></trkpt><trkpt lat="43.623817083537155" lon="3.7606308153820187"><ele>135.42857142857142</ele><time>2026-04-26T07:50:08.988Z</time></trkpt><trkpt lat="43.6237964893536" lon="3.7605438040641297"><ele>136.0</ele><time>2026-04-26T07:50:12.988Z</time></trkpt><trkpt lat="43.62381110190073" lon="3.760448564816843"><ele>135.99999999999997</ele><time>2026-04-26T07:50:16.988Z</time></trkpt><trkpt lat="43.62378271368687" lon="3.7603587504409695"><ele>136.0</ele><time>2026-04-26T07:50:21.988Z</time></trkpt><trkpt lat="43.62379846600059" lon="3.760268993734587"><ele>136.0</ele><time>2026-04-26T07:50:24.988Z</time></trkpt><trkpt lat="43.62382734811642" lon="3.760171847702289"><ele>136.0</ele><time>2026-04-26T07:50:27.988Z</time></trkpt><trkpt lat="43.62385818352513" lon="3.760079441004717"><ele>136.0</ele><time>2026-04-26T07:50:30.988Z</time></trkpt><trkpt lat="43.62389672938678" lon="3.760006768690315"><ele>135.99999999999997</ele><time>2026-04-26T07:50:33.988Z</time></trkpt><trkpt lat="43.623950389275336" lon="3.7599195407367674"><ele>136.0</ele><time>2026-04-26T07:50:37.988Z</time></trkpt><trkpt lat="43.624008746104295" lon="3.759857304302657"><ele>137.0</ele><time>2026-04-26T07:50:40.988Z</time></trkpt><trkpt lat="43.62406732125408" lon="3.7597727371728293"><ele>138.0</ele><time>2026-04-26T07:50:44.988Z</time></trkpt><trkpt lat="43.62412453213742" lon="3.7597350836974295"><ele>139.0</ele><time>2026-04-26T07:50:46.988Z</time></trkpt><trkpt lat="43.62420145389473" lon="3.759680279710025"><ele>140.0</ele><time>2026-04-26T07:50:49.988Z</time></trkpt><trkpt lat="43.6242655132794" lon="3.759602475781351"><ele>141.0</ele><time>2026-04-26T07:50:52.988Z</time></trkpt><trkpt lat="43.6243217006161" lon="3.7595379146329466"><ele>142.0</ele><time>2026-04-26T07:50:55.988Z</time></trkpt><trkpt lat="43.62435660859748" lon="3.759433790652125"><ele>142.71428571428572</ele><time>2026-04-26T07:50:59.988Z</time></trkpt><trkpt lat="43.62439604492288" lon="3.7593640653105824"><ele>143.42857142857142</ele><time>2026-04-26T07:51:02.988Z</time></trkpt><trkpt lat="43.62444362254201" lon="3.759280754874623"><ele>144.14285714285714</ele><time>2026-04-26T07:51:06.988Z</time></trkpt><trkpt lat="43.6245068808521" lon="3.7592049678852035"><ele>144.85714285714286</ele><time>2026-04-26T07:51:10.988Z</time></trkpt><trkpt lat="43.62454790009874" lon="3.7591348117352408"><ele>145.57142857142856</ele><time>2026-04-26T07:51:14.988Z</time></trkpt><trkpt lat="43.62456899504158" lon="3.7590296566565304"><ele>146.28571428571428</ele><time>2026-04-26T07:51:20.988Z</time></trkpt><trkpt lat="43.624554295095265" lon="3.758941063268366"><ele>147.0</ele><time>2026-04-26T07:51:23.988Z</time></trkpt><trkpt lat="43.62456762423107" lon="3.7588356790166073"><ele>147.42857142857142</ele><time>2026-04-26T07:51:27.988Z</time></trkpt><trkpt lat="43.62452314190922" lon="3.7587527121947555"><ele>147.85714285714286</ele><time>2026-04-26T07:51:31.988Z</time></trkpt><trkpt lat="43.62449070671091" lon="3.758673182525374"><ele>148.28571428571428</ele><time>2026-04-26T07:51:36.988Z</time></trkpt><trkpt lat="43.62450103461371" lon="3.7585868334876356"><ele>148.71428571428572</ele><time>2026-04-26T07:51:45.988Z</time></trkpt><trkpt lat="43.624516665437575" lon="3.7584861752432275"><ele>149.14285714285714</ele><time>2026-04-26T07:51:53.987Z</time></trkpt><trkpt lat="43.62453515471945" lon="3.7584002537797487"><ele>149.57142857142856</ele><time>2026-04-26T07:52:29.987Z</time></trkpt><trkpt lat="43.62458354566782" lon="3.75831970128244"><ele>150.0</ele><time>2026-04-26T07:52:35.987Z</time></trkpt><trkpt lat="43.62461225944418" lon="3.758238023048233"><ele>150.7142857142857</ele><time>2026-04-26T07:52:41.987Z</time></trkpt><trkpt lat="43.6246219944233" lon="3.758139740250188"><ele>151.42857142857142</ele><time>2026-04-26T07:52:46.987Z</time></trkpt><trkpt lat="43.62464546511552" lon="3.758049458846585"><ele>152.14285714285714</ele><time>2026-04-26T07:52:51.987Z</time></trkpt><trkpt lat="43.624650390053816" lon="3.7579513315968893"><ele>152.85714285714283</ele><time>2026-04-26T07:52:56.987Z</time></trkpt><trkpt lat="43.62464968001838" lon="3.757863513781637"><ele>153.57142857142856</ele><time>2026-04-26T07:53:00.987Z</time></trkpt><trkpt lat="43.62467628950537" lon="3.7577702205172407"><ele>154.28571428571428</ele><time>2026-04-26T07:53:04.986Z</time></trkpt><trkpt lat="43.62469492778893" lon="3.7576749806592518"><ele>155.0</ele><time>2026-04-26T07:53:08.986Z</time></trkpt><trkpt lat="43.62470171121568" lon="3.7575833207237292"><ele>155.66666666666666</ele><time>2026-04-26T07:53:12.986Z</time></trkpt><trkpt lat="43.624718591882136" lon="3.7574943855932723"><ele>156.33333333333331</ele><time>2026-04-26T07:53:16.986Z</time></trkpt><trkpt lat="43.62473928016203" lon="3.757396754508673"><ele>157.0</ele><time>2026-04-26T07:53:20.986Z</time></trkpt><trkpt lat="43.62476061450451" lon="3.7573019480983008"><ele>157.66666666666666</ele><time>2026-04-26T07:53:24.986Z</time></trkpt><trkpt lat="43.62478711887608" lon="3.7571973413435535"><ele>158.33333333333334</ele><time>2026-04-26T07:53:28.986Z</time></trkpt><trkpt lat="43.62479229533381" lon="3.7570782448601863"><ele>159.0</ele><time>2026-04-26T07:53:32.986Z</time></trkpt><trkpt lat="43.624809382868065" lon="3.7569649770617386"><ele>159.28571428571428</ele><time>2026-04-26T07:53:36.986Z</time></trkpt><trkpt lat="43.6248257844081" lon="3.7568551596502604"><ele>159.57142857142858</ele><time>2026-04-26T07:53:40.986Z</time></trkpt><trkpt lat="43.62483561620982" lon="3.756759008245691"><ele>159.85714285714286</ele><time>2026-04-26T07:53:43.986Z</time></trkpt><trkpt lat="43.62484955215299" lon="3.756670496190755"><ele>160.14285714285714</ele><time>2026-04-26T07:53:46.986Z</time></trkpt><trkpt lat="43.62486877191514" lon="3.7565793253001956"><ele>160.42857142857144</ele><time>2026-04-26T07:53:49.986Z</time></trkpt><trkpt lat="43.62488011560555" lon="3.7564819564511907"><ele>160.71428571428572</ele><time>2026-04-26T07:53:52.986Z</time></trkpt><trkpt lat="43.62490393056418" lon="3.7563938267443624"><ele>161.0</ele><time>2026-04-26T07:53:55.986Z</time></trkpt><trkpt lat="43.62491896264079" lon="3.7562891072989153"><ele>161.0</ele><time>2026-04-26T07:53:58.986Z</time></trkpt><trkpt lat="43.624947569018595" lon="3.7562036737392983"><ele>161.0</ele><time>2026-04-26T07:54:01.986Z</time></trkpt><trkpt lat="43.62497013538166" lon="3.756118016038943"><ele>161.0</ele><time>2026-04-26T07:54:04.986Z</time></trkpt><trkpt lat="43.62500116670781" lon="3.7560417804782937"><ele>161.0</ele><time>2026-04-26T07:54:07.987Z</time></trkpt><trkpt lat="43.62501909621599" lon="3.755943389714352"><ele>161.0</ele><time>2026-04-26T07:54:10.986Z</time></trkpt><trkpt lat="43.62503689941854" lon="3.7558272620050928"><ele>161.0</ele><time>2026-04-26T07:54:14.986Z</time></trkpt><trkpt lat="43.62506393511879" lon="3.7557134431688364"><ele>161.0</ele><time>2026-04-26T07:54:18.986Z</time></trkpt><trkpt lat="43.62508347286608" lon="3.7556301610367244"><ele>161.33333333333331</ele><time>2026-04-26T07:54:21.986Z</time></trkpt><trkpt lat="43.62510392791147" lon="3.755518805091312"><ele>161.66666666666666</ele><time>2026-04-26T07:54:25.986Z</time></trkpt><trkpt lat="43.62512815521231" lon="3.755423457064504"><ele>162.0</ele><time>2026-04-26T07:54:29.986Z</time></trkpt><trkpt lat="43.62515698340371" lon="3.755315457721937"><ele>162.33333333333334</ele><time>2026-04-26T07:54:33.986Z</time></trkpt><trkpt lat="43.625176652915926" lon="3.755223979770277"><ele>162.66666666666669</ele><time>2026-04-26T07:54:36.986Z</time></trkpt><trkpt lat="43.62520246336109" lon="3.7551280764054273"><ele>163.0</ele><time>2026-04-26T07:54:40.986Z</time></trkpt><trkpt lat="43.625224167000134" lon="3.7550360244784096"><ele>163.2857142857143</ele><time>2026-04-26T07:54:43.986Z</time></trkpt><trkpt lat="43.62525211501671" lon="3.754926307533608"><ele>163.57142857142856</ele><time>2026-04-26T07:54:47.986Z</time></trkpt><trkpt lat="43.62528818345169" lon="3.7548499322103965"><ele>163.85714285714286</ele><time>2026-04-26T07:54:50.986Z</time></trkpt><trkpt lat="43.62530646342359" lon="3.7547567740293806"><ele>164.14285714285717</ele><time>2026-04-26T07:54:53.986Z</time></trkpt><trkpt lat="43.62532984136148" lon="3.7546545564017295"><ele>164.42857142857144</ele><time>2026-04-26T07:54:57.986Z</time></trkpt><trkpt lat="43.625348582241834" lon="3.7545529853501467"><ele>164.71428571428572</ele><time>2026-04-26T07:55:01.986Z</time></trkpt><trkpt lat="43.625358284500244" lon="3.754456231904043"><ele>165.0</ele><time>2026-04-26T07:55:05.986Z</time></trkpt><trkpt lat="43.625373456361906" lon="3.754355813648663"><ele>165.0</ele><time>2026-04-26T07:55:09.986Z</time></trkpt><trkpt lat="43.62538613223455" lon="3.7542554454989716"><ele>165.0</ele><time>2026-04-26T07:55:13.986Z</time></trkpt><trkpt lat="43.62539071963035" lon="3.7541588670330266"><ele>165.0</ele><time>2026-04-26T07:55:17.986Z</time></trkpt><trkpt lat="43.625415489658586" lon="3.754057967552618"><ele>165.0</ele><time>2026-04-26T07:55:21.986Z</time></trkpt><trkpt lat="43.62542120405389" lon="3.753956932153537"><ele>165.0</ele><time>2026-04-26T07:55:25.986Z</time></trkpt><trkpt lat="43.62543689563995" lon="3.753849388492777"><ele>165.0</ele><time>2026-04-26T07:55:30.986Z</time></trkpt><trkpt lat="43.62544754622367" lon="3.7537414898193227"><ele>165.00000000000003</ele><time>2026-04-26T07:55:34.986Z</time></trkpt><trkpt lat="43.62544596948316" lon="3.7536346906026985"><ele>165.0</ele><time>2026-04-26T07:55:39.986Z</time></trkpt><trkpt lat="43.6254392870763" lon="3.7535232768747946"><ele>165.0</ele><time>2026-04-26T07:55:44.986Z</time></trkpt><trkpt lat="43.625423055717" lon="3.7534323874938287"><ele>165.0</ele><time>2026-04-26T07:55:48.986Z</time></trkpt><trkpt lat="43.62540532351371" lon="3.753347014983413"><ele>165.0</ele><time>2026-04-26T07:55:52.986Z</time></trkpt><trkpt lat="43.62538737270964" lon="3.7532594579664336"><ele>165.00000000000003</ele><time>2026-04-26T07:55:56.986Z</time></trkpt><trkpt lat="43.62537290579367" lon="3.753157008430691"><ele>165.0</ele><time>2026-04-26T07:56:00.986Z</time></trkpt><trkpt lat="43.62534996330661" lon="3.75305729557598"><ele>166.33333333333334</ele><time>2026-04-26T07:56:04.985Z</time></trkpt><trkpt lat="43.6253359236183" lon="3.752955452738365"><ele>167.66666666666666</ele><time>2026-04-26T07:56:08.985Z</time></trkpt><trkpt lat="43.62531069999119" lon="3.7528547798251504"><ele>169.0</ele><time>2026-04-26T07:56:12.985Z</time></trkpt><trkpt lat="43.62532162526767" lon="3.7527451553731237"><ele>170.33333333333331</ele><time>2026-04-26T07:56:16.985Z</time></trkpt><trkpt lat="43.625322701866075" lon="3.7526495775254127"><ele>171.66666666666666</ele><time>2026-04-26T07:56:20.985Z</time></trkpt><trkpt lat="43.625318348710316" lon="3.7525403227302214"><ele>173.0</ele><time>2026-04-26T07:56:24.985Z</time></trkpt><trkpt lat="43.62531803939972" lon="3.7524244767303108"><ele>173.66666666666666</ele><time>2026-04-26T07:56:28.985Z</time></trkpt><trkpt lat="43.625310574445884" lon="3.7523206703197154"><ele>174.33333333333331</ele><time>2026-04-26T07:56:31.985Z</time></trkpt><trkpt lat="43.6253163026248" lon="3.7522164824770026"><ele>175.0</ele><time>2026-04-26T07:56:34.985Z</time></trkpt><trkpt lat="43.625305752900665" lon="3.7521045902018075"><ele>175.66666666666666</ele><time>2026-04-26T07:56:37.985Z</time></trkpt><trkpt lat="43.62529554497753" lon="3.751982561479492"><ele>176.33333333333334</ele><time>2026-04-26T07:56:40.985Z</time></trkpt><trkpt lat="43.62528159417465" lon="3.751894296426595"><ele>177.0</ele><time>2026-04-26T07:56:42.985Z</time></trkpt><trkpt lat="43.62528407400263" lon="3.7517823888074684"><ele>177.0</ele><time>2026-04-26T07:56:45.985Z</time></trkpt><trkpt lat="43.6252984387871" lon="3.75165930267934"><ele>177.0</ele><time>2026-04-26T07:56:48.985Z</time></trkpt><trkpt lat="43.62531745249188" lon="3.751536651486352"><ele>177.0</ele><time>2026-04-26T07:56:51.985Z</time></trkpt><trkpt lat="43.625325716174" lon="3.7514410072842965"><ele>177.0</ele><time>2026-04-26T07:56:54.985Z</time></trkpt><trkpt lat="43.62534724146961" lon="3.751349378121648"><ele>177.0</ele><time>2026-04-26T07:57:43.985Z</time></trkpt><trkpt lat="43.62534006878383" lon="3.7512482292738603"><ele>177.0</ele><time>2026-04-26T07:57:46.985Z</time></trkpt><trkpt lat="43.625334581073496" lon="3.751114983957302"><ele>176.0</ele><time>2026-04-26T07:57:49.985Z</time></trkpt><trkpt lat="43.625337973637166" lon="3.750996445421385"><ele>175.0</ele><time>2026-04-26T07:57:51.985Z</time></trkpt><trkpt lat="43.625338306295454" lon="3.7508582359531975"><ele>174.0</ele><time>2026-04-26T07:57:53.985Z</time></trkpt><trkpt lat="43.625382897127814" lon="3.750705068884285"><ele>173.0</ele><time>2026-04-26T07:57:55.985Z</time></trkpt><trkpt lat="43.62540748826717" lon="3.750617917106664"><ele>172.0</ele><time>2026-04-26T07:57:56.985Z</time></trkpt><trkpt lat="43.625483395113676" lon="3.7504667321703598"><ele>172.0</ele><time>2026-04-26T07:57:58.985Z</time></trkpt><trkpt lat="43.62552896386287" lon="3.750404908868561"><ele>172.0</ele><time>2026-04-26T07:57:59.985Z</time></trkpt><trkpt lat="43.625571482342124" lon="3.750310318779522"><ele>172.0</ele><time>2026-04-26T07:58:00.985Z</time></trkpt><trkpt lat="43.62559299892452" lon="3.7501994962572383"><ele>172.0</ele><time>2026-04-26T07:58:01.985Z</time></trkpt><trkpt lat="43.625604172782225" lon="3.750082149912807"><ele>172.0</ele><time>2026-04-26T07:58:02.985Z</time></trkpt><trkpt lat="43.62557860298045" lon="3.7499628263142077"><ele>172.0</ele><time>2026-04-26T07:58:03.985Z</time></trkpt><trkpt lat="43.62554404013203" lon="3.7498538849861434"><ele>171.14285714285717</ele><time>2026-04-26T07:58:04.985Z</time></trkpt><trkpt lat="43.62549377650205" lon="3.74978405387171"><ele>170.28571428571428</ele><time>2026-04-26T07:58:05.985Z</time></trkpt><trkpt lat="43.6254365022122" lon="3.749733434263955"><ele>169.42857142857144</ele><time>2026-04-26T07:58:06.985Z</time></trkpt><trkpt lat="43.6253868754549" lon="3.749675172619963"><ele>168.57142857142858</ele><time>2026-04-26T07:58:07.985Z</time></trkpt><trkpt lat="43.625342639175564" lon="3.7495945199765903"><ele>167.71428571428572</ele><time>2026-04-26T07:58:10.984Z</time></trkpt><trkpt lat="43.62539491051598" lon="3.7496530218721373"><ele>166.85714285714286</ele><time>2026-04-26T07:58:38.984Z</time></trkpt><trkpt lat="43.62543200147002" lon="3.749735402926531"><ele>166.0</ele><time>2026-04-26T07:58:58.984Z</time></trkpt><trkpt lat="43.62548577598843" lon="3.749796672240587"><ele>166.0</ele><time>2026-04-26T07:59:02.984Z</time></trkpt><trkpt lat="43.62553644837156" lon="3.7498653814909644"><ele>166.0</ele><time>2026-04-26T07:59:06.984Z</time></trkpt><trkpt lat="43.62557093525209" lon="3.7499617441161517"><ele>166.0</ele><time>2026-04-26T07:59:11.984Z</time></trkpt><trkpt lat="43.62559444789918" lon="3.750060872390062"><ele>166.0</ele><time>2026-04-26T07:59:16.984Z</time></trkpt><trkpt lat="43.62560614432664" lon="3.7501553837632713"><ele>166.0</ele><time>2026-04-26T07:59:21.984Z</time></trkpt><trkpt lat="43.62559687363395" lon="3.7502531001537927"><ele>166.0</ele><time>2026-04-26T07:59:26.984Z</time></trkpt><trkpt lat="43.625574144137765" lon="3.7503363401080105"><ele>166.0</ele><time>2026-04-26T07:59:30.984Z</time></trkpt><trkpt lat="43.625536065683036" lon="3.750412785068966"><ele>166.85714285714286</ele><time>2026-04-26T07:59:34.984Z</time></trkpt><trkpt lat="43.6254971608185" lon="3.750488554643285"><ele>167.71428571428572</ele><time>2026-04-26T07:59:38.984Z</time></trkpt><trkpt lat="43.6254411377711" lon="3.750555445285399"><ele>168.57142857142858</ele><time>2026-04-26T07:59:43.984Z</time></trkpt><trkpt lat="43.62540613989633" lon="3.750638671700098"><ele>169.42857142857144</ele><time>2026-04-26T07:59:47.984Z</time></trkpt><trkpt lat="43.62538342736687" lon="3.7507208729815584"><ele>170.28571428571428</ele><time>2026-04-26T07:59:51.984Z</time></trkpt><trkpt lat="43.62535465872497" lon="3.75080237334956"><ele>171.14285714285717</ele><time>2026-04-26T07:59:55.984Z</time></trkpt><trkpt lat="43.625302616587206" lon="3.7508532113373336"><ele>172.0</ele><time>2026-04-26T07:59:59.984Z</time></trkpt><trkpt lat="43.6252328436335" lon="3.7508488096523243"><ele>172.0</ele><time>2026-04-26T08:00:03.984Z</time></trkpt><trkpt lat="43.62516583579981" lon="3.7508291062207606"><ele>172.0</ele><time>2026-04-26T08:00:06.984Z</time></trkpt><trkpt lat="43.625106305238525" lon="3.7507391607792635"><ele>172.0</ele><time>2026-04-26T08:00:09.984Z</time></trkpt><trkpt lat="43.62506763587048" lon="3.7506552830965156"><ele>172.0</ele><time>2026-04-26T08:00:11.984Z</time></trkpt><trkpt lat="43.62503221256612" lon="3.7505406311511904"><ele>172.0</ele><time>2026-04-26T08:00:13.984Z</time></trkpt><trkpt lat="43.62496289517973" lon="3.7504270195772595"><ele>172.0</ele><time>2026-04-26T08:00:15.983Z</time></trkpt><trkpt lat="43.62486204044614" lon="3.7504219280207494"><ele>172.00000000000003</ele><time>2026-04-26T08:00:17.983Z</time></trkpt><trkpt lat="43.6247962986699" lon="3.7504410605855867"><ele>172.0</ele><time>2026-04-26T08:00:20.984Z</time></trkpt><trkpt lat="43.62472952964017" lon="3.750462951196402"><ele>172.0</ele><time>2026-04-26T08:00:40.983Z</time></trkpt><trkpt lat="43.62466592571566" lon="3.7504757373615663"><ele>172.0</ele><time>2026-04-26T08:00:59.983Z</time></trkpt><trkpt lat="43.62459595473987" lon="3.7504902669694493"><ele>172.0</ele><time>2026-04-26T08:01:02.983Z</time></trkpt><trkpt lat="43.624517675083844" lon="3.7505401823233937"><ele>172.00000000000003</ele><time>2026-04-26T08:01:06.983Z</time></trkpt><trkpt lat="43.62444306410402" lon="3.7505927147000646"><ele>172.0</ele><time>2026-04-26T08:01:09.983Z</time></trkpt><trkpt lat="43.62435934493833" lon="3.750633883022582"><ele>171.16666666666669</ele><time>2026-04-26T08:01:12.983Z</time></trkpt><trkpt lat="43.624306047049174" lon="3.7507177272667547"><ele>170.33333333333334</ele><time>2026-04-26T08:01:15.983Z</time></trkpt><trkpt lat="43.62423833797148" lon="3.750741576302466"><ele>169.5</ele><time>2026-04-26T08:01:18.983Z</time></trkpt><trkpt lat="43.62416738642477" lon="3.7507304909836745"><ele>168.66666666666666</ele><time>2026-04-26T08:01:20.983Z</time></trkpt><trkpt lat="43.62409213423689" lon="3.750735287028474"><ele>167.83333333333331</ele><time>2026-04-26T08:01:22.983Z</time></trkpt><trkpt lat="43.62401311841523" lon="3.750715740695551"><ele>167.0</ele><time>2026-04-26T08:01:24.983Z</time></trkpt><trkpt lat="43.62394374623705" lon="3.7506470426651024"><ele>167.0</ele><time>2026-04-26T08:01:26.983Z</time></trkpt><trkpt lat="43.62382847688837" lon="3.750638699163194"><ele>167.0</ele><time>2026-04-26T08:01:28.983Z</time></trkpt><trkpt lat="43.62375020709177" lon="3.7507136293259027"><ele>167.0</ele><time>2026-04-26T08:01:31.983Z</time></trkpt><trkpt lat="43.6236825554402" lon="3.7507590877195676"><ele>167.0</ele><time>2026-04-26T08:01:34.983Z</time></trkpt><trkpt lat="43.623612263903546" lon="3.750820934173221"><ele>167.0</ele><time>2026-04-26T08:01:36.983Z</time></trkpt><trkpt lat="43.62351720263386" lon="3.750878377429883"><ele>165.33333333333331</ele><time>2026-04-26T08:01:39.983Z</time></trkpt><trkpt lat="43.623411622795295" lon="3.7509064070325295"><ele>163.66666666666666</ele><time>2026-04-26T08:01:41.983Z</time></trkpt><trkpt lat="43.62332843410743" lon="3.7509493546116377"><ele>162.0</ele><time>2026-04-26T08:01:43.983Z</time></trkpt><trkpt lat="43.62328357640583" lon="3.751058493596397"><ele>160.33333333333334</ele><time>2026-04-26T08:01:45.983Z</time></trkpt><trkpt lat="43.623209243753756" lon="3.7510979128067716"><ele>158.66666666666669</ele><time>2026-04-26T08:01:47.983Z</time></trkpt><trkpt lat="43.62315428340085" lon="3.7510219718324915"><ele>157.0</ele><time>2026-04-26T08:01:50.983Z</time></trkpt><trkpt lat="43.62312812639391" lon="3.7509392625138855"><ele>157.0</ele><time>2026-04-26T08:01:52.983Z</time></trkpt><trkpt lat="43.62304667844065" lon="3.750916605188619"><ele>157.0</ele><time>2026-04-26T08:01:54.983Z</time></trkpt><trkpt lat="43.62295848564146" lon="3.750945522336833"><ele>157.0</ele><time>2026-04-26T08:01:56.983Z</time></trkpt><trkpt lat="43.62286555491639" lon="3.7509405342440556"><ele>157.0</ele><time>2026-04-26T08:01:59.983Z</time></trkpt><trkpt lat="43.622799894169894" lon="3.750948799212145"><ele>157.0</ele><time>2026-04-26T08:02:01.983Z</time></trkpt><trkpt lat="43.622742687145696" lon="3.7509888940336604"><ele>157.0</ele><time>2026-04-26T08:02:04.983Z</time></trkpt><trkpt lat="43.62266568765508" lon="3.7510093874312034"><ele>154.5</ele><time>2026-04-26T08:02:07.983Z</time></trkpt><trkpt lat="43.62261355449196" lon="3.7510675442309944"><ele>152.0</ele><time>2026-04-26T08:02:09.983Z</time></trkpt><trkpt lat="43.622567564574716" lon="3.7511505100855596"><ele>149.5</ele><time>2026-04-26T08:02:11.983Z</time></trkpt><trkpt lat="43.62247907440569" lon="3.7511318680607766"><ele>147.0</ele><time>2026-04-26T08:02:13.983Z</time></trkpt><trkpt lat="43.622418300066" lon="3.751074399083248"><ele>144.5</ele><time>2026-04-26T08:02:15.983Z</time></trkpt><trkpt lat="43.62234962192778" lon="3.751055597546326"><ele>142.0</ele><time>2026-04-26T08:02:17.983Z</time></trkpt><trkpt lat="43.62230157194949" lon="3.7509582352793016"><ele>142.0</ele><time>2026-04-26T08:02:19.983Z</time></trkpt><trkpt lat="43.62222068266797" lon="3.7508862763169244"><ele>142.0</ele><time>2026-04-26T08:02:21.982Z</time></trkpt><trkpt lat="43.62214838498365" lon="3.750810171854478"><ele>142.0</ele><time>2026-04-26T08:02:23.982Z</time></trkpt><trkpt lat="43.62203920168279" lon="3.7508245618893565"><ele>142.0</ele><time>2026-04-26T08:02:25.983Z</time></trkpt><trkpt lat="43.621953298348664" lon="3.7508215160806433"><ele>142.0</ele><time>2026-04-26T08:02:27.983Z</time></trkpt><trkpt lat="43.621870161585804" lon="3.750709314148905"><ele>139.79999999999998</ele><time>2026-04-26T08:02:29.983Z</time></trkpt><trkpt lat="43.62182063490623" lon="3.750650037416807"><ele>137.6</ele><time>2026-04-26T08:02:30.982Z</time></trkpt><trkpt lat="43.6217394116236" lon="3.7505548778088147"><ele>135.39999999999998</ele><time>2026-04-26T08:02:32.982Z</time></trkpt><trkpt lat="43.621669378225704" lon="3.7504862732326347"><ele>133.2</ele><time>2026-04-26T08:02:34.982Z</time></trkpt><trkpt lat="43.621635108308645" lon="3.7503424575538844"><ele>131.0</ele><time>2026-04-26T08:02:36.982Z</time></trkpt><trkpt lat="43.621603170415376" lon="3.750222862410373"><ele>130.0</ele><time>2026-04-26T08:02:38.982Z</time></trkpt><trkpt lat="43.62155567853769" lon="3.75011806868883"><ele>129.0</ele><time>2026-04-26T08:02:40.982Z</time></trkpt><trkpt lat="43.62157227550562" lon="3.7499778108951003"><ele>128.0</ele><time>2026-04-26T08:02:42.982Z</time></trkpt><trkpt lat="43.62152833785716" lon="3.7498393974047834"><ele>127.0</ele><time>2026-04-26T08:02:44.982Z</time></trkpt><trkpt lat="43.621476717358014" lon="3.7497066308407074"><ele>126.0</ele><time>2026-04-26T08:02:46.982Z</time></trkpt><trkpt lat="43.621427265201426" lon="3.749584054469722"><ele>126.0</ele><time>2026-04-26T08:02:48.982Z</time></trkpt><trkpt lat="43.621412801844215" lon="3.7494229851114333"><ele>126.0</ele><time>2026-04-26T08:02:50.982Z</time></trkpt><trkpt lat="43.62139976000092" lon="3.7493041521047763"><ele>126.0</ele><time>2026-04-26T08:02:52.982Z</time></trkpt><trkpt lat="43.62134707415178" lon="3.7492109319106706"><ele>126.0</ele><time>2026-04-26T08:02:54.982Z</time></trkpt><trkpt lat="43.62132343083588" lon="3.749078254134319"><ele>126.0</ele><time>2026-04-26T08:02:56.982Z</time></trkpt><trkpt lat="43.62128339693059" lon="3.7489381508963158"><ele>124.66666666666667</ele><time>2026-04-26T08:02:58.982Z</time></trkpt><trkpt lat="43.62122096228232" lon="3.748812537729385"><ele>123.33333333333334</ele><time>2026-04-26T08:03:00.982Z</time></trkpt><trkpt lat="43.62116630634325" lon="3.7487185698819236"><ele>122.0</ele><time>2026-04-26T08:03:02.982Z</time></trkpt><trkpt lat="43.6211486468472" lon="3.7486252111511074"><ele>120.66666666666667</ele><time>2026-04-26T08:03:04.982Z</time></trkpt><trkpt lat="43.62110089771041" lon="3.748564045061709"><ele>119.33333333333334</ele><time>2026-04-26T08:03:10.982Z</time></trkpt><trkpt lat="43.621084555663025" lon="3.748469468306586"><ele>118.0</ele><time>2026-04-26T08:03:44.981Z</time></trkpt><trkpt lat="43.62110161185317" lon="3.7483633053534002"><ele>115.85714285714285</ele><time>2026-04-26T08:03:47.981Z</time></trkpt><trkpt lat="43.62105120686996" lon="3.7482967507970524"><ele>113.71428571428572</ele><time>2026-04-26T08:04:06.981Z</time></trkpt><trkpt lat="43.620988616313355" lon="3.7482840328907843"><ele>111.57142857142857</ele><time>2026-04-26T08:04:13.981Z</time></trkpt><trkpt lat="43.62090737399947" lon="3.748272828216175"><ele>109.42857142857142</ele><time>2026-04-26T08:04:17.981Z</time></trkpt><trkpt lat="43.62084750423867" lon="3.748343039959656"><ele>107.28571428571428</ele><time>2026-04-26T08:04:22.981Z</time></trkpt><trkpt lat="43.62078594863846" lon="3.748402938424798"><ele>105.14285714285714</ele><time>2026-04-26T08:04:25.981Z</time></trkpt><trkpt lat="43.62072739481052" lon="3.748447931133819"><ele>103.0</ele><time>2026-04-26T08:04:27.982Z</time></trkpt><trkpt lat="43.620682266616356" lon="3.748521964246616"><ele>103.33333333333334</ele><time>2026-04-26T08:04:29.982Z</time></trkpt><trkpt lat="43.620642578429475" lon="3.7486054212804043"><ele>103.66666666666667</ele><time>2026-04-26T08:04:31.981Z</time></trkpt><trkpt lat="43.62058905433389" lon="3.7486693939525533"><ele>104.0</ele><time>2026-04-26T08:04:34.981Z</time></trkpt><trkpt lat="43.62058076389442" lon="3.748775645730419"><ele>104.33333333333334</ele><time>2026-04-26T08:04:37.981Z</time></trkpt><trkpt lat="43.62058192759765" lon="3.7488879238509063"><ele>104.66666666666667</ele><time>2026-04-26T08:04:39.982Z</time></trkpt><trkpt lat="43.620593059200544" lon="3.7489836424521976"><ele>105.0</ele><time>2026-04-26T08:04:41.982Z</time></trkpt><trkpt lat="43.62058607857642" lon="3.749091414665927"><ele>105.0</ele><time>2026-04-26T08:04:43.982Z</time></trkpt><trkpt lat="43.620570597269854" lon="3.749190848349221"><ele>105.0</ele><time>2026-04-26T08:04:45.982Z</time></trkpt><trkpt lat="43.62047857489708" lon="3.749255177527726"><ele>105.0</ele><time>2026-04-26T08:04:48.982Z</time></trkpt><trkpt lat="43.62042318612537" lon="3.7493192949257232"><ele>105.0</ele><time>2026-04-26T08:04:52.982Z</time></trkpt><trkpt lat="43.62038918457098" lon="3.749425310352529"><ele>105.0</ele><time>2026-04-26T08:04:55.982Z</time></trkpt><trkpt lat="43.62035378254572" lon="3.749524590848083"><ele>105.0</ele><time>2026-04-26T08:04:58.982Z</time></trkpt><trkpt lat="43.620329028059174" lon="3.7496253112058078"><ele>105.0</ele><time>2026-04-26T08:05:00.982Z</time></trkpt><trkpt lat="43.62028868431007" lon="3.749706117833286"><ele>105.0</ele><time>2026-04-26T08:05:02.982Z</time></trkpt><trkpt lat="43.620229738956766" lon="3.749772190637279"><ele>105.0</ele><time>2026-04-26T08:05:04.982Z</time></trkpt><trkpt lat="43.620177912536995" lon="3.7498465671559407"><ele>105.0</ele><time>2026-04-26T08:05:06.982Z</time></trkpt><trkpt lat="43.62017473667364" lon="3.7499501047575565"><ele>105.0</ele><time>2026-04-26T08:05:08.982Z</time></trkpt><trkpt lat="43.62012123634902" lon="3.750043726375528"><ele>105.0</ele><time>2026-04-26T08:05:10.982Z</time></trkpt><trkpt lat="43.62005977131534" lon="3.7501273024921966"><ele>105.0</ele><time>2026-04-26T08:05:12.982Z</time></trkpt><trkpt lat="43.619991506769026" lon="3.7501717588346346"><ele>105.0</ele><time>2026-04-26T08:05:14.982Z</time></trkpt><trkpt lat="43.619917820892255" lon="3.7502302235099374"><ele>105.0</ele><time>2026-04-26T08:05:16.982Z</time></trkpt><trkpt lat="43.61986405841768" lon="3.7502886374936932"><ele>105.0</ele><time>2026-04-26T08:05:18.982Z</time></trkpt><trkpt lat="43.61979583363193" lon="3.7502817951127194"><ele>105.0</ele><time>2026-04-26T08:05:20.982Z</time></trkpt><trkpt lat="43.61972530668172" lon="3.7503383493841698"><ele>105.0</ele><time>2026-04-26T08:05:22.982Z</time></trkpt><trkpt lat="43.619634390353" lon="3.7503628003783733"><ele>104.6</ele><time>2026-04-26T08:05:24.982Z</time></trkpt><trkpt lat="43.61955749701703" lon="3.7504194948247895"><ele>104.2</ele><time>2026-04-26T08:05:26.982Z</time></trkpt><trkpt lat="43.61947325934917" lon="3.7504800477808047"><ele>103.80000000000001</ele><time>2026-04-26T08:05:28.982Z</time></trkpt><trkpt lat="43.61938808441466" lon="3.750544890217446"><ele>103.4</ele><time>2026-04-26T08:05:30.982Z</time></trkpt><trkpt lat="43.619312919167875" lon="3.7505808807952397"><ele>103.0</ele><time>2026-04-26T08:05:32.982Z</time></trkpt><trkpt lat="43.619223583026326" lon="3.7506529678983886"><ele>103.0</ele><time>2026-04-26T08:05:35.982Z</time></trkpt><trkpt lat="43.61913434015293" lon="3.7507044721728118"><ele>103.0</ele><time>2026-04-26T08:05:37.982Z</time></trkpt><trkpt lat="43.61905028555927" lon="3.750739843306722"><ele>103.0</ele><time>2026-04-26T08:05:39.982Z</time></trkpt><trkpt lat="43.61895021554085" lon="3.750775114887994"><ele>103.0</ele><time>2026-04-26T08:05:41.982Z</time></trkpt><trkpt lat="43.61885613197416" lon="3.7507970895880036"><ele>103.0</ele><time>2026-04-26T08:05:43.982Z</time></trkpt><trkpt lat="43.618775452025616" lon="3.7508088393336996"><ele>103.0</ele><time>2026-04-26T08:05:45.982Z</time></trkpt><trkpt lat="43.61867933842411" lon="3.750829134434766"><ele>103.0</ele><time>2026-04-26T08:05:47.981Z</time></trkpt><trkpt lat="43.618590351452546" lon="3.7508608764759526"><ele>103.0</ele><time>2026-04-26T08:05:49.981Z</time></trkpt><trkpt lat="43.618503565763774" lon="3.750897582858616"><ele>103.0</ele><time>2026-04-26T08:05:51.981Z</time></trkpt><trkpt lat="43.61841687779523" lon="3.7509452906023735"><ele>103.0</ele><time>2026-04-26T08:05:53.981Z</time></trkpt><trkpt lat="43.61832390297899" lon="3.75100148450427"><ele>102.66666666666667</ele><time>2026-04-26T08:05:55.981Z</time></trkpt><trkpt lat="43.61823485414165" lon="3.751069282214228"><ele>102.33333333333334</ele><time>2026-04-26T08:05:57.981Z</time></trkpt><trkpt lat="43.61816627542909" lon="3.7511327201343345"><ele>102.0</ele><time>2026-04-26T08:05:59.981Z</time></trkpt><trkpt lat="43.61809396115141" lon="3.7512074914990023"><ele>101.66666666666666</ele><time>2026-04-26T08:06:01.981Z</time></trkpt><trkpt lat="43.61801355843886" lon="3.7512288067339123"><ele>101.33333333333333</ele><time>2026-04-26T08:06:04.981Z</time></trkpt><trkpt lat="43.61802766315089" lon="3.7511084685221854"><ele>101.0</ele><time>2026-04-26T08:06:07.981Z</time></trkpt><trkpt lat="43.61800615203408" lon="3.7509849027319593"><ele>100.99999999999999</ele><time>2026-04-26T08:06:10.981Z</time></trkpt><trkpt lat="43.618000819933705" lon="3.7508534984304416"><ele>101.0</ele><time>2026-04-26T08:06:13.981Z</time></trkpt><trkpt lat="43.618031857165874" lon="3.7507271337420787"><ele>101.0</ele><time>2026-04-26T08:06:15.981Z</time></trkpt><trkpt lat="43.61804679282166" lon="3.750639794098984"><ele>101.0</ele><time>2026-04-26T08:06:18.981Z</time></trkpt><trkpt lat="43.61804220695757" lon="3.7505401599472625"><ele>100.99999999999999</ele><time>2026-04-26T08:06:21.981Z</time></trkpt><trkpt lat="43.618021481809336" lon="3.750434141364472"><ele>101.0</ele><time>2026-04-26T08:06:25.981Z</time></trkpt><trkpt lat="43.618038458986135" lon="3.750275852181354"><ele>101.71428571428571</ele><time>2026-04-26T08:06:51.981Z</time></trkpt><trkpt lat="43.61803997841849" lon="3.750172192491515"><ele>102.42857142857142</ele><time>2026-04-26T08:07:00.981Z</time></trkpt><trkpt lat="43.61803980631963" lon="3.7500574100231914"><ele>103.14285714285714</ele><time>2026-04-26T08:07:04.981Z</time></trkpt><trkpt lat="43.618007290560804" lon="3.7499728155403975"><ele>103.85714285714286</ele><time>2026-04-26T08:07:06.981Z</time></trkpt><trkpt lat="43.6179822413715" lon="3.74988399975098"><ele>104.57142857142857</ele><time>2026-04-26T08:07:08.981Z</time></trkpt><trkpt lat="43.617960719590045" lon="3.7497931100195707"><ele>105.28571428571429</ele><time>2026-04-26T08:07:10.981Z</time></trkpt><trkpt lat="43.61791046090258" lon="3.749701517245876"><ele>106.0</ele><time>2026-04-26T08:07:13.981Z</time></trkpt><trkpt lat="43.6178507215217" lon="3.749621313970424"><ele>106.57142857142857</ele><time>2026-04-26T08:07:16.981Z</time></trkpt><trkpt lat="43.617813954315174" lon="3.7495449717986715"><ele>107.14285714285714</ele><time>2026-04-26T08:07:18.981Z</time></trkpt><trkpt lat="43.617749403043106" lon="3.7494474956461104"><ele>107.71428571428571</ele><time>2026-04-26T08:07:21.981Z</time></trkpt><trkpt lat="43.617687957119635" lon="3.749416054735089"><ele>108.28571428571428</ele><time>2026-04-26T08:07:23.981Z</time></trkpt><trkpt lat="43.617620484574" lon="3.749346187490683"><ele>108.85714285714286</ele><time>2026-04-26T08:07:26.981Z</time></trkpt><trkpt lat="43.61757489290921" lon="3.749278532687411"><ele>109.42857142857142</ele><time>2026-04-26T08:07:28.981Z</time></trkpt><trkpt lat="43.617523724830725" lon="3.749219867609613"><ele>110.0</ele><time>2026-04-26T08:07:30.981Z</time></trkpt><trkpt lat="43.61745555484713" lon="3.7491626618662868"><ele>109.99999999999999</ele><time>2026-04-26T08:07:33.981Z</time></trkpt><trkpt lat="43.61738026589332" lon="3.749123732080881"><ele>110.0</ele><time>2026-04-26T08:07:36.981Z</time></trkpt><trkpt lat="43.61731740175205" lon="3.7490916218663113"><ele>110.0</ele><time>2026-04-26T08:07:38.981Z</time></trkpt><trkpt lat="43.617244986098136" lon="3.7490362723369293"><ele>110.0</ele><time>2026-04-26T08:07:41.981Z</time></trkpt><trkpt lat="43.61716692694254" lon="3.748965126315731"><ele>109.99999999999999</ele><time>2026-04-26T08:07:44.981Z</time></trkpt><trkpt lat="43.617113958685394" lon="3.7488888033996437"><ele>110.0</ele><time>2026-04-26T08:07:47.981Z</time></trkpt><trkpt lat="43.61707148163966" lon="3.7488246172788497"><ele>109.99999999999999</ele><time>2026-04-26T08:07:49.981Z</time></trkpt><trkpt lat="43.617029110582315" lon="3.74873169916135"><ele>110.0</ele><time>2026-04-26T08:07:52.98Z</time></trkpt><trkpt lat="43.6169946318683" lon="3.7486486977650464"><ele>110.0</ele><time>2026-04-26T08:07:54.98Z</time></trkpt><trkpt lat="43.61696822172433" lon="3.748550171271158"><ele>110.0</ele><time>2026-04-26T08:07:57.981Z</time></trkpt><trkpt lat="43.61695560925168" lon="3.748410963622018"><ele>109.99999999999999</ele><time>2026-04-26T08:08:00.981Z</time></trkpt><trkpt lat="43.61692546218856" lon="3.748303505674045"><ele>110.0</ele><time>2026-04-26T08:08:03.981Z</time></trkpt><trkpt lat="43.61691097078394" lon="3.7482010898537514"><ele>110.42857142857142</ele><time>2026-04-26T08:08:05.982Z</time></trkpt><trkpt lat="43.616898340137254" lon="3.74810063919237"><ele>110.85714285714286</ele><time>2026-04-26T08:08:07.982Z</time></trkpt><trkpt lat="43.6168695344665" lon="3.7479918688769334"><ele>111.28571428571428</ele><time>2026-04-26T08:08:10.982Z</time></trkpt><trkpt lat="43.61684353536956" lon="3.747911629271585"><ele>111.71428571428571</ele><time>2026-04-26T08:08:12.982Z</time></trkpt><trkpt lat="43.61681818986012" lon="3.74782462790648"><ele>112.14285714285714</ele><time>2026-04-26T08:08:14.982Z</time></trkpt><trkpt lat="43.61678629902713" lon="3.747742724990636"><ele>112.57142857142857</ele><time>2026-04-26T08:08:16.982Z</time></trkpt><trkpt lat="43.616747780458" lon="3.7476517488319416"><ele>113.0</ele><time>2026-04-26T08:08:19.982Z</time></trkpt><trkpt lat="43.61670897080427" lon="3.747560715401604"><ele>113.0</ele><time>2026-04-26T08:08:22.983Z</time></trkpt><trkpt lat="43.61666888080438" lon="3.7474616579923508"><ele>113.0</ele><time>2026-04-26T08:08:25.983Z</time></trkpt><trkpt lat="43.61663405036913" lon="3.747377564334365"><ele>113.0</ele><time>2026-04-26T08:08:28.983Z</time></trkpt><trkpt lat="43.61659293728154" lon="3.7473051625566933"><ele>113.0</ele><time>2026-04-26T08:08:31.983Z</time></trkpt><trkpt lat="43.6165701671537" lon="3.747215133695038"><ele>113.0</ele><time>2026-04-26T08:08:34.983Z</time></trkpt><trkpt lat="43.61653297828215" lon="3.7471154204649917"><ele>113.0</ele><time>2026-04-26T08:08:37.983Z</time></trkpt><trkpt lat="43.61648396231973" lon="3.747028010182587"><ele>113.0</ele><time>2026-04-26T08:08:40.983Z</time></trkpt><trkpt lat="43.61645547717276" lon="3.7469499629485337"><ele>112.16666666666666</ele><time>2026-04-26T08:08:43.982Z</time></trkpt><trkpt lat="43.61639314739642" lon="3.7468702480007847"><ele>111.33333333333333</ele><time>2026-04-26T08:08:47.983Z</time></trkpt><trkpt lat="43.61636024441255" lon="3.74679306590105"><ele>110.5</ele><time>2026-04-26T08:08:49.983Z</time></trkpt><trkpt lat="43.61630790017019" lon="3.7467063047469336"><ele>109.66666666666666</ele><time>2026-04-26T08:08:52.982Z</time></trkpt><trkpt lat="43.61627070308089" lon="3.7466307503200436"><ele>108.83333333333333</ele><time>2026-04-26T08:08:54.982Z</time></trkpt><trkpt lat="43.61621951039192" lon="3.746522795197279"><ele>108.0</ele><time>2026-04-26T08:08:57.982Z</time></trkpt><trkpt lat="43.616187529448396" lon="3.7464411660989376"><ele>109.16666666666667</ele><time>2026-04-26T08:08:59.982Z</time></trkpt><trkpt lat="43.61613665065362" lon="3.746354396045244"><ele>110.33333333333334</ele><time>2026-04-26T08:09:02.982Z</time></trkpt><trkpt lat="43.61609532617904" lon="3.7462411498641863"><ele>111.5</ele><time>2026-04-26T08:09:05.982Z</time></trkpt><trkpt lat="43.61605185349475" lon="3.746130405340942"><ele>112.66666666666667</ele><time>2026-04-26T08:09:08.982Z</time></trkpt><trkpt lat="43.61600682255614" lon="3.7460598418971665"><ele>113.83333333333334</ele><time>2026-04-26T08:09:10.982Z</time></trkpt><trkpt lat="43.61595985505126" lon="3.7459622757027646"><ele>115.0</ele><time>2026-04-26T08:09:13.982Z</time></trkpt><trkpt lat="43.61591457533191" lon="3.7458780409649926"><ele>115.00000000000001</ele><time>2026-04-26T08:09:16.982Z</time></trkpt><trkpt lat="43.61587614803206" lon="3.7458064851410238"><ele>115.0</ele><time>2026-04-26T08:09:18.982Z</time></trkpt><trkpt lat="43.61583562715315" lon="3.745708959225903"><ele>115.0</ele><time>2026-04-26T08:09:22.982Z</time></trkpt><trkpt lat="43.615819341161995" lon="3.745620176694742"><ele>115.0</ele><time>2026-04-26T08:09:25.982Z</time></trkpt><trkpt lat="43.615787435238076" lon="3.745517327137088"><ele>115.00000000000001</ele><time>2026-04-26T08:09:28.982Z</time></trkpt><trkpt lat="43.61574894231593" lon="3.745436991120064"><ele>115.0</ele><time>2026-04-26T08:09:30.982Z</time></trkpt><trkpt lat="43.61570932907478" lon="3.745315786734392"><ele>114.99999999999999</ele><time>2026-04-26T08:09:33.982Z</time></trkpt><trkpt lat="43.61571690695944" lon="3.7452218263778114"><ele>115.0</ele><time>2026-04-26T08:09:36.982Z</time></trkpt><trkpt lat="43.615778633563075" lon="3.745201507052291"><ele>114.99999999999999</ele><time>2026-04-26T08:09:38.982Z</time></trkpt><trkpt lat="43.61583812727952" lon="3.7452396068311806"><ele>114.99999999999999</ele><time>2026-04-26T08:09:40.982Z</time></trkpt><trkpt lat="43.615899701669996" lon="3.745281138910246"><ele>115.0</ele><time>2026-04-26T08:09:42.982Z</time></trkpt><trkpt lat="43.61597209551146" lon="3.7453107741548215"><ele>114.99999999999999</ele><time>2026-04-26T08:09:44.982Z</time></trkpt><trkpt lat="43.61604337291679" lon="3.7453311499824773"><ele>114.99999999999999</ele><time>2026-04-26T08:09:47.982Z</time></trkpt><trkpt lat="43.616194580708324" lon="3.745332656932102"><ele>114.85714285714283</ele><time>2026-04-26T08:10:07.982Z</time></trkpt><trkpt lat="43.616254233352635" lon="3.745296905651632"><ele>114.71428571428571</ele><time>2026-04-26T08:10:26.982Z</time></trkpt><trkpt lat="43.616291868448606" lon="3.7452260415540652"><ele>114.57142857142856</ele><time>2026-04-26T08:10:30.982Z</time></trkpt><trkpt lat="43.616322174695135" lon="3.7451467516821397"><ele>114.42857142857142</ele><time>2026-04-26T08:10:35.982Z</time></trkpt><trkpt lat="43.61631181344789" lon="3.7450482542015644"><ele>114.28571428571428</ele><time>2026-04-26T08:10:39.982Z</time></trkpt><trkpt lat="43.61628248036834" lon="3.7449455889342858"><ele>114.14285714285714</ele><time>2026-04-26T08:10:43.982Z</time></trkpt><trkpt lat="43.61626606060286" lon="3.744836679952732"><ele>114.0</ele><time>2026-04-26T08:10:47.982Z</time></trkpt><trkpt lat="43.61623943383765" lon="3.7447518369440664"><ele>115.0</ele><time>2026-04-26T08:10:50.982Z</time></trkpt><trkpt lat="43.6162077807783" lon="3.744650051166439"><ele>116.0</ele><time>2026-04-26T08:10:53.982Z</time></trkpt><trkpt lat="43.61619709075658" lon="3.7445633591740775"><ele>117.0</ele><time>2026-04-26T08:10:55.982Z</time></trkpt><trkpt lat="43.616185771903424" lon="3.744470638198359"><ele>118.0</ele><time>2026-04-26T08:10:58.982Z</time></trkpt><trkpt lat="43.61617155889372" lon="3.7443476197505414"><ele>119.0</ele><time>2026-04-26T08:11:01.982Z</time></trkpt><trkpt lat="43.616172926494464" lon="3.7442316017153843"><ele>120.0</ele><time>2026-04-26T08:11:04.982Z</time></trkpt><trkpt lat="43.61617718709434" lon="3.744120337689643"><ele>120.83333333333333</ele><time>2026-04-26T08:11:07.982Z</time></trkpt><trkpt lat="43.616177450225415" lon="3.744022121344463"><ele>121.66666666666666</ele><time>2026-04-26T08:11:10.982Z</time></trkpt><trkpt lat="43.61617490336675" lon="3.7439181817187874"><ele>122.5</ele><time>2026-04-26T08:11:13.982Z</time></trkpt><trkpt lat="43.61615689611348" lon="3.7438249509895156"><ele>123.33333333333333</ele><time>2026-04-26T08:11:16.982Z</time></trkpt><trkpt lat="43.61617248254971" lon="3.7437145747846547"><ele>124.16666666666666</ele><time>2026-04-26T08:11:19.982Z</time></trkpt><trkpt lat="43.61617138635254" lon="3.743612209139499"><ele>125.0</ele><time>2026-04-26T08:11:25.982Z</time></trkpt><trkpt lat="43.6161201331858" lon="3.743528200976764"><ele>125.0</ele><time>2026-04-26T08:12:09.982Z</time></trkpt><trkpt lat="43.61617786307794" lon="3.743486107720901"><ele>125.0</ele><time>2026-04-26T08:12:20.981Z</time></trkpt><trkpt lat="43.61620128605555" lon="3.74358180343533"><ele>125.0</ele><time>2026-04-26T08:13:04.982Z</time></trkpt><trkpt lat="43.61620884664619" lon="3.7436747676391016"><ele>125.0</ele><time>2026-04-26T08:13:07.982Z</time></trkpt><trkpt lat="43.61621983554558" lon="3.743769061692546"><ele>125.0</ele><time>2026-04-26T08:13:11.982Z</time></trkpt><trkpt lat="43.61622150641687" lon="3.743871621747824"><ele>125.0</ele><time>2026-04-26T08:13:14.982Z</time></trkpt><trkpt lat="43.61621892742416" lon="3.7439646101137187"><ele>125.0</ele><time>2026-04-26T08:13:17.982Z</time></trkpt><trkpt lat="43.61621726718924" lon="3.7440586027593263"><ele>125.0</ele><time>2026-04-26T08:13:19.982Z</time></trkpt><trkpt lat="43.61622406242075" lon="3.7441566806579076"><ele>125.0</ele><time>2026-04-26T08:13:22.982Z</time></trkpt><trkpt lat="43.61622854467017" lon="3.7442764751284323"><ele>125.0</ele><time>2026-04-26T08:13:25.982Z</time></trkpt><trkpt lat="43.616238516267" lon="3.744367203671633"><ele>125.0</ele><time>2026-04-26T08:13:28.982Z</time></trkpt><trkpt lat="43.61626209699878" lon="3.7444694634880036"><ele>125.0</ele><time>2026-04-26T08:13:31.982Z</time></trkpt><trkpt lat="43.61628946090833" lon="3.7445641806781778"><ele>125.0</ele><time>2026-04-26T08:13:34.982Z</time></trkpt><trkpt lat="43.616315314211285" lon="3.7446566656065317"><ele>125.0</ele><time>2026-04-26T08:13:37.982Z</time></trkpt><trkpt lat="43.61632923908579" lon="3.7447718930148404"><ele>124.16666666666666</ele><time>2026-04-26T08:13:40.982Z</time></trkpt><trkpt lat="43.61634951195226" lon="3.744883968424847"><ele>123.33333333333333</ele><time>2026-04-26T08:13:43.982Z</time></trkpt><trkpt lat="43.61636123523657" lon="3.7449779315320892"><ele>122.5</ele><time>2026-04-26T08:13:46.982Z</time></trkpt><trkpt lat="43.616370627737346" lon="3.745079879861702"><ele>121.66666666666666</ele><time>2026-04-26T08:13:49.982Z</time></trkpt><trkpt lat="43.616400900374146" lon="3.7451889275020602"><ele>120.83333333333333</ele><time>2026-04-26T08:13:52.982Z</time></trkpt><trkpt lat="43.61642884598761" lon="3.745286565790416"><ele>120.0</ele><time>2026-04-26T08:13:55.982Z</time></trkpt><trkpt lat="43.616479164779655" lon="3.74535402302672"><ele>119.14285714285714</ele><time>2026-04-26T08:14:00.982Z</time></trkpt><trkpt lat="43.61647662193294" lon="3.745446288924165"><ele>118.28571428571428</ele><time>2026-04-26T08:14:16.982Z</time></trkpt><trkpt lat="43.616503388843675" lon="3.7455362206400165"><ele>117.42857142857142</ele><time>2026-04-26T08:14:19.982Z</time></trkpt><trkpt lat="43.61655078745284" lon="3.745603545927306"><ele>116.57142857142857</ele><time>2026-04-26T08:14:23.982Z</time></trkpt><trkpt lat="43.61659085146514" lon="3.745685169363574"><ele>115.7142857142857</ele><time>2026-04-26T08:14:26.982Z</time></trkpt><trkpt lat="43.61664641090101" lon="3.7457984371672794"><ele>114.85714285714285</ele><time>2026-04-26T08:14:29.982Z</time></trkpt><trkpt lat="43.61668725800327" lon="3.7458713222528224"><ele>114.0</ele><time>2026-04-26T08:14:31.982Z</time></trkpt><trkpt lat="43.6167546287978" lon="3.74595256983252"><ele>114.0</ele><time>2026-04-26T08:14:34.982Z</time></trkpt><trkpt lat="43.61681909805351" lon="3.7460271488915797"><ele>114.0</ele><time>2026-04-26T08:14:37.982Z</time></trkpt><trkpt lat="43.61688461093553" lon="3.746117353171158"><ele>114.0</ele><time>2026-04-26T08:14:40.982Z</time></trkpt><trkpt lat="43.61693696750803" lon="3.7462008539333773"><ele>114.0</ele><time>2026-04-26T08:14:43.982Z</time></trkpt><trkpt lat="43.616987426158474" lon="3.746275188307356"><ele>114.0</ele><time>2026-04-26T08:14:46.982Z</time></trkpt><trkpt lat="43.617049906976014" lon="3.746362848874212"><ele>114.0</ele><time>2026-04-26T08:14:49.982Z</time></trkpt><trkpt lat="43.61712457133085" lon="3.7464739021351656"><ele>114.2</ele><time>2026-04-26T08:14:52.982Z</time></trkpt><trkpt lat="43.61716822157309" lon="3.746549323954461"><ele>114.4</ele><time>2026-04-26T08:14:55.982Z</time></trkpt><trkpt lat="43.617196298661035" lon="3.746628780913686"><ele>114.6</ele><time>2026-04-26T08:14:58.982Z</time></trkpt><trkpt lat="43.61725711696313" lon="3.7467183243190187"><ele>114.8</ele><time>2026-04-26T08:15:02.982Z</time></trkpt><trkpt lat="43.61747475625928" lon="3.74672809547595"><ele>115.0</ele><time>2026-04-26T08:15:12.981Z</time></trkpt><trkpt lat="43.61754253888162" lon="3.7467136657466984"><ele>115.00000000000001</ele><time>2026-04-26T08:15:15.981Z</time></trkpt><trkpt lat="43.61762415918381" lon="3.74667797614509"><ele>115.0</ele><time>2026-04-26T08:15:19.981Z</time></trkpt><trkpt lat="43.61769853553916" lon="3.74664503996301"><ele>115.0</ele><time>2026-04-26T08:15:22.981Z</time></trkpt><trkpt lat="43.61778054469224" lon="3.746627338882528"><ele>115.0</ele><time>2026-04-26T08:15:25.981Z</time></trkpt><trkpt lat="43.61785083633232" lon="3.746590218936156"><ele>115.00000000000001</ele><time>2026-04-26T08:15:28.981Z</time></trkpt><trkpt lat="43.617945099016424" lon="3.746543840733119"><ele>115.0</ele><time>2026-04-26T08:15:32.981Z</time></trkpt><trkpt lat="43.61802411606005" lon="3.746507612903217"><ele>115.42857142857142</ele><time>2026-04-26T08:15:36.981Z</time></trkpt><trkpt lat="43.61809118822427" lon="3.746459733796913"><ele>115.85714285714286</ele><time>2026-04-26T08:15:39.981Z</time></trkpt><trkpt lat="43.618173851654426" lon="3.7464263563680045"><ele>116.28571428571428</ele><time>2026-04-26T08:15:43.981Z</time></trkpt><trkpt lat="43.618246459878755" lon="3.746404604347581"><ele>116.71428571428571</ele><time>2026-04-26T08:15:47.981Z</time></trkpt><trkpt lat="43.6183172899556" lon="3.7463751783354753"><ele>117.14285714285714</ele><time>2026-04-26T08:15:51.981Z</time></trkpt><trkpt lat="43.61838182986497" lon="3.746352126535113"><ele>117.57142857142857</ele><time>2026-04-26T08:15:55.981Z</time></trkpt><trkpt lat="43.61843523448528" lon="3.746291667045144"><ele>118.0</ele><time>2026-04-26T08:16:00.981Z</time></trkpt><trkpt lat="43.618414413395456" lon="3.746198524829162"><ele>118.0</ele><time>2026-04-26T08:16:06.981Z</time></trkpt><trkpt lat="43.6183796056483" lon="3.7461164280313017"><ele>118.0</ele><time>2026-04-26T08:16:11.981Z</time></trkpt><trkpt lat="43.61834891071703" lon="3.7460399197943293"><ele>118.0</ele><time>2026-04-26T08:16:15.981Z</time></trkpt><trkpt lat="43.61832865220703" lon="3.7459552318462013"><ele>118.0</ele><time>2026-04-26T08:16:19.981Z</time></trkpt><trkpt lat="43.61831614765557" lon="3.7458614285011165"><ele>118.0</ele><time>2026-04-26T08:16:24.981Z</time></trkpt><trkpt lat="43.61830420974402" lon="3.745771239404561"><ele>118.0</ele><time>2026-04-26T08:16:29.981Z</time></trkpt><trkpt lat="43.61827551005622" lon="3.745689288984747"><ele>118.0</ele><time>2026-04-26T08:16:36.981Z</time></trkpt><trkpt lat="43.618253574880505" lon="3.745604377744456"><ele>118.57142857142857</ele><time>2026-04-26T08:16:44.981Z</time></trkpt><trkpt lat="43.61824985578662" lon="3.7455170929299006"><ele>119.14285714285714</ele><time>2026-04-26T08:16:50.981Z</time></trkpt><trkpt lat="43.61822829077586" lon="3.745429423421265"><ele>119.71428571428571</ele><time>2026-04-26T08:16:57.981Z</time></trkpt><trkpt lat="43.618212607442885" lon="3.74534317760166"><ele>120.28571428571428</ele><time>2026-04-26T08:17:06.981Z</time></trkpt><trkpt lat="43.61819809546093" lon="3.7452509507045306"><ele>120.85714285714286</ele><time>2026-04-26T08:17:15.981Z</time></trkpt><trkpt lat="43.6182003744046" lon="3.745154587942276"><ele>121.42857142857142</ele><time>2026-04-26T08:17:26.981Z</time></trkpt><trkpt lat="43.61817216056804" lon="3.7450548204081318"><ele>121.99999999999999</ele><time>2026-04-26T08:17:33.981Z</time></trkpt><trkpt lat="43.618141867027504" lon="3.7449588841816337"><ele>123.42857142857142</ele><time>2026-04-26T08:17:38.981Z</time></trkpt><trkpt lat="43.61810706687509" lon="3.744871698876251"><ele>124.85714285714286</ele><time>2026-04-26T08:17:43.981Z</time></trkpt><trkpt lat="43.61809051724948" lon="3.7447759674040957"><ele>126.28571428571428</ele><time>2026-04-26T08:17:49.981Z</time></trkpt><trkpt lat="43.618066630824174" lon="3.7446928451110257"><ele>127.71428571428571</ele><time>2026-04-26T08:17:56.981Z</time></trkpt><trkpt lat="43.618024899690504" lon="3.744620247456402"><ele>129.14285714285714</ele><time>2026-04-26T08:18:05.981Z</time></trkpt><trkpt lat="43.61801517241737" lon="3.7445268122249393"><ele>130.57142857142856</ele><time>2026-04-26T08:18:12.981Z</time></trkpt><trkpt lat="43.61796590613715" lon="3.7444718867843014"><ele>132.0</ele><time>2026-04-26T08:18:20.981Z</time></trkpt><trkpt lat="43.617924086229486" lon="3.744388490473785"><ele>133.28571428571428</ele><time>2026-04-26T08:18:30.981Z</time></trkpt><trkpt lat="43.61788322602524" lon="3.744302712061049"><ele>134.57142857142858</ele><time>2026-04-26T08:18:39.981Z</time></trkpt><trkpt lat="43.61784597281504" lon="3.74422262924796"><ele>135.85714285714286</ele><time>2026-04-26T08:18:50.981Z</time></trkpt><trkpt lat="43.61780537017053" lon="3.744153771661845"><ele>137.14285714285714</ele><time>2026-04-26T08:18:59.981Z</time></trkpt><trkpt lat="43.61777906880754" lon="3.744073383369947"><ele>138.42857142857142</ele><time>2026-04-26T08:19:10.981Z</time></trkpt><trkpt lat="43.617747725009345" lon="3.743991630078246"><ele>139.71428571428572</ele><time>2026-04-26T08:19:20.98Z</time></trkpt><trkpt lat="43.61771486747984" lon="3.743901663701241"><ele>141.0</ele><time>2026-04-26T08:19:28.98Z</time></trkpt><trkpt lat="43.617698271835295" lon="3.7438170341231776"><ele>141.57142857142858</ele><time>2026-04-26T08:19:36.98Z</time></trkpt><trkpt lat="43.61767438571666" lon="3.743729351544711"><ele>142.14285714285714</ele><time>2026-04-26T08:19:48.98Z</time></trkpt><trkpt lat="43.6176525788772" lon="3.743645368264458"><ele>142.71428571428572</ele><time>2026-04-26T08:19:57.98Z</time></trkpt><trkpt lat="43.617650127594956" lon="3.743551017913119"><ele>143.28571428571428</ele><time>2026-04-26T08:20:05.98Z</time></trkpt><trkpt lat="43.61764272562777" lon="3.7434512121685994"><ele>143.85714285714286</ele><time>2026-04-26T08:20:14.98Z</time></trkpt><trkpt lat="43.61763584809787" lon="3.7433605404938475"><ele>144.42857142857144</ele><time>2026-04-26T08:20:22.98Z</time></trkpt><trkpt lat="43.617634333813896" lon="3.7432652515300515"><ele>145.0</ele><time>2026-04-26T08:20:30.98Z</time></trkpt><trkpt lat="43.61762847246087" lon="3.743166487874325"><ele>145.57142857142858</ele><time>2026-04-26T08:20:37.98Z</time></trkpt><trkpt lat="43.61762324569341" lon="3.743074009391849"><ele>146.14285714285717</ele><time>2026-04-26T08:20:45.98Z</time></trkpt><trkpt lat="43.617677895668244" lon="3.7429899340029844"><ele>146.71428571428572</ele><time>2026-04-26T08:23:52.98Z</time></trkpt><trkpt lat="43.617739673345554" lon="3.7429674288432224"><ele>147.28571428571428</ele><time>2026-04-26T08:23:59.98Z</time></trkpt><trkpt lat="43.617800115802304" lon="3.7429055605771784"><ele>147.85714285714283</ele><time>2026-04-26T08:24:05.98Z</time></trkpt><trkpt lat="43.61784950638906" lon="3.742824247293836"><ele>148.42857142857142</ele><time>2026-04-26T08:24:11.98Z</time></trkpt><trkpt lat="43.61789241158463" lon="3.742755481173141"><ele>149.0</ele><time>2026-04-26T08:24:15.98Z</time></trkpt><trkpt lat="43.61793787032154" lon="3.7426653315708487"><ele>149.66666666666666</ele><time>2026-04-26T08:24:19.98Z</time></trkpt><trkpt lat="43.61798908071802" lon="3.742591963362038"><ele>150.33333333333331</ele><time>2026-04-26T08:24:23.98Z</time></trkpt><trkpt lat="43.618027683443636" lon="3.742511431134015"><ele>151.0</ele><time>2026-04-26T08:24:26.98Z</time></trkpt><trkpt lat="43.61806934554475" lon="3.742428629220546"><ele>151.66666666666666</ele><time>2026-04-26T08:24:29.98Z</time></trkpt><trkpt lat="43.61811726837154" lon="3.742338172131697"><ele>152.33333333333334</ele><time>2026-04-26T08:24:32.98Z</time></trkpt><trkpt lat="43.618164506224396" lon="3.742234732770758"><ele>153.0</ele><time>2026-04-26T08:24:35.98Z</time></trkpt><trkpt lat="43.61821231278278" lon="3.742135091927803"><ele>153.0</ele><time>2026-04-26T08:24:38.979Z</time></trkpt><trkpt lat="43.61825929628676" lon="3.742024084827167"><ele>153.0</ele><time>2026-04-26T08:24:41.979Z</time></trkpt><trkpt lat="43.6182933214858" lon="3.741919073903379"><ele>153.0</ele><time>2026-04-26T08:24:44.979Z</time></trkpt><trkpt lat="43.618331819777275" lon="3.7417992079112654"><ele>153.0</ele><time>2026-04-26T08:24:47.979Z</time></trkpt><trkpt lat="43.61839136354183" lon="3.7417054504227267"><ele>153.0</ele><time>2026-04-26T08:24:50.979Z</time></trkpt><trkpt lat="43.61844257080927" lon="3.741654072196906"><ele>153.0</ele><time>2026-04-26T08:24:52.979Z</time></trkpt><trkpt lat="43.618503968397704" lon="3.741616487705264"><ele>152.57142857142856</ele><time>2026-04-26T08:24:55.979Z</time></trkpt><trkpt lat="43.61857046674088" lon="3.741583120477613"><ele>152.14285714285714</ele><time>2026-04-26T08:24:57.979Z</time></trkpt><trkpt lat="43.618630472752955" lon="3.7415322922281695"><ele>151.71428571428572</ele><time>2026-04-26T08:24:59.979Z</time></trkpt><trkpt lat="43.618710510196756" lon="3.7414798719838114"><ele>151.28571428571428</ele><time>2026-04-26T08:25:02.979Z</time></trkpt><trkpt lat="43.61877342913539" lon="3.741422733094202"><ele>150.85714285714286</ele><time>2026-04-26T08:25:04.979Z</time></trkpt><trkpt lat="43.618807622190374" lon="3.7413297414107536"><ele>150.42857142857142</ele><time>2026-04-26T08:25:09.979Z</time></trkpt><trkpt lat="43.61876272539717" lon="3.7412651076754546"><ele>150.0</ele><time>2026-04-26T08:25:17.979Z</time></trkpt><trkpt lat="43.618793593350574" lon="3.7411661440121864"><ele>149.7142857142857</ele><time>2026-04-26T08:27:27.978Z</time></trkpt><trkpt lat="43.61878773105137" lon="3.741078149852524"><ele>149.42857142857142</ele><time>2026-04-26T08:27:30.978Z</time></trkpt><trkpt lat="43.61877388231676" lon="3.7409906553707546"><ele>149.14285714285714</ele><time>2026-04-26T08:27:35.979Z</time></trkpt><trkpt lat="43.61871640951236" lon="3.7409197636670757"><ele>148.85714285714283</ele><time>2026-04-26T08:27:40.979Z</time></trkpt><trkpt lat="43.6186251009585" lon="3.740921749391343"><ele>148.57142857142856</ele><time>2026-04-26T08:27:44.979Z</time></trkpt><trkpt lat="43.618556980363145" lon="3.7408988629666102"><ele>148.28571428571428</ele><time>2026-04-26T08:27:47.979Z</time></trkpt><trkpt lat="43.61849501956807" lon="3.74085567838942"><ele>148.0</ele><time>2026-04-26T08:27:49.979Z</time></trkpt><trkpt lat="43.61842415487905" lon="3.740797090472965"><ele>148.0</ele><time>2026-04-26T08:27:51.979Z</time></trkpt><trkpt lat="43.618349537013486" lon="3.740737005856471"><ele>148.0</ele><time>2026-04-26T08:27:53.979Z</time></trkpt><trkpt lat="43.61827867172739" lon="3.7406543068216367"><ele>148.0</ele><time>2026-04-26T08:27:55.979Z</time></trkpt><trkpt lat="43.61819998659567" lon="3.740564193909817"><ele>148.0</ele><time>2026-04-26T08:27:57.979Z</time></trkpt><trkpt lat="43.61809355767676" lon="3.7404730998095244"><ele>148.0</ele><time>2026-04-26T08:27:59.979Z</time></trkpt><trkpt lat="43.61804915868879" lon="3.740406358695165"><ele>148.0</ele><time>2026-04-26T08:28:00.979Z</time></trkpt><trkpt lat="43.61799925335253" lon="3.7403328485159517"><ele>148.0</ele><time>2026-04-26T08:28:01.979Z</time></trkpt><trkpt lat="43.61793729601559" lon="3.740272539662624"><ele>148.0</ele><time>2026-04-26T08:28:02.979Z</time></trkpt><trkpt lat="43.61787276454326" lon="3.740203604776498"><ele>148.0</ele><time>2026-04-26T08:28:03.979Z</time></trkpt><trkpt lat="43.61781003457707" lon="3.740153283176507"><ele>148.0</ele><time>2026-04-26T08:28:04.979Z</time></trkpt><trkpt lat="43.61774366218155" lon="3.7400886812897083"><ele>148.0</ele><time>2026-04-26T08:28:05.979Z</time></trkpt><trkpt lat="43.6176706852943" lon="3.7400363182634973"><ele>147.66666666666669</ele><time>2026-04-26T08:28:06.979Z</time></trkpt><trkpt lat="43.617598320944545" lon="3.7400004307797827"><ele>147.33333333333334</ele><time>2026-04-26T08:28:07.979Z</time></trkpt><trkpt lat="43.61752702508079" lon="3.739959375521837"><ele>147.0</ele><time>2026-04-26T08:28:08.979Z</time></trkpt><trkpt lat="43.61745761088639" lon="3.739933169799733"><ele>146.66666666666666</ele><time>2026-04-26T08:28:09.979Z</time></trkpt><trkpt lat="43.617393412180384" lon="3.739907170961541"><ele>146.33333333333331</ele><time>2026-04-26T08:28:10.979Z</time></trkpt><trkpt lat="43.61733045619707" lon="3.7398800919013264"><ele>146.0</ele><time>2026-04-26T08:28:11.979Z</time></trkpt><trkpt lat="43.61722630019657" lon="3.7398210806610854"><ele>146.0</ele><time>2026-04-26T08:28:13.979Z</time></trkpt><trkpt lat="43.617148334644355" lon="3.739792734775616"><ele>146.0</ele><time>2026-04-26T08:28:15.979Z</time></trkpt><trkpt lat="43.61704849038575" lon="3.7397742234592783"><ele>146.0</ele><time>2026-04-26T08:28:17.979Z</time></trkpt><trkpt lat="43.61695204572768" lon="3.7397427390839173"><ele>146.0</ele><time>2026-04-26T08:28:19.979Z</time></trkpt><trkpt lat="43.616883318047016" lon="3.7397262466562307"><ele>146.0</ele><time>2026-04-26T08:28:21.979Z</time></trkpt><trkpt lat="43.61685044842586" lon="3.7396324786592277"><ele>146.0</ele><time>2026-04-26T08:28:23.979Z</time></trkpt><trkpt lat="43.616852020031764" lon="3.739526284998134"><ele>147.0</ele><time>2026-04-26T08:28:27.979Z</time></trkpt><trkpt lat="43.616903546621984" lon="3.7394258119812944"><ele>148.0</ele><time>2026-04-26T08:28:29.979Z</time></trkpt><trkpt lat="43.616957675391454" lon="3.7393322315020523"><ele>149.0</ele><time>2026-04-26T08:28:31.979Z</time></trkpt><trkpt lat="43.6169945804586" lon="3.7392295252875742"><ele>150.0</ele><time>2026-04-26T08:28:33.979Z</time></trkpt><trkpt lat="43.61703562885948" lon="3.7391625547393352"><ele>151.0</ele><time>2026-04-26T08:28:36.979Z</time></trkpt><trkpt lat="43.61707037726998" lon="3.7390803372189154"><ele>152.0</ele><time>2026-04-26T08:28:38.979Z</time></trkpt><trkpt lat="43.617096627893766" lon="3.7389943524586786"><ele>152.0</ele><time>2026-04-26T08:28:41.978Z</time></trkpt><trkpt lat="43.61713163469404" lon="3.738878498957606"><ele>152.0</ele><time>2026-04-26T08:28:44.978Z</time></trkpt><trkpt lat="43.61714076350802" lon="3.7387724410452767"><ele>152.0</ele><time>2026-04-26T08:28:47.978Z</time></trkpt><trkpt lat="43.61716724491645" lon="3.7386761599121043"><ele>152.0</ele><time>2026-04-26T08:28:50.978Z</time></trkpt><trkpt lat="43.61717719307197" lon="3.73858446778777"><ele>152.0</ele><time>2026-04-26T08:28:53.978Z</time></trkpt><trkpt lat="43.617204794240266" lon="3.7384828742812974"><ele>152.0</ele><time>2026-04-26T08:28:56.978Z</time></trkpt><trkpt lat="43.61719411535318" lon="3.738394330866393"><ele>152.28571428571428</ele><time>2026-04-26T08:28:59.978Z</time></trkpt><trkpt lat="43.61720708180207" lon="3.7382923303105033"><ele>152.57142857142858</ele><time>2026-04-26T08:29:04.978Z</time></trkpt><trkpt lat="43.61720816076722" lon="3.738179199802625"><ele>152.85714285714286</ele><time>2026-04-26T08:29:08.979Z</time></trkpt><trkpt lat="43.61721783413995" lon="3.738063215049099"><ele>153.14285714285714</ele><time>2026-04-26T08:29:13.979Z</time></trkpt><trkpt lat="43.61722709273012" lon="3.7379629840579263"><ele>153.42857142857144</ele><time>2026-04-26T08:29:18.979Z</time></trkpt><trkpt lat="43.61723146814738" lon="3.737874552115963"><ele>153.71428571428572</ele><time>2026-04-26T08:29:22.979Z</time></trkpt><trkpt lat="43.617223442962356" lon="3.7377870626598604"><ele>154.0</ele><time>2026-04-26T08:29:25.979Z</time></trkpt><trkpt lat="43.617200170899466" lon="3.7376996557483233"><ele>154.33333333333334</ele><time>2026-04-26T08:29:30.979Z</time></trkpt><trkpt lat="43.617245506077175" lon="3.7375594664966623"><ele>154.66666666666669</ele><time>2026-04-26T08:30:11.979Z</time></trkpt><trkpt lat="43.61725601842557" lon="3.7374698293450694"><ele>155.0</ele><time>2026-04-26T08:30:15.979Z</time></trkpt><trkpt lat="43.61726211309108" lon="3.7373602451008203"><ele>155.33333333333334</ele><time>2026-04-26T08:30:18.979Z</time></trkpt><trkpt lat="43.617278701850374" lon="3.7372739574928366"><ele>155.66666666666666</ele><time>2026-04-26T08:30:20.979Z</time></trkpt><trkpt lat="43.617303587001516" lon="3.7371893492878625"><ele>156.0</ele><time>2026-04-26T08:30:22.979Z</time></trkpt><trkpt lat="43.61731491509849" lon="3.7370907269266307"><ele>156.0</ele><time>2026-04-26T08:30:24.979Z</time></trkpt><trkpt lat="43.617305089293325" lon="3.7369935811932833"><ele>156.0</ele><time>2026-04-26T08:30:26.979Z</time></trkpt><trkpt lat="43.61730596886179" lon="3.73690473550075"><ele>156.0</ele><time>2026-04-26T08:30:28.979Z</time></trkpt><trkpt lat="43.617289273843085" lon="3.7368127785168097"><ele>156.0</ele><time>2026-04-26T08:30:30.979Z</time></trkpt><trkpt lat="43.61725839640838" lon="3.7366970807838373"><ele>156.0</ele><time>2026-04-26T08:30:32.979Z</time></trkpt><trkpt lat="43.61720872227463" lon="3.736623328885151"><ele>156.0</ele><time>2026-04-26T08:30:34.979Z</time></trkpt><trkpt lat="43.617107034807994" lon="3.7365382533798632"><ele>156.2857142857143</ele><time>2026-04-26T08:30:36.979Z</time></trkpt><trkpt lat="43.61702264049797" lon="3.736485543541546"><ele>156.57142857142856</ele><time>2026-04-26T08:30:38.979Z</time></trkpt><trkpt lat="43.61694815874215" lon="3.736461172106395"><ele>156.85714285714286</ele><time>2026-04-26T08:30:40.979Z</time></trkpt><trkpt lat="43.616880954666236" lon="3.7364358897965335"><ele>157.14285714285717</ele><time>2026-04-26T08:30:43.979Z</time></trkpt><trkpt lat="43.616808093815806" lon="3.736414393311529"><ele>157.42857142857144</ele><time>2026-04-26T08:30:47.979Z</time></trkpt><trkpt lat="43.61674444782902" lon="3.7363952623454795"><ele>157.71428571428572</ele><time>2026-04-26T08:30:50.979Z</time></trkpt><trkpt lat="43.61668311362094" lon="3.7363551502211814"><ele>158.0</ele><time>2026-04-26T08:30:53.979Z</time></trkpt><trkpt lat="43.61662352628369" lon="3.7363248188673226"><ele>155.66666666666666</ele><time>2026-04-26T08:30:55.979Z</time></trkpt><trkpt lat="43.6165516801995" lon="3.7363105755103825"><ele>153.33333333333331</ele><time>2026-04-26T08:30:58.978Z</time></trkpt><trkpt lat="43.61648589202619" lon="3.736292728304839"><ele>151.0</ele><time>2026-04-26T08:31:01.978Z</time></trkpt><trkpt lat="43.616410731146225" lon="3.736265676137933"><ele>148.66666666666666</ele><time>2026-04-26T08:31:04.978Z</time></trkpt><trkpt lat="43.61633893963222" lon="3.7362128586586083"><ele>146.33333333333334</ele><time>2026-04-26T08:31:07.978Z</time></trkpt><trkpt lat="43.6162631457231" lon="3.736190153064359"><ele>144.0</ele><time>2026-04-26T08:31:10.978Z</time></trkpt><trkpt lat="43.61618607383667" lon="3.736155494997909"><ele>143.66666666666666</ele><time>2026-04-26T08:31:13.978Z</time></trkpt><trkpt lat="43.616124958496634" lon="3.7361073966296034"><ele>143.33333333333334</ele><time>2026-04-26T08:31:16.978Z</time></trkpt><trkpt lat="43.616045699994345" lon="3.7360612914655156"><ele>143.0</ele><time>2026-04-26T08:31:19.978Z</time></trkpt><trkpt lat="43.61597828840522" lon="3.7360234931204177"><ele>142.66666666666669</ele><time>2026-04-26T08:31:23.978Z</time></trkpt><trkpt lat="43.615920137578605" lon="3.735946930050319"><ele>142.33333333333334</ele><time>2026-04-26T08:31:28.978Z</time></trkpt><trkpt lat="43.615878263874336" lon="3.7358472823467355"><ele>142.0</ele><time>2026-04-26T08:31:32.978Z</time></trkpt><trkpt lat="43.61586141566936" lon="3.735738624464874"><ele>142.0</ele><time>2026-04-26T08:31:36.978Z</time></trkpt><trkpt lat="43.61588930666236" lon="3.7356387978186905"><ele>142.0</ele><time>2026-04-26T08:31:39.978Z</time></trkpt><trkpt lat="43.615920745542745" lon="3.7355589819430706"><ele>142.0</ele><time>2026-04-26T08:31:42.978Z</time></trkpt><trkpt lat="43.615970067625355" lon="3.7354765956572824"><ele>142.0</ele><time>2026-04-26T08:31:45.978Z</time></trkpt><trkpt lat="43.61603671335289" lon="3.7353782079909155"><ele>142.0</ele><time>2026-04-26T08:31:48.978Z</time></trkpt><trkpt lat="43.61607249998923" lon="3.735303219447281"><ele>142.0</ele><time>2026-04-26T08:31:50.978Z</time></trkpt><trkpt lat="43.61610630692571" lon="3.7352109674451577"><ele>141.28571428571428</ele><time>2026-04-26T08:31:52.978Z</time></trkpt><trkpt lat="43.61614248550275" lon="3.7351322557036575"><ele>140.57142857142856</ele><time>2026-04-26T08:31:54.978Z</time></trkpt><trkpt lat="43.616195928787576" lon="3.7350653012844517"><ele>139.85714285714286</ele><time>2026-04-26T08:31:56.978Z</time></trkpt><trkpt lat="43.61623053929456" lon="3.7349902430088697"><ele>139.14285714285714</ele><time>2026-04-26T08:31:58.978Z</time></trkpt><trkpt lat="43.61628644204382" lon="3.7349082069123303"><ele>138.42857142857144</ele><time>2026-04-26T08:32:00.978Z</time></trkpt><trkpt lat="43.61634135041849" lon="3.734835272738075"><ele>137.71428571428572</ele><time>2026-04-26T08:32:02.978Z</time></trkpt><trkpt lat="43.61640256519665" lon="3.7347853778440836"><ele>137.0</ele><time>2026-04-26T08:32:04.978Z</time></trkpt><trkpt lat="43.61648115945355" lon="3.7347493096022335"><ele>138.16666666666666</ele><time>2026-04-26T08:32:06.978Z</time></trkpt><trkpt lat="43.61655258390509" lon="3.7347152849140848"><ele>139.33333333333331</ele><time>2026-04-26T08:32:08.978Z</time></trkpt><trkpt lat="43.616607426873166" lon="3.7346599213221623"><ele>140.5</ele><time>2026-04-26T08:32:10.978Z</time></trkpt><trkpt lat="43.61668678515777" lon="3.7346029327576047"><ele>141.66666666666666</ele><time>2026-04-26T08:32:13.978Z</time></trkpt><trkpt lat="43.61672898792263" lon="3.7345383354906243"><ele>142.83333333333334</ele><time>2026-04-26T08:32:16.978Z</time></trkpt><trkpt lat="43.61677063007791" lon="3.7344449084081477"><ele>144.0</ele><time>2026-04-26T08:32:19.978Z</time></trkpt><trkpt lat="43.61684516068777" lon="3.734356365759446"><ele>144.0</ele><time>2026-04-26T08:32:22.978Z</time></trkpt><trkpt lat="43.61688655280614" lon="3.734270288116281"><ele>144.0</ele><time>2026-04-26T08:32:24.978Z</time></trkpt><trkpt lat="43.61693816166437" lon="3.7341930293201484"><ele>144.0</ele><time>2026-04-26T08:32:26.978Z</time></trkpt><trkpt lat="43.61701209738213" lon="3.7341106467913265"><ele>144.0</ele><time>2026-04-26T08:32:28.978Z</time></trkpt><trkpt lat="43.61705401315387" lon="3.7340334778931217"><ele>144.0</ele><time>2026-04-26T08:32:30.978Z</time></trkpt><trkpt lat="43.61705607998425" lon="3.7339380532628654"><ele>144.0</ele><time>2026-04-26T08:32:32.978Z</time></trkpt><trkpt lat="43.61699629571302" lon="3.733859740268188"><ele>144.0</ele><time>2026-04-26T08:32:35.978Z</time></trkpt><trkpt lat="43.61693721722244" lon="3.733825444260445"><ele>144.0</ele><time>2026-04-26T08:32:38.978Z</time></trkpt><trkpt lat="43.61685233461617" lon="3.7337882172455514"><ele>144.0</ele><time>2026-04-26T08:32:41.978Z</time></trkpt><trkpt lat="43.61679806675965" lon="3.7337175791533657"><ele>144.0</ele><time>2026-04-26T08:32:43.977Z</time></trkpt><trkpt lat="43.61674323108442" lon="3.733648546980743"><ele>144.0</ele><time>2026-04-26T08:32:45.977Z</time></trkpt><trkpt lat="43.61669706448479" lon="3.733560496466412"><ele>144.0</ele><time>2026-04-26T08:32:48.977Z</time></trkpt><trkpt lat="43.61668928284035" lon="3.733457187482129"><ele>144.57142857142858</ele><time>2026-04-26T08:32:50.977Z</time></trkpt><trkpt lat="43.616686168240754" lon="3.733359949871806"><ele>145.14285714285714</ele><time>2026-04-26T08:32:52.977Z</time></trkpt><trkpt lat="43.616677376275156" lon="3.733263286517279"><ele>145.71428571428572</ele><time>2026-04-26T08:32:54.977Z</time></trkpt><trkpt lat="43.616684105238306" lon="3.7331540436776227"><ele>146.28571428571428</ele><time>2026-04-26T08:32:57.977Z</time></trkpt><trkpt lat="43.616685586040916" lon="3.7330592324840985"><ele>146.85714285714286</ele><time>2026-04-26T08:32:59.977Z</time></trkpt><trkpt lat="43.616699754626595" lon="3.7329389375095445"><ele>147.42857142857144</ele><time>2026-04-26T08:33:02.977Z</time></trkpt><trkpt lat="43.61670877179167" lon="3.732847904182069"><ele>148.0</ele><time>2026-04-26T08:33:04.977Z</time></trkpt><trkpt lat="43.61673299273204" lon="3.732722365168197"><ele>148.66666666666669</ele><time>2026-04-26T08:33:07.977Z</time></trkpt><trkpt lat="43.61676745367621" lon="3.732600762409136"><ele>149.33333333333334</ele><time>2026-04-26T08:33:10.977Z</time></trkpt><trkpt lat="43.61679279207" lon="3.7325147348010552"><ele>150.0</ele><time>2026-04-26T08:33:12.977Z</time></trkpt><trkpt lat="43.616836259301486" lon="3.732377674261841"><ele>150.66666666666666</ele><time>2026-04-26T08:33:15.977Z</time></trkpt><trkpt lat="43.61686404542556" lon="3.7322758058272694"><ele>151.33333333333331</ele><time>2026-04-26T08:33:18.977Z</time></trkpt><trkpt lat="43.61691632458849" lon="3.73216785710097"><ele>152.0</ele><time>2026-04-26T08:33:21.977Z</time></trkpt><trkpt lat="43.61694866372925" lon="3.7320927647882036"><ele>153.33333333333331</ele><time>2026-04-26T08:33:23.977Z</time></trkpt><trkpt lat="43.616988650195516" lon="3.731957723460239"><ele>154.66666666666666</ele><time>2026-04-26T08:33:26.977Z</time></trkpt><trkpt lat="43.61700591026534" lon="3.7318694862125734"><ele>156.0</ele><time>2026-04-26T08:33:28.977Z</time></trkpt><trkpt lat="43.61697069995686" lon="3.7317583528703637"><ele>157.33333333333334</ele><time>2026-04-26T08:33:31.977Z</time></trkpt><trkpt lat="43.61689747090448" lon="3.7317370794823326"><ele>158.66666666666669</ele><time>2026-04-26T08:33:34.977Z</time></trkpt><trkpt lat="43.61683429699838" lon="3.731772730987407"><ele>160.0</ele><time>2026-04-26T08:33:37.977Z</time></trkpt><trkpt lat="43.61676360756947" lon="3.731814957472375"><ele>160.0</ele><time>2026-04-26T08:33:40.977Z</time></trkpt><trkpt lat="43.6166868140838" lon="3.731847249065705"><ele>160.0</ele><time>2026-04-26T08:33:44.977Z</time></trkpt><trkpt lat="43.61662867356324" lon="3.73189711532002"><ele>160.0</ele><time>2026-04-26T08:33:47.977Z</time></trkpt><trkpt lat="43.61656225084181" lon="3.731954829389442"><ele>160.0</ele><time>2026-04-26T08:33:50.978Z</time></trkpt><trkpt lat="43.61647445134382" lon="3.732000910345302"><ele>160.0</ele><time>2026-04-26T08:33:53.978Z</time></trkpt><trkpt lat="43.61641911242009" lon="3.7320452702957496"><ele>160.0</ele><time>2026-04-26T08:33:56.977Z</time></trkpt><trkpt lat="43.616344885925976" lon="3.732096005045267"><ele>159.71428571428572</ele><time>2026-04-26T08:33:59.978Z</time></trkpt><trkpt lat="43.61628829407243" lon="3.7321586706196843"><ele>159.42857142857144</ele><time>2026-04-26T08:34:02.977Z</time></trkpt><trkpt lat="43.61623322069691" lon="3.7322099052248796"><ele>159.14285714285717</ele><time>2026-04-26T08:34:05.977Z</time></trkpt><trkpt lat="43.61616584285179" lon="3.732287723757759"><ele>158.85714285714286</ele><time>2026-04-26T08:34:08.977Z</time></trkpt><trkpt lat="43.616107098010566" lon="3.7323415596025895"><ele>158.57142857142858</ele><time>2026-04-26T08:34:11.977Z</time></trkpt><trkpt lat="43.616039739748885" lon="3.7324007762989106"><ele>158.2857142857143</ele><time>2026-04-26T08:34:15.977Z</time></trkpt><trkpt lat="43.61597886391987" lon="3.732441534129953"><ele>158.0</ele><time>2026-04-26T08:34:18.977Z</time></trkpt><trkpt lat="43.615919116620276" lon="3.7324922628706534"><ele>158.00000000000003</ele><time>2026-04-26T08:34:23.977Z</time></trkpt><trkpt lat="43.615877495670695" lon="3.73255891862352"><ele>158.0</ele><time>2026-04-26T08:34:31.977Z</time></trkpt><trkpt lat="43.61582040766268" lon="3.73262027648918"><ele>158.0</ele><time>2026-04-26T08:34:38.977Z</time></trkpt><trkpt lat="43.61576425117438" lon="3.732680790067303"><ele>158.0</ele><time>2026-04-26T08:34:45.977Z</time></trkpt><trkpt lat="43.61570227860971" lon="3.7327316531505095"><ele>158.0</ele><time>2026-04-26T08:34:52.977Z</time></trkpt><trkpt lat="43.61564278641788" lon="3.7327789421016337"><ele>158.00000000000003</ele><time>2026-04-26T08:34:59.977Z</time></trkpt><trkpt lat="43.61557942865864" lon="3.7328104176688677"><ele>158.0</ele><time>2026-04-26T08:35:34.977Z</time></trkpt><trkpt lat="43.61550700537601" lon="3.732794664773605"><ele>156.33333333333331</ele><time>2026-04-26T08:35:39.977Z</time></trkpt><trkpt lat="43.61543240010299" lon="3.732819807333818"><ele>154.66666666666666</ele><time>2026-04-26T08:35:42.977Z</time></trkpt><trkpt lat="43.61535132329101" lon="3.732873118815379"><ele>153.0</ele><time>2026-04-26T08:35:44.977Z</time></trkpt><trkpt lat="43.61527725071441" lon="3.732892039751673"><ele>151.33333333333334</ele><time>2026-04-26T08:35:46.977Z</time></trkpt><trkpt lat="43.61519448480474" lon="3.732921171899406"><ele>149.66666666666669</ele><time>2026-04-26T08:35:49.977Z</time></trkpt><trkpt lat="43.61512991097844" lon="3.7329161684487357"><ele>148.0</ele><time>2026-04-26T08:35:52.977Z</time></trkpt><trkpt lat="43.61509232191522" lon="3.732843878447474"><ele>148.66666666666669</ele><time>2026-04-26T08:35:54.977Z</time></trkpt><trkpt lat="43.615062999400834" lon="3.73276389152414"><ele>149.33333333333334</ele><time>2026-04-26T08:35:56.977Z</time></trkpt><trkpt lat="43.61502083927303" lon="3.7326901022335908"><ele>150.0</ele><time>2026-04-26T08:35:58.977Z</time></trkpt><trkpt lat="43.61492934976033" lon="3.7326269967756684"><ele>150.66666666666666</ele><time>2026-04-26T08:36:00.977Z</time></trkpt><trkpt lat="43.61486568080565" lon="3.7325445511374347"><ele>151.33333333333331</ele><time>2026-04-26T08:36:03.977Z</time></trkpt><trkpt lat="43.614822177624205" lon="3.7324608294445953"><ele>152.0</ele><time>2026-04-26T08:36:05.977Z</time></trkpt><trkpt lat="43.61473526874478" lon="3.7323756444593186"><ele>152.0</ele><time>2026-04-26T08:36:08.977Z</time></trkpt><trkpt lat="43.61465956249111" lon="3.7322851058203437"><ele>152.0</ele><time>2026-04-26T08:36:10.977Z</time></trkpt><trkpt lat="43.61458231337363" lon="3.7321866455389054"><ele>152.0</ele><time>2026-04-26T08:36:12.977Z</time></trkpt><trkpt lat="43.61451980281157" lon="3.7321101502057736"><ele>152.0</ele><time>2026-04-26T08:36:14.977Z</time></trkpt><trkpt lat="43.614480742006236" lon="3.7320393690427696"><ele>152.0</ele><time>2026-04-26T08:36:15.977Z</time></trkpt><trkpt lat="43.614465198118495" lon="3.7319064684239165"><ele>149.57142857142856</ele><time>2026-04-26T08:36:17.977Z</time></trkpt><trkpt lat="43.614485618064165" lon="3.7317850495145506"><ele>147.14285714285717</ele><time>2026-04-26T08:36:20.977Z</time></trkpt><trkpt lat="43.61445372987924" lon="3.731699484035967"><ele>144.71428571428572</ele><time>2026-04-26T08:36:22.977Z</time></trkpt><trkpt lat="43.614379698536496" lon="3.731642918721824"><ele>142.28571428571428</ele><time>2026-04-26T08:36:24.977Z</time></trkpt><trkpt lat="43.6143124281758" lon="3.731635018482828"><ele>139.85714285714283</ele><time>2026-04-26T08:36:27.977Z</time></trkpt><trkpt lat="43.614251253414984" lon="3.731658667986682"><ele>137.42857142857142</ele><time>2026-04-26T08:36:29.977Z</time></trkpt><trkpt lat="43.61417859334076" lon="3.731671174435904"><ele>135.0</ele><time>2026-04-26T08:36:31.977Z</time></trkpt><trkpt lat="43.614122920022446" lon="3.7317189370961215"><ele>135.0</ele><time>2026-04-26T08:36:33.977Z</time></trkpt><trkpt lat="43.614076749603235" lon="3.731794639251468"><ele>135.0</ele><time>2026-04-26T08:36:36.977Z</time></trkpt><trkpt lat="43.61409052812946" lon="3.7319100520217448"><ele>135.0</ele><time>2026-04-26T08:36:58.977Z</time></trkpt><trkpt lat="43.61402319639357" lon="3.731988195656794"><ele>135.0</ele><time>2026-04-26T08:37:02.977Z</time></trkpt><trkpt lat="43.61400615992648" lon="3.7320796566949452"><ele>135.0</ele><time>2026-04-26T08:37:04.977Z</time></trkpt><trkpt lat="43.613987278987544" lon="3.7322082154568506"><ele>135.0</ele><time>2026-04-26T08:37:07.977Z</time></trkpt><trkpt lat="43.61394803792775" lon="3.7323160893951317"><ele>134.4</ele><time>2026-04-26T08:37:09.977Z</time></trkpt><trkpt lat="43.613900713116756" lon="3.732419503718662"><ele>133.8</ele><time>2026-04-26T08:37:11.977Z</time></trkpt><trkpt lat="43.613856215030495" lon="3.7325267580499006"><ele>133.2</ele><time>2026-04-26T08:37:13.977Z</time></trkpt><trkpt lat="43.61382993311787" lon="3.7326926765523116"><ele>132.6</ele><time>2026-04-26T08:37:15.977Z</time></trkpt><trkpt lat="43.61378703769729" lon="3.7328338645876338"><ele>132.0</ele><time>2026-04-26T08:37:17.977Z</time></trkpt><trkpt lat="43.61374390400604" lon="3.7327603785208705"><ele>132.0</ele><time>2026-04-26T08:37:21.977Z</time></trkpt><trkpt lat="43.61374066189551" lon="3.7326681845226233"><ele>132.0</ele><time>2026-04-26T08:37:25.977Z</time></trkpt><trkpt lat="43.61375753968961" lon="3.7325676306124302"><ele>132.0</ele><time>2026-04-26T08:38:31.976Z</time></trkpt><trkpt lat="43.61374717524133" lon="3.7324581596167903"><ele>132.0</ele><time>2026-04-26T08:38:36.976Z</time></trkpt><trkpt lat="43.61374647412501" lon="3.732355510383668"><ele>132.0</ele><time>2026-04-26T08:38:41.976Z</time></trkpt><trkpt lat="43.613744599836096" lon="3.732252319027661"><ele>132.0</ele><time>2026-04-26T08:38:45.976Z</time></trkpt><trkpt lat="43.613738576598834" lon="3.7321591372885328"><ele>132.0</ele><time>2026-04-26T08:38:48.976Z</time></trkpt><trkpt lat="43.613730124746056" lon="3.7320536919244995"><ele>132.0</ele><time>2026-04-26T08:38:52.976Z</time></trkpt><trkpt lat="43.61372285434075" lon="3.7319656332074076"><ele>132.0</ele><time>2026-04-26T08:38:55.976Z</time></trkpt><trkpt lat="43.613718879582706" lon="3.731873563029374"><ele>132.0</ele><time>2026-04-26T08:38:58.976Z</time></trkpt><trkpt lat="43.61369987615247" lon="3.7317806145268477"><ele>132.0</ele><time>2026-04-26T08:39:01.976Z</time></trkpt><trkpt lat="43.61367229127136" lon="3.7316978077737035"><ele>132.0</ele><time>2026-04-26T08:39:04.976Z</time></trkpt><trkpt lat="43.613642516926575" lon="3.7316100654561235"><ele>132.0</ele><time>2026-04-26T08:39:07.976Z</time></trkpt><trkpt lat="43.613631215213545" lon="3.7315162785186002"><ele>132.0</ele><time>2026-04-26T08:39:10.976Z</time></trkpt><trkpt lat="43.61359353062649" lon="3.7314239706686254"><ele>133.14285714285714</ele><time>2026-04-26T08:39:13.976Z</time></trkpt><trkpt lat="43.613570107827734" lon="3.7313293302904014"><ele>134.28571428571428</ele><time>2026-04-26T08:39:16.976Z</time></trkpt><trkpt lat="43.613542078809864" lon="3.7312287232552186"><ele>135.42857142857144</ele><time>2026-04-26T08:39:19.976Z</time></trkpt><trkpt lat="43.61351032576428" lon="3.731150207695769"><ele>136.57142857142856</ele><time>2026-04-26T08:39:21.976Z</time></trkpt><trkpt lat="43.61346411313461" lon="3.7310598834233595"><ele>137.71428571428572</ele><time>2026-04-26T08:39:24.976Z</time></trkpt><trkpt lat="43.61342422582428" lon="3.730981557458328"><ele>138.85714285714286</ele><time>2026-04-26T08:39:27.976Z</time></trkpt><trkpt lat="43.613385369378655" lon="3.730905326521376"><ele>140.0</ele><time>2026-04-26T08:39:30.976Z</time></trkpt><trkpt lat="43.61334190225291" lon="3.7308398906893223"><ele>140.0</ele><time>2026-04-26T08:39:33.976Z</time></trkpt><trkpt lat="43.61328626279628" lon="3.7307629858723024"><ele>140.0</ele><time>2026-04-26T08:39:37.976Z</time></trkpt><trkpt lat="43.61322805943131" lon="3.730701630529376"><ele>140.0</ele><time>2026-04-26T08:39:40.976Z</time></trkpt><trkpt lat="43.61315957983641" lon="3.730639015064015"><ele>140.0</ele><time>2026-04-26T08:39:44.976Z</time></trkpt><trkpt lat="43.613077827631265" lon="3.7305814050185826"><ele>140.0</ele><time>2026-04-26T08:39:48.976Z</time></trkpt><trkpt lat="43.613008229817254" lon="3.730533857268787"><ele>140.0</ele><time>2026-04-26T08:39:52.976Z</time></trkpt><trkpt lat="43.612935259630525" lon="3.730468655982965"><ele>140.0</ele><time>2026-04-26T08:39:56.976Z</time></trkpt><trkpt lat="43.612864088326425" lon="3.7304222585684643"><ele>140.0</ele><time>2026-04-26T08:40:00.976Z</time></trkpt><trkpt lat="43.612807383868265" lon="3.7303755062714674"><ele>140.0</ele><time>2026-04-26T08:40:03.976Z</time></trkpt><trkpt lat="43.61275473002328" lon="3.7303269216513364"><ele>140.0</ele><time>2026-04-26T08:40:06.976Z</time></trkpt><trkpt lat="43.61269829922245" lon="3.730284339095056"><ele>140.0</ele><time>2026-04-26T08:40:08.976Z</time></trkpt><trkpt lat="43.612641877634374" lon="3.730233093531711"><ele>140.0</ele><time>2026-04-26T08:40:11.976Z</time></trkpt><trkpt lat="43.61258192353775" lon="3.7301755381896657"><ele>140.0</ele><time>2026-04-26T08:40:14.976Z</time></trkpt><trkpt lat="43.61251459565839" lon="3.730110757332457"><ele>140.71428571428572</ele><time>2026-04-26T08:40:17.976Z</time></trkpt><trkpt lat="43.612459796884515" lon="3.7300624490605028"><ele>141.42857142857144</ele><time>2026-04-26T08:40:20.975Z</time></trkpt><trkpt lat="43.612405430045406" lon="3.7300079060945963"><ele>142.14285714285714</ele><time>2026-04-26T08:40:23.975Z</time></trkpt><trkpt lat="43.61233855541708" lon="3.7299553019740324"><ele>142.85714285714286</ele><time>2026-04-26T08:40:26.975Z</time></trkpt><trkpt lat="43.61227776927376" lon="3.7299105758891717"><ele>143.57142857142858</ele><time>2026-04-26T08:40:29.975Z</time></trkpt><trkpt lat="43.612216982420655" lon="3.7298572048385807"><ele>144.28571428571428</ele><time>2026-04-26T08:40:32.975Z</time></trkpt><trkpt lat="43.61214121046611" lon="3.7297957743732786"><ele>145.0</ele><time>2026-04-26T08:40:36.975Z</time></trkpt><trkpt lat="43.61208631381256" lon="3.7297481050321974"><ele>145.0</ele><time>2026-04-26T08:40:39.975Z</time></trkpt><trkpt lat="43.61202199293409" lon="3.7296924673164087"><ele>145.0</ele><time>2026-04-26T08:40:42.975Z</time></trkpt><trkpt lat="43.61195840137864" lon="3.729649086916052"><ele>145.0</ele><time>2026-04-26T08:40:45.975Z</time></trkpt><trkpt lat="43.61190613936572" lon="3.7295956591465673"><ele>145.0</ele><time>2026-04-26T08:40:48.975Z</time></trkpt><trkpt lat="43.61184628623408" lon="3.7295115248565547"><ele>145.0</ele><time>2026-04-26T08:40:51.975Z</time></trkpt><trkpt lat="43.61179202057929" lon="3.729430081937533"><ele>145.0</ele><time>2026-04-26T08:40:54.975Z</time></trkpt><trkpt lat="43.61174009932069" lon="3.7293618762926237"><ele>145.0</ele><time>2026-04-26T08:40:57.975Z</time></trkpt><trkpt lat="43.611677622089836" lon="3.729303697240109"><ele>145.71428571428572</ele><time>2026-04-26T08:41:00.975Z</time></trkpt><trkpt lat="43.61160740056068" lon="3.729245786354647"><ele>146.42857142857144</ele><time>2026-04-26T08:41:03.975Z</time></trkpt><trkpt lat="43.61154893471471" lon="3.729191957723682"><ele>147.14285714285714</ele><time>2026-04-26T08:41:06.975Z</time></trkpt><trkpt lat="43.611488498768736" lon="3.7291432851156396"><ele>147.85714285714286</ele><time>2026-04-26T08:41:09.975Z</time></trkpt><trkpt lat="43.61143228993722" lon="3.7290905124415294"><ele>148.57142857142856</ele><time>2026-04-26T08:41:12.975Z</time></trkpt><trkpt lat="43.6113667573166" lon="3.7290532087047548"><ele>149.28571428571428</ele><time>2026-04-26T08:41:15.975Z</time></trkpt><trkpt lat="43.61129221108791" lon="3.7289915430416682"><ele>150.0</ele><time>2026-04-26T08:41:19.975Z</time></trkpt><trkpt lat="43.61123494276669" lon="3.728935535121015"><ele>149.99999999999997</ele><time>2026-04-26T08:41:22.975Z</time></trkpt><trkpt lat="43.611181898895076" lon="3.7288707979733395"><ele>150.0</ele><time>2026-04-26T08:41:26.975Z</time></trkpt><trkpt lat="43.611138557327926" lon="3.7288034826692518"><ele>150.0</ele><time>2026-04-26T08:41:29.975Z</time></trkpt><trkpt lat="43.611090074528455" lon="3.7287331992469865"><ele>150.0</ele><time>2026-04-26T08:41:32.975Z</time></trkpt><trkpt lat="43.61104042891362" lon="3.7286585558988086"><ele>150.0</ele><time>2026-04-26T08:41:35.975Z</time></trkpt><trkpt lat="43.611003551172345" lon="3.7285862046274083"><ele>149.99999999999997</ele><time>2026-04-26T08:41:38.975Z</time></trkpt><trkpt lat="43.61094101173493" lon="3.7285128956673517"><ele>150.0</ele><time>2026-04-26T08:41:41.975Z</time></trkpt><trkpt lat="43.610878939495294" lon="3.7284574093849754"><ele>150.57142857142856</ele><time>2026-04-26T08:41:44.975Z</time></trkpt><trkpt lat="43.610833549986495" lon="3.7283937834675154"><ele>151.14285714285714</ele><time>2026-04-26T08:41:47.975Z</time></trkpt><trkpt lat="43.61077591517306" lon="3.728326598553986"><ele>151.71428571428572</ele><time>2026-04-26T08:41:50.975Z</time></trkpt><trkpt lat="43.61071030954284" lon="3.7282870211554755"><ele>152.28571428571428</ele><time>2026-04-26T08:41:53.975Z</time></trkpt><trkpt lat="43.610648604011885" lon="3.7282423913393243"><ele>152.85714285714286</ele><time>2026-04-26T08:41:56.975Z</time></trkpt><trkpt lat="43.61058233283235" lon="3.7282115265833466"><ele>153.42857142857142</ele><time>2026-04-26T08:41:59.975Z</time></trkpt><trkpt lat="43.610526916406045" lon="3.728167879389814"><ele>154.0</ele><time>2026-04-26T08:42:02.975Z</time></trkpt><trkpt lat="43.61046747764093" lon="3.7281344994241143"><ele>154.0</ele><time>2026-04-26T08:42:05.975Z</time></trkpt><trkpt lat="43.61039077880924" lon="3.7281096042069146"><ele>154.0</ele><time>2026-04-26T08:42:09.975Z</time></trkpt><trkpt lat="43.610317518096245" lon="3.728079428034139"><ele>154.0</ele><time>2026-04-26T08:42:12.975Z</time></trkpt><trkpt lat="43.61024310758258" lon="3.7280447274696"><ele>154.0</ele><time>2026-04-26T08:42:16.974Z</time></trkpt><trkpt lat="43.6101827055391" lon="3.7280172423153495"><ele>154.0</ele><time>2026-04-26T08:42:19.974Z</time></trkpt><trkpt lat="43.61011903604106" lon="3.727984531207095"><ele>154.0</ele><time>2026-04-26T08:42:22.974Z</time></trkpt><trkpt lat="43.61005281932243" lon="3.727953475098478"><ele>154.0</ele><time>2026-04-26T08:42:26.974Z</time></trkpt><trkpt lat="43.609980707394016" lon="3.7279492416458537"><ele>155.14285714285714</ele><time>2026-04-26T08:42:29.974Z</time></trkpt><trkpt lat="43.6099169583795" lon="3.7279232595884078"><ele>156.28571428571428</ele><time>2026-04-26T08:42:32.974Z</time></trkpt><trkpt lat="43.609850008712094" lon="3.727923729366951"><ele>157.42857142857144</ele><time>2026-04-26T08:42:35.974Z</time></trkpt><trkpt lat="43.609771606582854" lon="3.727896550745902"><ele>158.57142857142856</ele><time>2026-04-26T08:42:38.974Z</time></trkpt><trkpt lat="43.609694859589546" lon="3.7278664205705585"><ele>159.71428571428572</ele><time>2026-04-26T08:42:41.974Z</time></trkpt><trkpt lat="43.60961878483282" lon="3.7278323742567117"><ele>160.85714285714286</ele><time>2026-04-26T08:42:44.974Z</time></trkpt><trkpt lat="43.60954649095103" lon="3.727810631981786"><ele>162.0</ele><time>2026-04-26T08:42:47.974Z</time></trkpt><trkpt lat="43.60946705585419" lon="3.727824069814129"><ele>162.0</ele><time>2026-04-26T08:42:50.974Z</time></trkpt><trkpt lat="43.609397065290224" lon="3.7278319439253034"><ele>162.0</ele><time>2026-04-26T08:42:53.974Z</time></trkpt><trkpt lat="43.6093160893793" lon="3.727845810009489"><ele>162.0</ele><time>2026-04-26T08:42:57.974Z</time></trkpt><trkpt lat="43.60924997330308" lon="3.7278405671636983"><ele>162.0</ele><time>2026-04-26T08:43:00.974Z</time></trkpt><trkpt lat="43.60916831937773" lon="3.7278356440688936"><ele>162.0</ele><time>2026-04-26T08:43:03.974Z</time></trkpt><trkpt lat="43.6090907620523" lon="3.7278517373342366"><ele>162.0</ele><time>2026-04-26T08:43:06.974Z</time></trkpt><trkpt lat="43.60900941209392" lon="3.7278645522163623"><ele>162.0</ele><time>2026-04-26T08:43:09.974Z</time></trkpt><trkpt lat="43.60894343577232" lon="3.7278560403474463"><ele>162.0</ele><time>2026-04-26T08:43:12.974Z</time></trkpt><trkpt lat="43.60886896172221" lon="3.7278662984783297"><ele>162.0</ele><time>2026-04-26T08:43:15.974Z</time></trkpt><trkpt lat="43.60879443012372" lon="3.7278624616207168"><ele>162.0</ele><time>2026-04-26T08:43:18.974Z</time></trkpt><trkpt lat="43.60872289473603" lon="3.727855448182284"><ele>162.0</ele><time>2026-04-26T08:43:21.974Z</time></trkpt><trkpt lat="43.60863864295088" lon="3.7278369036811916"><ele>162.0</ele><time>2026-04-26T08:43:25.974Z</time></trkpt><trkpt lat="43.60856096526671" lon="3.7278413471986775"><ele>161.14285714285714</ele><time>2026-04-26T08:43:28.974Z</time></trkpt><trkpt lat="43.60848910191187" lon="3.727838349784964"><ele>160.28571428571428</ele><time>2026-04-26T08:43:32.974Z</time></trkpt><trkpt lat="43.60842725602025" lon="3.727855881812449"><ele>159.42857142857144</ele><time>2026-04-26T08:43:36.974Z</time></trkpt><trkpt lat="43.608406060043684" lon="3.7279553823799945"><ele>158.57142857142856</ele><time>2026-04-26T08:43:42.974Z</time></trkpt><trkpt lat="43.608388347960094" lon="3.728050010765696"><ele>157.7142857142857</ele><time>2026-04-26T08:43:46.973Z</time></trkpt><trkpt lat="43.608371297235806" lon="3.7281426916524496"><ele>156.85714285714286</ele><time>2026-04-26T08:43:49.973Z</time></trkpt><trkpt lat="43.60835259192551" lon="3.728261613662519"><ele>156.0</ele><time>2026-04-26T08:43:52.973Z</time></trkpt><trkpt lat="43.60832834258343" lon="3.728391781757673"><ele>156.0</ele><time>2026-04-26T08:43:55.973Z</time></trkpt><trkpt lat="43.60830468745252" lon="3.728507270238527"><ele>156.0</ele><time>2026-04-26T08:43:57.973Z</time></trkpt><trkpt lat="43.60828157797485" lon="3.728635741250251"><ele>156.0</ele><time>2026-04-26T08:43:59.973Z</time></trkpt><trkpt lat="43.60824965179654" lon="3.7287729442602853"><ele>156.0</ele><time>2026-04-26T08:44:01.973Z</time></trkpt><trkpt lat="43.6082186132493" lon="3.7289156980525995"><ele>156.0</ele><time>2026-04-26T08:44:03.973Z</time></trkpt><trkpt lat="43.608198039640634" lon="3.729075095901602"><ele>156.2</ele><time>2026-04-26T08:44:05.973Z</time></trkpt><trkpt lat="43.60819224684852" lon="3.7291621868529425"><ele>156.39999999999998</ele><time>2026-04-26T08:44:06.973Z</time></trkpt><trkpt lat="43.60817887659223" lon="3.729327844389766"><ele>156.6</ele><time>2026-04-26T08:44:08.973Z</time></trkpt><trkpt lat="43.60816781513352" lon="3.729496544122269"><ele>156.79999999999998</ele><time>2026-04-26T08:44:10.973Z</time></trkpt><trkpt lat="43.608160971340276" lon="3.7295837562840837"><ele>157.0</ele><time>2026-04-26T08:44:11.973Z</time></trkpt><trkpt lat="43.60815585653544" lon="3.729751377426425"><ele>157.16666666666669</ele><time>2026-04-26T08:44:13.973Z</time></trkpt><trkpt lat="43.60814832635051" lon="3.729844522160208"><ele>157.33333333333334</ele><time>2026-04-26T08:44:14.973Z</time></trkpt><trkpt lat="43.60814473085019" lon="3.729931733215684"><ele>157.5</ele><time>2026-04-26T08:44:15.973Z</time></trkpt><trkpt lat="43.60814252567474" lon="3.730023048594064"><ele>157.66666666666666</ele><time>2026-04-26T08:44:16.973Z</time></trkpt><trkpt lat="43.60814086766464" lon="3.7301149449505635"><ele>157.83333333333331</ele><time>2026-04-26T08:44:17.973Z</time></trkpt><trkpt lat="43.6081388355762" lon="3.7302040915487376"><ele>158.0</ele><time>2026-04-26T08:44:18.973Z</time></trkpt><trkpt lat="43.60815264361777" lon="3.7303753952847005"><ele>157.4</ele><time>2026-04-26T08:44:20.973Z</time></trkpt><trkpt lat="43.60814338578656" lon="3.7304749086224813"><ele>156.8</ele><time>2026-04-26T08:44:21.973Z</time></trkpt><trkpt lat="43.608151166613794" lon="3.73065271873083"><ele>156.2</ele><time>2026-04-26T08:44:23.973Z</time></trkpt><trkpt lat="43.60816020241474" lon="3.730746104944635"><ele>155.6</ele><time>2026-04-26T08:44:24.973Z</time></trkpt><trkpt lat="43.608151545269585" lon="3.730841734663534"><ele>155.0</ele><time>2026-04-26T08:44:25.974Z</time></trkpt><trkpt lat="43.6081458828344" lon="3.7310214805904787"><ele>154.0</ele><time>2026-04-26T08:44:27.974Z</time></trkpt><trkpt lat="43.6081373236337" lon="3.7311318723496467"><ele>153.0</ele><time>2026-04-26T08:44:28.973Z</time></trkpt><trkpt lat="43.60812231647891" lon="3.731233939736472"><ele>152.0</ele><time>2026-04-26T08:44:29.973Z</time></trkpt><trkpt lat="43.608112603794716" lon="3.7313396514675645"><ele>151.0</ele><time>2026-04-26T08:44:30.973Z</time></trkpt><trkpt lat="43.60811016834158" lon="3.7314534279881473"><ele>150.0</ele><time>2026-04-26T08:44:31.973Z</time></trkpt><trkpt lat="43.608107259501935" lon="3.7315663505449517"><ele>149.0</ele><time>2026-04-26T08:44:32.973Z</time></trkpt><trkpt lat="43.60810392395334" lon="3.731685550906328"><ele>149.0</ele><time>2026-04-26T08:44:33.973Z</time></trkpt><trkpt lat="43.608104283177255" lon="3.731784630267608"><ele>149.0</ele><time>2026-04-26T08:44:34.973Z</time></trkpt><trkpt lat="43.608110474785335" lon="3.7319122439904837"><ele>149.0</ele><time>2026-04-26T08:44:36.973Z</time></trkpt><trkpt lat="43.6081060780814" lon="3.7320112821978717"><ele>149.0</ele><time>2026-04-26T08:44:38.973Z</time></trkpt><trkpt lat="43.608125675292406" lon="3.73213475914381"><ele>149.0</ele><time>2026-04-26T08:44:40.973Z</time></trkpt><trkpt lat="43.608159553202945" lon="3.7322903925463256"><ele>149.0</ele><time>2026-04-26T08:44:42.973Z</time></trkpt><trkpt lat="43.608155313742316" lon="3.732463921530849"><ele>148.28571428571428</ele><time>2026-04-26T08:44:44.973Z</time></trkpt><trkpt lat="43.60812952527165" lon="3.7325462693398097"><ele>147.57142857142856</ele><time>2026-04-26T08:44:45.973Z</time></trkpt><trkpt lat="43.60810324235805" lon="3.7326274002094495"><ele>146.85714285714286</ele><time>2026-04-26T08:44:46.973Z</time></trkpt><trkpt lat="43.60807488963232" lon="3.7327119659768537"><ele>146.14285714285714</ele><time>2026-04-26T08:44:47.973Z</time></trkpt><trkpt lat="43.608046500561564" lon="3.7328000949301345"><ele>145.42857142857144</ele><time>2026-04-26T08:44:48.973Z</time></trkpt><trkpt lat="43.60802553087621" lon="3.7328963330194145"><ele>144.71428571428572</ele><time>2026-04-26T08:44:49.973Z</time></trkpt><trkpt lat="43.60801001172404" lon="3.732989897749389"><ele>144.0</ele><time>2026-04-26T08:44:50.973Z</time></trkpt><trkpt lat="43.607997370919385" lon="3.7330855924826754"><ele>143.83333333333334</ele><time>2026-04-26T08:44:51.973Z</time></trkpt><trkpt lat="43.60797678964373" lon="3.7331797811929364"><ele>143.66666666666666</ele><time>2026-04-26T08:44:52.973Z</time></trkpt><trkpt lat="43.60795562732831" lon="3.7332767073464206"><ele>143.5</ele><time>2026-04-26T08:44:53.973Z</time></trkpt><trkpt lat="43.60792546946595" lon="3.733378428301343"><ele>143.33333333333331</ele><time>2026-04-26T08:44:54.973Z</time></trkpt><trkpt lat="43.607891171006095" lon="3.733477304658158"><ele>143.16666666666666</ele><time>2026-04-26T08:44:55.973Z</time></trkpt><trkpt lat="43.60785465181593" lon="3.7335727166857766"><ele>143.0</ele><time>2026-04-26T08:44:56.973Z</time></trkpt><trkpt lat="43.6078174951694" lon="3.733680046640584"><ele>141.66666666666666</ele><time>2026-04-26T08:44:57.973Z</time></trkpt><trkpt lat="43.60777665449959" lon="3.733789848044795"><ele>140.33333333333331</ele><time>2026-04-26T08:44:58.973Z</time></trkpt><trkpt lat="43.607734534494355" lon="3.733890361394871"><ele>139.0</ele><time>2026-04-26T08:44:59.973Z</time></trkpt><trkpt lat="43.607687966739" lon="3.733971607682192"><ele>137.66666666666666</ele><time>2026-04-26T08:45:00.973Z</time></trkpt><trkpt lat="43.60763309054751" lon="3.734046347294355"><ele>136.33333333333334</ele><time>2026-04-26T08:45:01.973Z</time></trkpt><trkpt lat="43.607584235763234" lon="3.7341444378923128"><ele>135.0</ele><time>2026-04-26T08:45:02.973Z</time></trkpt><trkpt lat="43.60754021882366" lon="3.7342389506698845"><ele>135.0</ele><time>2026-04-26T08:45:03.973Z</time></trkpt><trkpt lat="43.60749387290922" lon="3.734326197445135"><ele>135.0</ele><time>2026-04-26T08:45:04.973Z</time></trkpt><trkpt lat="43.60745968648698" lon="3.7344146673667735"><ele>135.0</ele><time>2026-04-26T08:45:05.973Z</time></trkpt><trkpt lat="43.60742888946855" lon="3.7345112474396007"><ele>135.0</ele><time>2026-04-26T08:45:06.973Z</time></trkpt><trkpt lat="43.60739387600771" lon="3.7346045501219844"><ele>135.0</ele><time>2026-04-26T08:45:07.973Z</time></trkpt><trkpt lat="43.60735889896341" lon="3.734699171016587"><ele>135.0</ele><time>2026-04-26T08:45:08.973Z</time></trkpt><trkpt lat="43.60732780715988" lon="3.7347881939792402"><ele>135.16666666666666</ele><time>2026-04-26T08:45:09.973Z</time></trkpt><trkpt lat="43.607297393244366" lon="3.734883046496137"><ele>135.33333333333334</ele><time>2026-04-26T08:45:10.973Z</time></trkpt><trkpt lat="43.60726570144529" lon="3.7349769510661934"><ele>135.5</ele><time>2026-04-26T08:45:11.973Z</time></trkpt><trkpt lat="43.60723568405845" lon="3.7350749791026505"><ele>135.66666666666669</ele><time>2026-04-26T08:45:12.973Z</time></trkpt><trkpt lat="43.60721359298674" lon="3.735176141994439"><ele>135.83333333333334</ele><time>2026-04-26T08:45:13.973Z</time></trkpt><trkpt lat="43.60719517163821" lon="3.7352777381996667"><ele>136.0</ele><time>2026-04-26T08:45:14.973Z</time></trkpt><trkpt lat="43.60717539709435" lon="3.7353793449945227"><ele>136.0</ele><time>2026-04-26T08:45:15.973Z</time></trkpt><trkpt lat="43.60716097064189" lon="3.7354793502687293"><ele>136.0</ele><time>2026-04-26T08:45:16.973Z</time></trkpt><trkpt lat="43.60714498560985" lon="3.735582543152639"><ele>136.0</ele><time>2026-04-26T08:45:17.973Z</time></trkpt><trkpt lat="43.60712239148123" lon="3.7356798364565806"><ele>136.0</ele><time>2026-04-26T08:45:18.973Z</time></trkpt><trkpt lat="43.607098264821275" lon="3.735780104095337"><ele>136.0</ele><time>2026-04-26T08:45:19.973Z</time></trkpt><trkpt lat="43.6070622670208" lon="3.7358646053477402"><ele>136.0</ele><time>2026-04-26T08:45:20.973Z</time></trkpt><trkpt lat="43.60700573431811" lon="3.7359530275644257"><ele>134.66666666666669</ele><time>2026-04-26T08:45:21.973Z</time></trkpt><trkpt lat="43.606947022294186" lon="3.7360217233917385"><ele>133.33333333333334</ele><time>2026-04-26T08:45:22.973Z</time></trkpt><trkpt lat="43.606889053678636" lon="3.7361249065071602"><ele>132.0</ele><time>2026-04-26T08:45:23.973Z</time></trkpt><trkpt lat="43.60684174833324" lon="3.736200267365638"><ele>130.66666666666666</ele><time>2026-04-26T08:45:24.973Z</time></trkpt><trkpt lat="43.60676629233493" lon="3.7363101598057153"><ele>129.33333333333331</ele><time>2026-04-26T08:45:26.973Z</time></trkpt><trkpt lat="43.60669279931752" lon="3.736391137680545"><ele>128.0</ele><time>2026-04-26T08:45:28.973Z</time></trkpt><trkpt lat="43.60659867703031" lon="3.736429726380155"><ele>128.0</ele><time>2026-04-26T08:45:30.973Z</time></trkpt><trkpt lat="43.60649551972441" lon="3.7363876395323894"><ele>128.0</ele><time>2026-04-26T08:45:32.973Z</time></trkpt><trkpt lat="43.606401088256796" lon="3.736343165512902"><ele>128.0</ele><time>2026-04-26T08:45:34.973Z</time></trkpt><trkpt lat="43.60630653312707" lon="3.736324594223748"><ele>128.0</ele><time>2026-04-26T08:45:36.973Z</time></trkpt><trkpt lat="43.60620793102072" lon="3.7363286656220316"><ele>128.0</ele><time>2026-04-26T08:45:38.973Z</time></trkpt><trkpt lat="43.60610582492202" lon="3.736345315064899"><ele>128.0</ele><time>2026-04-26T08:45:40.973Z</time></trkpt><trkpt lat="43.6060023938246" lon="3.7363688223150824"><ele>128.0</ele><time>2026-04-26T08:45:42.973Z</time></trkpt><trkpt lat="43.60591781936007" lon="3.736388778622747"><ele>128.0</ele><time>2026-04-26T08:45:44.973Z</time></trkpt><trkpt lat="43.6058394819914" lon="3.736412837255852"><ele>128.0</ele><time>2026-04-26T08:45:46.973Z</time></trkpt><trkpt lat="43.605752657644146" lon="3.736439353595816"><ele>128.0</ele><time>2026-04-26T08:45:48.973Z</time></trkpt><trkpt lat="43.60566399845888" lon="3.7364779202348664"><ele>127.99999999999999</ele><time>2026-04-26T08:45:51.973Z</time></trkpt><trkpt lat="43.605595732929444" lon="3.736483060170521"><ele>128.0</ele><time>2026-04-26T08:45:54.973Z</time></trkpt><trkpt lat="43.60552172541549" lon="3.73649586485118"><ele>128.0</ele><time>2026-04-26T08:45:58.973Z</time></trkpt><trkpt lat="43.60545073086998" lon="3.736527132432258"><ele>128.0</ele><time>2026-04-26T08:46:01.973Z</time></trkpt><trkpt lat="43.60536581366957" lon="3.736551676541817"><ele>127.99999999999999</ele><time>2026-04-26T08:46:04.973Z</time></trkpt><trkpt lat="43.60529263273364" lon="3.7365783417922893"><ele>128.0</ele><time>2026-04-26T08:46:07.973Z</time></trkpt><trkpt lat="43.60521945556797" lon="3.7365988210640397"><ele>128.42857142857142</ele><time>2026-04-26T08:46:10.973Z</time></trkpt><trkpt lat="43.60515549873535" lon="3.7366326830975387"><ele>128.85714285714283</ele><time>2026-04-26T08:46:13.973Z</time></trkpt><trkpt lat="43.605098341862806" lon="3.736670959990144"><ele>129.28571428571428</ele><time>2026-04-26T08:46:16.973Z</time></trkpt><trkpt lat="43.6050485248392" lon="3.736732029026793"><ele>129.71428571428572</ele><time>2026-04-26T08:46:19.973Z</time></trkpt><trkpt lat="43.60503185050184" lon="3.736823521323096"><ele>130.14285714285717</ele><time>2026-04-26T08:46:21.973Z</time></trkpt><trkpt lat="43.60501526490561" lon="3.7369410514918977"><ele>130.57142857142858</ele><time>2026-04-26T08:46:23.973Z</time></trkpt><trkpt lat="43.605002555693346" lon="3.7370296552623166"><ele>131.0</ele><time>2026-04-26T08:46:24.973Z</time></trkpt><trkpt lat="43.604981481262655" lon="3.737205204470559"><ele>131.0</ele><time>2026-04-26T08:46:26.972Z</time></trkpt><trkpt lat="43.60497508319954" lon="3.737305902826545"><ele>131.0</ele><time>2026-04-26T08:46:27.972Z</time></trkpt><trkpt lat="43.604956965045986" lon="3.737408687338457"><ele>131.0</ele><time>2026-04-26T08:46:28.972Z</time></trkpt><trkpt lat="43.604940709843156" lon="3.73752375131632"><ele>131.0</ele><time>2026-04-26T08:46:29.972Z</time></trkpt><trkpt lat="43.60489261221272" lon="3.7376281762786245"><ele>131.0</ele><time>2026-04-26T08:46:30.972Z</time></trkpt><trkpt lat="43.60487881933234" lon="3.7377433818078027"><ele>131.0</ele><time>2026-04-26T08:46:31.971Z</time></trkpt><trkpt lat="43.6048638520171" lon="3.737868396839119"><ele>129.8</ele><time>2026-04-26T08:46:32.972Z</time></trkpt><trkpt lat="43.60484867957989" lon="3.7379951251342267"><ele>128.6</ele><time>2026-04-26T08:46:33.972Z</time></trkpt><trkpt lat="43.60483290812315" lon="3.738126856816331"><ele>127.4</ele><time>2026-04-26T08:46:34.972Z</time></trkpt><trkpt lat="43.60481709194146" lon="3.738257133069221"><ele>126.2</ele><time>2026-04-26T08:46:35.972Z</time></trkpt><trkpt lat="43.604800982627395" lon="3.7383827429117966"><ele>125.0</ele><time>2026-04-26T08:46:36.972Z</time></trkpt><trkpt lat="43.60481220787898" lon="3.7385270918084106"><ele>124.2</ele><time>2026-04-26T08:46:37.971Z</time></trkpt><trkpt lat="43.60479669026808" lon="3.7386628073982378"><ele>123.4</ele><time>2026-04-26T08:46:38.971Z</time></trkpt><trkpt lat="43.604787023415696" lon="3.7387936633814745"><ele>122.6</ele><time>2026-04-26T08:46:39.971Z</time></trkpt><trkpt lat="43.604759367832884" lon="3.738940145834578"><ele>121.8</ele><time>2026-04-26T08:46:40.971Z</time></trkpt><trkpt lat="43.60472274753679" lon="3.7390457447670493"><ele>121.0</ele><time>2026-04-26T08:46:41.971Z</time></trkpt><trkpt lat="43.60467060211063" lon="3.739156671603428"><ele>121.0</ele><time>2026-04-26T08:46:42.971Z</time></trkpt><trkpt lat="43.60458949456407" lon="3.7392491550782005"><ele>121.0</ele><time>2026-04-26T08:46:43.971Z</time></trkpt><trkpt lat="43.604495141890716" lon="3.7393069980817075"><ele>121.0</ele><time>2026-04-26T08:46:44.971Z</time></trkpt><trkpt lat="43.60439981897576" lon="3.739370740382848"><ele>121.0</ele><time>2026-04-26T08:46:45.971Z</time></trkpt><trkpt lat="43.60430523033746" lon="3.739399579427936"><ele>121.0</ele><time>2026-04-26T08:46:46.971Z</time></trkpt><trkpt lat="43.60422356874305" lon="3.7394123690311525"><ele>120.33333333333334</ele><time>2026-04-26T08:46:47.971Z</time></trkpt><trkpt lat="43.60414358251982" lon="3.739411786400183"><ele>119.66666666666667</ele><time>2026-04-26T08:46:48.971Z</time></trkpt><trkpt lat="43.60406916007073" lon="3.7394313952028435"><ele>119.0</ele><time>2026-04-26T08:46:49.971Z</time></trkpt><trkpt lat="43.60399509281759" lon="3.7394503027165653"><ele>118.33333333333334</ele><time>2026-04-26T08:46:50.971Z</time></trkpt><trkpt lat="43.603925466487816" lon="3.7394667078279884"><ele>117.66666666666667</ele><time>2026-04-26T08:46:51.971Z</time></trkpt><trkpt lat="43.60385707710389" lon="3.739471386943079"><ele>117.0</ele><time>2026-04-26T08:46:52.971Z</time></trkpt><trkpt lat="43.6037197033547" lon="3.7394999233322084"><ele>116.71428571428572</ele><time>2026-04-26T08:46:54.971Z</time></trkpt><trkpt lat="43.60364903439892" lon="3.7395142079546937"><ele>116.42857142857144</ele><time>2026-04-26T08:46:55.971Z</time></trkpt><trkpt lat="43.603587359956244" lon="3.7395477611330774"><ele>116.14285714285714</ele><time>2026-04-26T08:46:56.971Z</time></trkpt><trkpt lat="43.60352077396482" lon="3.7395445098947917"><ele>115.85714285714286</ele><time>2026-04-26T08:46:57.971Z</time></trkpt><trkpt lat="43.60343551120263" lon="3.739549296249058"><ele>115.57142857142857</ele><time>2026-04-26T08:46:58.971Z</time></trkpt><trkpt lat="43.60337175918325" lon="3.73952340675805"><ele>115.28571428571428</ele><time>2026-04-26T08:46:59.971Z</time></trkpt><trkpt lat="43.603302035088525" lon="3.7395160118539232"><ele>114.99999999999999</ele><time>2026-04-26T08:47:00.971Z</time></trkpt><trkpt lat="43.60321378180765" lon="3.739484385545363"><ele>115.00000000000001</ele><time>2026-04-26T08:47:01.971Z</time></trkpt><trkpt lat="43.60314522684205" lon="3.7394421847485217"><ele>115.0</ele><time>2026-04-26T08:47:02.971Z</time></trkpt><trkpt lat="43.603074680209886" lon="3.7393764279519037"><ele>115.0</ele><time>2026-04-26T08:47:03.971Z</time></trkpt><trkpt lat="43.60299781959293" lon="3.7393260903121277"><ele>115.0</ele><time>2026-04-26T08:47:04.971Z</time></trkpt><trkpt lat="43.602915630789184" lon="3.7392848867833623"><ele>115.00000000000001</ele><time>2026-04-26T08:47:05.971Z</time></trkpt><trkpt lat="43.60283807131178" lon="3.739245161801872"><ele>115.0</ele><time>2026-04-26T08:47:06.971Z</time></trkpt><trkpt lat="43.602754578724614" lon="3.7392085031044315"><ele>114.6</ele><time>2026-04-26T08:47:07.971Z</time></trkpt><trkpt lat="43.60266601207881" lon="3.7391807428319384"><ele>114.2</ele><time>2026-04-26T08:47:08.971Z</time></trkpt><trkpt lat="43.60257936058457" lon="3.7391451892215195"><ele>113.80000000000001</ele><time>2026-04-26T08:47:09.971Z</time></trkpt><trkpt lat="43.60249207222185" lon="3.7391061423903955"><ele>113.4</ele><time>2026-04-26T08:47:10.971Z</time></trkpt><trkpt lat="43.602405967987956" lon="3.739072572065901"><ele>113.0</ele><time>2026-04-26T08:47:11.971Z</time></trkpt><trkpt lat="43.60232003391209" lon="3.7390426410339295"><ele>112.99999999999999</ele><time>2026-04-26T08:47:12.971Z</time></trkpt><trkpt lat="43.602235958857456" lon="3.7390301723002954"><ele>113.0</ele><time>2026-04-26T08:47:13.971Z</time></trkpt><trkpt lat="43.60215371850041" lon="3.739032121994439"><ele>113.0</ele><time>2026-04-26T08:47:14.971Z</time></trkpt><trkpt lat="43.602071129350946" lon="3.739059880988566"><ele>113.0</ele><time>2026-04-26T08:47:15.971Z</time></trkpt><trkpt lat="43.60199640835916" lon="3.73908465124152"><ele>112.99999999999999</ele><time>2026-04-26T08:47:16.971Z</time></trkpt><trkpt lat="43.601923498740454" lon="3.7391074709297456"><ele>113.0</ele><time>2026-04-26T08:47:17.971Z</time></trkpt><trkpt lat="43.601861483047784" lon="3.739127569058653"><ele>113.4</ele><time>2026-04-26T08:47:18.971Z</time></trkpt><trkpt lat="43.60174912382233" lon="3.7391790174991253"><ele>113.80000000000001</ele><time>2026-04-26T08:47:20.971Z</time></trkpt><trkpt lat="43.601661659726375" lon="3.739210226593752"><ele>114.2</ele><time>2026-04-26T08:47:22.971Z</time></trkpt><trkpt lat="43.60158763156772" lon="3.7392514570775695"><ele>114.6</ele><time>2026-04-26T08:47:24.971Z</time></trkpt><trkpt lat="43.60150271082985" lon="3.7392897534193916"><ele>115.0</ele><time>2026-04-26T08:47:26.971Z</time></trkpt><trkpt lat="43.60142519281754" lon="3.7393162649501166"><ele>115.00000000000001</ele><time>2026-04-26T08:47:28.971Z</time></trkpt><trkpt lat="43.601351429240694" lon="3.7393408635032217"><ele>115.0</ele><time>2026-04-26T08:47:30.971Z</time></trkpt><trkpt lat="43.60127281031864" lon="3.739373700958534"><ele>115.0</ele><time>2026-04-26T08:47:32.971Z</time></trkpt><trkpt lat="43.60120393704536" lon="3.7393988083180605"><ele>115.0</ele><time>2026-04-26T08:47:34.971Z</time></trkpt><trkpt lat="43.6011296974764" lon="3.7394279359513924"><ele>115.00000000000001</ele><time>2026-04-26T08:47:36.971Z</time></trkpt><trkpt lat="43.601059887354516" lon="3.739468892630066"><ele>115.0</ele><time>2026-04-26T08:47:38.971Z</time></trkpt><trkpt lat="43.60099728796551" lon="3.739505578443955"><ele>115.83333333333334</ele><time>2026-04-26T08:47:40.971Z</time></trkpt><trkpt lat="43.60092957776883" lon="3.739541779833338"><ele>116.66666666666667</ele><time>2026-04-26T08:47:42.971Z</time></trkpt><trkpt lat="43.60086459863804" lon="3.739544078854867"><ele>117.5</ele><time>2026-04-26T08:47:44.971Z</time></trkpt><trkpt lat="43.60079092320513" lon="3.73949066992637"><ele>118.33333333333334</ele><time>2026-04-26T08:47:47.971Z</time></trkpt><trkpt lat="43.60071999460428" lon="3.7394609440207454"><ele>119.16666666666667</ele><time>2026-04-26T08:47:50.971Z</time></trkpt><trkpt lat="43.60063914013357" lon="3.739500993265119"><ele>120.0</ele><time>2026-04-26T08:47:53.971Z</time></trkpt><trkpt lat="43.60060961272945" lon="3.739628543023789"><ele>120.0</ele><time>2026-04-26T08:47:56.971Z</time></trkpt><trkpt lat="43.600582105894894" lon="3.7397081789668065"><ele>120.0</ele><time>2026-04-26T08:47:58.971Z</time></trkpt><trkpt lat="43.60053229302397" lon="3.739773852460355"><ele>120.0</ele><time>2026-04-26T08:48:01.971Z</time></trkpt><trkpt lat="43.60046103879641" lon="3.739870083158811"><ele>120.0</ele><time>2026-04-26T08:48:04.971Z</time></trkpt><trkpt lat="43.60039831325304" lon="3.7399437573799625"><ele>120.0</ele><time>2026-04-26T08:48:07.971Z</time></trkpt><trkpt lat="43.60035280356187" lon="3.7400063424635275"><ele>120.0</ele><time>2026-04-26T08:48:09.971Z</time></trkpt><trkpt lat="43.600297958460686" lon="3.7400942017181893"><ele>120.6</ele><time>2026-04-26T08:48:12.971Z</time></trkpt><trkpt lat="43.60024676447395" lon="3.7401988185790778"><ele>121.2</ele><time>2026-04-26T08:48:15.971Z</time></trkpt><trkpt lat="43.600195903458264" lon="3.7403069204496067"><ele>121.80000000000001</ele><time>2026-04-26T08:48:18.971Z</time></trkpt><trkpt lat="43.60016694239796" lon="3.7404298913788994"><ele>122.4</ele><time>2026-04-26T08:48:21.971Z</time></trkpt><trkpt lat="43.60013237562989" lon="3.740549207074855"><ele>123.0</ele><time>2026-04-26T08:48:24.971Z</time></trkpt><trkpt lat="43.600094043077" lon="3.740665813272793"><ele>123.0</ele><time>2026-04-26T08:48:27.971Z</time></trkpt><trkpt lat="43.60005373479281" lon="3.7407759575163215"><ele>123.0</ele><time>2026-04-26T08:48:30.971Z</time></trkpt><trkpt lat="43.6000273278532" lon="3.7408575103952173"><ele>123.0</ele><time>2026-04-26T08:48:32.971Z</time></trkpt><trkpt lat="43.6000012009208" lon="3.7409543302741706"><ele>123.0</ele><time>2026-04-26T08:48:34.97Z</time></trkpt><trkpt lat="43.599967865227015" lon="3.741043092200702"><ele>123.0</ele><time>2026-04-26T08:48:36.97Z</time></trkpt><trkpt lat="43.59993668144068" lon="3.741142181086856"><ele>123.0</ele><time>2026-04-26T08:48:38.97Z</time></trkpt><trkpt lat="43.599897794062045" lon="3.7412469260430252"><ele>122.5</ele><time>2026-04-26T08:48:40.971Z</time></trkpt><trkpt lat="43.59987332224108" lon="3.7413335760902204"><ele>122.0</ele><time>2026-04-26T08:48:42.971Z</time></trkpt><trkpt lat="43.5998293617702" lon="3.7414511485442454"><ele>121.5</ele><time>2026-04-26T08:48:44.971Z</time></trkpt><trkpt lat="43.59978899325618" lon="3.7415679338757295"><ele>121.0</ele><time>2026-04-26T08:48:46.971Z</time></trkpt><trkpt lat="43.59973887552728" lon="3.7416818893312134"><ele>120.5</ele><time>2026-04-26T08:48:48.971Z</time></trkpt><trkpt lat="43.59968556970743" lon="3.7417857584338643"><ele>120.0</ele><time>2026-04-26T08:48:50.971Z</time></trkpt><trkpt lat="43.5996333950489" lon="3.741896698131315"><ele>119.8</ele><time>2026-04-26T08:48:52.971Z</time></trkpt><trkpt lat="43.59957347265079" lon="3.7419959617334855"><ele>119.6</ele><time>2026-04-26T08:48:54.971Z</time></trkpt><trkpt lat="43.59951816371162" lon="3.742108130752276"><ele>119.4</ele><time>2026-04-26T08:48:56.971Z</time></trkpt><trkpt lat="43.59946274176855" lon="3.7422116077000482"><ele>119.2</ele><time>2026-04-26T08:48:58.971Z</time></trkpt><trkpt lat="43.59940425069062" lon="3.742329260795232"><ele>119.0</ele><time>2026-04-26T08:49:00.971Z</time></trkpt><trkpt lat="43.59934226110212" lon="3.74243651493743"><ele>119.0</ele><time>2026-04-26T08:49:02.971Z</time></trkpt><trkpt lat="43.59928132111519" lon="3.742559529998373"><ele>119.0</ele><time>2026-04-26T08:49:04.971Z</time></trkpt><trkpt lat="43.599208410437654" lon="3.742696276072694"><ele>119.0</ele><time>2026-04-26T08:49:06.971Z</time></trkpt><trkpt lat="43.59913254810168" lon="3.742815192536715"><ele>119.0</ele><time>2026-04-26T08:49:08.971Z</time></trkpt><trkpt lat="43.59906224358405" lon="3.7429532216185137"><ele>119.0</ele><time>2026-04-26T08:49:10.971Z</time></trkpt><trkpt lat="43.59898283919453" lon="3.743092192028985"><ele>119.0</ele><time>2026-04-26T08:49:12.97Z</time></trkpt><trkpt lat="43.598903361618184" lon="3.7432230213942495"><ele>119.0</ele><time>2026-04-26T08:49:14.97Z</time></trkpt><trkpt lat="43.59885674068676" lon="3.743296078514778"><ele>119.0</ele><time>2026-04-26T08:49:15.97Z</time></trkpt><trkpt lat="43.598814425375075" lon="3.74336753541911"><ele>119.0</ele><time>2026-04-26T08:49:16.97Z</time></trkpt><trkpt lat="43.59876667821843" lon="3.7434403511109458"><ele>118.99999999999999</ele><time>2026-04-26T08:49:17.97Z</time></trkpt><trkpt lat="43.598711675555364" lon="3.743508200485659"><ele>119.0</ele><time>2026-04-26T08:49:18.97Z</time></trkpt><trkpt lat="43.59862539593464" lon="3.7436298480489314"><ele>119.0</ele><time>2026-04-26T08:49:20.97Z</time></trkpt><trkpt lat="43.5985667130604" lon="3.7436937646553896"><ele>119.0</ele><time>2026-04-26T08:49:21.97Z</time></trkpt><trkpt lat="43.598509883195135" lon="3.74375612595689"><ele>118.99999999999999</ele><time>2026-04-26T08:49:22.97Z</time></trkpt><trkpt lat="43.59845561536486" lon="3.743801425775944"><ele>119.0</ele><time>2026-04-26T08:49:23.97Z</time></trkpt><trkpt lat="43.59833674883637" lon="3.7439011971331597"><ele>118.83333333333333</ele><time>2026-04-26T08:49:25.97Z</time></trkpt><trkpt lat="43.598267139886666" lon="3.7439714711481424"><ele>118.66666666666666</ele><time>2026-04-26T08:49:26.97Z</time></trkpt><trkpt lat="43.59819165925321" lon="3.744057269356712"><ele>118.5</ele><time>2026-04-26T08:49:27.97Z</time></trkpt><trkpt lat="43.598133258095196" lon="3.744115715977217"><ele>118.33333333333334</ele><time>2026-04-26T08:49:28.97Z</time></trkpt><trkpt lat="43.59804839046295" lon="3.7441793916486685"><ele>118.16666666666667</ele><time>2026-04-26T08:49:29.97Z</time></trkpt><trkpt lat="43.59796969983599" lon="3.7442383447279597"><ele>118.0</ele><time>2026-04-26T08:49:30.97Z</time></trkpt><trkpt lat="43.59790298342033" lon="3.744321680184328"><ele>117.83333333333334</ele><time>2026-04-26T08:49:31.97Z</time></trkpt><trkpt lat="43.597838350318895" lon="3.7443860099123314"><ele>117.66666666666667</ele><time>2026-04-26T08:49:32.97Z</time></trkpt><trkpt lat="43.597768530902556" lon="3.7444633392676567"><ele>117.5</ele><time>2026-04-26T08:49:33.97Z</time></trkpt><trkpt lat="43.5977034750883" lon="3.7445330218143114"><ele>117.33333333333334</ele><time>2026-04-26T08:49:34.97Z</time></trkpt><trkpt lat="43.59762896749416" lon="3.7446021833077623"><ele>117.16666666666667</ele><time>2026-04-26T08:49:35.97Z</time></trkpt><trkpt lat="43.59756143890681" lon="3.7446695102348855"><ele>117.0</ele><time>2026-04-26T08:49:36.97Z</time></trkpt><trkpt lat="43.5974956017129" lon="3.7447192777580356"><ele>116.5</ele><time>2026-04-26T08:49:37.97Z</time></trkpt><trkpt lat="43.5974241200591" lon="3.744795877529823"><ele>116.0</ele><time>2026-04-26T08:49:38.97Z</time></trkpt><trkpt lat="43.59735807756088" lon="3.7448597499853293"><ele>115.5</ele><time>2026-04-26T08:49:39.97Z</time></trkpt><trkpt lat="43.59729771407398" lon="3.7449217712288867"><ele>115.0</ele><time>2026-04-26T08:49:40.97Z</time></trkpt><trkpt lat="43.59724007368369" lon="3.7449874226951945"><ele>114.5</ele><time>2026-04-26T08:49:41.97Z</time></trkpt><trkpt lat="43.597183251705424" lon="3.745054285796067"><ele>114.0</ele><time>2026-04-26T08:49:42.97Z</time></trkpt><trkpt lat="43.597063000903496" lon="3.7451599169553513"><ele>113.33333333333333</ele><time>2026-04-26T08:49:44.97Z</time></trkpt><trkpt lat="43.59699021948635" lon="3.745211403652877"><ele>112.66666666666666</ele><time>2026-04-26T08:49:45.97Z</time></trkpt><trkpt lat="43.59693399720346" lon="3.7452815870340515"><ele>112.0</ele><time>2026-04-26T08:49:46.97Z</time></trkpt><trkpt lat="43.596877488516974" lon="3.745341597585132"><ele>111.33333333333333</ele><time>2026-04-26T08:49:47.97Z</time></trkpt><trkpt lat="43.59681499731227" lon="3.7454095765025452"><ele>110.66666666666666</ele><time>2026-04-26T08:49:48.97Z</time></trkpt><trkpt lat="43.59675958359967" lon="3.7454624289446143"><ele>110.0</ele><time>2026-04-26T08:49:49.97Z</time></trkpt><trkpt lat="43.5966985793088" lon="3.745523624146857"><ele>109.99999999999999</ele><time>2026-04-26T08:49:50.97Z</time></trkpt><trkpt lat="43.59663870840705" lon="3.745585114390281"><ele>110.0</ele><time>2026-04-26T08:49:51.97Z</time></trkpt><trkpt lat="43.59658222536133" lon="3.7456442947437982"><ele>110.0</ele><time>2026-04-26T08:49:52.97Z</time></trkpt><trkpt lat="43.59652753425304" lon="3.7457097439982485"><ele>110.0</ele><time>2026-04-26T08:49:53.97Z</time></trkpt><trkpt lat="43.596434323491614" lon="3.745831474770722"><ele>109.99999999999999</ele><time>2026-04-26T08:49:55.97Z</time></trkpt><trkpt lat="43.596392959083275" lon="3.745900482907343"><ele>110.0</ele><time>2026-04-26T08:49:56.97Z</time></trkpt><trkpt lat="43.596323669885194" lon="3.7460210275839803"><ele>110.33333333333333</ele><time>2026-04-26T08:49:58.97Z</time></trkpt><trkpt lat="43.59625361310377" lon="3.746148795451004"><ele>110.66666666666666</ele><time>2026-04-26T08:50:00.97Z</time></trkpt><trkpt lat="43.596205308316804" lon="3.746268711339683"><ele>111.0</ele><time>2026-04-26T08:50:02.97Z</time></trkpt><trkpt lat="43.596172550134945" lon="3.746357596272072"><ele>111.33333333333334</ele><time>2026-04-26T08:50:04.97Z</time></trkpt><trkpt lat="43.596123758965796" lon="3.746459649204151"><ele>111.66666666666667</ele><time>2026-04-26T08:50:06.97Z</time></trkpt><trkpt lat="43.59609427381189" lon="3.7465431916649865"><ele>112.0</ele><time>2026-04-26T08:50:08.97Z</time></trkpt><trkpt lat="43.596035571515095" lon="3.7466292668093564"><ele>112.0</ele><time>2026-04-26T08:50:10.97Z</time></trkpt><trkpt lat="43.59596576672736" lon="3.7467419552144468"><ele>112.0</ele><time>2026-04-26T08:50:12.97Z</time></trkpt><trkpt lat="43.595877374361024" lon="3.7468586066411764"><ele>112.0</ele><time>2026-04-26T08:50:14.97Z</time></trkpt><trkpt lat="43.595779874320286" lon="3.7469917066524876"><ele>112.0</ele><time>2026-04-26T08:50:16.97Z</time></trkpt><trkpt lat="43.59567628126236" lon="3.7471240180424266"><ele>112.16666666666667</ele><time>2026-04-26T08:50:18.97Z</time></trkpt><trkpt lat="43.59563268888715" lon="3.7471934825872357"><ele>112.33333333333334</ele><time>2026-04-26T08:50:19.97Z</time></trkpt><trkpt lat="43.59556318420328" lon="3.7472476128702716"><ele>112.5</ele><time>2026-04-26T08:50:20.97Z</time></trkpt><trkpt lat="43.595502721517256" lon="3.7473300612211005"><ele>112.66666666666666</ele><time>2026-04-26T08:50:21.97Z</time></trkpt><trkpt lat="43.5954386884549" lon="3.7474043370842396"><ele>112.83333333333333</ele><time>2026-04-26T08:50:22.97Z</time></trkpt><trkpt lat="43.595377965442495" lon="3.747472613847889"><ele>113.0</ele><time>2026-04-26T08:50:23.97Z</time></trkpt><trkpt lat="43.59531717131672" lon="3.74754668388099"><ele>111.66666666666666</ele><time>2026-04-26T08:50:24.97Z</time></trkpt><trkpt lat="43.59525515604234" lon="3.747631530715548"><ele>110.33333333333333</ele><time>2026-04-26T08:50:25.97Z</time></trkpt><trkpt lat="43.59519223866447" lon="3.747706032182003"><ele>109.0</ele><time>2026-04-26T08:50:26.97Z</time></trkpt><trkpt lat="43.59513167326757" lon="3.747789637295242"><ele>107.66666666666666</ele><time>2026-04-26T08:50:27.97Z</time></trkpt><trkpt lat="43.59507034822993" lon="3.7478601018465763"><ele>106.33333333333333</ele><time>2026-04-26T08:50:28.97Z</time></trkpt><trkpt lat="43.59500152074351" lon="3.7479327238044315"><ele>105.0</ele><time>2026-04-26T08:50:29.97Z</time></trkpt><trkpt lat="43.5949409330862" lon="3.7480187723761733"><ele>104.83333333333333</ele><time>2026-04-26T08:50:30.97Z</time></trkpt><trkpt lat="43.594875580627374" lon="3.748089548377021"><ele>104.66666666666666</ele><time>2026-04-26T08:50:31.97Z</time></trkpt><trkpt lat="43.594805310873134" lon="3.748161499235906"><ele>104.5</ele><time>2026-04-26T08:50:32.97Z</time></trkpt><trkpt lat="43.59473348289064" lon="3.748253998906424"><ele>104.33333333333333</ele><time>2026-04-26T08:50:33.97Z</time></trkpt><trkpt lat="43.594679444723795" lon="3.7483314162538037"><ele>104.16666666666666</ele><time>2026-04-26T08:50:34.97Z</time></trkpt><trkpt lat="43.59461477293552" lon="3.7484260754483856"><ele>104.0</ele><time>2026-04-26T08:50:35.97Z</time></trkpt><trkpt lat="43.594547892107535" lon="3.7484906084797283"><ele>103.66666666666666</ele><time>2026-04-26T08:50:36.97Z</time></trkpt><trkpt lat="43.594489252895436" lon="3.748571336677244"><ele>103.33333333333333</ele><time>2026-04-26T08:50:37.969Z</time></trkpt><trkpt lat="43.594435395057246" lon="3.748630967631507"><ele>103.0</ele><time>2026-04-26T08:50:38.969Z</time></trkpt><trkpt lat="43.59437412325594" lon="3.7487040798582836"><ele>102.66666666666666</ele><time>2026-04-26T08:50:39.969Z</time></trkpt><trkpt lat="43.59431942185363" lon="3.7487804409972245"><ele>102.33333333333333</ele><time>2026-04-26T08:50:40.97Z</time></trkpt><trkpt lat="43.59426407614811" lon="3.748850326373825"><ele>102.0</ele><time>2026-04-26T08:50:41.97Z</time></trkpt><trkpt lat="43.594203555248036" lon="3.7489177740040684"><ele>102.0</ele><time>2026-04-26T08:50:42.97Z</time></trkpt><trkpt lat="43.594155523206766" lon="3.748983618485264"><ele>102.0</ele><time>2026-04-26T08:50:43.97Z</time></trkpt><trkpt lat="43.59410917619558" lon="3.749045752586616"><ele>102.0</ele><time>2026-04-26T08:50:44.969Z</time></trkpt><trkpt lat="43.59404821056549" lon="3.749105441970964"><ele>102.0</ele><time>2026-04-26T08:50:45.969Z</time></trkpt><trkpt lat="43.59399364057156" lon="3.7491751776018036"><ele>102.0</ele><time>2026-04-26T08:50:46.969Z</time></trkpt><trkpt lat="43.59394312979254" lon="3.74924060086083"><ele>102.0</ele><time>2026-04-26T08:50:47.969Z</time></trkpt><trkpt lat="43.59389181210148" lon="3.7492989673726154"><ele>102.0</ele><time>2026-04-26T08:50:48.969Z</time></trkpt><trkpt lat="43.59384486832605" lon="3.7493611893926664"><ele>102.5</ele><time>2026-04-26T08:50:49.969Z</time></trkpt><trkpt lat="43.593794478208714" lon="3.749421502590831"><ele>103.0</ele><time>2026-04-26T08:50:50.969Z</time></trkpt><trkpt lat="43.59371235406178" lon="3.7495342741936484"><ele>103.5</ele><time>2026-04-26T08:50:52.969Z</time></trkpt><trkpt lat="43.59365513963675" lon="3.749587797226846"><ele>104.0</ele><time>2026-04-26T08:50:53.969Z</time></trkpt><trkpt lat="43.59360321398711" lon="3.7496389754022164"><ele>104.5</ele><time>2026-04-26T08:50:54.969Z</time></trkpt><trkpt lat="43.59352237987858" lon="3.7497422873555717"><ele>105.0</ele><time>2026-04-26T08:50:56.969Z</time></trkpt><trkpt lat="43.59347764539191" lon="3.7498104953913636"><ele>103.8</ele><time>2026-04-26T08:50:57.969Z</time></trkpt><trkpt lat="43.59337805828228" lon="3.749931339735578"><ele>102.6</ele><time>2026-04-26T08:50:59.969Z</time></trkpt><trkpt lat="43.593327986246706" lon="3.749991390358053"><ele>101.4</ele><time>2026-04-26T08:51:00.969Z</time></trkpt><trkpt lat="43.593227142003705" lon="3.7501182926052756"><ele>100.2</ele><time>2026-04-26T08:51:02.969Z</time></trkpt><trkpt lat="43.5931598862037" lon="3.750180022267533"><ele>99.0</ele><time>2026-04-26T08:51:03.969Z</time></trkpt><trkpt lat="43.59310940017464" lon="3.7502425645817246"><ele>99.0</ele><time>2026-04-26T08:51:04.969Z</time></trkpt><trkpt lat="43.5930448171641" lon="3.750314129856594"><ele>99.0</ele><time>2026-04-26T08:51:05.969Z</time></trkpt><trkpt lat="43.59298144941982" lon="3.750386246078114"><ele>99.0</ele><time>2026-04-26T08:51:06.969Z</time></trkpt><trkpt lat="43.59292508337037" lon="3.750468404850186"><ele>99.0</ele><time>2026-04-26T08:51:07.969Z</time></trkpt><trkpt lat="43.592851690669896" lon="3.750517847048408"><ele>99.0</ele><time>2026-04-26T08:51:08.969Z</time></trkpt><trkpt lat="43.59277040600712" lon="3.7505763601383872"><ele>99.0</ele><time>2026-04-26T08:51:09.969Z</time></trkpt><trkpt lat="43.59270500890923" lon="3.7506290427239652"><ele>98.5</ele><time>2026-04-26T08:51:10.969Z</time></trkpt><trkpt lat="43.5926225261489" lon="3.750668769935196"><ele>98.0</ele><time>2026-04-26T08:51:11.969Z</time></trkpt><trkpt lat="43.592549702464765" lon="3.7507034123703917"><ele>97.5</ele><time>2026-04-26T08:51:12.969Z</time></trkpt><trkpt lat="43.592462410028624" lon="3.750771735572649"><ele>97.0</ele><time>2026-04-26T08:51:13.969Z</time></trkpt><trkpt lat="43.59238518311623" lon="3.7508164344267594"><ele>96.5</ele><time>2026-04-26T08:51:14.969Z</time></trkpt><trkpt lat="43.59230686997568" lon="3.7508502558551506"><ele>96.0</ele><time>2026-04-26T08:51:15.969Z</time></trkpt><trkpt lat="43.592230579076606" lon="3.750881481432895"><ele>96.0</ele><time>2026-04-26T08:51:16.969Z</time></trkpt><trkpt lat="43.592150220740585" lon="3.7509213001295683"><ele>96.0</ele><time>2026-04-26T08:51:17.969Z</time></trkpt><trkpt lat="43.59208319627442" lon="3.750965885263987"><ele>96.0</ele><time>2026-04-26T08:51:18.969Z</time></trkpt><trkpt lat="43.59201481109302" lon="3.7509933098853736"><ele>96.0</ele><time>2026-04-26T08:51:19.969Z</time></trkpt><trkpt lat="43.59193511603237" lon="3.7510279686293573"><ele>96.0</ele><time>2026-04-26T08:51:20.969Z</time></trkpt><trkpt lat="43.59186825539755" lon="3.7510741849232865"><ele>96.0</ele><time>2026-04-26T08:51:21.969Z</time></trkpt><trkpt lat="43.59175041586682" lon="3.7511438121993943"><ele>96.4</ele><time>2026-04-26T08:51:23.969Z</time></trkpt><trkpt lat="43.591688492803065" lon="3.751167298050395"><ele>96.8</ele><time>2026-04-26T08:51:24.969Z</time></trkpt><trkpt lat="43.59158098324166" lon="3.7512435800437403"><ele>97.2</ele><time>2026-04-26T08:51:26.969Z</time></trkpt><trkpt lat="43.59147438889989" lon="3.7513030710936492"><ele>97.60000000000001</ele><time>2026-04-26T08:51:28.969Z</time></trkpt><trkpt lat="43.591364771089935" lon="3.7513616891931183"><ele>98.0</ele><time>2026-04-26T08:51:30.969Z</time></trkpt><trkpt lat="43.59126216548186" lon="3.751421039079727"><ele>98.0</ele><time>2026-04-26T08:51:32.969Z</time></trkpt><trkpt lat="43.59117487562546" lon="3.7514882283772315"><ele>98.0</ele><time>2026-04-26T08:51:34.969Z</time></trkpt><trkpt lat="43.591072664705976" lon="3.7515594073460345"><ele>98.0</ele><time>2026-04-26T08:51:36.969Z</time></trkpt><trkpt lat="43.590986956862345" lon="3.751643331824447"><ele>98.0</ele><time>2026-04-26T08:51:38.969Z</time></trkpt><trkpt lat="43.59090351855224" lon="3.751733838740239"><ele>98.0</ele><time>2026-04-26T08:51:40.969Z</time></trkpt><trkpt lat="43.59082934497393" lon="3.7518116547049853"><ele>98.2</ele><time>2026-04-26T08:51:42.969Z</time></trkpt><trkpt lat="43.590751945949435" lon="3.751907314004974"><ele>98.4</ele><time>2026-04-26T08:51:44.969Z</time></trkpt><trkpt lat="43.590682112811415" lon="3.7519969860255835"><ele>98.60000000000001</ele><time>2026-04-26T08:51:46.969Z</time></trkpt><trkpt lat="43.59060706280385" lon="3.7520772945477923"><ele>98.80000000000001</ele><time>2026-04-26T08:51:48.969Z</time></trkpt><trkpt lat="43.59053773351851" lon="3.7521611439056666"><ele>99.0</ele><time>2026-04-26T08:51:50.969Z</time></trkpt><trkpt lat="43.59047231696413" lon="3.7522674381037966"><ele>99.0</ele><time>2026-04-26T08:51:52.969Z</time></trkpt><trkpt lat="43.59039941247392" lon="3.7523636906602396"><ele>99.0</ele><time>2026-04-26T08:51:54.969Z</time></trkpt><trkpt lat="43.590319950824586" lon="3.7524620663145942"><ele>99.0</ele><time>2026-04-26T08:51:56.969Z</time></trkpt><trkpt lat="43.590239095651114" lon="3.752573295432132"><ele>99.0</ele><time>2026-04-26T08:51:58.969Z</time></trkpt><trkpt lat="43.59016018313977" lon="3.7526720933283104"><ele>99.0</ele><time>2026-04-26T08:52:00.969Z</time></trkpt><trkpt lat="43.59008933286648" lon="3.752770925834805"><ele>98.5</ele><time>2026-04-26T08:52:02.969Z</time></trkpt><trkpt lat="43.590039836787575" lon="3.7528295284894115"><ele>98.0</ele><time>2026-04-26T08:52:03.969Z</time></trkpt><trkpt lat="43.589995384179886" lon="3.7528916406860002"><ele>97.5</ele><time>2026-04-26T08:52:04.969Z</time></trkpt><trkpt lat="43.58991033957241" lon="3.753006406444589"><ele>97.0</ele><time>2026-04-26T08:52:06.969Z</time></trkpt><trkpt lat="43.58986069155513" lon="3.753074064913508"><ele>96.5</ele><time>2026-04-26T08:52:07.969Z</time></trkpt><trkpt lat="43.58981102693865" lon="3.753149241518498"><ele>96.0</ele><time>2026-04-26T08:52:08.969Z</time></trkpt><trkpt lat="43.58975415069388" lon="3.753194434601048"><ele>96.0</ele><time>2026-04-26T08:52:09.969Z</time></trkpt><trkpt lat="43.589706339040056" lon="3.7532786567150915"><ele>96.0</ele><time>2026-04-26T08:52:10.969Z</time></trkpt><trkpt lat="43.58965116661851" lon="3.7533599141609923"><ele>96.0</ele><time>2026-04-26T08:52:11.969Z</time></trkpt><trkpt lat="43.58959007638756" lon="3.7534138106825545"><ele>96.0</ele><time>2026-04-26T08:52:12.969Z</time></trkpt><trkpt lat="43.58951721187425" lon="3.753484346167112"><ele>96.0</ele><time>2026-04-26T08:52:13.969Z</time></trkpt><trkpt lat="43.589444191051534" lon="3.7535244622921935"><ele>96.0</ele><time>2026-04-26T08:52:14.969Z</time></trkpt><trkpt lat="43.58935814522311" lon="3.7535288775303592"><ele>95.16666666666667</ele><time>2026-04-26T08:52:15.968Z</time></trkpt><trkpt lat="43.5892614158508" lon="3.7534963338477128"><ele>94.33333333333333</ele><time>2026-04-26T08:52:16.968Z</time></trkpt><trkpt lat="43.58917831836965" lon="3.7534349329237635"><ele>93.5</ele><time>2026-04-26T08:52:17.968Z</time></trkpt><trkpt lat="43.58912315250932" lon="3.7533547950594173"><ele>92.66666666666666</ele><time>2026-04-26T08:52:18.968Z</time></trkpt><trkpt lat="43.58907048236202" lon="3.753283749768326"><ele>91.83333333333333</ele><time>2026-04-26T08:52:19.968Z</time></trkpt><trkpt lat="43.58899726986469" lon="3.7531953851122406"><ele>91.0</ele><time>2026-04-26T08:52:20.968Z</time></trkpt><trkpt lat="43.5889249246149" lon="3.753111835234675"><ele>91.0</ele><time>2026-04-26T08:52:21.968Z</time></trkpt><trkpt lat="43.58886367291769" lon="3.7530322607696247"><ele>91.0</ele><time>2026-04-26T08:52:22.968Z</time></trkpt><trkpt lat="43.588799751757065" lon="3.7529576767084816"><ele>91.0</ele><time>2026-04-26T08:52:23.968Z</time></trkpt><trkpt lat="43.58873695362377" lon="3.752883561485138"><ele>91.0</ele><time>2026-04-26T08:52:24.968Z</time></trkpt><trkpt lat="43.588671362335056" lon="3.7528041714682137"><ele>91.0</ele><time>2026-04-26T08:52:25.968Z</time></trkpt><trkpt lat="43.58860478591433" lon="3.752728508171182"><ele>91.0</ele><time>2026-04-26T08:52:26.968Z</time></trkpt><trkpt lat="43.58853010319658" lon="3.7526584763353164"><ele>89.83333333333333</ele><time>2026-04-26T08:52:27.968Z</time></trkpt><trkpt lat="43.58844993517738" lon="3.752618878342724"><ele>88.66666666666666</ele><time>2026-04-26T08:52:28.968Z</time></trkpt><trkpt lat="43.58836579990059" lon="3.7525847178211356"><ele>87.5</ele><time>2026-04-26T08:52:29.968Z</time></trkpt><trkpt lat="43.58827546050055" lon="3.752573543821811"><ele>86.33333333333333</ele><time>2026-04-26T08:52:30.968Z</time></trkpt><trkpt lat="43.58818479796972" lon="3.7525848933555324"><ele>85.16666666666667</ele><time>2026-04-26T08:52:31.968Z</time></trkpt><trkpt lat="43.588099607929756" lon="3.7526189140411366"><ele>84.0</ele><time>2026-04-26T08:52:32.968Z</time></trkpt><trkpt lat="43.58801263084429" lon="3.7526561074421556"><ele>84.0</ele><time>2026-04-26T08:52:33.968Z</time></trkpt><trkpt lat="43.58792633957529" lon="3.7526901211548207"><ele>84.0</ele><time>2026-04-26T08:52:34.968Z</time></trkpt><trkpt lat="43.58783129002472" lon="3.752738921979206"><ele>84.0</ele><time>2026-04-26T08:52:35.968Z</time></trkpt><trkpt lat="43.58774626132872" lon="3.7527785643585863"><ele>84.0</ele><time>2026-04-26T08:52:36.968Z</time></trkpt><trkpt lat="43.58765505392737" lon="3.7528106255993343"><ele>84.0</ele><time>2026-04-26T08:52:37.968Z</time></trkpt><trkpt lat="43.587563927997174" lon="3.7528578339459036"><ele>83.4</ele><time>2026-04-26T08:52:38.968Z</time></trkpt><trkpt lat="43.58747645055836" lon="3.752898595001146"><ele>82.80000000000001</ele><time>2026-04-26T08:52:39.968Z</time></trkpt><trkpt lat="43.58738224825286" lon="3.7529487122047165"><ele>82.19999999999999</ele><time>2026-04-26T08:52:40.968Z</time></trkpt><trkpt lat="43.58729567260767" lon="3.753012611912367"><ele>81.6</ele><time>2026-04-26T08:52:41.968Z</time></trkpt><trkpt lat="43.58722019839022" lon="3.7530976950801542"><ele>81.0</ele><time>2026-04-26T08:52:42.968Z</time></trkpt><trkpt lat="43.587152939714244" lon="3.7531957016880355"><ele>81.0</ele><time>2026-04-26T08:52:43.969Z</time></trkpt><trkpt lat="43.58710398734117" lon="3.75330215012103"><ele>81.0</ele><time>2026-04-26T08:52:44.969Z</time></trkpt><trkpt lat="43.58708342701936" lon="3.7534426615467886"><ele>81.0</ele><time>2026-04-26T08:52:45.969Z</time></trkpt><trkpt lat="43.58705464610309" lon="3.7535719320859666"><ele>81.0</ele><time>2026-04-26T08:52:46.969Z</time></trkpt><trkpt lat="43.5870398668354" lon="3.7537083989818054"><ele>81.0</ele><time>2026-04-26T08:52:47.969Z</time></trkpt><trkpt lat="43.587023825948016" lon="3.7538550873395167"><ele>81.6</ele><time>2026-04-26T08:52:48.969Z</time></trkpt><trkpt lat="43.58701840445535" lon="3.753994346550277"><ele>82.19999999999999</ele><time>2026-04-26T08:52:49.969Z</time></trkpt><trkpt lat="43.58699739247811" lon="3.7541386125357694"><ele>82.80000000000001</ele><time>2026-04-26T08:52:50.968Z</time></trkpt><trkpt lat="43.58697401776377" lon="3.7542904079223116"><ele>83.4</ele><time>2026-04-26T08:52:51.968Z</time></trkpt><trkpt lat="43.58694063469758" lon="3.7544224186624557"><ele>84.0</ele><time>2026-04-26T08:52:52.969Z</time></trkpt><trkpt lat="43.58689822803111" lon="3.7545472781194915"><ele>81.0</ele><time>2026-04-26T08:52:53.968Z</time></trkpt><trkpt lat="43.58682986948998" lon="3.7546628087797496"><ele>78.0</ele><time>2026-04-26T08:52:54.968Z</time></trkpt><trkpt lat="43.58676865432396" lon="3.754787830048845"><ele>75.0</ele><time>2026-04-26T08:52:55.969Z</time></trkpt><trkpt lat="43.58670315984705" lon="3.7549052978256547"><ele>72.0</ele><time>2026-04-26T08:52:56.969Z</time></trkpt><trkpt lat="43.586635123074146" lon="3.7550160491359255"><ele>69.0</ele><time>2026-04-26T08:52:57.969Z</time></trkpt><trkpt lat="43.58656041196687" lon="3.755125276171827"><ele>68.8</ele><time>2026-04-26T08:52:58.969Z</time></trkpt><trkpt lat="43.58648413456898" lon="3.755219416316903"><ele>68.60000000000001</ele><time>2026-04-26T08:52:59.969Z</time></trkpt><trkpt lat="43.586402392897995" lon="3.755306543105143"><ele>68.4</ele><time>2026-04-26T08:53:00.969Z</time></trkpt><trkpt lat="43.58630772603577" lon="3.7553827213771247"><ele>68.2</ele><time>2026-04-26T08:53:01.969Z</time></trkpt><trkpt lat="43.586218576900905" lon="3.7554588738663766"><ele>68.0</ele><time>2026-04-26T08:53:02.969Z</time></trkpt><trkpt lat="43.58611694698555" lon="3.7555046856977556"><ele>68.0</ele><time>2026-04-26T08:53:03.969Z</time></trkpt><trkpt lat="43.586019178110845" lon="3.7555674803908126"><ele>68.0</ele><time>2026-04-26T08:53:04.969Z</time></trkpt><trkpt lat="43.58592531693814" lon="3.7556257316082413"><ele>68.0</ele><time>2026-04-26T08:53:05.969Z</time></trkpt><trkpt lat="43.58582530152966" lon="3.7556690533164856"><ele>68.0</ele><time>2026-04-26T08:53:06.969Z</time></trkpt><trkpt lat="43.58572880111798" lon="3.755725698858595"><ele>68.0</ele><time>2026-04-26T08:53:07.969Z</time></trkpt><trkpt lat="43.58563944268719" lon="3.755796917992483"><ele>68.0</ele><time>2026-04-26T08:53:08.969Z</time></trkpt><trkpt lat="43.58554603517599" lon="3.7558609761198682"><ele>68.0</ele><time>2026-04-26T08:53:09.969Z</time></trkpt><trkpt lat="43.58545063382674" lon="3.7559258193334903"><ele>68.0</ele><time>2026-04-26T08:53:10.969Z</time></trkpt><trkpt lat="43.58536894992932" lon="3.7560127015710787"><ele>68.0</ele><time>2026-04-26T08:53:11.969Z</time></trkpt><trkpt lat="43.58528118715106" lon="3.756090670239765"><ele>68.0</ele><time>2026-04-26T08:53:12.969Z</time></trkpt><trkpt lat="43.58519819215357" lon="3.7561786867145237"><ele>66.0</ele><time>2026-04-26T08:53:13.969Z</time></trkpt><trkpt lat="43.585136579563276" lon="3.756281992796522"><ele>64.0</ele><time>2026-04-26T08:53:14.969Z</time></trkpt><trkpt lat="43.58508026555528" lon="3.756391486533392"><ele>62.0</ele><time>2026-04-26T08:53:15.969Z</time></trkpt><trkpt lat="43.58504424465528" lon="3.756523212961457"><ele>60.0</ele><time>2026-04-26T08:53:16.969Z</time></trkpt><trkpt lat="43.58500632857107" lon="3.756650425770303"><ele>58.0</ele><time>2026-04-26T08:53:17.969Z</time></trkpt><trkpt lat="43.584975089325944" lon="3.756739717195234"><ele>57.666666666666664</ele><time>2026-04-26T08:53:18.969Z</time></trkpt><trkpt lat="43.584958631937035" lon="3.756875577253627"><ele>57.33333333333333</ele><time>2026-04-26T08:53:20.969Z</time></trkpt><trkpt lat="43.58492624267462" lon="3.756950917223043"><ele>57.0</ele><time>2026-04-26T08:53:21.969Z</time></trkpt><trkpt lat="43.58490159870377" lon="3.7570328155108363"><ele>56.66666666666667</ele><time>2026-04-26T08:53:22.969Z</time></trkpt><trkpt lat="43.58488157229853" lon="3.7571364262596956"><ele>56.333333333333336</ele><time>2026-04-26T08:53:24.969Z</time></trkpt><trkpt lat="43.58485532030903" lon="3.757271429308531"><ele>56.0</ele><time>2026-04-26T08:53:25.969Z</time></trkpt><trkpt lat="43.584835149264954" lon="3.757361566152378"><ele>56.00000000000001</ele><time>2026-04-26T08:53:26.969Z</time></trkpt><trkpt lat="43.58480369110158" lon="3.757446538318378"><ele>56.0</ele><time>2026-04-26T08:53:27.969Z</time></trkpt><trkpt lat="43.584758535485705" lon="3.757512321292781"><ele>56.0</ele><time>2026-04-26T08:53:28.969Z</time></trkpt><trkpt lat="43.58465623234986" lon="3.757567478544711"><ele>56.0</ele><time>2026-04-26T08:53:30.969Z</time></trkpt><trkpt lat="43.58459452357344" lon="3.757521344260722"><ele>56.00000000000001</ele><time>2026-04-26T08:53:31.969Z</time></trkpt><trkpt lat="43.5845503358304" lon="3.757434676075952"><ele>56.0</ele><time>2026-04-26T08:53:32.969Z</time></trkpt><trkpt lat="43.584516125292446" lon="3.75735867221796"><ele>55.599999999999994</ele><time>2026-04-26T08:53:33.969Z</time></trkpt><trkpt lat="43.58448741350745" lon="3.757226378119795"><ele>55.199999999999996</ele><time>2026-04-26T08:53:35.969Z</time></trkpt><trkpt lat="43.584439006717545" lon="3.7571057565677752"><ele>54.800000000000004</ele><time>2026-04-26T08:53:37.969Z</time></trkpt><trkpt lat="43.584399249959205" lon="3.7570015313267167"><ele>54.400000000000006</ele><time>2026-04-26T08:53:39.969Z</time></trkpt><trkpt lat="43.584343292326224" lon="3.7568729514897363"><ele>54.0</ele><time>2026-04-26T08:53:41.969Z</time></trkpt><trkpt lat="43.58428564937464" lon="3.756772882332633"><ele>54.0</ele><time>2026-04-26T08:53:43.969Z</time></trkpt><trkpt lat="43.58424298377993" lon="3.7566679493314723"><ele>54.0</ele><time>2026-04-26T08:53:45.969Z</time></trkpt><trkpt lat="43.584187477675755" lon="3.756557088993949"><ele>54.0</ele><time>2026-04-26T08:53:47.969Z</time></trkpt><trkpt lat="43.58414651784983" lon="3.756464195530316"><ele>54.0</ele><time>2026-04-26T08:53:49.969Z</time></trkpt><trkpt lat="43.584119882909505" lon="3.756367572971931"><ele>54.0</ele><time>2026-04-26T08:53:51.969Z</time></trkpt><trkpt lat="43.58408018929401" lon="3.756295844508463"><ele>54.0</ele><time>2026-04-26T08:53:53.969Z</time></trkpt><trkpt lat="43.58403667344599" lon="3.7561951094440196"><ele>54.0</ele><time>2026-04-26T08:53:55.969Z</time></trkpt><trkpt lat="43.583988786219756" lon="3.7561017980993503"><ele>54.0</ele><time>2026-04-26T08:53:57.969Z</time></trkpt><trkpt lat="43.58395186258784" lon="3.7560177726314383"><ele>54.0</ele><time>2026-04-26T08:53:59.969Z</time></trkpt><trkpt lat="43.58392121838721" lon="3.75590874091233"><ele>54.0</ele><time>2026-04-26T08:54:01.969Z</time></trkpt><trkpt lat="43.58389463242729" lon="3.755820514579787"><ele>54.0</ele><time>2026-04-26T08:54:03.969Z</time></trkpt><trkpt lat="43.583848038504954" lon="3.7557372919096763"><ele>54.0</ele><time>2026-04-26T08:54:05.969Z</time></trkpt><trkpt lat="43.583812565822086" lon="3.7556413712479686"><ele>54.0</ele><time>2026-04-26T08:54:07.969Z</time></trkpt><trkpt lat="43.58376152267772" lon="3.755565565083199"><ele>54.0</ele><time>2026-04-26T08:54:09.968Z</time></trkpt><trkpt lat="43.583726091584616" lon="3.7554573804171882"><ele>54.0</ele><time>2026-04-26T08:54:11.968Z</time></trkpt><trkpt lat="43.583679779538954" lon="3.7553335554076095"><ele>54.0</ele><time>2026-04-26T08:54:14.968Z</time></trkpt><trkpt lat="43.58363405973822" lon="3.755237828947392"><ele>54.0</ele><time>2026-04-26T08:54:16.968Z</time></trkpt><trkpt lat="43.583587963440664" lon="3.7551698708600876"><ele>54.0</ele><time>2026-04-26T08:54:18.968Z</time></trkpt><trkpt lat="43.58352995279822" lon="3.7551075702687107"><ele>54.0</ele><time>2026-04-26T08:54:20.968Z</time></trkpt><trkpt lat="43.5834851037894" lon="3.7551894481130526"><ele>54.0</ele><time>2026-04-26T08:54:23.968Z</time></trkpt><trkpt lat="43.58349469469547" lon="3.7553276895681442"><ele>54.0</ele><time>2026-04-26T08:54:26.968Z</time></trkpt><trkpt lat="43.58351290913135" lon="3.7554161761870275"><ele>54.0</ele><time>2026-04-26T08:54:28.968Z</time></trkpt><trkpt lat="43.583572354625495" lon="3.755525034732869"><ele>54.0</ele><time>2026-04-26T08:54:30.968Z</time></trkpt><trkpt lat="43.58364684503865" lon="3.7555697274074804"><ele>54.0</ele><time>2026-04-26T08:54:32.968Z</time></trkpt><trkpt lat="43.58369724737802" lon="3.755648030558557"><ele>54.0</ele><time>2026-04-26T08:54:34.968Z</time></trkpt><trkpt lat="43.58375042554492" lon="3.755708831132308"><ele>54.0</ele><time>2026-04-26T08:54:36.968Z</time></trkpt><trkpt lat="43.58380024871911" lon="3.7557831605008207"><ele>54.0</ele><time>2026-04-26T08:54:38.968Z</time></trkpt><trkpt lat="43.58384119010007" lon="3.7558656484065693"><ele>54.0</ele><time>2026-04-26T08:54:40.968Z</time></trkpt><trkpt lat="43.58388051604724" lon="3.7559525946579875"><ele>54.0</ele><time>2026-04-26T08:54:42.968Z</time></trkpt><trkpt lat="43.583921138506376" lon="3.7560526678484427"><ele>54.0</ele><time>2026-04-26T08:54:44.968Z</time></trkpt><trkpt lat="43.58396081495578" lon="3.75614275221808"><ele>54.0</ele><time>2026-04-26T08:54:46.968Z</time></trkpt><trkpt lat="43.58400359192236" lon="3.756243346803356"><ele>54.0</ele><time>2026-04-26T08:54:48.968Z</time></trkpt><trkpt lat="43.58405338920591" lon="3.756328694611841"><ele>54.0</ele><time>2026-04-26T08:54:50.968Z</time></trkpt><trkpt lat="43.58407970953787" lon="3.7564298893372072"><ele>54.0</ele><time>2026-04-26T08:54:52.968Z</time></trkpt><trkpt lat="43.58412489178137" lon="3.756533183801691"><ele>54.0</ele><time>2026-04-26T08:54:54.968Z</time></trkpt><trkpt lat="43.58418056527485" lon="3.756636874413135"><ele>54.0</ele><time>2026-04-26T08:54:56.968Z</time></trkpt><trkpt lat="43.58421180109869" lon="3.756764843115689"><ele>54.0</ele><time>2026-04-26T08:54:58.968Z</time></trkpt><trkpt lat="43.58426699294549" lon="3.756869333635059"><ele>53.800000000000004</ele><time>2026-04-26T08:55:00.968Z</time></trkpt><trkpt lat="43.584316779970905" lon="3.756961675532485"><ele>53.60000000000001</ele><time>2026-04-26T08:55:02.968Z</time></trkpt><trkpt lat="43.58436287907296" lon="3.7570726332894493"><ele>53.4</ele><time>2026-04-26T08:55:04.968Z</time></trkpt><trkpt lat="43.58440397401232" lon="3.7571902898668057"><ele>53.2</ele><time>2026-04-26T08:55:06.968Z</time></trkpt><trkpt lat="43.5844627366721" lon="3.757294307644541"><ele>53.0</ele><time>2026-04-26T08:55:08.968Z</time></trkpt><trkpt lat="43.584517420326556" lon="3.757408569207128"><ele>53.333333333333336</ele><time>2026-04-26T08:55:10.968Z</time></trkpt><trkpt lat="43.58456374529835" lon="3.7575157488228514"><ele>53.66666666666667</ele><time>2026-04-26T08:55:12.968Z</time></trkpt><trkpt lat="43.58463396465866" lon="3.7575837353175725"><ele>54.0</ele><time>2026-04-26T08:55:14.968Z</time></trkpt><trkpt lat="43.58466418261207" lon="3.7577031859400543"><ele>54.33333333333333</ele><time>2026-04-26T08:55:16.968Z</time></trkpt><trkpt lat="43.58470748887635" lon="3.7578316709406585"><ele>54.666666666666664</ele><time>2026-04-26T08:55:18.968Z</time></trkpt><trkpt lat="43.58475101512857" lon="3.7578963049844814"><ele>55.0</ele><time>2026-04-26T08:55:20.968Z</time></trkpt><trkpt lat="43.58479681076706" lon="3.7579759659727636"><ele>55.0</ele><time>2026-04-26T08:55:22.968Z</time></trkpt><trkpt lat="43.58486765506458" lon="3.7580795214858838"><ele>55.0</ele><time>2026-04-26T08:55:24.968Z</time></trkpt><trkpt lat="43.58490487341531" lon="3.7581760787520864"><ele>55.0</ele><time>2026-04-26T08:55:26.968Z</time></trkpt><trkpt lat="43.58496684263985" lon="3.758279436391505"><ele>55.0</ele><time>2026-04-26T08:55:28.968Z</time></trkpt><trkpt lat="43.58501910977833" lon="3.758385875762867"><ele>55.0</ele><time>2026-04-26T08:55:30.968Z</time></trkpt><trkpt lat="43.58507207770853" lon="3.7584915460286967"><ele>54.6</ele><time>2026-04-26T08:55:32.968Z</time></trkpt><trkpt lat="43.58513665521099" lon="3.758616429786855"><ele>54.2</ele><time>2026-04-26T08:55:34.968Z</time></trkpt><trkpt lat="43.5851971057054" lon="3.7587041581080514"><ele>53.8</ele><time>2026-04-26T08:55:36.968Z</time></trkpt><trkpt lat="43.585252709444525" lon="3.7588266576057854"><ele>53.4</ele><time>2026-04-26T08:55:38.968Z</time></trkpt><trkpt lat="43.58529902910358" lon="3.7589049892430753"><ele>53.0</ele><time>2026-04-26T08:55:40.968Z</time></trkpt><trkpt lat="43.58535610844728" lon="3.759005961584633"><ele>53.2</ele><time>2026-04-26T08:55:42.968Z</time></trkpt><trkpt lat="43.58540488747508" lon="3.759118977967469"><ele>53.4</ele><time>2026-04-26T08:55:44.968Z</time></trkpt><trkpt lat="43.585451644137144" lon="3.759225444697065"><ele>53.60000000000001</ele><time>2026-04-26T08:55:46.968Z</time></trkpt><trkpt lat="43.585504828564446" lon="3.7593384912140677"><ele>53.800000000000004</ele><time>2026-04-26T08:55:48.968Z</time></trkpt><trkpt lat="43.585545121720884" lon="3.759440702122511"><ele>54.0</ele><time>2026-04-26T08:55:50.968Z</time></trkpt><trkpt lat="43.58561773118182" lon="3.759539718951719"><ele>54.0</ele><time>2026-04-26T08:55:52.968Z</time></trkpt><trkpt lat="43.58564652304738" lon="3.7596672230625776"><ele>54.00000000000001</ele><time>2026-04-26T08:55:54.968Z</time></trkpt><trkpt lat="43.58570348452724" lon="3.7597815980932308"><ele>54.00000000000001</ele><time>2026-04-26T08:55:56.968Z</time></trkpt><trkpt lat="43.58574995347135" lon="3.759890199845252"><ele>54.0</ele><time>2026-04-26T08:55:58.968Z</time></trkpt><trkpt lat="43.58579879281331" lon="3.759999324547874"><ele>54.0</ele><time>2026-04-26T08:56:00.968Z</time></trkpt><trkpt lat="43.585836799781035" lon="3.7600955601336747"><ele>54.0</ele><time>2026-04-26T08:56:02.968Z</time></trkpt><trkpt lat="43.58584235291888" lon="3.7601914007032553"><ele>54.0</ele><time>2026-04-26T08:56:03.968Z</time></trkpt><trkpt lat="43.585799625682014" lon="3.7603017099412384"><ele>52.0</ele><time>2026-04-26T08:56:05.968Z</time></trkpt><trkpt lat="43.58574697769247" lon="3.7604291780291557"><ele>52.0</ele><time>2026-04-26T08:56:07.968Z</time></trkpt><trkpt lat="43.585734136356116" lon="3.7605610056601555"><ele>52.0</ele><time>2026-04-26T08:56:09.968Z</time></trkpt></trkseg></trk></gpx>